<?xml version='1.0' encoding='UTF-8'?><gpx version="1.1" creator="JPX - https://github.com/jenetics/jpx" xmlns="http://www.topografix.com/GPX/1/1"><trk><trkseg><trkpt lat="45.051985559781215" lon="9.597563865138843"><ele>59.00000000000001</ele><time>2026-03-31T08:31:28.317Z</time></trkpt><trkpt lat="45.05197531504259" lon="9.597471127141063"><ele>59.0</ele><time>2026-03-31T08:31:37.985Z</time></trkpt><trkpt lat="45.051978666199496" lon="9.59734116147943"><ele>59.0</ele><time>2026-03-31T08:31:42.99Z</time></trkpt><trkpt lat="45.05198956433764" lon="9.597229525949512"><ele>59.0</ele><time>2026-03-31T08:31:44.991Z</time></trkpt><trkpt lat="45.05201989785741" lon="9.597073236489017"><ele>59.00000000000001</ele><time>2026-03-31T08:31:47.993Z</time></trkpt><trkpt lat="45.05208707879566" lon="9.597062415208205"><ele>59.0</ele><time>2026-03-31T08:31:49.994Z</time></trkpt><trkpt lat="45.05217580226613" lon="9.597034602297484"><ele>59.00000000000001</ele><time>2026-03-31T08:31:52.995Z</time></trkpt><trkpt lat="45.05227404363613" lon="9.597036185007527"><ele>59.0</ele><time>2026-03-31T08:31:55.997Z</time></trkpt><trkpt lat="45.05232714705452" lon="9.596965966421273"><ele>59.0</ele><time>2026-03-31T08:31:57.997Z</time></trkpt><trkpt lat="45.05231535962297" lon="9.596844903346"><ele>59.0</ele><time>2026-03-31T08:31:59.998Z</time></trkpt><trkpt lat="45.05229206387401" lon="9.596727884173923"><ele>59.00000000000001</ele><time>2026-03-31T08:32:01.998Z</time></trkpt><trkpt lat="45.05227226058271" lon="9.596601007334876"><ele>59.0</ele><time>2026-03-31T08:32:03.999Z</time></trkpt><trkpt lat="45.052239379018665" lon="9.596485383011029"><ele>59.16666666666667</ele><time>2026-03-31T08:32:05.999Z</time></trkpt><trkpt lat="45.05221862372437" lon="9.596349436024544"><ele>59.333333333333336</ele><time>2026-03-31T08:32:07.999Z</time></trkpt><trkpt lat="45.05219546503204" lon="9.596236097733156"><ele>59.5</ele><time>2026-03-31T08:32:10Z</time></trkpt><trkpt lat="45.05217446707432" lon="9.59612793124889"><ele>59.66666666666667</ele><time>2026-03-31T08:32:12Z</time></trkpt><trkpt lat="45.05215703631712" lon="9.596005311652382"><ele>59.833333333333336</ele><time>2026-03-31T08:32:14Z</time></trkpt><trkpt lat="45.05215024406242" lon="9.595885956129392"><ele>60.0</ele><time>2026-03-31T08:32:16Z</time></trkpt><trkpt lat="45.05215605944784" lon="9.595778511089096"><ele>60.0</ele><time>2026-03-31T08:32:18.001Z</time></trkpt><trkpt lat="45.05214648866582" lon="9.59566118284846"><ele>60.0</ele><time>2026-03-31T08:32:20.001Z</time></trkpt><trkpt lat="45.05215125914178" lon="9.595537255357263"><ele>60.0</ele><time>2026-03-31T08:32:22.001Z</time></trkpt><trkpt lat="45.05215413608419" lon="9.595404645354888"><ele>60.0</ele><time>2026-03-31T08:32:24.001Z</time></trkpt><trkpt lat="45.052150780638286" lon="9.59527841128107"><ele>60.0</ele><time>2026-03-31T08:32:26.001Z</time></trkpt><trkpt lat="45.05215170734729" lon="9.595140027207078"><ele>60.0</ele><time>2026-03-31T08:32:28.001Z</time></trkpt><trkpt lat="45.05214958711077" lon="9.595006592372679"><ele>60.0</ele><time>2026-03-31T08:32:30.001Z</time></trkpt><trkpt lat="45.0521542177143" lon="9.594867142987113"><ele>60.0</ele><time>2026-03-31T08:32:32.001Z</time></trkpt><trkpt lat="45.05214903326067" lon="9.594730362962041"><ele>60.0</ele><time>2026-03-31T08:32:34.002Z</time></trkpt><trkpt lat="45.052156294867196" lon="9.594590701976145"><ele>60.0</ele><time>2026-03-31T08:32:36.002Z</time></trkpt><trkpt lat="45.05215193715023" lon="9.59444889541863"><ele>59.8</ele><time>2026-03-31T08:32:38.002Z</time></trkpt><trkpt lat="45.05215719412616" lon="9.594310583796005"><ele>59.6</ele><time>2026-03-31T08:32:40.002Z</time></trkpt><trkpt lat="45.05216095136719" lon="9.594164298183617"><ele>59.400000000000006</ele><time>2026-03-31T08:32:42.002Z</time></trkpt><trkpt lat="45.05216071480373" lon="9.594025730075138"><ele>59.2</ele><time>2026-03-31T08:32:44.002Z</time></trkpt><trkpt lat="45.052164126438846" lon="9.593884273112671"><ele>59.0</ele><time>2026-03-31T08:32:46.002Z</time></trkpt><trkpt lat="45.052165708149154" lon="9.593738196200212"><ele>59.0</ele><time>2026-03-31T08:32:48.002Z</time></trkpt><trkpt lat="45.05216859158687" lon="9.593593680435"><ele>59.00000000000001</ele><time>2026-03-31T08:32:50.002Z</time></trkpt><trkpt lat="45.05216763992718" lon="9.593456130658344"><ele>59.00000000000001</ele><time>2026-03-31T08:32:52.002Z</time></trkpt><trkpt lat="45.05216703678588" lon="9.593314873640615"><ele>59.0</ele><time>2026-03-31T08:32:54.002Z</time></trkpt><trkpt lat="45.052171994184505" lon="9.593176196977977"><ele>59.0</ele><time>2026-03-31T08:32:56.002Z</time></trkpt><trkpt lat="45.052169508474606" lon="9.593035765628992"><ele>59.0</ele><time>2026-03-31T08:32:58.002Z</time></trkpt><trkpt lat="45.05217056942282" lon="9.592898080805687"><ele>59.00000000000001</ele><time>2026-03-31T08:33:00.002Z</time></trkpt><trkpt lat="45.052164479775726" lon="9.592758554984734"><ele>59.00000000000001</ele><time>2026-03-31T08:33:02.002Z</time></trkpt><trkpt lat="45.05216651676874" lon="9.592612086498804"><ele>59.0</ele><time>2026-03-31T08:33:04.002Z</time></trkpt><trkpt lat="45.05215448379559" lon="9.592474692576785"><ele>59.0</ele><time>2026-03-31T08:33:06.002Z</time></trkpt><trkpt lat="45.05214778563324" lon="9.592335601772444"><ele>59.2</ele><time>2026-03-31T08:33:08.002Z</time></trkpt><trkpt lat="45.05213424953354" lon="9.592191472002881"><ele>59.400000000000006</ele><time>2026-03-31T08:33:10.002Z</time></trkpt><trkpt lat="45.052120761676136" lon="9.59204655423245"><ele>59.6</ele><time>2026-03-31T08:33:12.002Z</time></trkpt><trkpt lat="45.052109351452124" lon="9.591909170089744"><ele>59.8</ele><time>2026-03-31T08:33:14.002Z</time></trkpt><trkpt lat="45.052092370163024" lon="9.591768873421188"><ele>60.0</ele><time>2026-03-31T08:33:16.002Z</time></trkpt><trkpt lat="45.05207508131926" lon="9.591623845973693"><ele>60.4</ele><time>2026-03-31T08:33:18.002Z</time></trkpt><trkpt lat="45.052062286990456" lon="9.591480591228596"><ele>60.8</ele><time>2026-03-31T08:33:20.002Z</time></trkpt><trkpt lat="45.052046481231656" lon="9.59133573419541"><ele>61.2</ele><time>2026-03-31T08:33:22.002Z</time></trkpt><trkpt lat="45.052032389984106" lon="9.59118638263727"><ele>61.6</ele><time>2026-03-31T08:33:24.002Z</time></trkpt><trkpt lat="45.05201285274437" lon="9.591046721956168"><ele>62.0</ele><time>2026-03-31T08:33:26.002Z</time></trkpt><trkpt lat="45.052000842603526" lon="9.590899787064425"><ele>62.0</ele><time>2026-03-31T08:33:28.002Z</time></trkpt><trkpt lat="45.05198645512862" lon="9.590760077873378"><ele>62.0</ele><time>2026-03-31T08:33:30.002Z</time></trkpt><trkpt lat="45.05196721698856" lon="9.590613990042568"><ele>62.0</ele><time>2026-03-31T08:33:32.002Z</time></trkpt><trkpt lat="45.051956486468534" lon="9.59047945029628"><ele>62.0</ele><time>2026-03-31T08:33:34.002Z</time></trkpt><trkpt lat="45.05194051228461" lon="9.590336692073848"><ele>62.0</ele><time>2026-03-31T08:33:36.002Z</time></trkpt><trkpt lat="45.05192526332364" lon="9.590200104521683"><ele>61.8</ele><time>2026-03-31T08:33:38.002Z</time></trkpt><trkpt lat="45.05189370875862" lon="9.590059349251222"><ele>61.6</ele><time>2026-03-31T08:33:40.002Z</time></trkpt><trkpt lat="45.05188723930956" lon="9.589914915459184"><ele>61.39999999999999</ele><time>2026-03-31T08:33:42.003Z</time></trkpt><trkpt lat="45.05187775426992" lon="9.589777762765856"><ele>61.199999999999996</ele><time>2026-03-31T08:33:44.003Z</time></trkpt><trkpt lat="45.05187490572617" lon="9.589641065298819"><ele>61.0</ele><time>2026-03-31T08:33:46.003Z</time></trkpt><trkpt lat="45.05185616843917" lon="9.589497450409045"><ele>61.0</ele><time>2026-03-31T08:33:48.003Z</time></trkpt><trkpt lat="45.05183373182972" lon="9.589355891406727"><ele>60.99999999999999</ele><time>2026-03-31T08:33:50.003Z</time></trkpt><trkpt lat="45.05180581651742" lon="9.589218694742948"><ele>60.99999999999999</ele><time>2026-03-31T08:33:52.003Z</time></trkpt><trkpt lat="45.05177162576684" lon="9.589079850265938"><ele>61.0</ele><time>2026-03-31T08:33:54.003Z</time></trkpt><trkpt lat="45.05173039043276" lon="9.588953037544162"><ele>61.0</ele><time>2026-03-31T08:33:56.003Z</time></trkpt><trkpt lat="45.05168719748609" lon="9.588824316619467"><ele>61.0</ele><time>2026-03-31T08:33:58.003Z</time></trkpt><trkpt lat="45.051641087463594" lon="9.588699934293967"><ele>60.99999999999999</ele><time>2026-03-31T08:34:00.003Z</time></trkpt><trkpt lat="45.05156995698498" lon="9.588596044833462"><ele>60.99999999999999</ele><time>2026-03-31T08:34:02.003Z</time></trkpt><trkpt lat="45.051500549959115" lon="9.588491921931752"><ele>61.0</ele><time>2026-03-31T08:34:04.003Z</time></trkpt><trkpt lat="45.05142611988141" lon="9.58839115648819"><ele>61.0</ele><time>2026-03-31T08:34:06.003Z</time></trkpt><trkpt lat="45.05135065402621" lon="9.588295604827577"><ele>61.0</ele><time>2026-03-31T08:34:08.003Z</time></trkpt><trkpt lat="45.051274510727936" lon="9.588201822665654"><ele>60.99999999999999</ele><time>2026-03-31T08:34:10.003Z</time></trkpt><trkpt lat="45.051197513617225" lon="9.588094645606557"><ele>60.99999999999999</ele><time>2026-03-31T08:34:12.003Z</time></trkpt><trkpt lat="45.05112162434382" lon="9.587995771648448"><ele>61.0</ele><time>2026-03-31T08:34:14.003Z</time></trkpt><trkpt lat="45.05105276192032" lon="9.587882345635679"><ele>61.0</ele><time>2026-03-31T08:34:16.003Z</time></trkpt><trkpt lat="45.05098365482701" lon="9.587773461487592"><ele>61.0</ele><time>2026-03-31T08:34:18.003Z</time></trkpt><trkpt lat="45.05091328254331" lon="9.587669423952391"><ele>60.99999999999999</ele><time>2026-03-31T08:34:20.003Z</time></trkpt><trkpt lat="45.05083738804114" lon="9.587570368035829"><ele>60.99999999999999</ele><time>2026-03-31T08:34:22.003Z</time></trkpt><trkpt lat="45.05076398133184" lon="9.587471385255968"><ele>61.0</ele><time>2026-03-31T08:34:24.003Z</time></trkpt><trkpt lat="45.050686477007254" lon="9.587367757594922"><ele>61.0</ele><time>2026-03-31T08:34:26.003Z</time></trkpt><trkpt lat="45.05061194028249" lon="9.587268520149035"><ele>61.199999999999996</ele><time>2026-03-31T08:34:28.003Z</time></trkpt><trkpt lat="45.05053838487554" lon="9.587167963224699"><ele>61.39999999999999</ele><time>2026-03-31T08:34:30.003Z</time></trkpt><trkpt lat="45.05046748695925" lon="9.587075657135813"><ele>61.6</ele><time>2026-03-31T08:34:32.003Z</time></trkpt><trkpt lat="45.050398857113656" lon="9.586965649113091"><ele>61.8</ele><time>2026-03-31T08:34:34.003Z</time></trkpt><trkpt lat="45.05031694325772" lon="9.586863536191405"><ele>62.0</ele><time>2026-03-31T08:34:36.003Z</time></trkpt><trkpt lat="45.05023953123123" lon="9.586760042821853"><ele>61.8</ele><time>2026-03-31T08:34:38.003Z</time></trkpt><trkpt lat="45.05015886406776" lon="9.586658641159957"><ele>61.6</ele><time>2026-03-31T08:34:40.003Z</time></trkpt><trkpt lat="45.05008287585255" lon="9.586554956700514"><ele>61.39999999999999</ele><time>2026-03-31T08:34:42.003Z</time></trkpt><trkpt lat="45.05000085010303" lon="9.586455648828577"><ele>61.199999999999996</ele><time>2026-03-31T08:34:44.003Z</time></trkpt><trkpt lat="45.04992401348555" lon="9.586351642572405"><ele>61.0</ele><time>2026-03-31T08:34:46.003Z</time></trkpt><trkpt lat="45.0498435356868" lon="9.586251811030019"><ele>61.199999999999996</ele><time>2026-03-31T08:34:48.003Z</time></trkpt><trkpt lat="45.04976486537419" lon="9.586149833224354"><ele>61.39999999999999</ele><time>2026-03-31T08:34:50.003Z</time></trkpt><trkpt lat="45.04968890803024" lon="9.58604214897983"><ele>61.6</ele><time>2026-03-31T08:34:52.003Z</time></trkpt><trkpt lat="45.04961355811337" lon="9.585928057302958"><ele>61.8</ele><time>2026-03-31T08:34:54.003Z</time></trkpt><trkpt lat="45.04955695563428" lon="9.585793245542042"><ele>62.0</ele><time>2026-03-31T08:34:56.003Z</time></trkpt><trkpt lat="45.04949755162526" lon="9.585649252416308"><ele>62.0</ele><time>2026-03-31T08:34:58.003Z</time></trkpt><trkpt lat="45.04943620231904" lon="9.585511937320074"><ele>62.0</ele><time>2026-03-31T08:35:00.002Z</time></trkpt><trkpt lat="45.04937670331311" lon="9.585374939766114"><ele>62.0</ele><time>2026-03-31T08:35:02.002Z</time></trkpt><trkpt lat="45.0493170744121" lon="9.585235020699741"><ele>62.0</ele><time>2026-03-31T08:35:04.002Z</time></trkpt><trkpt lat="45.04925840602394" lon="9.585089884613165"><ele>62.25</ele><time>2026-03-31T08:35:06.002Z</time></trkpt><trkpt lat="45.04919862961899" lon="9.584944480459049"><ele>62.5</ele><time>2026-03-31T08:35:08.002Z</time></trkpt><trkpt lat="45.04914538624623" lon="9.584799278771257"><ele>62.75</ele><time>2026-03-31T08:35:10.002Z</time></trkpt><trkpt lat="45.04908315138553" lon="9.584664236697048"><ele>63.0</ele><time>2026-03-31T08:35:12.002Z</time></trkpt><trkpt lat="45.04902672764829" lon="9.584522540229303"><ele>62.8</ele><time>2026-03-31T08:35:14.002Z</time></trkpt><trkpt lat="45.04896741283536" lon="9.584385337263065"><ele>62.599999999999994</ele><time>2026-03-31T08:35:16.002Z</time></trkpt><trkpt lat="45.048912012694274" lon="9.584243534702853"><ele>62.400000000000006</ele><time>2026-03-31T08:35:18.002Z</time></trkpt><trkpt lat="45.04885541519848" lon="9.584108033525116"><ele>62.2</ele><time>2026-03-31T08:35:20.002Z</time></trkpt><trkpt lat="45.048819930731774" lon="9.584033488060467"><ele>62.0</ele><time>2026-03-31T08:35:21.002Z</time></trkpt><trkpt lat="45.048763565109894" lon="9.583904401764487"><ele>62.0</ele><time>2026-03-31T08:35:23.002Z</time></trkpt><trkpt lat="45.04870073822069" lon="9.583757041865374"><ele>62.0</ele><time>2026-03-31T08:35:25.002Z</time></trkpt><trkpt lat="45.04864290060932" lon="9.58361890578391"><ele>62.0</ele><time>2026-03-31T08:35:27.002Z</time></trkpt><trkpt lat="45.04858341550816" lon="9.583471568998783"><ele>62.0</ele><time>2026-03-31T08:35:29.002Z</time></trkpt><trkpt lat="45.048517525215644" lon="9.583325200787245"><ele>62.0</ele><time>2026-03-31T08:35:31.002Z</time></trkpt><trkpt lat="45.048461896670545" lon="9.583178737633338"><ele>62.0</ele><time>2026-03-31T08:35:33.002Z</time></trkpt><trkpt lat="45.04839913541122" lon="9.583033149027138"><ele>62.0</ele><time>2026-03-31T08:35:35.002Z</time></trkpt><trkpt lat="45.0483440270949" lon="9.58288980303719"><ele>62.0</ele><time>2026-03-31T08:35:37.002Z</time></trkpt><trkpt lat="45.04827772311938" lon="9.582741013833498"><ele>62.25</ele><time>2026-03-31T08:35:39.002Z</time></trkpt><trkpt lat="45.04822030263994" lon="9.582598739894308"><ele>62.5</ele><time>2026-03-31T08:35:41.002Z</time></trkpt><trkpt lat="45.04816429430114" lon="9.582457924447715"><ele>62.75</ele><time>2026-03-31T08:35:43.002Z</time></trkpt><trkpt lat="45.04810349575574" lon="9.582328237722358"><ele>63.0</ele><time>2026-03-31T08:35:45.002Z</time></trkpt><trkpt lat="45.0480457406545" lon="9.582179944580794"><ele>63.0</ele><time>2026-03-31T08:35:47.002Z</time></trkpt><trkpt lat="45.048010148016054" lon="9.582097625886972"><ele>63.0</ele><time>2026-03-31T08:35:48.002Z</time></trkpt><trkpt lat="45.047950599073204" lon="9.581970617404586"><ele>63.0</ele><time>2026-03-31T08:35:50.003Z</time></trkpt><trkpt lat="45.04789010679903" lon="9.581824181047965"><ele>63.0</ele><time>2026-03-31T08:35:52.003Z</time></trkpt><trkpt lat="45.04782287727737" lon="9.581679500793259"><ele>63.0</ele><time>2026-03-31T08:35:54.003Z</time></trkpt><trkpt lat="45.04776520898023" lon="9.58154028826981"><ele>63.0</ele><time>2026-03-31T08:35:56.003Z</time></trkpt><trkpt lat="45.04770516775038" lon="9.581395961129436"><ele>63.0</ele><time>2026-03-31T08:35:58.003Z</time></trkpt><trkpt lat="45.047651509938795" lon="9.581254959339672"><ele>63.0</ele><time>2026-03-31T08:36:00.003Z</time></trkpt><trkpt lat="45.04758729491156" lon="9.58110693708398"><ele>63.0</ele><time>2026-03-31T08:36:02.003Z</time></trkpt><trkpt lat="45.04753009237629" lon="9.580970962966083"><ele>63.0</ele><time>2026-03-31T08:36:04.003Z</time></trkpt><trkpt lat="45.04747097122903" lon="9.580824452897978"><ele>63.0</ele><time>2026-03-31T08:36:06.003Z</time></trkpt><trkpt lat="45.04740727857884" lon="9.580679456730378"><ele>63.0</ele><time>2026-03-31T08:36:08.003Z</time></trkpt><trkpt lat="45.047350964446714" lon="9.58053190263795"><ele>63.0</ele><time>2026-03-31T08:36:10.003Z</time></trkpt><trkpt lat="45.04729089154785" lon="9.580393062200018"><ele>62.75</ele><time>2026-03-31T08:36:12.003Z</time></trkpt><trkpt lat="45.047236966307096" lon="9.580258312199975"><ele>62.5</ele><time>2026-03-31T08:36:14.003Z</time></trkpt><trkpt lat="45.04717633272509" lon="9.58011484542872"><ele>62.25</ele><time>2026-03-31T08:36:16.003Z</time></trkpt><trkpt lat="45.047121566776745" lon="9.579980955305489"><ele>62.0</ele><time>2026-03-31T08:36:18.003Z</time></trkpt><trkpt lat="45.04706452499484" lon="9.57984232387431"><ele>62.0</ele><time>2026-03-31T08:36:20.003Z</time></trkpt><trkpt lat="45.0470041089993" lon="9.579705795667001"><ele>62.0</ele><time>2026-03-31T08:36:22.003Z</time></trkpt><trkpt lat="45.04695002486968" lon="9.57956650501669"><ele>62.0</ele><time>2026-03-31T08:36:24.003Z</time></trkpt><trkpt lat="45.04689203191357" lon="9.579428883365837"><ele>62.0</ele><time>2026-03-31T08:36:26.003Z</time></trkpt><trkpt lat="45.04683398058801" lon="9.579292952763137"><ele>62.0</ele><time>2026-03-31T08:36:28.003Z</time></trkpt><trkpt lat="45.046784173915064" lon="9.579152266780213"><ele>62.0</ele><time>2026-03-31T08:36:30.003Z</time></trkpt><trkpt lat="45.04673518094654" lon="9.57900879870319"><ele>62.0</ele><time>2026-03-31T08:36:32.003Z</time></trkpt><trkpt lat="45.046685337400945" lon="9.578863996264866"><ele>62.0</ele><time>2026-03-31T08:36:34.003Z</time></trkpt><trkpt lat="45.046640355061655" lon="9.578719341868684"><ele>62.0</ele><time>2026-03-31T08:36:36.003Z</time></trkpt><trkpt lat="45.04659572406552" lon="9.57857857380706"><ele>62.0</ele><time>2026-03-31T08:36:38.003Z</time></trkpt><trkpt lat="45.04654942900741" lon="9.57843881915226"><ele>62.0</ele><time>2026-03-31T08:36:40.003Z</time></trkpt><trkpt lat="45.046503217762705" lon="9.578303805913793"><ele>62.0</ele><time>2026-03-31T08:36:42.003Z</time></trkpt><trkpt lat="45.04645750845534" lon="9.578163642065624"><ele>62.0</ele><time>2026-03-31T08:36:44.003Z</time></trkpt><trkpt lat="45.04641241459453" lon="9.578028428998973"><ele>62.0</ele><time>2026-03-31T08:36:46.003Z</time></trkpt><trkpt lat="45.04637205076967" lon="9.577895427679488"><ele>61.8</ele><time>2026-03-31T08:36:48.003Z</time></trkpt><trkpt lat="45.04633261599742" lon="9.577769346250243"><ele>61.6</ele><time>2026-03-31T08:36:50.003Z</time></trkpt><trkpt lat="45.046288579878556" lon="9.577644188667248"><ele>61.39999999999999</ele><time>2026-03-31T08:36:52.003Z</time></trkpt><trkpt lat="45.046247906222646" lon="9.577508531908205"><ele>61.199999999999996</ele><time>2026-03-31T08:36:54.003Z</time></trkpt><trkpt lat="45.04620245698276" lon="9.577374214258738"><ele>61.0</ele><time>2026-03-31T08:36:56.003Z</time></trkpt><trkpt lat="45.046153035824716" lon="9.577240252932826"><ele>61.0</ele><time>2026-03-31T08:36:58.003Z</time></trkpt><trkpt lat="45.046106697923086" lon="9.577106849664652"><ele>60.99999999999999</ele><time>2026-03-31T08:37:00.003Z</time></trkpt><trkpt lat="45.04606398811815" lon="9.576970631423208"><ele>60.99999999999999</ele><time>2026-03-31T08:37:02.003Z</time></trkpt><trkpt lat="45.04601630309069" lon="9.57684113864705"><ele>61.0</ele><time>2026-03-31T08:37:04.003Z</time></trkpt><trkpt lat="45.04597136361039" lon="9.57670577444385"><ele>61.0</ele><time>2026-03-31T08:37:06.003Z</time></trkpt><trkpt lat="45.045924210668076" lon="9.576574046107812"><ele>61.199999999999996</ele><time>2026-03-31T08:37:08.003Z</time></trkpt><trkpt lat="45.045892222423845" lon="9.576426204920812"><ele>61.39999999999999</ele><time>2026-03-31T08:37:10.003Z</time></trkpt><trkpt lat="45.04583962696736" lon="9.57629663675013"><ele>61.6</ele><time>2026-03-31T08:37:12.003Z</time></trkpt><trkpt lat="45.045798202666866" lon="9.576163051559007"><ele>61.8</ele><time>2026-03-31T08:37:14.003Z</time></trkpt><trkpt lat="45.045753772830814" lon="9.576026205452264"><ele>62.0</ele><time>2026-03-31T08:37:16.003Z</time></trkpt><trkpt lat="45.04571267932665" lon="9.575884682036886"><ele>62.2</ele><time>2026-03-31T08:37:18.003Z</time></trkpt><trkpt lat="45.04566162855306" lon="9.575746968584069"><ele>62.400000000000006</ele><time>2026-03-31T08:37:20.003Z</time></trkpt><trkpt lat="45.04561467695864" lon="9.575612589684248"><ele>62.599999999999994</ele><time>2026-03-31T08:37:22.003Z</time></trkpt><trkpt lat="45.045572586603036" lon="9.575470702412934"><ele>62.8</ele><time>2026-03-31T08:37:24.003Z</time></trkpt><trkpt lat="45.0455248497515" lon="9.575329955476894"><ele>63.0</ele><time>2026-03-31T08:37:26.003Z</time></trkpt><trkpt lat="45.04547843209159" lon="9.575193365339976"><ele>63.2</ele><time>2026-03-31T08:37:28.003Z</time></trkpt><trkpt lat="45.04543190898028" lon="9.57505227168289"><ele>63.4</ele><time>2026-03-31T08:37:30.003Z</time></trkpt><trkpt lat="45.04539243828276" lon="9.574912239489704"><ele>63.60000000000001</ele><time>2026-03-31T08:37:32.003Z</time></trkpt><trkpt lat="45.04534779872053" lon="9.574774617757486"><ele>63.800000000000004</ele><time>2026-03-31T08:37:34.003Z</time></trkpt><trkpt lat="45.04530272274174" lon="9.574646383647478"><ele>64.0</ele><time>2026-03-31T08:37:36.003Z</time></trkpt><trkpt lat="45.045263416397745" lon="9.574514202758888"><ele>64.4</ele><time>2026-03-31T08:37:38.003Z</time></trkpt><trkpt lat="45.04522039988121" lon="9.574382212714037"><ele>64.80000000000001</ele><time>2026-03-31T08:37:40.003Z</time></trkpt><trkpt lat="45.045188024909905" lon="9.574253723749477"><ele>65.19999999999999</ele><time>2026-03-31T08:37:42.003Z</time></trkpt><trkpt lat="45.04514036378602" lon="9.574115448532662"><ele>65.6</ele><time>2026-03-31T08:37:44.003Z</time></trkpt><trkpt lat="45.04510213195465" lon="9.573984482959428"><ele>66.0</ele><time>2026-03-31T08:37:46.003Z</time></trkpt><trkpt lat="45.045053632159885" lon="9.573846435292419"><ele>66.0</ele><time>2026-03-31T08:37:48.003Z</time></trkpt><trkpt lat="45.04500462354336" lon="9.57370695312074"><ele>66.0</ele><time>2026-03-31T08:37:50.004Z</time></trkpt><trkpt lat="45.04496286465217" lon="9.573569435146068"><ele>66.0</ele><time>2026-03-31T08:37:52.004Z</time></trkpt><trkpt lat="45.04491850721727" lon="9.573436367952919"><ele>66.0</ele><time>2026-03-31T08:37:54.004Z</time></trkpt><trkpt lat="45.04486961185654" lon="9.573291693559552"><ele>66.0</ele><time>2026-03-31T08:37:56.004Z</time></trkpt><trkpt lat="45.04482795809137" lon="9.573149606371706"><ele>65.39999999999999</ele><time>2026-03-31T08:37:58.004Z</time></trkpt><trkpt lat="45.04478219921244" lon="9.573012843078569"><ele>64.8</ele><time>2026-03-31T08:38:00.004Z</time></trkpt><trkpt lat="45.044742777459135" lon="9.57287170734898"><ele>64.19999999999999</ele><time>2026-03-31T08:38:02.004Z</time></trkpt><trkpt lat="45.04471536719139" lon="9.572723310640834"><ele>63.599999999999994</ele><time>2026-03-31T08:38:04.004Z</time></trkpt><trkpt lat="45.044711885192015" lon="9.572571724777221"><ele>63.0</ele><time>2026-03-31T08:38:06.004Z</time></trkpt><trkpt lat="45.04473343171011" lon="9.57242767822022"><ele>63.0</ele><time>2026-03-31T08:38:08.004Z</time></trkpt><trkpt lat="45.04474991855625" lon="9.572275778616532"><ele>63.0</ele><time>2026-03-31T08:38:10.004Z</time></trkpt><trkpt lat="45.04476702284023" lon="9.572121765612884"><ele>63.0</ele><time>2026-03-31T08:38:12.004Z</time></trkpt><trkpt lat="45.04478126674152" lon="9.571969152972866"><ele>63.0</ele><time>2026-03-31T08:38:14.004Z</time></trkpt><trkpt lat="45.044798965940394" lon="9.571813260230705"><ele>63.0</ele><time>2026-03-31T08:38:16.004Z</time></trkpt><trkpt lat="45.044812247352965" lon="9.571659095548226"><ele>63.0</ele><time>2026-03-31T08:38:18.004Z</time></trkpt><trkpt lat="45.044820754636184" lon="9.571506517205297"><ele>63.0</ele><time>2026-03-31T08:38:20.004Z</time></trkpt><trkpt lat="45.04482055911213" lon="9.571360968965688"><ele>63.0</ele><time>2026-03-31T08:38:22.004Z</time></trkpt><trkpt lat="45.044798033404206" lon="9.571211614093613"><ele>63.0</ele><time>2026-03-31T08:38:24.004Z</time></trkpt><trkpt lat="45.04474391494573" lon="9.571079408615597"><ele>63.0</ele><time>2026-03-31T08:38:26.004Z</time></trkpt><trkpt lat="45.04467005194124" lon="9.570957491856813"><ele>63.25</ele><time>2026-03-31T08:38:28.004Z</time></trkpt><trkpt lat="45.044605550272045" lon="9.570833181030645"><ele>63.5</ele><time>2026-03-31T08:38:30.004Z</time></trkpt><trkpt lat="45.04454054482418" lon="9.570707170079615"><ele>63.75</ele><time>2026-03-31T08:38:32.004Z</time></trkpt><trkpt lat="45.04446773306796" lon="9.570570732990578"><ele>64.0</ele><time>2026-03-31T08:38:34.004Z</time></trkpt><trkpt lat="45.04439866737575" lon="9.570436129177029"><ele>64.0</ele><time>2026-03-31T08:38:36.004Z</time></trkpt><trkpt lat="45.04432572333316" lon="9.570300231864175"><ele>64.0</ele><time>2026-03-31T08:38:38.004Z</time></trkpt><trkpt lat="45.04425473057868" lon="9.57016072290058"><ele>64.0</ele><time>2026-03-31T08:38:40.004Z</time></trkpt><trkpt lat="45.04421368506507" lon="9.570089293819969"><ele>64.0</ele><time>2026-03-31T08:38:41.004Z</time></trkpt><trkpt lat="45.04414156158188" lon="9.569955106669314"><ele>64.0</ele><time>2026-03-31T08:38:43.004Z</time></trkpt><trkpt lat="45.044074287579384" lon="9.5698197892356"><ele>63.800000000000004</ele><time>2026-03-31T08:38:45.004Z</time></trkpt><trkpt lat="45.044036793189036" lon="9.56974744414508"><ele>63.60000000000001</ele><time>2026-03-31T08:38:46.004Z</time></trkpt><trkpt lat="45.04396523736843" lon="9.569599634399596"><ele>63.4</ele><time>2026-03-31T08:38:48.004Z</time></trkpt><trkpt lat="45.04390209638729" lon="9.569459089510964"><ele>63.2</ele><time>2026-03-31T08:38:50.004Z</time></trkpt><trkpt lat="45.04383901366327" lon="9.56931758499893"><ele>63.0</ele><time>2026-03-31T08:38:52.004Z</time></trkpt><trkpt lat="45.04376876708982" lon="9.569176233944464"><ele>63.0</ele><time>2026-03-31T08:38:54.004Z</time></trkpt><trkpt lat="45.04370169433759" lon="9.569042329955648"><ele>63.0</ele><time>2026-03-31T08:38:56.004Z</time></trkpt><trkpt lat="45.04364056342884" lon="9.568891960883303"><ele>63.0</ele><time>2026-03-31T08:38:58.004Z</time></trkpt><trkpt lat="45.04360349507059" lon="9.568815109676015"><ele>63.0</ele><time>2026-03-31T08:38:59.004Z</time></trkpt><trkpt lat="45.0435358472693" lon="9.568684406226607"><ele>63.0</ele><time>2026-03-31T08:39:01.004Z</time></trkpt><trkpt lat="45.043498831910156" lon="9.568609576678607"><ele>63.25</ele><time>2026-03-31T08:39:02.004Z</time></trkpt><trkpt lat="45.043431578619256" lon="9.568469566859946"><ele>63.5</ele><time>2026-03-31T08:39:04.004Z</time></trkpt><trkpt lat="45.043366171591245" lon="9.568323966063858"><ele>63.75</ele><time>2026-03-31T08:39:06.004Z</time></trkpt><trkpt lat="45.04329562338839" lon="9.56818007895431"><ele>64.0</ele><time>2026-03-31T08:39:08.004Z</time></trkpt><trkpt lat="45.0432247295511" lon="9.568045487385522"><ele>64.0</ele><time>2026-03-31T08:39:10.004Z</time></trkpt><trkpt lat="45.043151684988835" lon="9.567905214157955"><ele>64.0</ele><time>2026-03-31T08:39:12.004Z</time></trkpt><trkpt lat="45.043085802352785" lon="9.567761735988423"><ele>64.0</ele><time>2026-03-31T08:39:14.004Z</time></trkpt><trkpt lat="45.0430473622509" lon="9.567690534275053"><ele>64.0</ele><time>2026-03-31T08:39:15.004Z</time></trkpt><trkpt lat="45.042979348149956" lon="9.567545648160182"><ele>64.0</ele><time>2026-03-31T08:39:17.004Z</time></trkpt><trkpt lat="45.042907685867725" lon="9.567412021941294"><ele>64.0</ele><time>2026-03-31T08:39:19.004Z</time></trkpt><trkpt lat="45.042837726217265" lon="9.567267179776305"><ele>64.0</ele><time>2026-03-31T08:39:21.004Z</time></trkpt><trkpt lat="45.04279992130213" lon="9.567194382721912"><ele>64.0</ele><time>2026-03-31T08:39:22.004Z</time></trkpt><trkpt lat="45.042731207945444" lon="9.567048435154785"><ele>64.0</ele><time>2026-03-31T08:39:24.004Z</time></trkpt><trkpt lat="45.04266084756169" lon="9.56690213040804"><ele>64.0</ele><time>2026-03-31T08:39:26.004Z</time></trkpt><trkpt lat="45.04259898246541" lon="9.566755089027357"><ele>64.0</ele><time>2026-03-31T08:39:28.004Z</time></trkpt><trkpt lat="45.04254057655559" lon="9.566602623650352"><ele>64.0</ele><time>2026-03-31T08:39:30.004Z</time></trkpt><trkpt lat="45.04247742182939" lon="9.566450446782346"><ele>64.0</ele><time>2026-03-31T08:39:32.004Z</time></trkpt><trkpt lat="45.04241485695416" lon="9.566302381638836"><ele>64.0</ele><time>2026-03-31T08:39:34.004Z</time></trkpt><trkpt lat="45.04235997560944" lon="9.566146568099267"><ele>64.5</ele><time>2026-03-31T08:39:36.004Z</time></trkpt><trkpt lat="45.04230222891369" lon="9.565998056500145"><ele>65.0</ele><time>2026-03-31T08:39:38.004Z</time></trkpt><trkpt lat="45.042240064052834" lon="9.565851374758973"><ele>65.5</ele><time>2026-03-31T08:39:40.004Z</time></trkpt><trkpt lat="45.04218651046062" lon="9.565705373966953"><ele>66.0</ele><time>2026-03-31T08:39:42.004Z</time></trkpt><trkpt lat="45.04212370076906" lon="9.565558503868097"><ele>66.0</ele><time>2026-03-31T08:39:44.004Z</time></trkpt><trkpt lat="45.042073946305" lon="9.565410498328278"><ele>66.0</ele><time>2026-03-31T08:39:46.004Z</time></trkpt><trkpt lat="45.04201614988109" lon="9.565262890011665"><ele>66.0</ele><time>2026-03-31T08:39:48.005Z</time></trkpt><trkpt lat="45.041961716813596" lon="9.56513952740734"><ele>66.0</ele><time>2026-03-31T08:39:50.005Z</time></trkpt><trkpt lat="45.041916013935115" lon="9.565007103501575"><ele>66.0</ele><time>2026-03-31T08:39:52.005Z</time></trkpt><trkpt lat="45.04186126670988" lon="9.56486293967043"><ele>66.25</ele><time>2026-03-31T08:39:54.005Z</time></trkpt><trkpt lat="45.0418207147165" lon="9.564710470662478"><ele>66.5</ele><time>2026-03-31T08:39:56.005Z</time></trkpt><trkpt lat="45.04178317186965" lon="9.564554441004018"><ele>66.75</ele><time>2026-03-31T08:39:58.005Z</time></trkpt><trkpt lat="45.04174820531855" lon="9.564395158839009"><ele>67.0</ele><time>2026-03-31T08:40:00.005Z</time></trkpt><trkpt lat="45.04171333998154" lon="9.564228933157683"><ele>66.6</ele><time>2026-03-31T08:40:02.005Z</time></trkpt><trkpt lat="45.041677063482105" lon="9.564072961933055"><ele>66.2</ele><time>2026-03-31T08:40:04.005Z</time></trkpt><trkpt lat="45.04165840471714" lon="9.563987814244902"><ele>65.8</ele><time>2026-03-31T08:40:05.005Z</time></trkpt><trkpt lat="45.04162544342278" lon="9.56382370214199"><ele>65.4</ele><time>2026-03-31T08:40:07.005Z</time></trkpt><trkpt lat="45.04158879348935" lon="9.563660533120114"><ele>65.0</ele><time>2026-03-31T08:40:09.005Z</time></trkpt><trkpt lat="45.04154981097721" lon="9.563499570051247"><ele>64.75</ele><time>2026-03-31T08:40:11.005Z</time></trkpt><trkpt lat="45.04151755934614" lon="9.563341228248111"><ele>64.5</ele><time>2026-03-31T08:40:13.005Z</time></trkpt><trkpt lat="45.04148048141377" lon="9.563180737132331"><ele>64.25</ele><time>2026-03-31T08:40:15.005Z</time></trkpt><trkpt lat="45.04144767442209" lon="9.563018476246453"><ele>64.0</ele><time>2026-03-31T08:40:17.005Z</time></trkpt><trkpt lat="45.041411660530116" lon="9.562852298096246"><ele>64.0</ele><time>2026-03-31T08:40:19.005Z</time></trkpt><trkpt lat="45.04137523650116" lon="9.562688631359082"><ele>64.0</ele><time>2026-03-31T08:40:21.005Z</time></trkpt><trkpt lat="45.041340145039975" lon="9.562525661747554"><ele>64.0</ele><time>2026-03-31T08:40:23.005Z</time></trkpt><trkpt lat="45.04131825100686" lon="9.562441060528359"><ele>64.0</ele><time>2026-03-31T08:40:24.005Z</time></trkpt><trkpt lat="45.04128201125786" lon="9.562272785333425"><ele>64.0</ele><time>2026-03-31T08:40:26.005Z</time></trkpt><trkpt lat="45.04124901956116" lon="9.562109683691348"><ele>64.25</ele><time>2026-03-31T08:40:28.005Z</time></trkpt><trkpt lat="45.041210976225344" lon="9.561947638269181"><ele>64.5</ele><time>2026-03-31T08:40:30.005Z</time></trkpt><trkpt lat="45.04117456368971" lon="9.561785944096588"><ele>64.75</ele><time>2026-03-31T08:40:32.005Z</time></trkpt><trkpt lat="45.041144162259464" lon="9.561630571080062"><ele>65.0</ele><time>2026-03-31T08:40:34.005Z</time></trkpt><trkpt lat="45.041099399605585" lon="9.561475603449427"><ele>65.0</ele><time>2026-03-31T08:40:36.005Z</time></trkpt><trkpt lat="45.041062293589086" lon="9.561317802044218"><ele>65.0</ele><time>2026-03-31T08:40:38.005Z</time></trkpt><trkpt lat="45.04102279383143" lon="9.56116109887416"><ele>65.0</ele><time>2026-03-31T08:40:40.005Z</time></trkpt><trkpt lat="45.04098440070093" lon="9.560997908341198"><ele>65.0</ele><time>2026-03-31T08:40:42.005Z</time></trkpt><trkpt lat="45.0409393224575" lon="9.560836541228285"><ele>65.0</ele><time>2026-03-31T08:40:44.005Z</time></trkpt><trkpt lat="45.040896591246735" lon="9.560673369912472"><ele>65.0</ele><time>2026-03-31T08:40:46.005Z</time></trkpt><trkpt lat="45.0408516550865" lon="9.560510296834698"><ele>65.0</ele><time>2026-03-31T08:40:48.005Z</time></trkpt><trkpt lat="45.040832272997626" lon="9.56042539654151"><ele>65.0</ele><time>2026-03-31T08:40:49.005Z</time></trkpt><trkpt lat="45.0408070426066" lon="9.560342171046658"><ele>65.0</ele><time>2026-03-31T08:40:50.005Z</time></trkpt><trkpt lat="45.0407676678088" lon="9.56018138685168"><ele>65.4</ele><time>2026-03-31T08:40:52.005Z</time></trkpt><trkpt lat="45.04072703911114" lon="9.560025855363884"><ele>65.8</ele><time>2026-03-31T08:40:54.005Z</time></trkpt><trkpt lat="45.04070435180488" lon="9.559940962331972"><ele>66.2</ele><time>2026-03-31T08:40:55.005Z</time></trkpt><trkpt lat="45.040680968622596" lon="9.559857299805461"><ele>66.6</ele><time>2026-03-31T08:40:56.005Z</time></trkpt><trkpt lat="45.04063744436663" lon="9.559688639362783"><ele>67.0</ele><time>2026-03-31T08:40:58.005Z</time></trkpt><trkpt lat="45.040593300091025" lon="9.559529486978166"><ele>67.25</ele><time>2026-03-31T08:41:00.005Z</time></trkpt><trkpt lat="45.04055553624498" lon="9.559365305881903"><ele>67.5</ele><time>2026-03-31T08:41:02.005Z</time></trkpt><trkpt lat="45.040547684837954" lon="9.559199239787082"><ele>67.75</ele><time>2026-03-31T08:41:04.005Z</time></trkpt><trkpt lat="45.040565507509655" lon="9.559033979613277"><ele>68.0</ele><time>2026-03-31T08:41:06.005Z</time></trkpt><trkpt lat="45.04058677611077" lon="9.558866765690402"><ele>67.4</ele><time>2026-03-31T08:41:08.005Z</time></trkpt><trkpt lat="45.04061171098337" lon="9.558697500980273"><ele>66.8</ele><time>2026-03-31T08:41:10.005Z</time></trkpt><trkpt lat="45.0406246406945" lon="9.55860650491414"><ele>66.2</ele><time>2026-03-31T08:41:11.005Z</time></trkpt><trkpt lat="45.040646855158634" lon="9.55843732796284"><ele>65.6</ele><time>2026-03-31T08:41:13.005Z</time></trkpt><trkpt lat="45.04066909919085" lon="9.558274949456436"><ele>65.0</ele><time>2026-03-31T08:41:15.005Z</time></trkpt><trkpt lat="45.040693686994615" lon="9.558103816164765"><ele>65.0</ele><time>2026-03-31T08:41:17.005Z</time></trkpt><trkpt lat="45.04071655316645" lon="9.557932747594181"><ele>65.0</ele><time>2026-03-31T08:41:19.005Z</time></trkpt><trkpt lat="45.040735408797836" lon="9.557765091772374"><ele>65.0</ele><time>2026-03-31T08:41:21.005Z</time></trkpt><trkpt lat="45.04075426923817" lon="9.557600513177121"><ele>65.0</ele><time>2026-03-31T08:41:23.005Z</time></trkpt><trkpt lat="45.040777966181444" lon="9.557432414100179"><ele>65.0</ele><time>2026-03-31T08:41:25.005Z</time></trkpt><trkpt lat="45.040803032267085" lon="9.557268720818898"><ele>65.0</ele><time>2026-03-31T08:41:27.005Z</time></trkpt><trkpt lat="45.040812256101574" lon="9.557178164442625"><ele>65.0</ele><time>2026-03-31T08:41:28.005Z</time></trkpt><trkpt lat="45.0408343363153" lon="9.557012777914267"><ele>65.0</ele><time>2026-03-31T08:41:30.005Z</time></trkpt><trkpt lat="45.040855630822534" lon="9.55684644572154"><ele>65.0</ele><time>2026-03-31T08:41:32.005Z</time></trkpt><trkpt lat="45.0408768002323" lon="9.556681415471784"><ele>65.0</ele><time>2026-03-31T08:41:34.005Z</time></trkpt><trkpt lat="45.0408975142355" lon="9.556518167505612"><ele>65.0</ele><time>2026-03-31T08:41:36.005Z</time></trkpt><trkpt lat="45.04091128905087" lon="9.55634938141139"><ele>65.0</ele><time>2026-03-31T08:41:38.005Z</time></trkpt><trkpt lat="45.040928216811444" lon="9.55618659620411"><ele>65.0</ele><time>2026-03-31T08:41:40.005Z</time></trkpt><trkpt lat="45.04093666405441" lon="9.556096897480918"><ele>65.0</ele><time>2026-03-31T08:41:41.005Z</time></trkpt><trkpt lat="45.0409475105572" lon="9.555923834684997"><ele>65.6</ele><time>2026-03-31T08:41:43.005Z</time></trkpt><trkpt lat="45.04096081024675" lon="9.55575230093028"><ele>66.2</ele><time>2026-03-31T08:41:45.005Z</time></trkpt><trkpt lat="45.0409697135823" lon="9.55566021111408"><ele>66.8</ele><time>2026-03-31T08:41:46.005Z</time></trkpt><trkpt lat="45.04098285362093" lon="9.55548688215671"><ele>67.4</ele><time>2026-03-31T08:41:48.006Z</time></trkpt><trkpt lat="45.0409918114085" lon="9.555312624078484"><ele>68.0</ele><time>2026-03-31T08:41:50.006Z</time></trkpt><trkpt lat="45.04099472503139" lon="9.555223272841108"><ele>68.16666666666667</ele><time>2026-03-31T08:41:51.006Z</time></trkpt><trkpt lat="45.04100068437681" lon="9.555132695749682"><ele>68.33333333333334</ele><time>2026-03-31T08:41:52.006Z</time></trkpt><trkpt lat="45.041011628393235" lon="9.554955504461832"><ele>68.5</ele><time>2026-03-31T08:41:54.006Z</time></trkpt><trkpt lat="45.04101299807549" lon="9.554864325904513"><ele>68.66666666666667</ele><time>2026-03-31T08:41:55.006Z</time></trkpt><trkpt lat="45.04101530619087" lon="9.554685729999052"><ele>68.83333333333333</ele><time>2026-03-31T08:41:57.006Z</time></trkpt><trkpt lat="45.041016819518255" lon="9.554590482018323"><ele>69.0</ele><time>2026-03-31T08:41:58.006Z</time></trkpt><trkpt lat="45.041009782390546" lon="9.55450046033615"><ele>69.2</ele><time>2026-03-31T08:41:59.006Z</time></trkpt><trkpt lat="45.04099630522613" lon="9.554410185758892"><ele>69.4</ele><time>2026-03-31T08:42:00.006Z</time></trkpt><trkpt lat="45.0409696702861" lon="9.554233236279957"><ele>69.6</ele><time>2026-03-31T08:42:02.006Z</time></trkpt><trkpt lat="45.0409528172889" lon="9.554128891129103"><ele>69.8</ele><time>2026-03-31T08:42:03.006Z</time></trkpt><trkpt lat="45.04092085307369" lon="9.553967892277798"><ele>70.0</ele><time>2026-03-31T08:42:05.006Z</time></trkpt><trkpt lat="45.04090733278385" lon="9.553877758449055"><ele>70.0</ele><time>2026-03-31T08:42:06.006Z</time></trkpt><trkpt lat="45.04086213556513" lon="9.553709408505973"><ele>70.0</ele><time>2026-03-31T08:42:08.006Z</time></trkpt><trkpt lat="45.040824610435756" lon="9.553550681429416"><ele>70.0</ele><time>2026-03-31T08:42:10.006Z</time></trkpt><trkpt lat="45.04078432849559" lon="9.553395083204663"><ele>70.0</ele><time>2026-03-31T08:42:12.006Z</time></trkpt><trkpt lat="45.04075565512301" lon="9.553235305329794"><ele>70.0</ele><time>2026-03-31T08:42:14.006Z</time></trkpt><trkpt lat="45.040720125237044" lon="9.553090280008796"><ele>70.0</ele><time>2026-03-31T08:42:16.006Z</time></trkpt><trkpt lat="45.04068370568023" lon="9.552955342019814"><ele>70.0</ele><time>2026-03-31T08:42:18.006Z</time></trkpt><trkpt lat="45.040665664394666" lon="9.552826060127725"><ele>70.0</ele><time>2026-03-31T08:42:20.006Z</time></trkpt><trkpt lat="45.04064479307196" lon="9.55273686942625"><ele>70.0</ele><time>2026-03-31T08:42:21.006Z</time></trkpt><trkpt lat="45.04061536960915" lon="9.55260299641953"><ele>70.0</ele><time>2026-03-31T08:42:23.006Z</time></trkpt><trkpt lat="45.04060081692012" lon="9.552468876312496"><ele>70.0</ele><time>2026-03-31T08:42:25.006Z</time></trkpt><trkpt lat="45.04058308522119" lon="9.55236506895263"><ele>70.0</ele><time>2026-03-31T08:42:27.006Z</time></trkpt><trkpt lat="45.040554535636126" lon="9.552249913276396"><ele>70.0</ele><time>2026-03-31T08:42:29.006Z</time></trkpt><trkpt lat="45.0405540527797" lon="9.552142520686145"><ele>70.0</ele><time>2026-03-31T08:42:31.006Z</time></trkpt><trkpt lat="45.040535149051166" lon="9.552003007684267"><ele>70.0</ele><time>2026-03-31T08:42:33.006Z</time></trkpt><trkpt lat="45.040516955445476" lon="9.551864095043268"><ele>69.8</ele><time>2026-03-31T08:42:35.006Z</time></trkpt><trkpt lat="45.04049268576541" lon="9.551733635906196"><ele>69.6</ele><time>2026-03-31T08:42:37.006Z</time></trkpt><trkpt lat="45.04046135408045" lon="9.551629191429148"><ele>69.4</ele><time>2026-03-31T08:42:39.006Z</time></trkpt><trkpt lat="45.0404530789305" lon="9.551500848102986"><ele>69.2</ele><time>2026-03-31T08:42:41.006Z</time></trkpt><trkpt lat="45.04042857635082" lon="9.551367193975793"><ele>69.0</ele><time>2026-03-31T08:42:43.006Z</time></trkpt><trkpt lat="45.0404127836614" lon="9.55122988195124"><ele>69.2</ele><time>2026-03-31T08:42:45.006Z</time></trkpt><trkpt lat="45.040394001674926" lon="9.551092421621549"><ele>69.4</ele><time>2026-03-31T08:42:47.006Z</time></trkpt><trkpt lat="45.04036411665722" lon="9.550940774255881"><ele>69.6</ele><time>2026-03-31T08:42:49.006Z</time></trkpt><trkpt lat="45.04034476867446" lon="9.550793317767054"><ele>69.8</ele><time>2026-03-31T08:42:51.006Z</time></trkpt><trkpt lat="45.04031433402256" lon="9.550651206245375"><ele>70.0</ele><time>2026-03-31T08:42:53.006Z</time></trkpt><trkpt lat="45.040288097519834" lon="9.550504167798746"><ele>70.25</ele><time>2026-03-31T08:42:55.006Z</time></trkpt><trkpt lat="45.04026904205782" lon="9.550345039781046"><ele>70.5</ele><time>2026-03-31T08:42:57.006Z</time></trkpt><trkpt lat="45.04023461289376" lon="9.550193146802483"><ele>70.75</ele><time>2026-03-31T08:42:59.006Z</time></trkpt><trkpt lat="45.040214259735656" lon="9.550025885043707"><ele>71.0</ele><time>2026-03-31T08:43:01.006Z</time></trkpt><trkpt lat="45.040183630691466" lon="9.549861629354144"><ele>71.0</ele><time>2026-03-31T08:43:03.006Z</time></trkpt><trkpt lat="45.04016375179861" lon="9.549722396080142"><ele>71.0</ele><time>2026-03-31T08:43:05.006Z</time></trkpt><trkpt lat="45.04012632876753" lon="9.549575845437216"><ele>71.0</ele><time>2026-03-31T08:43:07.006Z</time></trkpt><trkpt lat="45.04008155258171" lon="9.549435998767553"><ele>71.0</ele><time>2026-03-31T08:43:09.006Z</time></trkpt><trkpt lat="45.04002182759248" lon="9.549297450434358"><ele>71.0</ele><time>2026-03-31T08:43:11.006Z</time></trkpt><trkpt lat="45.03995662329161" lon="9.549152391383558"><ele>70.8</ele><time>2026-03-31T08:43:13.006Z</time></trkpt><trkpt lat="45.03990228237895" lon="9.549029042543243"><ele>70.6</ele><time>2026-03-31T08:43:15.006Z</time></trkpt><trkpt lat="45.039838940015755" lon="9.548895677473158"><ele>70.4</ele><time>2026-03-31T08:43:17.006Z</time></trkpt><trkpt lat="45.0397698860579" lon="9.548767509126815"><ele>70.2</ele><time>2026-03-31T08:43:19.006Z</time></trkpt><trkpt lat="45.03970737372981" lon="9.548637774597792"><ele>70.0</ele><time>2026-03-31T08:43:21.006Z</time></trkpt><trkpt lat="45.03964456491755" lon="9.548517361686047"><ele>69.4</ele><time>2026-03-31T08:43:23.006Z</time></trkpt><trkpt lat="45.03957270894338" lon="9.548391759474194"><ele>68.8</ele><time>2026-03-31T08:43:25.006Z</time></trkpt><trkpt lat="45.03950405533246" lon="9.548282552385013"><ele>68.2</ele><time>2026-03-31T08:43:27.006Z</time></trkpt><trkpt lat="45.039407105011456" lon="9.548209336331858"><ele>67.6</ele><time>2026-03-31T08:43:29.006Z</time></trkpt><trkpt lat="45.03929867214192" lon="9.548194102944622"><ele>67.0</ele><time>2026-03-31T08:43:31.006Z</time></trkpt><trkpt lat="45.039187189178186" lon="9.548201284461301"><ele>67.4</ele><time>2026-03-31T08:43:33.006Z</time></trkpt><trkpt lat="45.03907355944938" lon="9.548202622609349"><ele>67.80000000000001</ele><time>2026-03-31T08:43:35.006Z</time></trkpt><trkpt lat="45.038964875625545" lon="9.548202571923492"><ele>68.2</ele><time>2026-03-31T08:43:37.006Z</time></trkpt><trkpt lat="45.03885487403961" lon="9.54820939341329"><ele>68.60000000000001</ele><time>2026-03-31T08:43:39.006Z</time></trkpt><trkpt lat="45.03874482055574" lon="9.548204945918814"><ele>69.0</ele><time>2026-03-31T08:43:41.006Z</time></trkpt><trkpt lat="45.03863426120578" lon="9.548200846296762"><ele>69.0</ele><time>2026-03-31T08:43:43.006Z</time></trkpt><trkpt lat="45.03852458821963" lon="9.548204099884826"><ele>69.0</ele><time>2026-03-31T08:43:45.006Z</time></trkpt><trkpt lat="45.03841412834352" lon="9.548201173459903"><ele>69.0</ele><time>2026-03-31T08:43:47.007Z</time></trkpt><trkpt lat="45.03830320087839" lon="9.548203464646232"><ele>69.0</ele><time>2026-03-31T08:43:49.007Z</time></trkpt><trkpt lat="45.038193254841005" lon="9.548202881223663"><ele>69.0</ele><time>2026-03-31T08:43:51.007Z</time></trkpt><trkpt lat="45.038081344574174" lon="9.548203495356292"><ele>69.4</ele><time>2026-03-31T08:43:53.007Z</time></trkpt><trkpt lat="45.03796957064996" lon="9.548200376089829"><ele>69.80000000000001</ele><time>2026-03-31T08:43:55.007Z</time></trkpt><trkpt lat="45.037857354038806" lon="9.548198496384943"><ele>70.19999999999999</ele><time>2026-03-31T08:43:57.007Z</time></trkpt><trkpt lat="45.03774725261284" lon="9.548199528322359"><ele>70.6</ele><time>2026-03-31T08:43:59.007Z</time></trkpt><trkpt lat="45.03763524889188" lon="9.548197287263518"><ele>71.0</ele><time>2026-03-31T08:44:01.007Z</time></trkpt><trkpt lat="45.037526133124366" lon="9.548196435297797"><ele>70.75</ele><time>2026-03-31T08:44:03.007Z</time></trkpt><trkpt lat="45.037414051697986" lon="9.548195143533501"><ele>70.5</ele><time>2026-03-31T08:44:05.007Z</time></trkpt><trkpt lat="45.037301289144175" lon="9.548199190007638"><ele>70.25</ele><time>2026-03-31T08:44:07.007Z</time></trkpt><trkpt lat="45.037188359246095" lon="9.548202386792363"><ele>70.0</ele><time>2026-03-31T08:44:09.007Z</time></trkpt><trkpt lat="45.03707081241185" lon="9.548197994516142"><ele>70.0</ele><time>2026-03-31T08:44:11.007Z</time></trkpt><trkpt lat="45.03695569008029" lon="9.548197815533108"><ele>70.0</ele><time>2026-03-31T08:44:13.007Z</time></trkpt><trkpt lat="45.036837176972966" lon="9.548197850358033"><ele>70.0</ele><time>2026-03-31T08:44:15.007Z</time></trkpt><trkpt lat="45.036723293278015" lon="9.548201706862491"><ele>70.0</ele><time>2026-03-31T08:44:17.007Z</time></trkpt><trkpt lat="45.03660976580581" lon="9.548199278197858"><ele>70.0</ele><time>2026-03-31T08:44:19.007Z</time></trkpt><trkpt lat="45.03649738612955" lon="9.548197096913203"><ele>70.0</ele><time>2026-03-31T08:44:21.007Z</time></trkpt><trkpt lat="45.03638986757819" lon="9.548199824345007"><ele>70.0</ele><time>2026-03-31T08:44:23.007Z</time></trkpt><trkpt lat="45.036272840641736" lon="9.548197456419983"><ele>70.0</ele><time>2026-03-31T08:44:25.007Z</time></trkpt><trkpt lat="45.03616783959924" lon="9.548194666054263"><ele>70.0</ele><time>2026-03-31T08:44:27.007Z</time></trkpt><trkpt lat="45.036047993617586" lon="9.548185865433897"><ele>70.0</ele><time>2026-03-31T08:44:29.007Z</time></trkpt><trkpt lat="45.035931320013574" lon="9.54818721270838"><ele>70.0</ele><time>2026-03-31T08:44:31.007Z</time></trkpt><trkpt lat="45.03581559741159" lon="9.548184980889838"><ele>70.0</ele><time>2026-03-31T08:44:33.007Z</time></trkpt><trkpt lat="45.0356989517016" lon="9.54818589402987"><ele>70.0</ele><time>2026-03-31T08:44:35.007Z</time></trkpt><trkpt lat="45.03558101257707" lon="9.548185396600529"><ele>70.25</ele><time>2026-03-31T08:44:37.007Z</time></trkpt><trkpt lat="45.03546394800271" lon="9.548181385905234"><ele>70.5</ele><time>2026-03-31T08:44:39.007Z</time></trkpt><trkpt lat="45.03534478279106" lon="9.54818130524693"><ele>70.75</ele><time>2026-03-31T08:44:41.007Z</time></trkpt><trkpt lat="45.0352293271347" lon="9.548180783056633"><ele>71.0</ele><time>2026-03-31T08:44:43.007Z</time></trkpt><trkpt lat="45.0351140556508" lon="9.548177110843486"><ele>71.0</ele><time>2026-03-31T08:44:45.007Z</time></trkpt><trkpt lat="45.03499862119104" lon="9.548171496370642"><ele>71.0</ele><time>2026-03-31T08:44:47.007Z</time></trkpt><trkpt lat="45.03487936257907" lon="9.548174955955034"><ele>71.0</ele><time>2026-03-31T08:44:49.007Z</time></trkpt><trkpt lat="45.03476220272258" lon="9.54817521666782"><ele>71.0</ele><time>2026-03-31T08:44:51.007Z</time></trkpt><trkpt lat="45.03464399327468" lon="9.548174601397259"><ele>70.75</ele><time>2026-03-31T08:44:53.007Z</time></trkpt><trkpt lat="45.034528385599025" lon="9.548174903696868"><ele>70.5</ele><time>2026-03-31T08:44:55.007Z</time></trkpt><trkpt lat="45.03441499939843" lon="9.548179673915355"><ele>70.25</ele><time>2026-03-31T08:44:57.007Z</time></trkpt><trkpt lat="45.03430043565989" lon="9.548172356915185"><ele>70.0</ele><time>2026-03-31T08:44:59.007Z</time></trkpt><trkpt lat="45.034184624031106" lon="9.54817672367773"><ele>70.0</ele><time>2026-03-31T08:45:01.007Z</time></trkpt><trkpt lat="45.03407300177443" lon="9.548168947496434"><ele>70.0</ele><time>2026-03-31T08:45:03.007Z</time></trkpt><trkpt lat="45.033955641314755" lon="9.548173871411768"><ele>70.0</ele><time>2026-03-31T08:45:05.007Z</time></trkpt><trkpt lat="45.03384427562225" lon="9.548194419410677"><ele>70.0</ele><time>2026-03-31T08:45:07.007Z</time></trkpt><trkpt lat="45.03372767541378" lon="9.548217048974964"><ele>70.0</ele><time>2026-03-31T08:45:09.007Z</time></trkpt><trkpt lat="45.03360781159273" lon="9.548239287032812"><ele>70.0</ele><time>2026-03-31T08:45:11.007Z</time></trkpt><trkpt lat="45.0334940407198" lon="9.548269950854731"><ele>70.0</ele><time>2026-03-31T08:45:13.007Z</time></trkpt><trkpt lat="45.03337812930694" lon="9.548297466874827"><ele>70.0</ele><time>2026-03-31T08:45:15.007Z</time></trkpt><trkpt lat="45.033257182825956" lon="9.54832462602792"><ele>70.0</ele><time>2026-03-31T08:45:17.007Z</time></trkpt><trkpt lat="45.03314389502469" lon="9.548353411412693"><ele>70.0</ele><time>2026-03-31T08:45:19.007Z</time></trkpt><trkpt lat="45.033027316543176" lon="9.548379020379205"><ele>70.0</ele><time>2026-03-31T08:45:21.007Z</time></trkpt><trkpt lat="45.032907611956745" lon="9.548405619501658"><ele>70.0</ele><time>2026-03-31T08:45:23.007Z</time></trkpt><trkpt lat="45.032790780549085" lon="9.548434623998714"><ele>70.0</ele><time>2026-03-31T08:45:25.007Z</time></trkpt><trkpt lat="45.032676093696885" lon="9.548459331131609"><ele>70.0</ele><time>2026-03-31T08:45:27.007Z</time></trkpt><trkpt lat="45.03256191862224" lon="9.548487734259947"><ele>70.0</ele><time>2026-03-31T08:45:29.007Z</time></trkpt><trkpt lat="45.032448787552646" lon="9.548517772537775"><ele>70.0</ele><time>2026-03-31T08:45:31.007Z</time></trkpt><trkpt lat="45.03233674914415" lon="9.548544406758744"><ele>70.25</ele><time>2026-03-31T08:45:33.007Z</time></trkpt><trkpt lat="45.03222277231944" lon="9.548573240984764"><ele>70.5</ele><time>2026-03-31T08:45:35.007Z</time></trkpt><trkpt lat="45.032112795587885" lon="9.548598894215676"><ele>70.75</ele><time>2026-03-31T08:45:37.007Z</time></trkpt><trkpt lat="45.03200169167403" lon="9.548627956652256"><ele>71.0</ele><time>2026-03-31T08:45:39.007Z</time></trkpt><trkpt lat="45.03189241022379" lon="9.548653786123623"><ele>71.0</ele><time>2026-03-31T08:45:41.007Z</time></trkpt><trkpt lat="45.031781318978695" lon="9.548681962518078"><ele>71.0</ele><time>2026-03-31T08:45:43.007Z</time></trkpt><trkpt lat="45.03166989126164" lon="9.5487112776219"><ele>71.0</ele><time>2026-03-31T08:45:45.008Z</time></trkpt><trkpt lat="45.031557420830296" lon="9.54873405727227"><ele>71.0</ele><time>2026-03-31T08:45:47.008Z</time></trkpt><trkpt lat="45.03144449528791" lon="9.54876428023538"><ele>71.0</ele><time>2026-03-31T08:45:49.008Z</time></trkpt><trkpt lat="45.03133281181939" lon="9.5487899417993"><ele>71.0</ele><time>2026-03-31T08:45:51.008Z</time></trkpt><trkpt lat="45.03122011187296" lon="9.548820036359201"><ele>71.0</ele><time>2026-03-31T08:45:53.008Z</time></trkpt><trkpt lat="45.03110791716778" lon="9.548847064437119"><ele>71.0</ele><time>2026-03-31T08:45:55.008Z</time></trkpt><trkpt lat="45.03099538551083" lon="9.548876819329985"><ele>71.0</ele><time>2026-03-31T08:45:57.008Z</time></trkpt><trkpt lat="45.030880179190774" lon="9.548903324470912"><ele>71.0</ele><time>2026-03-31T08:45:59.008Z</time></trkpt><trkpt lat="45.03076821404561" lon="9.54893155040368"><ele>71.0</ele><time>2026-03-31T08:46:01.008Z</time></trkpt><trkpt lat="45.03065800985744" lon="9.548958392257784"><ele>71.0</ele><time>2026-03-31T08:46:03.008Z</time></trkpt><trkpt lat="45.030550821332284" lon="9.548987447377058"><ele>71.0</ele><time>2026-03-31T08:46:05.008Z</time></trkpt><trkpt lat="45.030439657945244" lon="9.549014192707252"><ele>71.0</ele><time>2026-03-31T08:46:07.008Z</time></trkpt><trkpt lat="45.03032905109" lon="9.549040045051578"><ele>71.0</ele><time>2026-03-31T08:46:09.008Z</time></trkpt><trkpt lat="45.03021938159145" lon="9.549069699866575"><ele>71.0</ele><time>2026-03-31T08:46:11.008Z</time></trkpt><trkpt lat="45.03010646655818" lon="9.54909937776591"><ele>71.0</ele><time>2026-03-31T08:46:13.008Z</time></trkpt><trkpt lat="45.029998114007135" lon="9.549119315714272"><ele>71.0</ele><time>2026-03-31T08:46:15.008Z</time></trkpt><trkpt lat="45.02988633911989" lon="9.549152695137714"><ele>71.0</ele><time>2026-03-31T08:46:17.008Z</time></trkpt><trkpt lat="45.02977188868838" lon="9.549177328762925"><ele>71.0</ele><time>2026-03-31T08:46:19.008Z</time></trkpt><trkpt lat="45.02966204065143" lon="9.54920836461918"><ele>71.25</ele><time>2026-03-31T08:46:21.008Z</time></trkpt><trkpt lat="45.02954781053887" lon="9.549234778534789"><ele>71.5</ele><time>2026-03-31T08:46:23.008Z</time></trkpt><trkpt lat="45.02943307337441" lon="9.549262418789903"><ele>71.75</ele><time>2026-03-31T08:46:25.008Z</time></trkpt><trkpt lat="45.029317251095165" lon="9.549290607957214"><ele>72.0</ele><time>2026-03-31T08:46:27.008Z</time></trkpt><trkpt lat="45.02920188262733" lon="9.54932407471132"><ele>71.75</ele><time>2026-03-31T08:46:29.008Z</time></trkpt><trkpt lat="45.029088119717315" lon="9.549343903520551"><ele>71.5</ele><time>2026-03-31T08:46:31.008Z</time></trkpt><trkpt lat="45.028975811483285" lon="9.549373044150908"><ele>71.25</ele><time>2026-03-31T08:46:33.008Z</time></trkpt><trkpt lat="45.02886324114491" lon="9.549398788077639"><ele>71.0</ele><time>2026-03-31T08:46:35.008Z</time></trkpt><trkpt lat="45.02875405283757" lon="9.549427918015946"><ele>71.0</ele><time>2026-03-31T08:46:37.008Z</time></trkpt><trkpt lat="45.02864109174939" lon="9.54945215752052"><ele>71.0</ele><time>2026-03-31T08:46:39.008Z</time></trkpt><trkpt lat="45.02852667539345" lon="9.549480362548932"><ele>71.0</ele><time>2026-03-31T08:46:41.008Z</time></trkpt><trkpt lat="45.0284148713728" lon="9.549508098613883"><ele>71.0</ele><time>2026-03-31T08:46:43.008Z</time></trkpt><trkpt lat="45.02830080375169" lon="9.549530906450146"><ele>71.25</ele><time>2026-03-31T08:46:45.008Z</time></trkpt><trkpt lat="45.02819161616208" lon="9.549561932392738"><ele>71.5</ele><time>2026-03-31T08:46:47.008Z</time></trkpt><trkpt lat="45.028073248487026" lon="9.549585891315225"><ele>71.75</ele><time>2026-03-31T08:46:49.008Z</time></trkpt><trkpt lat="45.027958800417736" lon="9.549617975349067"><ele>72.0</ele><time>2026-03-31T08:46:51.008Z</time></trkpt><trkpt lat="45.02784405876833" lon="9.54964809837268"><ele>72.0</ele><time>2026-03-31T08:46:53.008Z</time></trkpt><trkpt lat="45.0277315454808" lon="9.549675691312517"><ele>72.0</ele><time>2026-03-31T08:46:55.008Z</time></trkpt><trkpt lat="45.02761500638385" lon="9.549697996747494"><ele>72.0</ele><time>2026-03-31T08:46:57.008Z</time></trkpt><trkpt lat="45.02750339297698" lon="9.549728443765773"><ele>72.0</ele><time>2026-03-31T08:46:59.008Z</time></trkpt><trkpt lat="45.02739193496481" lon="9.549754729515259"><ele>72.8</ele><time>2026-03-31T08:47:01.008Z</time></trkpt><trkpt lat="45.02727832980051" lon="9.549783081792835"><ele>73.6</ele><time>2026-03-31T08:47:03.008Z</time></trkpt><trkpt lat="45.02717006032292" lon="9.549807196034088"><ele>74.39999999999999</ele><time>2026-03-31T08:47:05.008Z</time></trkpt><trkpt lat="45.02706403117627" lon="9.549838984975539"><ele>75.2</ele><time>2026-03-31T08:47:07.008Z</time></trkpt><trkpt lat="45.02695202403457" lon="9.54986553507595"><ele>76.0</ele><time>2026-03-31T08:47:09.008Z</time></trkpt><trkpt lat="45.0268444954191" lon="9.54988993173862"><ele>76.0</ele><time>2026-03-31T08:47:11.008Z</time></trkpt><trkpt lat="45.026734271879675" lon="9.54992024867625"><ele>76.0</ele><time>2026-03-31T08:47:13.008Z</time></trkpt><trkpt lat="45.02662339289608" lon="9.549950335249008"><ele>76.0</ele><time>2026-03-31T08:47:15.008Z</time></trkpt><trkpt lat="45.0265096692113" lon="9.549977048350991"><ele>76.0</ele><time>2026-03-31T08:47:17.008Z</time></trkpt><trkpt lat="45.02639673814715" lon="9.550011638134611"><ele>75.75</ele><time>2026-03-31T08:47:19.008Z</time></trkpt><trkpt lat="45.02627963644464" lon="9.550046230940646"><ele>75.5</ele><time>2026-03-31T08:47:21.008Z</time></trkpt><trkpt lat="45.02616332349062" lon="9.55007732558412"><ele>75.25</ele><time>2026-03-31T08:47:23.008Z</time></trkpt><trkpt lat="45.02605685442359" lon="9.550099010954767"><ele>75.0</ele><time>2026-03-31T08:47:25.008Z</time></trkpt><trkpt lat="45.02595361235229" lon="9.550119760139314"><ele>75.0</ele><time>2026-03-31T08:47:27.008Z</time></trkpt><trkpt lat="45.025899432180914" lon="9.550071284324469"><ele>75.0</ele><time>2026-03-31T08:47:28.008Z</time></trkpt><trkpt lat="45.02582160041901" lon="9.549955642023239"><ele>75.0</ele><time>2026-03-31T08:47:30.008Z</time></trkpt><trkpt lat="45.02573429571371" lon="9.549855022463715"><ele>75.0</ele><time>2026-03-31T08:47:32.008Z</time></trkpt><trkpt lat="45.02569763301107" lon="9.549780903194332"><ele>75.0</ele><time>2026-03-31T08:47:33.008Z</time></trkpt><trkpt lat="45.02565521359476" lon="9.549642289989743"><ele>75.0</ele><time>2026-03-31T08:47:35.008Z</time></trkpt><trkpt lat="45.02561859367567" lon="9.549499837272927"><ele>75.0</ele><time>2026-03-31T08:47:37.008Z</time></trkpt><trkpt lat="45.02559499174342" lon="9.54935049761466"><ele>75.0</ele><time>2026-03-31T08:47:39.008Z</time></trkpt><trkpt lat="45.025554001869686" lon="9.54920701880971"><ele>75.0</ele><time>2026-03-31T08:47:41.008Z</time></trkpt><trkpt lat="45.025517299742404" lon="9.549070357216474"><ele>75.0</ele><time>2026-03-31T08:47:43.009Z</time></trkpt><trkpt lat="45.02549285929741" lon="9.548907604493527"><ele>75.0</ele><time>2026-03-31T08:47:45.009Z</time></trkpt><trkpt lat="45.02546338005393" lon="9.54875781849462"><ele>75.0</ele><time>2026-03-31T08:47:47.009Z</time></trkpt><trkpt lat="45.025427554738116" lon="9.548607376265755"><ele>75.0</ele><time>2026-03-31T08:47:49.009Z</time></trkpt><trkpt lat="45.025391287475976" lon="9.548458957439527"><ele>75.0</ele><time>2026-03-31T08:47:51.009Z</time></trkpt><trkpt lat="45.025349439587636" lon="9.548313682763176"><ele>75.0</ele><time>2026-03-31T08:47:53.009Z</time></trkpt><trkpt lat="45.02530016736609" lon="9.548169932128108"><ele>75.0</ele><time>2026-03-31T08:47:55.009Z</time></trkpt><trkpt lat="45.02523932969103" lon="9.548035993833212"><ele>75.0</ele><time>2026-03-31T08:47:57.009Z</time></trkpt><trkpt lat="45.02518272665185" lon="9.547896669237073"><ele>75.0</ele><time>2026-03-31T08:47:59.009Z</time></trkpt><trkpt lat="45.025128464535904" lon="9.547753737969877"><ele>75.0</ele><time>2026-03-31T08:48:01.009Z</time></trkpt><trkpt lat="45.025065427798694" lon="9.54761918413258"><ele>75.25</ele><time>2026-03-31T08:48:03.009Z</time></trkpt><trkpt lat="45.02500434987718" lon="9.547489179829219"><ele>75.5</ele><time>2026-03-31T08:48:05.009Z</time></trkpt><trkpt lat="45.02494043928903" lon="9.547355951318007"><ele>75.75</ele><time>2026-03-31T08:48:07.009Z</time></trkpt><trkpt lat="45.024871425712504" lon="9.547228530140123"><ele>76.0</ele><time>2026-03-31T08:48:09.009Z</time></trkpt><trkpt lat="45.024805681694005" lon="9.547096896349698"><ele>76.5</ele><time>2026-03-31T08:48:11.009Z</time></trkpt><trkpt lat="45.02473812678776" lon="9.54697091808387"><ele>77.0</ele><time>2026-03-31T08:48:13.009Z</time></trkpt><trkpt lat="45.02467338390237" lon="9.546838905682927"><ele>77.5</ele><time>2026-03-31T08:48:15.009Z</time></trkpt><trkpt lat="45.02460734995143" lon="9.546710325929753"><ele>78.0</ele><time>2026-03-31T08:48:17.009Z</time></trkpt><trkpt lat="45.024537584663335" lon="9.546584307510269"><ele>78.0</ele><time>2026-03-31T08:48:19.009Z</time></trkpt><trkpt lat="45.024468607585675" lon="9.54645376430208"><ele>78.0</ele><time>2026-03-31T08:48:21.009Z</time></trkpt><trkpt lat="45.024395227611876" lon="9.546327424095946"><ele>78.0</ele><time>2026-03-31T08:48:23.009Z</time></trkpt><trkpt lat="45.02432342351511" lon="9.546203238707738"><ele>78.0</ele><time>2026-03-31T08:48:25.009Z</time></trkpt><trkpt lat="45.02424578542757" lon="9.546088396450815"><ele>77.5</ele><time>2026-03-31T08:48:27.009Z</time></trkpt><trkpt lat="45.02416403677958" lon="9.545971862449306"><ele>77.0</ele><time>2026-03-31T08:48:29.009Z</time></trkpt><trkpt lat="45.02408747949157" lon="9.545862457684587"><ele>76.5</ele><time>2026-03-31T08:48:31.009Z</time></trkpt><trkpt lat="45.024007702403935" lon="9.545743934348387"><ele>76.0</ele><time>2026-03-31T08:48:33.009Z</time></trkpt><trkpt lat="45.02392587090953" lon="9.545633413490572"><ele>76.0</ele><time>2026-03-31T08:48:35.009Z</time></trkpt><trkpt lat="45.02384500125834" lon="9.54552025078063"><ele>76.0</ele><time>2026-03-31T08:48:37.009Z</time></trkpt><trkpt lat="45.02377571030537" lon="9.545406578967777"><ele>76.0</ele><time>2026-03-31T08:48:39.009Z</time></trkpt><trkpt lat="45.02369238051263" lon="9.545292964746746"><ele>76.0</ele><time>2026-03-31T08:48:41.009Z</time></trkpt><trkpt lat="45.023610171410226" lon="9.54517803143604"><ele>76.0</ele><time>2026-03-31T08:48:43.009Z</time></trkpt><trkpt lat="45.02353219394027" lon="9.54506368603537"><ele>76.0</ele><time>2026-03-31T08:48:45.009Z</time></trkpt><trkpt lat="45.0234528648605" lon="9.544940749008738"><ele>76.0</ele><time>2026-03-31T08:48:47.009Z</time></trkpt><trkpt lat="45.0233667971056" lon="9.544825748771734"><ele>76.0</ele><time>2026-03-31T08:48:49.009Z</time></trkpt><trkpt lat="45.02329721548653" lon="9.544708895741834"><ele>76.0</ele><time>2026-03-31T08:48:51.009Z</time></trkpt><trkpt lat="45.02322633151341" lon="9.544592422438996"><ele>76.0</ele><time>2026-03-31T08:48:53.009Z</time></trkpt><trkpt lat="45.02314957430728" lon="9.544478302110837"><ele>76.0</ele><time>2026-03-31T08:48:55.009Z</time></trkpt><trkpt lat="45.02307031462799" lon="9.544365884938744"><ele>76.0</ele><time>2026-03-31T08:48:57.009Z</time></trkpt><trkpt lat="45.0229901268664" lon="9.544248150582122"><ele>76.0</ele><time>2026-03-31T08:48:59.009Z</time></trkpt><trkpt lat="45.02290850451042" lon="9.544137284341163"><ele>76.0</ele><time>2026-03-31T08:49:01.009Z</time></trkpt><trkpt lat="45.02279889727614" lon="9.544110418487644"><ele>76.0</ele><time>2026-03-31T08:49:03.009Z</time></trkpt><trkpt lat="45.022694826479785" lon="9.544158990046256"><ele>76.0</ele><time>2026-03-31T08:49:05.009Z</time></trkpt><trkpt lat="45.02258631727247" lon="9.544227356189662"><ele>76.0</ele><time>2026-03-31T08:49:07.009Z</time></trkpt><trkpt lat="45.02247908762241" lon="9.54428485543886"><ele>75.75</ele><time>2026-03-31T08:49:09.009Z</time></trkpt><trkpt lat="45.02236905191103" lon="9.544339586662698"><ele>75.5</ele><time>2026-03-31T08:49:11.009Z</time></trkpt><trkpt lat="45.02226728189776" lon="9.54440071045625"><ele>75.25</ele><time>2026-03-31T08:49:13.009Z</time></trkpt><trkpt lat="45.0221597793195" lon="9.544452107518946"><ele>75.0</ele><time>2026-03-31T08:49:15.009Z</time></trkpt><trkpt lat="45.02204806245599" lon="9.544512834109605"><ele>75.0</ele><time>2026-03-31T08:49:17.009Z</time></trkpt><trkpt lat="45.02194026724958" lon="9.544567857480327"><ele>75.0</ele><time>2026-03-31T08:49:19.009Z</time></trkpt><trkpt lat="45.021832371962866" lon="9.544624383902717"><ele>75.0</ele><time>2026-03-31T08:49:21.009Z</time></trkpt><trkpt lat="45.02172457310502" lon="9.544680351931445"><ele>75.0</ele><time>2026-03-31T08:49:23.009Z</time></trkpt><trkpt lat="45.021618111383326" lon="9.544734111410822"><ele>75.0</ele><time>2026-03-31T08:49:25.009Z</time></trkpt><trkpt lat="45.021510440903164" lon="9.544792869014922"><ele>75.0</ele><time>2026-03-31T08:49:27.009Z</time></trkpt><trkpt lat="45.021403346025224" lon="9.544845457358322"><ele>75.0</ele><time>2026-03-31T08:49:29.009Z</time></trkpt><trkpt lat="45.021296854328526" lon="9.544902667939475"><ele>75.0</ele><time>2026-03-31T08:49:31.009Z</time></trkpt><trkpt lat="45.02118959645783" lon="9.544958895864672"><ele>75.0</ele><time>2026-03-31T08:49:33.009Z</time></trkpt><trkpt lat="45.021081827741526" lon="9.545012234319929"><ele>75.0</ele><time>2026-03-31T08:49:35.009Z</time></trkpt><trkpt lat="45.020971384664016" lon="9.54507057508273"><ele>75.0</ele><time>2026-03-31T08:49:37.009Z</time></trkpt><trkpt lat="45.020863208546395" lon="9.545128266044458"><ele>75.0</ele><time>2026-03-31T08:49:39.009Z</time></trkpt><trkpt lat="45.02075401202921" lon="9.545185337812173"><ele>74.75</ele><time>2026-03-31T08:49:41.009Z</time></trkpt><trkpt lat="45.020645791895916" lon="9.545239636742215"><ele>74.5</ele><time>2026-03-31T08:49:43.01Z</time></trkpt><trkpt lat="45.02053868743891" lon="9.545299162650629"><ele>74.25</ele><time>2026-03-31T08:49:45.01Z</time></trkpt><trkpt lat="45.020429360918115" lon="9.545358217799777"><ele>74.0</ele><time>2026-03-31T08:49:47.01Z</time></trkpt><trkpt lat="45.02032181063626" lon="9.545412111490483"><ele>74.0</ele><time>2026-03-31T08:49:49.01Z</time></trkpt><trkpt lat="45.0202117136216" lon="9.545472282011163"><ele>74.0</ele><time>2026-03-31T08:49:51.01Z</time></trkpt><trkpt lat="45.02009711121447" lon="9.545531172034401"><ele>74.0</ele><time>2026-03-31T08:49:53.01Z</time></trkpt><trkpt lat="45.01998028354409" lon="9.54559102802486"><ele>74.0</ele><time>2026-03-31T08:49:55.01Z</time></trkpt><trkpt lat="45.01991283736519" lon="9.545624067980695"><ele>74.0</ele><time>2026-03-31T08:49:56.01Z</time></trkpt><trkpt lat="45.01980118976328" lon="9.545687555620157"><ele>74.2</ele><time>2026-03-31T08:49:58.01Z</time></trkpt><trkpt lat="45.0196823203883" lon="9.545744396973326"><ele>74.4</ele><time>2026-03-31T08:50:00.01Z</time></trkpt><trkpt lat="45.019622987174486" lon="9.545775448484923"><ele>74.6</ele><time>2026-03-31T08:50:01.01Z</time></trkpt><trkpt lat="45.01951087581579" lon="9.545837641612104"><ele>74.8</ele><time>2026-03-31T08:50:03.01Z</time></trkpt><trkpt lat="45.019449246991876" lon="9.545868514992792"><ele>75.0</ele><time>2026-03-31T08:50:04.01Z</time></trkpt><trkpt lat="45.019331115994916" lon="9.545934651636466"><ele>75.0</ele><time>2026-03-31T08:50:06.01Z</time></trkpt><trkpt lat="45.01921256109459" lon="9.545996060655304"><ele>75.0</ele><time>2026-03-31T08:50:08.01Z</time></trkpt><trkpt lat="45.01909757451136" lon="9.54606138786774"><ele>75.0</ele><time>2026-03-31T08:50:10.01Z</time></trkpt><trkpt lat="45.019038731276105" lon="9.546094501784049"><ele>75.0</ele><time>2026-03-31T08:50:11.01Z</time></trkpt><trkpt lat="45.018976175012796" lon="9.546123451937419"><ele>75.0</ele><time>2026-03-31T08:50:12.01Z</time></trkpt><trkpt lat="45.01891515317767" lon="9.546148738750771"><ele>75.0</ele><time>2026-03-31T08:50:13.01Z</time></trkpt><trkpt lat="45.01885185658941" lon="9.54616576688842"><ele>74.83333333333333</ele><time>2026-03-31T08:50:14.01Z</time></trkpt><trkpt lat="45.01878663776985" lon="9.546174904969524"><ele>74.66666666666667</ele><time>2026-03-31T08:50:15.01Z</time></trkpt><trkpt lat="45.01872202773123" lon="9.54617491912457"><ele>74.5</ele><time>2026-03-31T08:50:16.01Z</time></trkpt><trkpt lat="45.01865936854823" lon="9.546157165974565"><ele>74.33333333333334</ele><time>2026-03-31T08:50:17.01Z</time></trkpt><trkpt lat="45.01859357154764" lon="9.546132539484526"><ele>74.16666666666667</ele><time>2026-03-31T08:50:18.01Z</time></trkpt><trkpt lat="45.01853037105162" lon="9.546094421468455"><ele>74.0</ele><time>2026-03-31T08:50:19.01Z</time></trkpt><trkpt lat="45.018411193010806" lon="9.546041196611897"><ele>74.4</ele><time>2026-03-31T08:50:21.01Z</time></trkpt><trkpt lat="45.018288242212265" lon="9.546003377867633"><ele>74.80000000000001</ele><time>2026-03-31T08:50:23.01Z</time></trkpt><trkpt lat="45.0181624269598" lon="9.546008680142734"><ele>75.19999999999999</ele><time>2026-03-31T08:50:25.01Z</time></trkpt><trkpt lat="45.018096998539804" lon="9.546018671597778"><ele>75.6</ele><time>2026-03-31T08:50:26.01Z</time></trkpt><trkpt lat="45.017978145888726" lon="9.546003172959395"><ele>76.0</ele><time>2026-03-31T08:50:28.01Z</time></trkpt><trkpt lat="45.01786321378443" lon="9.545926619892317"><ele>76.0</ele><time>2026-03-31T08:50:30.01Z</time></trkpt><trkpt lat="45.017802233517024" lon="9.54590259648797"><ele>76.0</ele><time>2026-03-31T08:50:31.01Z</time></trkpt><trkpt lat="45.017682973362454" lon="9.54592084366438"><ele>76.0</ele><time>2026-03-31T08:50:33.01Z</time></trkpt><trkpt lat="45.017620229621926" lon="9.545952686568159"><ele>76.0</ele><time>2026-03-31T08:50:34.01Z</time></trkpt><trkpt lat="45.017523021216284" lon="9.546064554661097"><ele>76.0</ele><time>2026-03-31T08:50:36.01Z</time></trkpt><trkpt lat="45.01743387952387" lon="9.546173560466636"><ele>76.2</ele><time>2026-03-31T08:50:38.01Z</time></trkpt><trkpt lat="45.01737476820261" lon="9.54621742564575"><ele>76.39999999999999</ele><time>2026-03-31T08:50:39.01Z</time></trkpt><trkpt lat="45.01725545836963" lon="9.546251624893678"><ele>76.6</ele><time>2026-03-31T08:50:41.01Z</time></trkpt><trkpt lat="45.01713291440703" lon="9.546262517085701"><ele>76.8</ele><time>2026-03-31T08:50:43.01Z</time></trkpt><trkpt lat="45.01701030736905" lon="9.546259463094037"><ele>77.0</ele><time>2026-03-31T08:50:45.01Z</time></trkpt><trkpt lat="45.016890865672764" lon="9.546263260066295"><ele>77.0</ele><time>2026-03-31T08:50:47.01Z</time></trkpt><trkpt lat="45.0168270745262" lon="9.546261277573208"><ele>77.0</ele><time>2026-03-31T08:50:48.01Z</time></trkpt><trkpt lat="45.016704151868716" lon="9.546266449273187"><ele>77.0</ele><time>2026-03-31T08:50:50.01Z</time></trkpt><trkpt lat="45.016578088840845" lon="9.546267568789297"><ele>77.0</ele><time>2026-03-31T08:50:52.01Z</time></trkpt><trkpt lat="45.01645311884591" lon="9.546270151965881"><ele>77.0</ele><time>2026-03-31T08:50:54.01Z</time></trkpt><trkpt lat="45.016327682075506" lon="9.546270400029359"><ele>77.0</ele><time>2026-03-31T08:50:56.01Z</time></trkpt><trkpt lat="45.01620276542165" lon="9.54627333799006"><ele>77.0</ele><time>2026-03-31T08:50:58.01Z</time></trkpt><trkpt lat="45.01608409991465" lon="9.546292487096691"><ele>77.0</ele><time>2026-03-31T08:51:00.01Z</time></trkpt><trkpt lat="45.01596514564916" lon="9.546298568837628"><ele>77.0</ele><time>2026-03-31T08:51:02.01Z</time></trkpt><trkpt lat="45.01584023570795" lon="9.54629597592138"><ele>76.8</ele><time>2026-03-31T08:51:04.01Z</time></trkpt><trkpt lat="45.01571745127291" lon="9.54630125782621"><ele>76.6</ele><time>2026-03-31T08:51:06.01Z</time></trkpt><trkpt lat="45.01565421244972" lon="9.546305526542104"><ele>76.39999999999999</ele><time>2026-03-31T08:51:07.01Z</time></trkpt><trkpt lat="45.015589325572265" lon="9.546307876322295"><ele>76.2</ele><time>2026-03-31T08:51:08.01Z</time></trkpt><trkpt lat="45.01547380635567" lon="9.54631175819234"><ele>76.0</ele><time>2026-03-31T08:51:10.01Z</time></trkpt><trkpt lat="45.0153604939676" lon="9.546315440436057"><ele>76.0</ele><time>2026-03-31T08:51:12.01Z</time></trkpt><trkpt lat="45.015239585890924" lon="9.546310017384911"><ele>76.0</ele><time>2026-03-31T08:51:14.01Z</time></trkpt><trkpt lat="45.01511683803801" lon="9.546315963447896"><ele>76.0</ele><time>2026-03-31T08:51:16.01Z</time></trkpt><trkpt lat="45.01499476254943" lon="9.546321249788818"><ele>76.0</ele><time>2026-03-31T08:51:18.01Z</time></trkpt><trkpt lat="45.01493178004722" lon="9.546322618153594"><ele>76.0</ele><time>2026-03-31T08:51:19.01Z</time></trkpt><trkpt lat="45.01480878978402" lon="9.546330847228184"><ele>76.25</ele><time>2026-03-31T08:51:21.01Z</time></trkpt><trkpt lat="45.01468237474199" lon="9.546334719462683"><ele>76.5</ele><time>2026-03-31T08:51:23.01Z</time></trkpt><trkpt lat="45.01455751313159" lon="9.546346753847807"><ele>76.75</ele><time>2026-03-31T08:51:25.01Z</time></trkpt><trkpt lat="45.01443468069371" lon="9.546341483683749"><ele>77.0</ele><time>2026-03-31T08:51:27.01Z</time></trkpt><trkpt lat="45.01430927107028" lon="9.54633910169833"><ele>77.0</ele><time>2026-03-31T08:51:29.01Z</time></trkpt><trkpt lat="45.014185956322734" lon="9.546347467819169"><ele>77.0</ele><time>2026-03-31T08:51:31.01Z</time></trkpt><trkpt lat="45.01406210011731" lon="9.546353756707907"><ele>77.0</ele><time>2026-03-31T08:51:33.01Z</time></trkpt><trkpt lat="45.01393584520474" lon="9.546358339314681"><ele>77.0</ele><time>2026-03-31T08:51:35.01Z</time></trkpt><trkpt lat="45.01380908449034" lon="9.546362205708864"><ele>77.2</ele><time>2026-03-31T08:51:37.01Z</time></trkpt><trkpt lat="45.01374556654558" lon="9.546361622855038"><ele>77.4</ele><time>2026-03-31T08:51:38.015Z</time></trkpt><trkpt lat="45.01362048495248" lon="9.546364141939138"><ele>77.6</ele><time>2026-03-31T08:51:40.015Z</time></trkpt><trkpt lat="45.01349533680704" lon="9.546369030321246"><ele>77.8</ele><time>2026-03-31T08:51:42.016Z</time></trkpt><trkpt lat="45.01336921813025" lon="9.546371611340561"><ele>78.0</ele><time>2026-03-31T08:51:44.016Z</time></trkpt><trkpt lat="45.01330611307142" lon="9.546376521318182"><ele>78.0</ele><time>2026-03-31T08:51:45.016Z</time></trkpt><trkpt lat="45.01318078752467" lon="9.546373779355257"><ele>78.0</ele><time>2026-03-31T08:51:47.016Z</time></trkpt><trkpt lat="45.01305595345144" lon="9.546380101885596"><ele>78.0</ele><time>2026-03-31T08:51:49.016Z</time></trkpt><trkpt lat="45.01293006543368" lon="9.546381746476783"><ele>78.0</ele><time>2026-03-31T08:51:51.016Z</time></trkpt><trkpt lat="45.0128065832162" lon="9.54638834053743"><ele>78.0</ele><time>2026-03-31T08:51:53.016Z</time></trkpt><trkpt lat="45.01268401685222" lon="9.54639645000597"><ele>78.0</ele><time>2026-03-31T08:51:55.016Z</time></trkpt><trkpt lat="45.012566305374804" lon="9.54640020966687"><ele>78.0</ele><time>2026-03-31T08:51:57.016Z</time></trkpt><trkpt lat="45.0125035517741" lon="9.54641142616556"><ele>78.0</ele><time>2026-03-31T08:51:58.016Z</time></trkpt><trkpt lat="45.01239376786429" lon="9.546403188794047"><ele>78.0</ele><time>2026-03-31T08:52:00.016Z</time></trkpt><trkpt lat="45.01228924570601" lon="9.546405118123678"><ele>77.75</ele><time>2026-03-31T08:52:02.016Z</time></trkpt><trkpt lat="45.01217518413092" lon="9.546391565096062"><ele>77.5</ele><time>2026-03-31T08:52:04.016Z</time></trkpt><trkpt lat="45.012060176124635" lon="9.546385481170258"><ele>77.25</ele><time>2026-03-31T08:52:06.016Z</time></trkpt><trkpt lat="45.01195068383948" lon="9.546380813895327"><ele>77.0</ele><time>2026-03-31T08:52:08.016Z</time></trkpt><trkpt lat="45.011837074349984" lon="9.546370487639926"><ele>77.0</ele><time>2026-03-31T08:52:10.016Z</time></trkpt><trkpt lat="45.01172225793348" lon="9.546359985964518"><ele>77.0</ele><time>2026-03-31T08:52:12.016Z</time></trkpt><trkpt lat="45.011609875638875" lon="9.546357566488892"><ele>77.0</ele><time>2026-03-31T08:52:14.016Z</time></trkpt><trkpt lat="45.011494578689025" lon="9.546346342036975"><ele>77.0</ele><time>2026-03-31T08:52:16.016Z</time></trkpt><trkpt lat="45.01138002898888" lon="9.54633835858897"><ele>77.5</ele><time>2026-03-31T08:52:18.016Z</time></trkpt><trkpt lat="45.01126483701419" lon="9.546332213248377"><ele>78.0</ele><time>2026-03-31T08:52:20.016Z</time></trkpt><trkpt lat="45.01115006407421" lon="9.546328565753377"><ele>78.5</ele><time>2026-03-31T08:52:22.016Z</time></trkpt><trkpt lat="45.011032505442955" lon="9.546317889439734"><ele>79.0</ele><time>2026-03-31T08:52:24.016Z</time></trkpt><trkpt lat="45.01092018757105" lon="9.546315194903237"><ele>78.8</ele><time>2026-03-31T08:52:26.016Z</time></trkpt><trkpt lat="45.010800123749036" lon="9.54630394873158"><ele>78.60000000000001</ele><time>2026-03-31T08:52:28.016Z</time></trkpt><trkpt lat="45.010688888077155" lon="9.5462966760893"><ele>78.4</ele><time>2026-03-31T08:52:30.016Z</time></trkpt><trkpt lat="45.010573235105994" lon="9.546286440968876"><ele>78.2</ele><time>2026-03-31T08:52:32.016Z</time></trkpt><trkpt lat="45.01047173884772" lon="9.546282214346645"><ele>78.0</ele><time>2026-03-31T08:52:34.016Z</time></trkpt><trkpt lat="45.01040855911051" lon="9.546277523016556"><ele>78.0</ele><time>2026-03-31T08:52:35.016Z</time></trkpt><trkpt lat="45.01029648582184" lon="9.546268642467526"><ele>78.0</ele><time>2026-03-31T08:52:37.016Z</time></trkpt><trkpt lat="45.01018680692897" lon="9.546264183273276"><ele>78.0</ele><time>2026-03-31T08:52:39.016Z</time></trkpt><trkpt lat="45.0100747048476" lon="9.546253004337489"><ele>78.0</ele><time>2026-03-31T08:52:41.016Z</time></trkpt><trkpt lat="45.00996149939115" lon="9.546245683212412"><ele>78.0</ele><time>2026-03-31T08:52:43.016Z</time></trkpt><trkpt lat="45.009848411329436" lon="9.546236657020364"><ele>78.5</ele><time>2026-03-31T08:52:45.016Z</time></trkpt><trkpt lat="45.00973403737678" lon="9.546231958729406"><ele>79.0</ele><time>2026-03-31T08:52:47.016Z</time></trkpt><trkpt lat="45.00962067897499" lon="9.546223022600334"><ele>79.5</ele><time>2026-03-31T08:52:49.016Z</time></trkpt><trkpt lat="45.009507863266236" lon="9.546216742746012"><ele>80.0</ele><time>2026-03-31T08:52:51.016Z</time></trkpt><trkpt lat="45.00939677504126" lon="9.546207417882439"><ele>80.2</ele><time>2026-03-31T08:52:53.016Z</time></trkpt><trkpt lat="45.00928268842757" lon="9.54620149076534"><ele>80.4</ele><time>2026-03-31T08:52:55.016Z</time></trkpt><trkpt lat="45.00917140416817" lon="9.546194786466392"><ele>80.6</ele><time>2026-03-31T08:52:57.016Z</time></trkpt><trkpt lat="45.0090621758125" lon="9.546190706108426"><ele>80.8</ele><time>2026-03-31T08:52:59.016Z</time></trkpt><trkpt lat="45.008955005721624" lon="9.54618552841359"><ele>81.0</ele><time>2026-03-31T08:53:01.016Z</time></trkpt><trkpt lat="45.00884568048206" lon="9.546180366205899"><ele>81.0</ele><time>2026-03-31T08:53:03.016Z</time></trkpt><trkpt lat="45.00873328035849" lon="9.546174891109157"><ele>81.0</ele><time>2026-03-31T08:53:05.016Z</time></trkpt><trkpt lat="45.00862420810224" lon="9.546168152029791"><ele>81.0</ele><time>2026-03-31T08:53:07.016Z</time></trkpt><trkpt lat="45.008511937613626" lon="9.54615559153503"><ele>81.0</ele><time>2026-03-31T08:53:09.016Z</time></trkpt><trkpt lat="45.00840022951395" lon="9.546146207644657"><ele>81.0</ele><time>2026-03-31T08:53:11.016Z</time></trkpt><trkpt lat="45.008288904852535" lon="9.546141705409346"><ele>81.0</ele><time>2026-03-31T08:53:13.016Z</time></trkpt><trkpt lat="45.00818053896716" lon="9.546135819596945"><ele>81.0</ele><time>2026-03-31T08:53:15.016Z</time></trkpt><trkpt lat="45.00807417638922" lon="9.546127165590878"><ele>81.0</ele><time>2026-03-31T08:53:17.016Z</time></trkpt><trkpt lat="45.00796768457982" lon="9.546117257147001"><ele>81.0</ele><time>2026-03-31T08:53:19.016Z</time></trkpt><trkpt lat="45.0078623656894" lon="9.546111053103669"><ele>81.0</ele><time>2026-03-31T08:53:21.016Z</time></trkpt><trkpt lat="45.007758527424144" lon="9.546107977802212"><ele>81.0</ele><time>2026-03-31T08:53:23.016Z</time></trkpt><trkpt lat="45.00765775962196" lon="9.546095688548958"><ele>81.0</ele><time>2026-03-31T08:53:25.016Z</time></trkpt><trkpt lat="45.0075476624353" lon="9.546099733925956"><ele>81.0</ele><time>2026-03-31T08:53:27.016Z</time></trkpt><trkpt lat="45.00743780776679" lon="9.546103360655152"><ele>81.0</ele><time>2026-03-31T08:53:29.016Z</time></trkpt><trkpt lat="45.00732897767416" lon="9.546098672361785"><ele>81.0</ele><time>2026-03-31T08:53:31.016Z</time></trkpt><trkpt lat="45.007226736441865" lon="9.546102511726758"><ele>81.0</ele><time>2026-03-31T08:53:33.016Z</time></trkpt><trkpt lat="45.00710918045129" lon="9.546103586405097"><ele>81.0</ele><time>2026-03-31T08:53:35.016Z</time></trkpt><trkpt lat="45.00700367568772" lon="9.546109546961699"><ele>81.0</ele><time>2026-03-31T08:53:37.016Z</time></trkpt><trkpt lat="45.006896256643756" lon="9.546111157982196"><ele>81.0</ele><time>2026-03-31T08:53:39.016Z</time></trkpt><trkpt lat="45.00678827378578" lon="9.546105842442532"><ele>81.0</ele><time>2026-03-31T08:53:41.016Z</time></trkpt><trkpt lat="45.00667516195942" lon="9.546107419956522"><ele>81.6</ele><time>2026-03-31T08:53:43.016Z</time></trkpt><trkpt lat="45.00656513825579" lon="9.546107709333763"><ele>82.19999999999999</ele><time>2026-03-31T08:53:45.016Z</time></trkpt><trkpt lat="45.00645706997635" lon="9.54610847448848"><ele>82.80000000000001</ele><time>2026-03-31T08:53:47.016Z</time></trkpt><trkpt lat="45.00635216302957" lon="9.546103520907318"><ele>83.4</ele><time>2026-03-31T08:53:49.017Z</time></trkpt><trkpt lat="45.00624085200679" lon="9.546103422017165"><ele>84.0</ele><time>2026-03-31T08:53:51.017Z</time></trkpt><trkpt lat="45.006129147623476" lon="9.546104979746776"><ele>84.0</ele><time>2026-03-31T08:53:53.017Z</time></trkpt><trkpt lat="45.00601867068145" lon="9.546103723722092"><ele>84.0</ele><time>2026-03-31T08:53:55.017Z</time></trkpt><trkpt lat="45.005907226956595" lon="9.546106805301246"><ele>84.0</ele><time>2026-03-31T08:53:57.017Z</time></trkpt><trkpt lat="45.00579647904062" lon="9.546105575690403"><ele>84.0</ele><time>2026-03-31T08:53:59.017Z</time></trkpt><trkpt lat="45.00568847162769" lon="9.546105000321607"><ele>84.0</ele><time>2026-03-31T08:54:01.017Z</time></trkpt><trkpt lat="45.0055774287111" lon="9.546110812276229"><ele>83.6</ele><time>2026-03-31T08:54:03.017Z</time></trkpt><trkpt lat="45.00546770899735" lon="9.54611087733431"><ele>83.2</ele><time>2026-03-31T08:54:05.017Z</time></trkpt><trkpt lat="45.00535870410415" lon="9.546116438519872"><ele>82.8</ele><time>2026-03-31T08:54:07.017Z</time></trkpt><trkpt lat="45.005247044258525" lon="9.546114425674618"><ele>82.39999999999999</ele><time>2026-03-31T08:54:09.017Z</time></trkpt><trkpt lat="45.00513452411739" lon="9.546113282589813"><ele>82.0</ele><time>2026-03-31T08:54:11.017Z</time></trkpt><trkpt lat="45.005025262417966" lon="9.546111965326771"><ele>82.25</ele><time>2026-03-31T08:54:13.017Z</time></trkpt><trkpt lat="45.00490973493404" lon="9.546115010150354"><ele>82.5</ele><time>2026-03-31T08:54:15.017Z</time></trkpt><trkpt lat="45.004796830321034" lon="9.546114247059577"><ele>82.75</ele><time>2026-03-31T08:54:17.017Z</time></trkpt><trkpt lat="45.00468225617646" lon="9.54611733259587"><ele>83.0</ele><time>2026-03-31T08:54:19.017Z</time></trkpt><trkpt lat="45.004568450110476" lon="9.546118351841715"><ele>83.0</ele><time>2026-03-31T08:54:21.017Z</time></trkpt><trkpt lat="45.00445778223932" lon="9.546119240081914"><ele>83.0</ele><time>2026-03-31T08:54:23.017Z</time></trkpt><trkpt lat="45.00434541035667" lon="9.546122148071843"><ele>83.0</ele><time>2026-03-31T08:54:25.017Z</time></trkpt><trkpt lat="45.00423747544303" lon="9.546125278611092"><ele>83.0</ele><time>2026-03-31T08:54:27.017Z</time></trkpt><trkpt lat="45.004121239582105" lon="9.546125254266938"><ele>83.0</ele><time>2026-03-31T08:54:29.018Z</time></trkpt><trkpt lat="45.00401205993998" lon="9.546124080006566"><ele>83.4</ele><time>2026-03-31T08:54:31.018Z</time></trkpt><trkpt lat="45.00390550608039" lon="9.546127914146917"><ele>83.80000000000001</ele><time>2026-03-31T08:54:33.018Z</time></trkpt><trkpt lat="45.00379781545708" lon="9.54612392784979"><ele>84.2</ele><time>2026-03-31T08:54:35.018Z</time></trkpt><trkpt lat="45.00369015848475" lon="9.546130776860233"><ele>84.6</ele><time>2026-03-31T08:54:37.018Z</time></trkpt><trkpt lat="45.00358343117342" lon="9.546128284917675"><ele>85.0</ele><time>2026-03-31T08:54:39.018Z</time></trkpt><trkpt lat="45.003477747863066" lon="9.546130609408477"><ele>85.0</ele><time>2026-03-31T08:54:41.018Z</time></trkpt><trkpt lat="45.003376382588264" lon="9.546134723458026"><ele>85.0</ele><time>2026-03-31T08:54:43.018Z</time></trkpt><trkpt lat="45.00327967142178" lon="9.546141926945932"><ele>85.0</ele><time>2026-03-31T08:54:45.018Z</time></trkpt><trkpt lat="45.00319595668103" lon="9.546152222477504"><ele>85.0</ele><time>2026-03-31T08:54:47.018Z</time></trkpt><trkpt lat="45.00311600385641" lon="9.546135418843281"><ele>85.0</ele><time>2026-03-31T08:54:49.018Z</time></trkpt><trkpt lat="45.0030620412235" lon="9.546054100757406"><ele>85.0</ele><time>2026-03-31T08:54:51.018Z</time></trkpt><trkpt lat="45.00303320742403" lon="9.545928357865925"><ele>85.2</ele><time>2026-03-31T08:54:53.018Z</time></trkpt><trkpt lat="45.00298869197859" lon="9.545815387362559"><ele>85.4</ele><time>2026-03-31T08:54:55.018Z</time></trkpt><trkpt lat="45.00294403999681" lon="9.545700813438007"><ele>85.6</ele><time>2026-03-31T08:54:57.018Z</time></trkpt><trkpt lat="45.00290881063144" lon="9.54558500724446"><ele>85.8</ele><time>2026-03-31T08:54:59.018Z</time></trkpt><trkpt lat="45.0028673980054" lon="9.545470403502124"><ele>86.0</ele><time>2026-03-31T08:55:01.018Z</time></trkpt><trkpt lat="45.00282502930466" lon="9.545355890928041"><ele>86.16666666666667</ele><time>2026-03-31T08:55:03.018Z</time></trkpt><trkpt lat="45.00278515322502" lon="9.545246789399242"><ele>86.33333333333334</ele><time>2026-03-31T08:55:05.018Z</time></trkpt><trkpt lat="45.00274752542183" lon="9.545133710261338"><ele>86.5</ele><time>2026-03-31T08:55:07.018Z</time></trkpt><trkpt lat="45.00270653819068" lon="9.545023408026971"><ele>86.66666666666667</ele><time>2026-03-31T08:55:09.018Z</time></trkpt><trkpt lat="45.002670423013704" lon="9.544918281240085"><ele>86.83333333333333</ele><time>2026-03-31T08:55:11.018Z</time></trkpt><trkpt lat="45.0026420878718" lon="9.54481937727049"><ele>87.0</ele><time>2026-03-31T08:55:13.018Z</time></trkpt><trkpt lat="45.00260814524072" lon="9.544737451501755"><ele>87.0</ele><time>2026-03-31T08:55:15.018Z</time></trkpt><trkpt lat="45.00257150083883" lon="9.544612419297266"><ele>87.0</ele><time>2026-03-31T08:55:18.018Z</time></trkpt><trkpt lat="45.00254230946482" lon="9.544518112029772"><ele>87.0</ele><time>2026-03-31T08:55:20.018Z</time></trkpt><trkpt lat="45.00250483327772" lon="9.54442543738426"><ele>87.0</ele><time>2026-03-31T08:55:22.018Z</time></trkpt><trkpt lat="45.00247342561511" lon="9.544329343419976"><ele>87.0</ele><time>2026-03-31T08:55:24.018Z</time></trkpt><trkpt lat="45.00243821616536" lon="9.544232235751743"><ele>87.0</ele><time>2026-03-31T08:55:26.018Z</time></trkpt><trkpt lat="45.00240774195221" lon="9.544131581006662"><ele>87.0</ele><time>2026-03-31T08:55:28.018Z</time></trkpt><trkpt lat="45.00237112315217" lon="9.544033409922509"><ele>87.0</ele><time>2026-03-31T08:55:30.018Z</time></trkpt><trkpt lat="45.00233103520934" lon="9.54393983825458"><ele>87.0</ele><time>2026-03-31T08:55:32.018Z</time></trkpt><trkpt lat="45.00230482604246" lon="9.543840411620895"><ele>87.0</ele><time>2026-03-31T08:55:34.018Z</time></trkpt><trkpt lat="45.0022693166037" lon="9.543743813830254"><ele>87.0</ele><time>2026-03-31T08:55:36.018Z</time></trkpt><trkpt lat="45.00224128254676" lon="9.543651588567156"><ele>87.0</ele><time>2026-03-31T08:55:38.018Z</time></trkpt><trkpt lat="45.00220705861261" lon="9.543558061742356"><ele>86.66666666666667</ele><time>2026-03-31T08:55:40.018Z</time></trkpt><trkpt lat="45.00217396211326" lon="9.543459280451525"><ele>86.33333333333333</ele><time>2026-03-31T08:55:42.018Z</time></trkpt><trkpt lat="45.00213750097582" lon="9.54335319230171"><ele>86.0</ele><time>2026-03-31T08:55:44.018Z</time></trkpt><trkpt lat="45.002099406357175" lon="9.54324950197049"><ele>85.66666666666666</ele><time>2026-03-31T08:55:46.018Z</time></trkpt><trkpt lat="45.002061634940674" lon="9.54314568954661"><ele>85.33333333333333</ele><time>2026-03-31T08:55:48.018Z</time></trkpt><trkpt lat="45.00201973031507" lon="9.543035050789065"><ele>85.0</ele><time>2026-03-31T08:55:50.018Z</time></trkpt><trkpt lat="45.001980648624205" lon="9.542925467189226"><ele>85.0</ele><time>2026-03-31T08:55:52.018Z</time></trkpt><trkpt lat="45.00194235009757" lon="9.542810092883135"><ele>85.0</ele><time>2026-03-31T08:55:54.018Z</time></trkpt><trkpt lat="45.001903629570485" lon="9.542696036194029"><ele>85.0</ele><time>2026-03-31T08:55:56.018Z</time></trkpt><trkpt lat="45.00186144472136" lon="9.542585215071076"><ele>85.0</ele><time>2026-03-31T08:55:58.018Z</time></trkpt><trkpt lat="45.00182364559495" lon="9.54247015961453"><ele>85.0</ele><time>2026-03-31T08:56:00.018Z</time></trkpt><trkpt lat="45.0017826861139" lon="9.542361798675666"><ele>85.0</ele><time>2026-03-31T08:56:02.018Z</time></trkpt><trkpt lat="45.00174019320148" lon="9.542248724515195"><ele>85.0</ele><time>2026-03-31T08:56:04.018Z</time></trkpt><trkpt lat="45.00170186861146" lon="9.54213923085668"><ele>85.0</ele><time>2026-03-31T08:56:06.018Z</time></trkpt><trkpt lat="45.001664506326456" lon="9.542026038822833"><ele>85.0</ele><time>2026-03-31T08:56:08.018Z</time></trkpt><trkpt lat="45.001622978459764" lon="9.541914533551086"><ele>85.0</ele><time>2026-03-31T08:56:10.018Z</time></trkpt><trkpt lat="45.0015842023734" lon="9.541800610182417"><ele>85.0</ele><time>2026-03-31T08:56:12.018Z</time></trkpt><trkpt lat="45.001544284926844" lon="9.541687040894343"><ele>85.0</ele><time>2026-03-31T08:56:14.018Z</time></trkpt><trkpt lat="45.00150936733134" lon="9.541576072210121"><ele>85.5</ele><time>2026-03-31T08:56:16.018Z</time></trkpt><trkpt lat="45.00146787517196" lon="9.541467844020096"><ele>86.0</ele><time>2026-03-31T08:56:18.018Z</time></trkpt><trkpt lat="45.001430263448846" lon="9.541353886663785"><ele>86.5</ele><time>2026-03-31T08:56:20.018Z</time></trkpt><trkpt lat="45.00139495093793" lon="9.541241140081441"><ele>87.0</ele><time>2026-03-31T08:56:22.018Z</time></trkpt><trkpt lat="45.00135636640298" lon="9.541132927986856"><ele>87.5</ele><time>2026-03-31T08:56:24.018Z</time></trkpt><trkpt lat="45.001320056286424" lon="9.541021820344259"><ele>88.0</ele><time>2026-03-31T08:56:26.018Z</time></trkpt><trkpt lat="45.00128061931681" lon="9.540916596893261"><ele>88.0</ele><time>2026-03-31T08:56:28.018Z</time></trkpt><trkpt lat="45.00124485722472" lon="9.540808789380836"><ele>88.0</ele><time>2026-03-31T08:56:30.018Z</time></trkpt><trkpt lat="45.00120635715009" lon="9.540699563203027"><ele>88.0</ele><time>2026-03-31T08:56:32.018Z</time></trkpt><trkpt lat="45.00117389574387" lon="9.540590667006457"><ele>88.0</ele><time>2026-03-31T08:56:34.018Z</time></trkpt><trkpt lat="45.001132180862434" lon="9.540490944943329"><ele>88.0</ele><time>2026-03-31T08:56:36.019Z</time></trkpt><trkpt lat="45.00109628306494" lon="9.540384010636846"><ele>88.0</ele><time>2026-03-31T08:56:38.019Z</time></trkpt><trkpt lat="45.00106091805221" lon="9.540282075215972"><ele>88.16666666666666</ele><time>2026-03-31T08:56:40.02Z</time></trkpt><trkpt lat="45.00102543375573" lon="9.540182364173125"><ele>88.33333333333333</ele><time>2026-03-31T08:56:42.019Z</time></trkpt><trkpt lat="45.00098963437362" lon="9.540078611457346"><ele>88.5</ele><time>2026-03-31T08:56:44.019Z</time></trkpt><trkpt lat="45.00095498350253" lon="9.539975843639981"><ele>88.66666666666667</ele><time>2026-03-31T08:56:46.019Z</time></trkpt><trkpt lat="45.000917394220494" lon="9.53987338290484"><ele>88.83333333333334</ele><time>2026-03-31T08:56:48.019Z</time></trkpt><trkpt lat="45.00088109586508" lon="9.539779621957694"><ele>89.0</ele><time>2026-03-31T08:56:50.019Z</time></trkpt><trkpt lat="45.00084635665164" lon="9.539673607260942"><ele>89.0</ele><time>2026-03-31T08:56:52.019Z</time></trkpt><trkpt lat="45.00080903974031" lon="9.53957573858367"><ele>89.0</ele><time>2026-03-31T08:56:54.019Z</time></trkpt><trkpt lat="45.000773583797645" lon="9.539476122239744"><ele>89.0</ele><time>2026-03-31T08:56:56.02Z</time></trkpt><trkpt lat="45.00074232091296" lon="9.539382223838082"><ele>89.0</ele><time>2026-03-31T08:56:58.02Z</time></trkpt><trkpt lat="45.000709797247296" lon="9.539284989687003"><ele>89.0</ele><time>2026-03-31T08:57:00.02Z</time></trkpt><trkpt lat="45.00068059219972" lon="9.539185281764382"><ele>89.0</ele><time>2026-03-31T08:57:02.02Z</time></trkpt><trkpt lat="45.00063938331018" lon="9.539082682761574"><ele>89.16666666666667</ele><time>2026-03-31T08:57:04.02Z</time></trkpt><trkpt lat="45.00060215119071" lon="9.53898401830641"><ele>89.33333333333334</ele><time>2026-03-31T08:57:06.02Z</time></trkpt><trkpt lat="45.00056488228257" lon="9.538884624243726"><ele>89.5</ele><time>2026-03-31T08:57:08.02Z</time></trkpt><trkpt lat="45.00053243892204" lon="9.538787015614515"><ele>89.66666666666667</ele><time>2026-03-31T08:57:10.02Z</time></trkpt><trkpt lat="45.00050179290713" lon="9.538684239551074"><ele>89.83333333333333</ele><time>2026-03-31T08:57:12.02Z</time></trkpt><trkpt lat="45.00046018227815" lon="9.538583515705616"><ele>90.0</ele><time>2026-03-31T08:57:14.02Z</time></trkpt><trkpt lat="45.00042534240105" lon="9.538479456956143"><ele>90.0</ele><time>2026-03-31T08:57:16.02Z</time></trkpt><trkpt lat="45.00038447265603" lon="9.538372136358666"><ele>90.0</ele><time>2026-03-31T08:57:18.02Z</time></trkpt><trkpt lat="45.00034681399587" lon="9.538266571853464"><ele>90.0</ele><time>2026-03-31T08:57:20.02Z</time></trkpt><trkpt lat="45.00031447010021" lon="9.538158241946277"><ele>90.0</ele><time>2026-03-31T08:57:22.02Z</time></trkpt><trkpt lat="45.00027664869666" lon="9.538039909647722"><ele>90.0</ele><time>2026-03-31T08:57:24.02Z</time></trkpt><trkpt lat="45.00024116121492" lon="9.537925897919466"><ele>90.0</ele><time>2026-03-31T08:57:26.02Z</time></trkpt><trkpt lat="45.00020253190987" lon="9.537820116355379"><ele>90.0</ele><time>2026-03-31T08:57:28.02Z</time></trkpt><trkpt lat="45.00017289616167" lon="9.53769337865892"><ele>90.0</ele><time>2026-03-31T08:57:30.02Z</time></trkpt><trkpt lat="45.00013897675529" lon="9.537578496263318"><ele>90.0</ele><time>2026-03-31T08:57:32.02Z</time></trkpt><trkpt lat="45.000104724154255" lon="9.537446419873058"><ele>90.0</ele><time>2026-03-31T08:57:34.02Z</time></trkpt><trkpt lat="45.000068250427184" lon="9.537314910097516"><ele>90.0</ele><time>2026-03-31T08:57:36.02Z</time></trkpt><trkpt lat="45.00003454034378" lon="9.537184890298068"><ele>90.0</ele><time>2026-03-31T08:57:38.02Z</time></trkpt><trkpt lat="45.000003216985185" lon="9.537055117507345"><ele>90.0</ele><time>2026-03-31T08:57:40.02Z</time></trkpt><trkpt lat="44.999965115737915" lon="9.536930535108159"><ele>90.0</ele><time>2026-03-31T08:57:42.02Z</time></trkpt><trkpt lat="44.999927885128976" lon="9.536800172794269"><ele>90.0</ele><time>2026-03-31T08:57:44.02Z</time></trkpt><trkpt lat="44.9998994040921" lon="9.536662410183471"><ele>90.0</ele><time>2026-03-31T08:57:46.02Z</time></trkpt><trkpt lat="44.999860383979644" lon="9.53652152930125"><ele>90.0</ele><time>2026-03-31T08:57:48.02Z</time></trkpt><trkpt lat="44.99982406252202" lon="9.536379385806468"><ele>90.0</ele><time>2026-03-31T08:57:50.02Z</time></trkpt><trkpt lat="44.99978441330822" lon="9.536235751072702"><ele>90.0</ele><time>2026-03-31T08:57:52.02Z</time></trkpt><trkpt lat="44.99974574005278" lon="9.536088809375757"><ele>90.0</ele><time>2026-03-31T08:57:54.02Z</time></trkpt><trkpt lat="44.99969934817358" lon="9.535944045850465"><ele>90.0</ele><time>2026-03-31T08:57:56.02Z</time></trkpt><trkpt lat="44.99965295386555" lon="9.535803070925342"><ele>89.8</ele><time>2026-03-31T08:57:58.02Z</time></trkpt><trkpt lat="44.9996041918364" lon="9.535657991366975"><ele>89.6</ele><time>2026-03-31T08:58:00.02Z</time></trkpt><trkpt lat="44.99956361586506" lon="9.535518716101018"><ele>89.4</ele><time>2026-03-31T08:58:02.02Z</time></trkpt><trkpt lat="44.999512649173134" lon="9.535386751927046"><ele>89.2</ele><time>2026-03-31T08:58:04.02Z</time></trkpt><trkpt lat="44.99946398289937" lon="9.535265322448868"><ele>89.0</ele><time>2026-03-31T08:58:06.02Z</time></trkpt><trkpt lat="44.9994083953548" lon="9.535175763960357"><ele>89.0</ele><time>2026-03-31T08:58:08.02Z</time></trkpt><trkpt lat="44.99934962161622" lon="9.535042834802159"><ele>89.0</ele><time>2026-03-31T08:58:10.02Z</time></trkpt><trkpt lat="44.99929335099047" lon="9.534917092580095"><ele>89.0</ele><time>2026-03-31T08:58:12.02Z</time></trkpt><trkpt lat="44.99924155157992" lon="9.53480284810516"><ele>89.0</ele><time>2026-03-31T08:58:14.02Z</time></trkpt><trkpt lat="44.999175154607094" lon="9.53470816911906"><ele>89.0</ele><time>2026-03-31T08:58:16.02Z</time></trkpt><trkpt lat="44.999119254805116" lon="9.534563713972432"><ele>89.4</ele><time>2026-03-31T08:58:18.02Z</time></trkpt><trkpt lat="44.999068758963375" lon="9.534442643780284"><ele>89.80000000000001</ele><time>2026-03-31T08:58:20.02Z</time></trkpt><trkpt lat="44.99900537863262" lon="9.534321539638368"><ele>90.19999999999999</ele><time>2026-03-31T08:58:22.02Z</time></trkpt><trkpt lat="44.99892893455144" lon="9.534207110451014"><ele>90.6</ele><time>2026-03-31T08:58:24.02Z</time></trkpt><trkpt lat="44.998860745690706" lon="9.53408395560792"><ele>91.0</ele><time>2026-03-31T08:58:26.02Z</time></trkpt><trkpt lat="44.99879797192907" lon="9.533968370059625"><ele>91.0</ele><time>2026-03-31T08:58:28.02Z</time></trkpt><trkpt lat="44.998721356758516" lon="9.533853392563506"><ele>91.0</ele><time>2026-03-31T08:58:30.02Z</time></trkpt><trkpt lat="44.998659513006835" lon="9.53371966615228"><ele>91.0</ele><time>2026-03-31T08:58:32.02Z</time></trkpt><trkpt lat="44.99859843601151" lon="9.533587919483042"><ele>91.0</ele><time>2026-03-31T08:58:34.02Z</time></trkpt><trkpt lat="44.99853319428616" lon="9.53345610899275"><ele>91.0</ele><time>2026-03-31T08:58:36.02Z</time></trkpt><trkpt lat="44.99848693672037" lon="9.533319563649895"><ele>91.0</ele><time>2026-03-31T08:58:38.02Z</time></trkpt><trkpt lat="44.99844356831454" lon="9.533161886457522"><ele>91.0</ele><time>2026-03-31T08:58:40.02Z</time></trkpt><trkpt lat="44.998417544404354" lon="9.533015913109018"><ele>91.0</ele><time>2026-03-31T08:58:42.021Z</time></trkpt><trkpt lat="44.99841379157228" lon="9.532856351006803"><ele>91.0</ele><time>2026-03-31T08:58:44.021Z</time></trkpt><trkpt lat="44.99841770132739" lon="9.532713328233507"><ele>91.0</ele><time>2026-03-31T08:58:46.021Z</time></trkpt><trkpt lat="44.998412239175984" lon="9.532567098698934"><ele>91.0</ele><time>2026-03-31T08:58:48.02Z</time></trkpt><trkpt lat="44.99841714999386" lon="9.53243383569214"><ele>91.0</ele><time>2026-03-31T08:58:50.021Z</time></trkpt><trkpt lat="44.99841458195378" lon="9.532284989286687"><ele>91.0</ele><time>2026-03-31T08:58:52.02Z</time></trkpt><trkpt lat="44.99840139246247" lon="9.532150743005232"><ele>91.0</ele><time>2026-03-31T08:58:54.021Z</time></trkpt><trkpt lat="44.998405193099366" lon="9.53201878256603"><ele>91.0</ele><time>2026-03-31T08:58:56.021Z</time></trkpt><trkpt lat="44.998384802172716" lon="9.531888765816516"><ele>91.0</ele><time>2026-03-31T08:58:58.021Z</time></trkpt><trkpt lat="44.99835811120635" lon="9.531750947864088"><ele>91.0</ele><time>2026-03-31T08:59:00.021Z</time></trkpt><trkpt lat="44.9982962936231" lon="9.531639987863171"><ele>91.0</ele><time>2026-03-31T08:59:02.021Z</time></trkpt><trkpt lat="44.998225084984085" lon="9.531541339117295"><ele>91.0</ele><time>2026-03-31T08:59:04.021Z</time></trkpt><trkpt lat="44.99815253340346" lon="9.531441596869806"><ele>91.0</ele><time>2026-03-31T08:59:06.021Z</time></trkpt><trkpt lat="44.99807947733461" lon="9.531338459341463"><ele>91.0</ele><time>2026-03-31T08:59:08.021Z</time></trkpt><trkpt lat="44.99801458766588" lon="9.531235760145025"><ele>91.0</ele><time>2026-03-31T08:59:10.021Z</time></trkpt><trkpt lat="44.997949719288826" lon="9.531128133657658"><ele>91.0</ele><time>2026-03-31T08:59:12.021Z</time></trkpt><trkpt lat="44.9978817195691" lon="9.531025696622866"><ele>91.0</ele><time>2026-03-31T08:59:14.021Z</time></trkpt><trkpt lat="44.99781714029555" lon="9.53093538526217"><ele>90.8</ele><time>2026-03-31T08:59:16.021Z</time></trkpt><trkpt lat="44.99775166334503" lon="9.530818493017891"><ele>90.6</ele><time>2026-03-31T08:59:18.021Z</time></trkpt><trkpt lat="44.99769374265244" lon="9.53070599142344"><ele>90.4</ele><time>2026-03-31T08:59:20.021Z</time></trkpt><trkpt lat="44.997639974511046" lon="9.530591931188644"><ele>90.2</ele><time>2026-03-31T08:59:22.021Z</time></trkpt><trkpt lat="44.99757859619519" lon="9.530485547579659"><ele>90.0</ele><time>2026-03-31T08:59:24.021Z</time></trkpt><trkpt lat="44.99751721617301" lon="9.530382539347704"><ele>90.2</ele><time>2026-03-31T08:59:26.021Z</time></trkpt><trkpt lat="44.99745299098581" lon="9.530269223979543"><ele>90.4</ele><time>2026-03-31T08:59:28.021Z</time></trkpt><trkpt lat="44.99739167245819" lon="9.530145305813674"><ele>90.6</ele><time>2026-03-31T08:59:30.021Z</time></trkpt><trkpt lat="44.99733009315675" lon="9.530040504600024"><ele>90.8</ele><time>2026-03-31T08:59:32.021Z</time></trkpt><trkpt lat="44.99727645629751" lon="9.529916995118384"><ele>91.0</ele><time>2026-03-31T08:59:34.021Z</time></trkpt><trkpt lat="44.99721060719356" lon="9.529813642647056"><ele>91.0</ele><time>2026-03-31T08:59:36.021Z</time></trkpt><trkpt lat="44.99715426148451" lon="9.529701927484119"><ele>91.0</ele><time>2026-03-31T08:59:38.021Z</time></trkpt><trkpt lat="44.99709668132816" lon="9.52959360210894"><ele>91.0</ele><time>2026-03-31T08:59:40.021Z</time></trkpt><trkpt lat="44.997040205593144" lon="9.529479086225294"><ele>91.0</ele><time>2026-03-31T08:59:42.021Z</time></trkpt><trkpt lat="44.99698098306641" lon="9.529368389187347"><ele>91.0</ele><time>2026-03-31T08:59:44.021Z</time></trkpt><trkpt lat="44.996925759848764" lon="9.529246561781445"><ele>90.8</ele><time>2026-03-31T08:59:46.021Z</time></trkpt><trkpt lat="44.996873589843595" lon="9.529150148428963"><ele>90.6</ele><time>2026-03-31T08:59:48.021Z</time></trkpt><trkpt lat="44.996818781022824" lon="9.529024576346307"><ele>90.4</ele><time>2026-03-31T08:59:50.021Z</time></trkpt><trkpt lat="44.9967586599411" lon="9.528907138579363"><ele>90.2</ele><time>2026-03-31T08:59:52.021Z</time></trkpt><trkpt lat="44.996703627784825" lon="9.528788665930291"><ele>90.0</ele><time>2026-03-31T08:59:54.021Z</time></trkpt><trkpt lat="44.99664918455073" lon="9.528674487311518"><ele>90.0</ele><time>2026-03-31T08:59:56.021Z</time></trkpt><trkpt lat="44.99658562643358" lon="9.528555210540292"><ele>90.0</ele><time>2026-03-31T08:59:58.021Z</time></trkpt><trkpt lat="44.996536669212325" lon="9.528451468381704"><ele>90.0</ele><time>2026-03-31T09:00:00.021Z</time></trkpt><trkpt lat="44.99648042877587" lon="9.52833126925638"><ele>90.0</ele><time>2026-03-31T09:00:02.021Z</time></trkpt><trkpt lat="44.996424807537515" lon="9.528223157404152"><ele>90.0</ele><time>2026-03-31T09:00:04.021Z</time></trkpt><trkpt lat="44.9963720423166" lon="9.528108918323879"><ele>90.0</ele><time>2026-03-31T09:00:06.021Z</time></trkpt><trkpt lat="44.996315302442824" lon="9.527997296178851"><ele>90.0</ele><time>2026-03-31T09:00:08.021Z</time></trkpt><trkpt lat="44.996261660985994" lon="9.52788589822899"><ele>90.0</ele><time>2026-03-31T09:00:10.021Z</time></trkpt><trkpt lat="44.99620520748508" lon="9.527772522897793"><ele>90.0</ele><time>2026-03-31T09:00:12.021Z</time></trkpt><trkpt lat="44.99614869570116" lon="9.527659768905842"><ele>90.0</ele><time>2026-03-31T09:00:14.021Z</time></trkpt><trkpt lat="44.99609588522635" lon="9.527547358355683"><ele>90.0</ele><time>2026-03-31T09:00:16.021Z</time></trkpt><trkpt lat="44.99604042915608" lon="9.527435697655433"><ele>90.0</ele><time>2026-03-31T09:00:18.021Z</time></trkpt><trkpt lat="44.99598370440392" lon="9.527319249070588"><ele>90.0</ele><time>2026-03-31T09:00:20.021Z</time></trkpt><trkpt lat="44.995929117441335" lon="9.527202252948877"><ele>90.0</ele><time>2026-03-31T09:00:22.021Z</time></trkpt><trkpt lat="44.99587329654936" lon="9.527092108869113"><ele>90.0</ele><time>2026-03-31T09:00:24.021Z</time></trkpt><trkpt lat="44.9958206944163" lon="9.526978921976971"><ele>90.4</ele><time>2026-03-31T09:00:26.021Z</time></trkpt><trkpt lat="44.995762055094296" lon="9.52688039800735"><ele>90.8</ele><time>2026-03-31T09:00:28.021Z</time></trkpt><trkpt lat="44.99568987119618" lon="9.526798585859039"><ele>91.19999999999999</ele><time>2026-03-31T09:00:30.021Z</time></trkpt><trkpt lat="44.995603306112784" lon="9.526753123071154"><ele>91.6</ele><time>2026-03-31T09:00:32.021Z</time></trkpt><trkpt lat="44.99550643560892" lon="9.526740718059656"><ele>92.0</ele><time>2026-03-31T09:00:34.021Z</time></trkpt><trkpt lat="44.99540710157037" lon="9.526739994589784"><ele>92.0</ele><time>2026-03-31T09:00:36.021Z</time></trkpt><trkpt lat="44.99530759712186" lon="9.52674273561738"><ele>92.0</ele><time>2026-03-31T09:00:38.021Z</time></trkpt><trkpt lat="44.99520596379176" lon="9.526751003638527"><ele>92.0</ele><time>2026-03-31T09:00:40.021Z</time></trkpt><trkpt lat="44.9951073434952" lon="9.526753811965904"><ele>92.0</ele><time>2026-03-31T09:00:42.022Z</time></trkpt><trkpt lat="44.99501112943021" lon="9.526761846458625"><ele>92.0</ele><time>2026-03-31T09:00:44.022Z</time></trkpt><trkpt lat="44.99491008386591" lon="9.52676157684684"><ele>92.19999999999999</ele><time>2026-03-31T09:00:46.022Z</time></trkpt><trkpt lat="44.99481255257949" lon="9.526769129201107"><ele>92.4</ele><time>2026-03-31T09:00:48.022Z</time></trkpt><trkpt lat="44.994713872163025" lon="9.526771577323066"><ele>92.6</ele><time>2026-03-31T09:00:50.023Z</time></trkpt><trkpt lat="44.99461611382653" lon="9.526768492189307"><ele>92.80000000000001</ele><time>2026-03-31T09:00:52.023Z</time></trkpt><trkpt lat="44.99451754437398" lon="9.526760875636574"><ele>93.0</ele><time>2026-03-31T09:00:54.022Z</time></trkpt><trkpt lat="44.99441330018241" lon="9.526738583608308"><ele>93.0</ele><time>2026-03-31T09:00:56.022Z</time></trkpt><trkpt lat="44.994314765729186" lon="9.526724662020124"><ele>93.0</ele><time>2026-03-31T09:00:58.022Z</time></trkpt><trkpt lat="44.99421392423698" lon="9.526709860769426"><ele>93.0</ele><time>2026-03-31T09:01:00.022Z</time></trkpt><trkpt lat="44.994119382612254" lon="9.526696496401016"><ele>93.0</ele><time>2026-03-31T09:01:02.022Z</time></trkpt><trkpt lat="44.99402227288036" lon="9.52667735281951"><ele>93.0</ele><time>2026-03-31T09:01:04.022Z</time></trkpt><trkpt lat="44.99392577146598" lon="9.526666611253475"><ele>93.4</ele><time>2026-03-31T09:01:06.022Z</time></trkpt><trkpt lat="44.99382880929701" lon="9.526640799861191"><ele>93.80000000000001</ele><time>2026-03-31T09:01:08.022Z</time></trkpt><trkpt lat="44.9937265279971" lon="9.52662097897601"><ele>94.2</ele><time>2026-03-31T09:01:10.022Z</time></trkpt><trkpt lat="44.993625774887114" lon="9.526600015540511"><ele>94.6</ele><time>2026-03-31T09:01:12.022Z</time></trkpt><trkpt lat="44.99352637988327" lon="9.526570350231168"><ele>95.0</ele><time>2026-03-31T09:01:14.022Z</time></trkpt><trkpt lat="44.99342435358759" lon="9.526541449480673"><ele>95.2</ele><time>2026-03-31T09:01:16.022Z</time></trkpt><trkpt lat="44.99333107785669" lon="9.52651338440545"><ele>95.4</ele><time>2026-03-31T09:01:18.022Z</time></trkpt><trkpt lat="44.993227476955674" lon="9.526477337875688"><ele>95.6</ele><time>2026-03-31T09:01:20.022Z</time></trkpt><trkpt lat="44.99312771269925" lon="9.526444219736817"><ele>95.8</ele><time>2026-03-31T09:01:22.022Z</time></trkpt><trkpt lat="44.99302934658619" lon="9.526416781938702"><ele>96.0</ele><time>2026-03-31T09:01:24.022Z</time></trkpt><trkpt lat="44.99292933621229" lon="9.526386491628186"><ele>96.0</ele><time>2026-03-31T09:01:26.022Z</time></trkpt><trkpt lat="44.99282805981522" lon="9.526348615984528"><ele>96.0</ele><time>2026-03-31T09:01:28.022Z</time></trkpt><trkpt lat="44.99272667403111" lon="9.52631701268734"><ele>96.0</ele><time>2026-03-31T09:01:30.022Z</time></trkpt><trkpt lat="44.992626027572456" lon="9.52628658706898"><ele>96.0</ele><time>2026-03-31T09:01:32.022Z</time></trkpt><trkpt lat="44.99252529000664" lon="9.526257436226413"><ele>96.0</ele><time>2026-03-31T09:01:34.022Z</time></trkpt><trkpt lat="44.99242475135092" lon="9.52622617885304"><ele>95.4</ele><time>2026-03-31T09:01:36.022Z</time></trkpt><trkpt lat="44.99231832522932" lon="9.526193145557533"><ele>94.8</ele><time>2026-03-31T09:01:38.022Z</time></trkpt><trkpt lat="44.992219342233355" lon="9.52614510905262"><ele>94.2</ele><time>2026-03-31T09:01:40.022Z</time></trkpt><trkpt lat="44.9921274307288" lon="9.526076464370247"><ele>93.60000000000001</ele><time>2026-03-31T09:01:42.022Z</time></trkpt><trkpt lat="44.992040835325085" lon="9.526002397875596"><ele>93.0</ele><time>2026-03-31T09:01:44.022Z</time></trkpt><trkpt lat="44.99196135943318" lon="9.52590814049735"><ele>93.0</ele><time>2026-03-31T09:01:46.022Z</time></trkpt><trkpt lat="44.99188525628059" lon="9.525810169103858"><ele>93.0</ele><time>2026-03-31T09:01:48.022Z</time></trkpt><trkpt lat="44.991814843620205" lon="9.525710047157533"><ele>93.0</ele><time>2026-03-31T09:01:50.022Z</time></trkpt><trkpt lat="44.99174472723817" lon="9.525611230009503"><ele>93.0</ele><time>2026-03-31T09:01:52.022Z</time></trkpt><trkpt lat="44.99167087899644" lon="9.525513781743136"><ele>93.0</ele><time>2026-03-31T09:01:54.022Z</time></trkpt><trkpt lat="44.99160844865995" lon="9.525416669145551"><ele>93.60000000000001</ele><time>2026-03-31T09:01:56.022Z</time></trkpt><trkpt lat="44.99153390656574" lon="9.525319934316263"><ele>94.2</ele><time>2026-03-31T09:01:58.022Z</time></trkpt><trkpt lat="44.99145988995709" lon="9.525222152201296"><ele>94.8</ele><time>2026-03-31T09:02:00.022Z</time></trkpt><trkpt lat="44.9913855666904" lon="9.525122456344402"><ele>95.4</ele><time>2026-03-31T09:02:02.022Z</time></trkpt><trkpt lat="44.99131375725725" lon="9.525016758839481"><ele>96.0</ele><time>2026-03-31T09:02:04.022Z</time></trkpt><trkpt lat="44.99123848715059" lon="9.52491381119813"><ele>96.0</ele><time>2026-03-31T09:02:06.022Z</time></trkpt><trkpt lat="44.99116561857579" lon="9.524811948204665"><ele>96.0</ele><time>2026-03-31T09:02:08.023Z</time></trkpt><trkpt lat="44.99109922879864" lon="9.52470904946607"><ele>96.0</ele><time>2026-03-31T09:02:10.023Z</time></trkpt><trkpt lat="44.991025396932024" lon="9.524613863988286"><ele>96.0</ele><time>2026-03-31T09:02:12.023Z</time></trkpt><trkpt lat="44.99095598561017" lon="9.52451006651189"><ele>96.0</ele><time>2026-03-31T09:02:14.023Z</time></trkpt><trkpt lat="44.9908792571119" lon="9.524409547966481"><ele>96.0</ele><time>2026-03-31T09:02:16.023Z</time></trkpt><trkpt lat="44.99081589668213" lon="9.524307600645104"><ele>96.0</ele><time>2026-03-31T09:02:18.023Z</time></trkpt><trkpt lat="44.99074932017656" lon="9.524220369596824"><ele>96.0</ele><time>2026-03-31T09:02:20.023Z</time></trkpt><trkpt lat="44.990684719220454" lon="9.524131443070415"><ele>96.0</ele><time>2026-03-31T09:02:22.023Z</time></trkpt><trkpt lat="44.99062009685893" lon="9.524042816177763"><ele>96.0</ele><time>2026-03-31T09:02:24.023Z</time></trkpt><trkpt lat="44.990559445760404" lon="9.523959244776359"><ele>96.0</ele><time>2026-03-31T09:02:26.023Z</time></trkpt><trkpt lat="44.99049225233468" lon="9.52387278871604"><ele>96.0</ele><time>2026-03-31T09:02:28.023Z</time></trkpt><trkpt lat="44.99042958823483" lon="9.523784232337704"><ele>96.0</ele><time>2026-03-31T09:02:30.023Z</time></trkpt><trkpt lat="44.99036292722243" lon="9.523688251255914"><ele>96.0</ele><time>2026-03-31T09:02:32.023Z</time></trkpt><trkpt lat="44.990307422544454" lon="9.523612653996677"><ele>96.0</ele><time>2026-03-31T09:02:34.023Z</time></trkpt><trkpt lat="44.99022738506" lon="9.523542927957473"><ele>96.0</ele><time>2026-03-31T09:02:36.023Z</time></trkpt><trkpt lat="44.99012447764447" lon="9.523490184781721"><ele>96.4</ele><time>2026-03-31T09:02:38.023Z</time></trkpt><trkpt lat="44.99001394772821" lon="9.523426309637433"><ele>96.8</ele><time>2026-03-31T09:02:40.023Z</time></trkpt><trkpt lat="44.98995413836691" lon="9.523394063662142"><ele>97.2</ele><time>2026-03-31T09:02:41.023Z</time></trkpt><trkpt lat="44.98983429671508" lon="9.523346102665666"><ele>97.60000000000001</ele><time>2026-03-31T09:02:43.023Z</time></trkpt><trkpt lat="44.98976378283264" lon="9.523316788565593"><ele>98.0</ele><time>2026-03-31T09:02:44.023Z</time></trkpt><trkpt lat="44.98963937785639" lon="9.523267178824401"><ele>97.99999999999999</ele><time>2026-03-31T09:02:46.023Z</time></trkpt><trkpt lat="44.989578091136394" lon="9.523240400406056"><ele>98.0</ele><time>2026-03-31T09:02:47.023Z</time></trkpt><trkpt lat="44.9895108428123" lon="9.523219506171905"><ele>98.0</ele><time>2026-03-31T09:02:48.023Z</time></trkpt><trkpt lat="44.9894446345059" lon="9.52318886433313"><ele>98.0</ele><time>2026-03-31T09:02:49.023Z</time></trkpt><trkpt lat="44.98931592633158" lon="9.523140211784915"><ele>97.99999999999999</ele><time>2026-03-31T09:02:51.023Z</time></trkpt><trkpt lat="44.98925353190551" lon="9.523115331673056"><ele>98.0</ele><time>2026-03-31T09:02:52.023Z</time></trkpt><trkpt lat="44.989191233341465" lon="9.523091122751664"><ele>97.85714285714286</ele><time>2026-03-31T09:02:53.024Z</time></trkpt><trkpt lat="44.98912745157855" lon="9.523063443729056"><ele>97.71428571428572</ele><time>2026-03-31T09:02:54.024Z</time></trkpt><trkpt lat="44.989063882423174" lon="9.523037845331508"><ele>97.57142857142857</ele><time>2026-03-31T09:02:55.024Z</time></trkpt><trkpt lat="44.98900001114164" lon="9.523011342264835"><ele>97.42857142857143</ele><time>2026-03-31T09:02:56.024Z</time></trkpt><trkpt lat="44.9889370460694" lon="9.522985162793187"><ele>97.28571428571429</ele><time>2026-03-31T09:02:57.023Z</time></trkpt><trkpt lat="44.98887618448405" lon="9.522960781626061"><ele>97.14285714285714</ele><time>2026-03-31T09:02:58.023Z</time></trkpt><trkpt lat="44.98881367176722" lon="9.522936943760376"><ele>97.0</ele><time>2026-03-31T09:02:59.024Z</time></trkpt><trkpt lat="44.98875196401458" lon="9.522911953296694"><ele>96.85714285714285</ele><time>2026-03-31T09:03:00.023Z</time></trkpt><trkpt lat="44.988690393928366" lon="9.522885975571324"><ele>96.71428571428572</ele><time>2026-03-31T09:03:01.023Z</time></trkpt><trkpt lat="44.98862700272273" lon="9.522859169997446"><ele>96.57142857142857</ele><time>2026-03-31T09:03:02.024Z</time></trkpt><trkpt lat="44.98856616252676" lon="9.522833609452515"><ele>96.42857142857142</ele><time>2026-03-31T09:03:03.024Z</time></trkpt><trkpt lat="44.98850249393385" lon="9.522810496263327"><ele>96.28571428571428</ele><time>2026-03-31T09:03:04.024Z</time></trkpt><trkpt lat="44.988440543762835" lon="9.522784000178957"><ele>96.14285714285714</ele><time>2026-03-31T09:03:05.024Z</time></trkpt><trkpt lat="44.98837603869771" lon="9.522757109201796"><ele>96.0</ele><time>2026-03-31T09:03:06.024Z</time></trkpt><trkpt lat="44.98831277765071" lon="9.522734972707594"><ele>96.5</ele><time>2026-03-31T09:03:07.024Z</time></trkpt><trkpt lat="44.98824616792478" lon="9.522707331477715"><ele>97.0</ele><time>2026-03-31T09:03:08.024Z</time></trkpt><trkpt lat="44.98818442700184" lon="9.522672772701803"><ele>97.5</ele><time>2026-03-31T09:03:09.024Z</time></trkpt><trkpt lat="44.98805479523204" lon="9.52262429181829"><ele>98.0</ele><time>2026-03-31T09:03:11.024Z</time></trkpt><trkpt lat="44.98799047891742" lon="9.522599745091153"><ele>98.5</ele><time>2026-03-31T09:03:12.024Z</time></trkpt><trkpt lat="44.98792740710831" lon="9.522577065501611"><ele>99.0</ele><time>2026-03-31T09:03:13.024Z</time></trkpt><trkpt lat="44.987857263667436" lon="9.522549181805791"><ele>99.0</ele><time>2026-03-31T09:03:14.024Z</time></trkpt><trkpt lat="44.9877917075988" lon="9.522520139648144"><ele>99.0</ele><time>2026-03-31T09:03:15.024Z</time></trkpt><trkpt lat="44.98772299215706" lon="9.522499518324913"><ele>99.0</ele><time>2026-03-31T09:03:16.024Z</time></trkpt><trkpt lat="44.987654294514755" lon="9.52247807050172"><ele>99.0</ele><time>2026-03-31T09:03:17.024Z</time></trkpt><trkpt lat="44.98758116253233" lon="9.522456018023682"><ele>99.0</ele><time>2026-03-31T09:03:18.024Z</time></trkpt><trkpt lat="44.987511955199516" lon="9.522439490864308"><ele>99.0</ele><time>2026-03-31T09:03:19.024Z</time></trkpt><trkpt lat="44.987441951371665" lon="9.522426028591859"><ele>99.0</ele><time>2026-03-31T09:03:20.024Z</time></trkpt><trkpt lat="44.987370178670346" lon="9.522407541234104"><ele>98.85714285714286</ele><time>2026-03-31T09:03:21.024Z</time></trkpt><trkpt lat="44.98730082037276" lon="9.522397578273619"><ele>98.71428571428571</ele><time>2026-03-31T09:03:22.024Z</time></trkpt><trkpt lat="44.98722894327113" lon="9.522382311248066"><ele>98.57142857142857</ele><time>2026-03-31T09:03:23.024Z</time></trkpt><trkpt lat="44.98715997066285" lon="9.52236733447625"><ele>98.42857142857143</ele><time>2026-03-31T09:03:24.024Z</time></trkpt><trkpt lat="44.9870882539528" lon="9.522351038148825"><ele>98.28571428571428</ele><time>2026-03-31T09:03:25.024Z</time></trkpt><trkpt lat="44.98702175957112" lon="9.522336461700958"><ele>98.14285714285714</ele><time>2026-03-31T09:03:26.024Z</time></trkpt><trkpt lat="44.98695550035539" lon="9.522323906618372"><ele>98.0</ele><time>2026-03-31T09:03:27.024Z</time></trkpt><trkpt lat="44.98688505415495" lon="9.522307279192454"><ele>98.0</ele><time>2026-03-31T09:03:28.024Z</time></trkpt><trkpt lat="44.9868178250827" lon="9.522300976365655"><ele>98.0</ele><time>2026-03-31T09:03:29.024Z</time></trkpt><trkpt lat="44.98674898328991" lon="9.522293159830708"><ele>98.0</ele><time>2026-03-31T09:03:30.024Z</time></trkpt><trkpt lat="44.98667761842723" lon="9.522279706433128"><ele>98.0</ele><time>2026-03-31T09:03:31.024Z</time></trkpt><trkpt lat="44.98660963939954" lon="9.522274427213299"><ele>98.0</ele><time>2026-03-31T09:03:32.024Z</time></trkpt><trkpt lat="44.98653860191546" lon="9.522264654120356"><ele>98.0</ele><time>2026-03-31T09:03:33.024Z</time></trkpt><trkpt lat="44.98646791316981" lon="9.522260713659126"><ele>98.0</ele><time>2026-03-31T09:03:34.024Z</time></trkpt><trkpt lat="44.98639760463042" lon="9.522258313031525"><ele>97.71428571428571</ele><time>2026-03-31T09:03:35.024Z</time></trkpt><trkpt lat="44.98632636900585" lon="9.52224721749775"><ele>97.42857142857143</ele><time>2026-03-31T09:03:36.024Z</time></trkpt><trkpt lat="44.98625725247135" lon="9.522238803333078"><ele>97.14285714285714</ele><time>2026-03-31T09:03:37.024Z</time></trkpt><trkpt lat="44.986188554609086" lon="9.522225054721838"><ele>96.85714285714286</ele><time>2026-03-31T09:03:38.024Z</time></trkpt><trkpt lat="44.986119337779094" lon="9.522210800038845"><ele>96.57142857142857</ele><time>2026-03-31T09:03:39.024Z</time></trkpt><trkpt lat="44.98604136081521" lon="9.52219914406457"><ele>96.28571428571428</ele><time>2026-03-31T09:03:40.024Z</time></trkpt><trkpt lat="44.985969736394544" lon="9.52218714170236"><ele>96.0</ele><time>2026-03-31T09:03:41.024Z</time></trkpt><trkpt lat="44.98589890432562" lon="9.52217375134172"><ele>96.28571428571428</ele><time>2026-03-31T09:03:42.024Z</time></trkpt><trkpt lat="44.98582802197951" lon="9.522163415793035"><ele>96.57142857142857</ele><time>2026-03-31T09:03:43.024Z</time></trkpt><trkpt lat="44.985756062083404" lon="9.522154973468327"><ele>96.85714285714286</ele><time>2026-03-31T09:03:44.024Z</time></trkpt><trkpt lat="44.98568216825537" lon="9.522142156722671"><ele>97.14285714285714</ele><time>2026-03-31T09:03:45.024Z</time></trkpt><trkpt lat="44.98561020534848" lon="9.522128679301007"><ele>97.42857142857143</ele><time>2026-03-31T09:03:46.024Z</time></trkpt><trkpt lat="44.98554348668538" lon="9.522120737092726"><ele>97.71428571428571</ele><time>2026-03-31T09:03:47.024Z</time></trkpt><trkpt lat="44.9854715274523" lon="9.522105158627781"><ele>98.0</ele><time>2026-03-31T09:03:48.024Z</time></trkpt><trkpt lat="44.98540042063359" lon="9.522091935211067"><ele>98.0</ele><time>2026-03-31T09:03:49.024Z</time></trkpt><trkpt lat="44.98532789525334" lon="9.522079800003462"><ele>98.0</ele><time>2026-03-31T09:03:50.024Z</time></trkpt><trkpt lat="44.98525862563505" lon="9.522067678559422"><ele>98.0</ele><time>2026-03-31T09:03:51.024Z</time></trkpt><trkpt lat="44.985193353968924" lon="9.522055408916454"><ele>98.0</ele><time>2026-03-31T09:03:52.024Z</time></trkpt><trkpt lat="44.98511868810578" lon="9.52204658533491"><ele>98.0</ele><time>2026-03-31T09:03:53.025Z</time></trkpt><trkpt lat="44.985049473640636" lon="9.522044566766766"><ele>98.0</ele><time>2026-03-31T09:03:54.025Z</time></trkpt><trkpt lat="44.98498200196774" lon="9.522042760052804"><ele>98.0</ele><time>2026-03-31T09:03:55.025Z</time></trkpt><trkpt lat="44.98491320193638" lon="9.52204840538811"><ele>98.14285714285714</ele><time>2026-03-31T09:03:56.025Z</time></trkpt><trkpt lat="44.98484510302036" lon="9.522059167618318"><ele>98.28571428571428</ele><time>2026-03-31T09:03:57.025Z</time></trkpt><trkpt lat="44.98477608096479" lon="9.522075878210009"><ele>98.42857142857143</ele><time>2026-03-31T09:03:58.025Z</time></trkpt><trkpt lat="44.98471019679237" lon="9.522095150131058"><ele>98.57142857142857</ele><time>2026-03-31T09:03:59.025Z</time></trkpt><trkpt lat="44.984644417166905" lon="9.522123233831962"><ele>98.71428571428571</ele><time>2026-03-31T09:04:00.025Z</time></trkpt><trkpt lat="44.98457753812734" lon="9.522150628375517"><ele>98.85714285714286</ele><time>2026-03-31T09:04:01.025Z</time></trkpt><trkpt lat="44.98450780065489" lon="9.522171345514453"><ele>99.0</ele><time>2026-03-31T09:04:02.025Z</time></trkpt><trkpt lat="44.98443973699521" lon="9.522192517274702"><ele>99.0</ele><time>2026-03-31T09:04:03.025Z</time></trkpt><trkpt lat="44.98437231591344" lon="9.522214486625561"><ele>99.0</ele><time>2026-03-31T09:04:04.025Z</time></trkpt><trkpt lat="44.98430026379503" lon="9.522236408304149"><ele>99.0</ele><time>2026-03-31T09:04:05.025Z</time></trkpt><trkpt lat="44.98423241948094" lon="9.52225800083916"><ele>99.0</ele><time>2026-03-31T09:04:06.025Z</time></trkpt><trkpt lat="44.98416178056948" lon="9.522277302148721"><ele>99.0</ele><time>2026-03-31T09:04:07.025Z</time></trkpt><trkpt lat="44.98409320094828" lon="9.522296687808415"><ele>99.0</ele><time>2026-03-31T09:04:08.025Z</time></trkpt><trkpt lat="44.9840278112923" lon="9.522306769930113"><ele>99.0</ele><time>2026-03-31T09:04:09.025Z</time></trkpt><trkpt lat="44.98395662783476" lon="9.522326802774652"><ele>99.14285714285715</ele><time>2026-03-31T09:04:10.025Z</time></trkpt><trkpt lat="44.98388293985757" lon="9.52233264364697"><ele>99.28571428571428</ele><time>2026-03-31T09:04:11.025Z</time></trkpt><trkpt lat="44.98381622579402" lon="9.522347981302849"><ele>99.42857142857143</ele><time>2026-03-31T09:04:12.025Z</time></trkpt><trkpt lat="44.98374793038023" lon="9.522357893461978"><ele>99.57142857142858</ele><time>2026-03-31T09:04:13.025Z</time></trkpt><trkpt lat="44.98367821048346" lon="9.522367305073612"><ele>99.71428571428572</ele><time>2026-03-31T09:04:14.025Z</time></trkpt><trkpt lat="44.983611313468685" lon="9.522382115074674"><ele>99.85714285714286</ele><time>2026-03-31T09:04:15.025Z</time></trkpt><trkpt lat="44.983542085641524" lon="9.522392021404801"><ele>100.0</ele><time>2026-03-31T09:04:16.025Z</time></trkpt><trkpt lat="44.983477522038385" lon="9.522403471701628"><ele>100.00000000000001</ele><time>2026-03-31T09:04:17.025Z</time></trkpt><trkpt lat="44.983409379391404" lon="9.522411853086396"><ele>100.0</ele><time>2026-03-31T09:04:18.025Z</time></trkpt><trkpt lat="44.983339973276244" lon="9.522415783900689"><ele>100.0</ele><time>2026-03-31T09:04:19.025Z</time></trkpt><trkpt lat="44.98326641127669" lon="9.522417292142048"><ele>100.0</ele><time>2026-03-31T09:04:20.025Z</time></trkpt><trkpt lat="44.9831959228709" lon="9.522415952367538"><ele>100.0</ele><time>2026-03-31T09:04:21.025Z</time></trkpt><trkpt lat="44.98312483750519" lon="9.522410040655796"><ele>100.00000000000001</ele><time>2026-03-31T09:04:22.025Z</time></trkpt><trkpt lat="44.983056532669856" lon="9.52240457935017"><ele>100.0</ele><time>2026-03-31T09:04:23.025Z</time></trkpt><trkpt lat="44.98298871080778" lon="9.52239430093773"><ele>99.83333333333334</ele><time>2026-03-31T09:04:24.025Z</time></trkpt><trkpt lat="44.98292145071467" lon="9.522378960866956"><ele>99.66666666666667</ele><time>2026-03-31T09:04:25.025Z</time></trkpt><trkpt lat="44.9828516812289" lon="9.522366235966016"><ele>99.5</ele><time>2026-03-31T09:04:26.025Z</time></trkpt><trkpt lat="44.98278587410511" lon="9.52235349232075"><ele>99.33333333333334</ele><time>2026-03-31T09:04:27.025Z</time></trkpt><trkpt lat="44.98271892296579" lon="9.522332045307062"><ele>99.16666666666667</ele><time>2026-03-31T09:04:28.025Z</time></trkpt><trkpt lat="44.98265642429057" lon="9.522309300860014"><ele>99.0</ele><time>2026-03-31T09:04:29.025Z</time></trkpt><trkpt lat="44.982537909254624" lon="9.522267007929921"><ele>99.0</ele><time>2026-03-31T09:04:31.025Z</time></trkpt><trkpt lat="44.982435287145826" lon="9.522219960993201"><ele>99.0</ele><time>2026-03-31T09:04:33.025Z</time></trkpt><trkpt lat="44.982340707471764" lon="9.522174093339169"><ele>99.0</ele><time>2026-03-31T09:04:35.025Z</time></trkpt><trkpt lat="44.982249512321545" lon="9.522122938733276"><ele>99.0</ele><time>2026-03-31T09:04:37.025Z</time></trkpt><trkpt lat="44.982163625272854" lon="9.522066696903554"><ele>99.0</ele><time>2026-03-31T09:04:39.025Z</time></trkpt><trkpt lat="44.98206278987265" lon="9.522003190378989"><ele>99.0</ele><time>2026-03-31T09:04:41.025Z</time></trkpt><trkpt lat="44.98196076606823" lon="9.52193820347349"><ele>99.0</ele><time>2026-03-31T09:04:43.025Z</time></trkpt><trkpt lat="44.98185649327709" lon="9.521866892211131"><ele>99.0</ele><time>2026-03-31T09:04:45.025Z</time></trkpt><trkpt lat="44.98174717711731" lon="9.521804700115766"><ele>99.0</ele><time>2026-03-31T09:04:47.025Z</time></trkpt><trkpt lat="44.98163655771436" lon="9.52175783380819"><ele>99.28571428571429</ele><time>2026-03-31T09:04:49.025Z</time></trkpt><trkpt lat="44.98157547971585" lon="9.521736078254861"><ele>99.57142857142857</ele><time>2026-03-31T09:04:50.025Z</time></trkpt><trkpt lat="44.981512770267194" lon="9.52172216031743"><ele>99.85714285714286</ele><time>2026-03-31T09:04:51.025Z</time></trkpt><trkpt lat="44.98144898367989" lon="9.52171270611009"><ele>100.14285714285714</ele><time>2026-03-31T09:04:52.025Z</time></trkpt><trkpt lat="44.9813850129859" lon="9.521717051449974"><ele>100.42857142857142</ele><time>2026-03-31T09:04:53.025Z</time></trkpt><trkpt lat="44.98131275289018" lon="9.521726114762755"><ele>100.71428571428571</ele><time>2026-03-31T09:04:54.025Z</time></trkpt><trkpt lat="44.981247065972134" lon="9.52173606682243"><ele>101.0</ele><time>2026-03-31T09:04:55.025Z</time></trkpt><trkpt lat="44.981181695492495" lon="9.521749752258405"><ele>101.0</ele><time>2026-03-31T09:04:56.025Z</time></trkpt><trkpt lat="44.98111828376004" lon="9.521762736459166"><ele>101.0</ele><time>2026-03-31T09:04:57.025Z</time></trkpt><trkpt lat="44.98105153328289" lon="9.521776144328419"><ele>101.0</ele><time>2026-03-31T09:04:58.025Z</time></trkpt><trkpt lat="44.980981588037295" lon="9.521799371001919"><ele>101.0</ele><time>2026-03-31T09:04:59.026Z</time></trkpt><trkpt lat="44.98091351935981" lon="9.521815218409758"><ele>101.0</ele><time>2026-03-31T09:05:00.025Z</time></trkpt><trkpt lat="44.9808387342244" lon="9.52182960146045"><ele>101.0</ele><time>2026-03-31T09:05:01.025Z</time></trkpt><trkpt lat="44.98076474376018" lon="9.521850865342653"><ele>101.0</ele><time>2026-03-31T09:05:02.025Z</time></trkpt><trkpt lat="44.980688971210654" lon="9.521874492401228"><ele>100.83333333333333</ele><time>2026-03-31T09:05:03.026Z</time></trkpt><trkpt lat="44.980611629188445" lon="9.521894556842817"><ele>100.66666666666666</ele><time>2026-03-31T09:05:04.026Z</time></trkpt><trkpt lat="44.98053530354926" lon="9.521919335818284"><ele>100.5</ele><time>2026-03-31T09:05:05.025Z</time></trkpt><trkpt lat="44.98045979223736" lon="9.52194109858189"><ele>100.33333333333334</ele><time>2026-03-31T09:05:06.025Z</time></trkpt><trkpt lat="44.98038297992217" lon="9.521967975014338"><ele>100.16666666666667</ele><time>2026-03-31T09:05:07.025Z</time></trkpt><trkpt lat="44.980306571456666" lon="9.522004285022113"><ele>100.0</ele><time>2026-03-31T09:05:08.026Z</time></trkpt><trkpt lat="44.98023561507863" lon="9.522049049553283"><ele>100.33333333333334</ele><time>2026-03-31T09:05:09.025Z</time></trkpt><trkpt lat="44.98016815878311" lon="9.522095221151451"><ele>100.66666666666667</ele><time>2026-03-31T09:05:10.025Z</time></trkpt><trkpt lat="44.980101171791524" lon="9.522150386321876"><ele>101.0</ele><time>2026-03-31T09:05:11.025Z</time></trkpt><trkpt lat="44.980035637392206" lon="9.522209936267718"><ele>101.33333333333334</ele><time>2026-03-31T09:05:12.025Z</time></trkpt><trkpt lat="44.97996950082495" lon="9.52226441305172"><ele>101.66666666666667</ele><time>2026-03-31T09:05:13.025Z</time></trkpt><trkpt lat="44.9798997220463" lon="9.5223108124044"><ele>102.0</ele><time>2026-03-31T09:05:14.025Z</time></trkpt><trkpt lat="44.97982882279368" lon="9.522352233705012"><ele>102.0</ele><time>2026-03-31T09:05:15.025Z</time></trkpt><trkpt lat="44.979760454487725" lon="9.52238373977875"><ele>102.0</ele><time>2026-03-31T09:05:16.025Z</time></trkpt><trkpt lat="44.97968756616589" lon="9.522409105552178"><ele>102.0</ele><time>2026-03-31T09:05:17.025Z</time></trkpt><trkpt lat="44.979617663450696" lon="9.522431513800838"><ele>102.0</ele><time>2026-03-31T09:05:18.025Z</time></trkpt><trkpt lat="44.979544845996536" lon="9.522449873791398"><ele>102.0</ele><time>2026-03-31T09:05:19.025Z</time></trkpt><trkpt lat="44.97947435855453" lon="9.522465983845631"><ele>102.0</ele><time>2026-03-31T09:05:20.025Z</time></trkpt><trkpt lat="44.979402889365495" lon="9.522477114406918"><ele>102.0</ele><time>2026-03-31T09:05:21.025Z</time></trkpt><trkpt lat="44.979327628363386" lon="9.522489155961093"><ele>102.0</ele><time>2026-03-31T09:05:22.025Z</time></trkpt><trkpt lat="44.97925393387122" lon="9.522513908986243"><ele>102.0</ele><time>2026-03-31T09:05:23.025Z</time></trkpt><trkpt lat="44.97917943964824" lon="9.522519838581903"><ele>102.0</ele><time>2026-03-31T09:05:24.026Z</time></trkpt><trkpt lat="44.979101317658476" lon="9.522531237824246"><ele>102.0</ele><time>2026-03-31T09:05:25.026Z</time></trkpt><trkpt lat="44.97902836310602" lon="9.522545148099159"><ele>102.0</ele><time>2026-03-31T09:05:26.026Z</time></trkpt><trkpt lat="44.978956052719525" lon="9.52256400304081"><ele>102.0</ele><time>2026-03-31T09:05:27.026Z</time></trkpt><trkpt lat="44.97888361238631" lon="9.52257905259062"><ele>102.0</ele><time>2026-03-31T09:05:28.026Z</time></trkpt><trkpt lat="44.97880927771219" lon="9.522588324570245"><ele>102.0</ele><time>2026-03-31T09:05:29.026Z</time></trkpt><trkpt lat="44.978736835237704" lon="9.522598991475519"><ele>102.0</ele><time>2026-03-31T09:05:30.026Z</time></trkpt><trkpt lat="44.978667306274104" lon="9.522611959207305"><ele>102.0</ele><time>2026-03-31T09:05:31.026Z</time></trkpt><trkpt lat="44.978591567471334" lon="9.522616054583382"><ele>102.0</ele><time>2026-03-31T09:05:32.026Z</time></trkpt><trkpt lat="44.978525362010686" lon="9.52263163720482"><ele>102.0</ele><time>2026-03-31T09:05:33.026Z</time></trkpt><trkpt lat="44.978453360161204" lon="9.522632178094808"><ele>102.0</ele><time>2026-03-31T09:05:34.026Z</time></trkpt><trkpt lat="44.97838311816997" lon="9.522610848733484"><ele>102.0</ele><time>2026-03-31T09:05:35.026Z</time></trkpt><trkpt lat="44.978309925497776" lon="9.522592628503523"><ele>102.0</ele><time>2026-03-31T09:05:36.026Z</time></trkpt><trkpt lat="44.97823973984604" lon="9.522575109181489"><ele>102.0</ele><time>2026-03-31T09:05:37.026Z</time></trkpt><trkpt lat="44.97817054683067" lon="9.522552349114163"><ele>102.0</ele><time>2026-03-31T09:05:38.026Z</time></trkpt><trkpt lat="44.97810043251588" lon="9.522532565284168"><ele>102.0</ele><time>2026-03-31T09:05:39.026Z</time></trkpt><trkpt lat="44.9780320541681" lon="9.522512423014412"><ele>102.0</ele><time>2026-03-31T09:05:40.026Z</time></trkpt><trkpt lat="44.977965136425944" lon="9.522493938006578"><ele>102.0</ele><time>2026-03-31T09:05:41.026Z</time></trkpt><trkpt lat="44.97789913336656" lon="9.522472549041868"><ele>102.0</ele><time>2026-03-31T09:05:42.026Z</time></trkpt><trkpt lat="44.97783361689593" lon="9.52245018964502"><ele>102.0</ele><time>2026-03-31T09:05:43.026Z</time></trkpt><trkpt lat="44.977768798704325" lon="9.522429799429846"><ele>102.0</ele><time>2026-03-31T09:05:44.026Z</time></trkpt><trkpt lat="44.97770465551954" lon="9.522411859800531"><ele>102.0</ele><time>2026-03-31T09:05:45.026Z</time></trkpt><trkpt lat="44.97758649587633" lon="9.52237143529662"><ele>102.0</ele><time>2026-03-31T09:05:47.026Z</time></trkpt><trkpt lat="44.97747138552999" lon="9.522336638565509"><ele>102.0</ele><time>2026-03-31T09:05:49.026Z</time></trkpt><trkpt lat="44.97735926381467" lon="9.52230019129902"><ele>102.25</ele><time>2026-03-31T09:05:51.026Z</time></trkpt><trkpt lat="44.977246711814" lon="9.522275246184622"><ele>102.5</ele><time>2026-03-31T09:05:53.026Z</time></trkpt><trkpt lat="44.977135843835434" lon="9.522231823658403"><ele>102.75</ele><time>2026-03-31T09:05:55.026Z</time></trkpt><trkpt lat="44.97702526133043" lon="9.522196857263902"><ele>103.0</ele><time>2026-03-31T09:05:57.026Z</time></trkpt><trkpt lat="44.97691354778969" lon="9.522163997134646"><ele>103.0</ele><time>2026-03-31T09:05:59.026Z</time></trkpt><trkpt lat="44.97680679012747" lon="9.522133887878178"><ele>103.0</ele><time>2026-03-31T09:06:01.026Z</time></trkpt><trkpt lat="44.97670541641799" lon="9.522103839074438"><ele>103.0</ele><time>2026-03-31T09:06:03.026Z</time></trkpt><trkpt lat="44.97660282066758" lon="9.522073311685741"><ele>103.0</ele><time>2026-03-31T09:06:05.026Z</time></trkpt><trkpt lat="44.976508991371695" lon="9.522045369938363"><ele>103.0</ele><time>2026-03-31T09:06:07.026Z</time></trkpt><trkpt lat="44.976417763265076" lon="9.522013374882228"><ele>103.16666666666667</ele><time>2026-03-31T09:06:09.026Z</time></trkpt><trkpt lat="44.976328058294925" lon="9.521984138790325"><ele>103.33333333333334</ele><time>2026-03-31T09:06:11.026Z</time></trkpt><trkpt lat="44.97624908454138" lon="9.521961534850455"><ele>103.5</ele><time>2026-03-31T09:06:13.026Z</time></trkpt><trkpt lat="44.97617683005566" lon="9.52194344393262"><ele>103.66666666666666</ele><time>2026-03-31T09:06:15.026Z</time></trkpt><trkpt lat="44.9761072137415" lon="9.521920080200081"><ele>103.83333333333333</ele><time>2026-03-31T09:06:17.026Z</time></trkpt><trkpt lat="44.976034314853685" lon="9.521897681785235"><ele>104.0</ele><time>2026-03-31T09:06:19.026Z</time></trkpt><trkpt lat="44.97596388057989" lon="9.521879711314961"><ele>104.0</ele><time>2026-03-31T09:06:21.026Z</time></trkpt><trkpt lat="44.97589036449378" lon="9.521855938187832"><ele>104.0</ele><time>2026-03-31T09:06:23.026Z</time></trkpt><trkpt lat="44.97581714293817" lon="9.521840988774214"><ele>104.0</ele><time>2026-03-31T09:06:25.026Z</time></trkpt><trkpt lat="44.97574690530787" lon="9.521814439248148"><ele>104.0</ele><time>2026-03-31T09:06:27.026Z</time></trkpt><trkpt lat="44.97567965624283" lon="9.521791196919498"><ele>104.0</ele><time>2026-03-31T09:06:29.026Z</time></trkpt><trkpt lat="44.9756153406005" lon="9.521771320480108"><ele>104.0</ele><time>2026-03-31T09:06:31.026Z</time></trkpt><trkpt lat="44.97554970417032" lon="9.521749482794158"><ele>104.0</ele><time>2026-03-31T09:06:33.026Z</time></trkpt><trkpt lat="44.975477138505276" lon="9.52172434357801"><ele>104.16666666666666</ele><time>2026-03-31T09:06:35.026Z</time></trkpt><trkpt lat="44.97540153381916" lon="9.521703541297814"><ele>104.33333333333333</ele><time>2026-03-31T09:06:37.026Z</time></trkpt><trkpt lat="44.97532102769099" lon="9.52168565259144"><ele>104.5</ele><time>2026-03-31T09:06:39.026Z</time></trkpt><trkpt lat="44.97524675662621" lon="9.52164984700382"><ele>104.66666666666666</ele><time>2026-03-31T09:06:41.026Z</time></trkpt><trkpt lat="44.97517284056737" lon="9.521628787517596"><ele>104.83333333333333</ele><time>2026-03-31T09:06:43.026Z</time></trkpt><trkpt lat="44.97509936140165" lon="9.521598185036254"><ele>105.0</ele><time>2026-03-31T09:06:45.026Z</time></trkpt><trkpt lat="44.97507490243626" lon="9.521489606443941"><ele>105.0</ele><time>2026-03-31T09:06:47.026Z</time></trkpt><trkpt lat="44.97509463275368" lon="9.52137697552331"><ele>105.0</ele><time>2026-03-31T09:06:49.026Z</time></trkpt><trkpt lat="44.97512311751106" lon="9.521266529415994"><ele>105.0</ele><time>2026-03-31T09:06:51.026Z</time></trkpt><trkpt lat="44.97514172789808" lon="9.521154270234112"><ele>105.0</ele><time>2026-03-31T09:06:53.026Z</time></trkpt><trkpt lat="44.97516918554011" lon="9.521042139249001"><ele>105.0</ele><time>2026-03-31T09:06:55.026Z</time></trkpt><trkpt lat="44.97519434352571" lon="9.520918389637643"><ele>105.0</ele><time>2026-03-31T09:06:57.026Z</time></trkpt><trkpt lat="44.975211335009234" lon="9.520807196940437"><ele>105.16666666666667</ele><time>2026-03-31T09:06:59.026Z</time></trkpt><trkpt lat="44.975233321050595" lon="9.520703386256638"><ele>105.33333333333334</ele><time>2026-03-31T09:07:01.026Z</time></trkpt><trkpt lat="44.975249186027064" lon="9.520600964428388"><ele>105.5</ele><time>2026-03-31T09:07:03.026Z</time></trkpt><trkpt lat="44.975265825436935" lon="9.520485789934385"><ele>105.66666666666667</ele><time>2026-03-31T09:07:05.027Z</time></trkpt><trkpt lat="44.97527880349708" lon="9.520355230302714"><ele>105.83333333333334</ele><time>2026-03-31T09:07:07.027Z</time></trkpt><trkpt lat="44.97528558201825" lon="9.520203873216873"><ele>106.0</ele><time>2026-03-31T09:07:09.027Z</time></trkpt><trkpt lat="44.97528814332922" lon="9.520045203033368"><ele>106.0</ele><time>2026-03-31T09:07:11.027Z</time></trkpt><trkpt lat="44.975286001217455" lon="9.519885790598375"><ele>106.0</ele><time>2026-03-31T09:07:13.027Z</time></trkpt><trkpt lat="44.97527961951441" lon="9.519733805333315"><ele>106.0</ele><time>2026-03-31T09:07:15.027Z</time></trkpt><trkpt lat="44.975278466141724" lon="9.519586140284781"><ele>106.0</ele><time>2026-03-31T09:07:17.028Z</time></trkpt><trkpt lat="44.975274931074765" lon="9.519434405573277"><ele>106.0</ele><time>2026-03-31T09:07:19.027Z</time></trkpt><trkpt lat="44.97527402347188" lon="9.519283361488585"><ele>106.0</ele><time>2026-03-31T09:07:21.027Z</time></trkpt><trkpt lat="44.97527263825385" lon="9.519132341276704"><ele>106.0</ele><time>2026-03-31T09:07:23.027Z</time></trkpt><trkpt lat="44.97527903847784" lon="9.518979232300874"><ele>106.0</ele><time>2026-03-31T09:07:25.027Z</time></trkpt><trkpt lat="44.975284081057325" lon="9.51882915564448"><ele>106.0</ele><time>2026-03-31T09:07:27.027Z</time></trkpt><trkpt lat="44.97528756355826" lon="9.518683492958537"><ele>106.0</ele><time>2026-03-31T09:07:29.027Z</time></trkpt><trkpt lat="44.975293442880485" lon="9.518533755784773"><ele>106.0</ele><time>2026-03-31T09:07:31.027Z</time></trkpt><trkpt lat="44.97529477597968" lon="9.518387475562154"><ele>106.0</ele><time>2026-03-31T09:07:33.027Z</time></trkpt><trkpt lat="44.97530059346582" lon="9.518263913652962"><ele>106.0</ele><time>2026-03-31T09:07:35.027Z</time></trkpt><trkpt lat="44.975299734523155" lon="9.518139598939612"><ele>106.0</ele><time>2026-03-31T09:07:37.027Z</time></trkpt><trkpt lat="44.97530618028281" lon="9.518006053591296"><ele>106.0</ele><time>2026-03-31T09:07:39.027Z</time></trkpt><trkpt lat="44.97531722505519" lon="9.517876208844168"><ele>105.8</ele><time>2026-03-31T09:07:41.027Z</time></trkpt><trkpt lat="44.975320496326425" lon="9.517743682516763"><ele>105.6</ele><time>2026-03-31T09:07:43.027Z</time></trkpt><trkpt lat="44.9753234167487" lon="9.51761560163767"><ele>105.4</ele><time>2026-03-31T09:07:45.027Z</time></trkpt><trkpt lat="44.97532696515918" lon="9.51747969144376"><ele>105.2</ele><time>2026-03-31T09:07:47.027Z</time></trkpt><trkpt lat="44.975329578737544" lon="9.517347469976416"><ele>105.0</ele><time>2026-03-31T09:07:49.027Z</time></trkpt><trkpt lat="44.97533202427735" lon="9.517214728891144"><ele>105.0</ele><time>2026-03-31T09:07:51.027Z</time></trkpt><trkpt lat="44.97532840061598" lon="9.517090099301708"><ele>105.0</ele><time>2026-03-31T09:07:53.027Z</time></trkpt><trkpt lat="44.975327343628386" lon="9.516968613261723"><ele>105.0</ele><time>2026-03-31T09:07:55.027Z</time></trkpt><trkpt lat="44.975328873078425" lon="9.516852682479625"><ele>105.0</ele><time>2026-03-31T09:07:57.027Z</time></trkpt><trkpt lat="44.975328519378905" lon="9.516731329998931"><ele>105.0</ele><time>2026-03-31T09:07:59.027Z</time></trkpt><trkpt lat="44.975326480583135" lon="9.516621874529847"><ele>105.0</ele><time>2026-03-31T09:08:01.027Z</time></trkpt><trkpt lat="44.975323264551754" lon="9.516520020173566"><ele>105.33333333333333</ele><time>2026-03-31T09:08:03.027Z</time></trkpt><trkpt lat="44.97532034165326" lon="9.51641890335218"><ele>105.66666666666666</ele><time>2026-03-31T09:08:05.027Z</time></trkpt><trkpt lat="44.975317684464024" lon="9.51632505132152"><ele>106.0</ele><time>2026-03-31T09:08:07.027Z</time></trkpt><trkpt lat="44.97531141833462" lon="9.516230236612497"><ele>106.33333333333333</ele><time>2026-03-31T09:08:09.027Z</time></trkpt><trkpt lat="44.97530328960152" lon="9.516095560895106"><ele>106.66666666666666</ele><time>2026-03-31T09:08:12.027Z</time></trkpt><trkpt lat="44.97528378617453" lon="9.515964430105669"><ele>107.0</ele><time>2026-03-31T09:08:15.027Z</time></trkpt><trkpt lat="44.97526768521686" lon="9.51585422934635"><ele>107.33333333333333</ele><time>2026-03-31T09:08:18.027Z</time></trkpt><trkpt lat="44.975248750152694" lon="9.515737725091968"><ele>107.66666666666666</ele><time>2026-03-31T09:08:21.027Z</time></trkpt><trkpt lat="44.97521716870328" lon="9.515626501804533"><ele>108.0</ele><time>2026-03-31T09:08:24.027Z</time></trkpt><trkpt lat="44.9751806234308" lon="9.51551749981348"><ele>108.33333333333334</ele><time>2026-03-31T09:08:27.027Z</time></trkpt><trkpt lat="44.97513726221759" lon="9.5154160785058"><ele>108.66666666666667</ele><time>2026-03-31T09:08:30.027Z</time></trkpt><trkpt lat="44.97510395844475" lon="9.515308345828073"><ele>109.0</ele><time>2026-03-31T09:08:33.027Z</time></trkpt><trkpt lat="44.975064497784594" lon="9.515208797464755"><ele>109.83333333333334</ele><time>2026-03-31T09:08:36.027Z</time></trkpt><trkpt lat="44.97502619930397" lon="9.515106100086584"><ele>110.66666666666667</ele><time>2026-03-31T09:08:39.027Z</time></trkpt><trkpt lat="44.974985267612745" lon="9.515004993656254"><ele>111.5</ele><time>2026-03-31T09:08:42.027Z</time></trkpt><trkpt lat="44.974945910033476" lon="9.514905600630279"><ele>112.33333333333334</ele><time>2026-03-31T09:08:45.027Z</time></trkpt><trkpt lat="44.97491651329248" lon="9.51480444486867"><ele>113.16666666666667</ele><time>2026-03-31T09:08:48.027Z</time></trkpt><trkpt lat="44.97487826520702" lon="9.51472023921215"><ele>114.0</ele><time>2026-03-31T09:08:51.027Z</time></trkpt><trkpt lat="44.974841290566786" lon="9.514615952086459"><ele>115.16666666666667</ele><time>2026-03-31T09:08:54.027Z</time></trkpt><trkpt lat="44.97479862357494" lon="9.514513886101284"><ele>116.33333333333334</ele><time>2026-03-31T09:08:57.027Z</time></trkpt><trkpt lat="44.974763624263375" lon="9.514414355927501"><ele>117.5</ele><time>2026-03-31T09:09:00.027Z</time></trkpt><trkpt lat="44.974723350086215" lon="9.514303825642973"><ele>118.66666666666667</ele><time>2026-03-31T09:09:03.028Z</time></trkpt><trkpt lat="44.97468927914204" lon="9.514201574620005"><ele>119.83333333333334</ele><time>2026-03-31T09:09:06.028Z</time></trkpt><trkpt lat="44.97465406680576" lon="9.514109736466052"><ele>121.0</ele><time>2026-03-31T09:09:09.028Z</time></trkpt><trkpt lat="44.974613612217375" lon="9.514016248542669"><ele>121.00000000000001</ele><time>2026-03-31T09:09:12.028Z</time></trkpt><trkpt lat="44.97457774761978" lon="9.513913539136231"><ele>121.0</ele><time>2026-03-31T09:09:15.029Z</time></trkpt><trkpt lat="44.97453850157899" lon="9.51381997005049"><ele>121.0</ele><time>2026-03-31T09:09:18.028Z</time></trkpt><trkpt lat="44.97450138268682" lon="9.513724032139145"><ele>121.0</ele><time>2026-03-31T09:09:21.028Z</time></trkpt><trkpt lat="44.97446462518362" lon="9.513612268341733"><ele>121.00000000000001</ele><time>2026-03-31T09:09:24.028Z</time></trkpt><trkpt lat="44.974426338275165" lon="9.51351870930224"><ele>121.0</ele><time>2026-03-31T09:09:27.028Z</time></trkpt><trkpt lat="44.97439755572602" lon="9.513433222306892"><ele>121.50000000000001</ele><time>2026-03-31T09:09:30.029Z</time></trkpt><trkpt lat="44.974356337317225" lon="9.513337280713067"><ele>122.0</ele><time>2026-03-31T09:09:33.029Z</time></trkpt><trkpt lat="44.97432504419574" lon="9.513236892742716"><ele>122.5</ele><time>2026-03-31T09:09:36.029Z</time></trkpt><trkpt lat="44.974295988606244" lon="9.513127639729031"><ele>123.0</ele><time>2026-03-31T09:09:39.029Z</time></trkpt><trkpt lat="44.97427264534795" lon="9.513013164774936"><ele>123.50000000000001</ele><time>2026-03-31T09:09:42.029Z</time></trkpt><trkpt lat="44.97425716932644" lon="9.51289774212662"><ele>124.0</ele><time>2026-03-31T09:09:45.029Z</time></trkpt><trkpt lat="44.97424025415913" lon="9.512779232083258"><ele>124.33333333333334</ele><time>2026-03-31T09:09:48.029Z</time></trkpt><trkpt lat="44.97423058992482" lon="9.512656598514429"><ele>124.66666666666667</ele><time>2026-03-31T09:09:51.029Z</time></trkpt><trkpt lat="44.97423169572833" lon="9.512533992744242"><ele>125.0</ele><time>2026-03-31T09:09:54.029Z</time></trkpt><trkpt lat="44.97422358328859" lon="9.512412730101532"><ele>125.33333333333334</ele><time>2026-03-31T09:09:57.029Z</time></trkpt><trkpt lat="44.974221868266696" lon="9.512323385839606"><ele>125.66666666666667</ele><time>2026-03-31T09:09:59.029Z</time></trkpt><trkpt lat="44.97422586567438" lon="9.51220700805375"><ele>126.0</ele><time>2026-03-31T09:10:02.029Z</time></trkpt><trkpt lat="44.97422200362364" lon="9.512074255894127"><ele>126.42857142857143</ele><time>2026-03-31T09:10:05.029Z</time></trkpt><trkpt lat="44.97421834465275" lon="9.511950032914628"><ele>126.85714285714286</ele><time>2026-03-31T09:10:08.029Z</time></trkpt><trkpt lat="44.97421358228347" lon="9.511817485374982"><ele>127.28571428571428</ele><time>2026-03-31T09:10:11.029Z</time></trkpt><trkpt lat="44.97420962557119" lon="9.511728386685078"><ele>127.71428571428571</ele><time>2026-03-31T09:10:13.029Z</time></trkpt><trkpt lat="44.97421175528149" lon="9.511636091260991"><ele>128.14285714285714</ele><time>2026-03-31T09:10:15.029Z</time></trkpt><trkpt lat="44.97420409210313" lon="9.511545721364449"><ele>128.57142857142856</ele><time>2026-03-31T09:10:17.029Z</time></trkpt><trkpt lat="44.97420114372651" lon="9.511455528316846"><ele>129.0</ele><time>2026-03-31T09:10:19.029Z</time></trkpt><trkpt lat="44.97420172772986" lon="9.51136448613606"><ele>129.0</ele><time>2026-03-31T09:10:21.029Z</time></trkpt><trkpt lat="44.97419870759231" lon="9.51127341626625"><ele>129.0</ele><time>2026-03-31T09:10:23.029Z</time></trkpt><trkpt lat="44.974196886079284" lon="9.51117810325827"><ele>129.0</ele><time>2026-03-31T09:10:25.029Z</time></trkpt><trkpt lat="44.974188317463835" lon="9.511037250153896"><ele>129.0</ele><time>2026-03-31T09:10:28.029Z</time></trkpt><trkpt lat="44.97419725066077" lon="9.510939432604866"><ele>129.0</ele><time>2026-03-31T09:10:30.029Z</time></trkpt><trkpt lat="44.9742064029113" lon="9.510804716266668"><ele>129.0</ele><time>2026-03-31T09:10:33.029Z</time></trkpt><trkpt lat="44.97418937482474" lon="9.510698788668456"><ele>129.16666666666666</ele><time>2026-03-31T09:10:35.029Z</time></trkpt><trkpt lat="44.97418703804761" lon="9.510609755572485"><ele>129.33333333333334</ele><time>2026-03-31T09:10:37.029Z</time></trkpt><trkpt lat="44.974182971394946" lon="9.510490834302773"><ele>129.5</ele><time>2026-03-31T09:10:40.029Z</time></trkpt><trkpt lat="44.97417894554687" lon="9.510393420245723"><ele>129.66666666666669</ele><time>2026-03-31T09:10:42.029Z</time></trkpt><trkpt lat="44.97416594417628" lon="9.51026205762245"><ele>129.83333333333334</ele><time>2026-03-31T09:10:45.029Z</time></trkpt><trkpt lat="44.97416777910677" lon="9.51016439364966"><ele>130.0</ele><time>2026-03-31T09:10:47.029Z</time></trkpt><trkpt lat="44.974162618149236" lon="9.510030898926159"><ele>130.42857142857144</ele><time>2026-03-31T09:10:50.029Z</time></trkpt><trkpt lat="44.974174545804914" lon="9.50992455257758"><ele>130.85714285714286</ele><time>2026-03-31T09:10:52.029Z</time></trkpt><trkpt lat="44.97418051506785" lon="9.509829265446506"><ele>131.28571428571428</ele><time>2026-03-31T09:10:54.029Z</time></trkpt><trkpt lat="44.97417729658264" lon="9.509730687933137"><ele>131.71428571428572</ele><time>2026-03-31T09:10:56.029Z</time></trkpt><trkpt lat="44.97417757549072" lon="9.509623950889425"><ele>132.14285714285714</ele><time>2026-03-31T09:10:58.029Z</time></trkpt><trkpt lat="44.97417627761268" lon="9.509515715389627"><ele>132.57142857142858</ele><time>2026-03-31T09:11:00.029Z</time></trkpt><trkpt lat="44.974166351875326" lon="9.50940827679623"><ele>133.0</ele><time>2026-03-31T09:11:02.029Z</time></trkpt><trkpt lat="44.974166620881604" lon="9.509305002336287"><ele>133.0</ele><time>2026-03-31T09:11:04.029Z</time></trkpt><trkpt lat="44.974178009396" lon="9.5092022022625"><ele>133.0</ele><time>2026-03-31T09:11:06.029Z</time></trkpt><trkpt lat="44.974190141525625" lon="9.509092756058537"><ele>133.0</ele><time>2026-03-31T09:11:08.029Z</time></trkpt><trkpt lat="44.974200706640765" lon="9.508990500373443"><ele>133.0</ele><time>2026-03-31T09:11:10.029Z</time></trkpt><trkpt lat="44.974214860234994" lon="9.508892385517814"><ele>133.0</ele><time>2026-03-31T09:11:12.029Z</time></trkpt><trkpt lat="44.97422018051761" lon="9.508789084878016"><ele>133.0</ele><time>2026-03-31T09:11:14.029Z</time></trkpt><trkpt lat="44.97426271581742" lon="9.508700009254722"><ele>133.0</ele><time>2026-03-31T09:11:16.029Z</time></trkpt><trkpt lat="44.97434445833901" lon="9.508681272868397"><ele>133.0</ele><time>2026-03-31T09:11:18.03Z</time></trkpt><trkpt lat="44.974419867579975" lon="9.508616458298883"><ele>133.0</ele><time>2026-03-31T09:11:20.03Z</time></trkpt><trkpt lat="44.974489885466596" lon="9.508561486745279"><ele>133.0</ele><time>2026-03-31T09:11:22.03Z</time></trkpt><trkpt lat="44.97457155032233" lon="9.508533110672346"><ele>133.0</ele><time>2026-03-31T09:11:24.03Z</time></trkpt><trkpt lat="44.97465537237173" lon="9.508507531385169"><ele>133.0</ele><time>2026-03-31T09:11:26.03Z</time></trkpt><trkpt lat="44.97473939710557" lon="9.50847289064541"><ele>133.0</ele><time>2026-03-31T09:11:28.03Z</time></trkpt><trkpt lat="44.97482538378765" lon="9.508451670071727"><ele>133.0</ele><time>2026-03-31T09:11:30.03Z</time></trkpt><trkpt lat="44.974923772405496" lon="9.508435490936387"><ele>133.0</ele><time>2026-03-31T09:11:32.03Z</time></trkpt><trkpt lat="44.97504016773401" lon="9.508438077358274"><ele>133.0</ele><time>2026-03-31T09:11:34.03Z</time></trkpt><trkpt lat="44.97510534612255" lon="9.508440347246651"><ele>133.0</ele><time>2026-03-31T09:11:35.03Z</time></trkpt><trkpt lat="44.97523107798128" lon="9.508469804786634"><ele>133.0</ele><time>2026-03-31T09:11:37.03Z</time></trkpt><trkpt lat="44.975293639945185" lon="9.508492460892668"><ele>132.5</ele><time>2026-03-31T09:11:38.03Z</time></trkpt><trkpt lat="44.97535582806821" lon="9.508514175599185"><ele>132.0</ele><time>2026-03-31T09:11:39.03Z</time></trkpt><trkpt lat="44.97541896150486" lon="9.508535742312805"><ele>131.5</ele><time>2026-03-31T09:11:40.03Z</time></trkpt><trkpt lat="44.97553458619535" lon="9.508582285360438"><ele>131.0</ele><time>2026-03-31T09:11:42.03Z</time></trkpt><trkpt lat="44.975653705441566" lon="9.508642409970832"><ele>130.5</ele><time>2026-03-31T09:11:44.03Z</time></trkpt><trkpt lat="44.97571379168586" lon="9.508670231320503"><ele>130.0</ele><time>2026-03-31T09:11:45.03Z</time></trkpt><trkpt lat="44.97577523801707" lon="9.508692254697054"><ele>129.6</ele><time>2026-03-31T09:11:46.03Z</time></trkpt><trkpt lat="44.975879705385125" lon="9.508752296538692"><ele>129.2</ele><time>2026-03-31T09:11:48.03Z</time></trkpt><trkpt lat="44.9759938689273" lon="9.50883742088501"><ele>128.8</ele><time>2026-03-31T09:11:50.03Z</time></trkpt><trkpt lat="44.97609497583543" lon="9.508922748473232"><ele>128.4</ele><time>2026-03-31T09:11:52.03Z</time></trkpt><trkpt lat="44.976151611292764" lon="9.50896544825491"><ele>128.0</ele><time>2026-03-31T09:11:53.03Z</time></trkpt><trkpt lat="44.9762160844797" lon="9.509010979917099"><ele>128.0</ele><time>2026-03-31T09:11:54.03Z</time></trkpt><trkpt lat="44.97627557188312" lon="9.509059519938086"><ele>127.99999999999999</ele><time>2026-03-31T09:11:55.03Z</time></trkpt><trkpt lat="44.976341052347564" lon="9.509093020517884"><ele>128.0</ele><time>2026-03-31T09:11:56.03Z</time></trkpt><trkpt lat="44.97640336252799" lon="9.509139563067247"><ele>128.0</ele><time>2026-03-31T09:11:57.03Z</time></trkpt><trkpt lat="44.976461476878484" lon="9.509176205590206"><ele>127.99999999999999</ele><time>2026-03-31T09:11:58.03Z</time></trkpt><trkpt lat="44.97652414670943" lon="9.509220195804167"><ele>128.0</ele><time>2026-03-31T09:11:59.03Z</time></trkpt><trkpt lat="44.97658982647681" lon="9.50926469559822"><ele>128.0</ele><time>2026-03-31T09:12:00.03Z</time></trkpt><trkpt lat="44.976654574310466" lon="9.509311533160488"><ele>127.71428571428571</ele><time>2026-03-31T09:12:01.03Z</time></trkpt><trkpt lat="44.97671936692765" lon="9.509361037706906"><ele>127.42857142857142</ele><time>2026-03-31T09:12:02.03Z</time></trkpt><trkpt lat="44.97678399288317" lon="9.509403647396738"><ele>127.14285714285714</ele><time>2026-03-31T09:12:03.03Z</time></trkpt><trkpt lat="44.97685236483357" lon="9.509439605192995"><ele>126.85714285714286</ele><time>2026-03-31T09:12:04.03Z</time></trkpt><trkpt lat="44.97692063784944" lon="9.509479373812951"><ele>126.57142857142857</ele><time>2026-03-31T09:12:05.03Z</time></trkpt><trkpt lat="44.97698770277386" lon="9.509523839235605"><ele>126.28571428571428</ele><time>2026-03-31T09:12:06.03Z</time></trkpt><trkpt lat="44.97705669468336" lon="9.50955824319379"><ele>126.0</ele><time>2026-03-31T09:12:07.03Z</time></trkpt><trkpt lat="44.977124274984725" lon="9.509601038449539"><ele>125.57142857142857</ele><time>2026-03-31T09:12:08.03Z</time></trkpt><trkpt lat="44.977192796215405" lon="9.509631589670768"><ele>125.14285714285714</ele><time>2026-03-31T09:12:09.03Z</time></trkpt><trkpt lat="44.977258914294346" lon="9.509669428125322"><ele>124.71428571428572</ele><time>2026-03-31T09:12:10.03Z</time></trkpt><trkpt lat="44.9773285094656" lon="9.509701326848505"><ele>124.28571428571429</ele><time>2026-03-31T09:12:11.03Z</time></trkpt><trkpt lat="44.97739560294202" lon="9.509738823947727"><ele>123.85714285714286</ele><time>2026-03-31T09:12:12.03Z</time></trkpt><trkpt lat="44.97746222462933" lon="9.509774849850054"><ele>123.42857142857144</ele><time>2026-03-31T09:12:13.03Z</time></trkpt><trkpt lat="44.97753104502249" lon="9.509811753740097"><ele>123.00000000000001</ele><time>2026-03-31T09:12:14.03Z</time></trkpt><trkpt lat="44.97760482396917" lon="9.509850790281826"><ele>123.00000000000001</ele><time>2026-03-31T09:12:15.03Z</time></trkpt><trkpt lat="44.97766642323706" lon="9.50988134064396"><ele>123.0</ele><time>2026-03-31T09:12:16.03Z</time></trkpt><trkpt lat="44.97773644346562" lon="9.509913730348186"><ele>123.00000000000001</ele><time>2026-03-31T09:12:17.03Z</time></trkpt><trkpt lat="44.977808030998546" lon="9.509945832312422"><ele>123.00000000000001</ele><time>2026-03-31T09:12:18.03Z</time></trkpt><trkpt lat="44.9778800376873" lon="9.509974127935632"><ele>123.0</ele><time>2026-03-31T09:12:19.03Z</time></trkpt><trkpt lat="44.97795331121492" lon="9.510001719283183"><ele>123.00000000000001</ele><time>2026-03-31T09:12:20.03Z</time></trkpt><trkpt lat="44.978024301031695" lon="9.51002892403375"><ele>123.00000000000001</ele><time>2026-03-31T09:12:21.03Z</time></trkpt><trkpt lat="44.97809496756891" lon="9.510056571422329"><ele>123.00000000000001</ele><time>2026-03-31T09:12:22.031Z</time></trkpt><trkpt lat="44.9781666932346" lon="9.510084176978362"><ele>123.0</ele><time>2026-03-31T09:12:23.031Z</time></trkpt><trkpt lat="44.97823795248283" lon="9.510114588684274"><ele>123.00000000000001</ele><time>2026-03-31T09:12:24.031Z</time></trkpt><trkpt lat="44.97831117170069" lon="9.51013653860032"><ele>123.00000000000001</ele><time>2026-03-31T09:12:25.031Z</time></trkpt><trkpt lat="44.97838096585907" lon="9.510161347931659"><ele>123.0</ele><time>2026-03-31T09:12:26.031Z</time></trkpt><trkpt lat="44.978449947691765" lon="9.510179883012551"><ele>123.00000000000001</ele><time>2026-03-31T09:12:27.031Z</time></trkpt><trkpt lat="44.97851812562589" lon="9.510203978382714"><ele>123.00000000000001</ele><time>2026-03-31T09:12:28.031Z</time></trkpt><trkpt lat="44.978586673294735" lon="9.510213432715181"><ele>122.80000000000001</ele><time>2026-03-31T09:12:29.031Z</time></trkpt><trkpt lat="44.978694747169065" lon="9.51012768153158"><ele>122.60000000000001</ele><time>2026-03-31T09:12:31.031Z</time></trkpt><trkpt lat="44.97870620498783" lon="9.510034607543854"><ele>122.39999999999999</ele><time>2026-03-31T09:12:32.031Z</time></trkpt><trkpt lat="44.97872083092032" lon="9.509940957483064"><ele>122.19999999999999</ele><time>2026-03-31T09:12:33.031Z</time></trkpt><trkpt lat="44.97875754763105" lon="9.509778513728948"><ele>122.0</ele><time>2026-03-31T09:12:35.031Z</time></trkpt><trkpt lat="44.978803345411876" lon="9.509626731737118"><ele>121.8</ele><time>2026-03-31T09:12:37.031Z</time></trkpt><trkpt lat="44.978849724567205" lon="9.50947095537545"><ele>121.6</ele><time>2026-03-31T09:12:39.031Z</time></trkpt><trkpt lat="44.978894678818804" lon="9.509308357101624"><ele>121.39999999999999</ele><time>2026-03-31T09:12:41.031Z</time></trkpt><trkpt lat="44.978927443848754" lon="9.509228781234471"><ele>121.19999999999999</ele><time>2026-03-31T09:12:42.031Z</time></trkpt><trkpt lat="44.97897828749884" lon="9.509158998062805"><ele>121.0</ele><time>2026-03-31T09:12:43.031Z</time></trkpt><trkpt lat="44.97910455447102" lon="9.509112996339214"><ele>121.0</ele><time>2026-03-31T09:12:45.031Z</time></trkpt><trkpt lat="44.97916855328372" lon="9.509130844380097"><ele>121.0</ele><time>2026-03-31T09:12:46.031Z</time></trkpt><trkpt lat="44.97929062364974" lon="9.509160112201258"><ele>121.0</ele><time>2026-03-31T09:12:48.031Z</time></trkpt><trkpt lat="44.97941268297968" lon="9.509180525187455"><ele>121.0</ele><time>2026-03-31T09:12:50.031Z</time></trkpt><trkpt lat="44.97953496265539" lon="9.509203710173875"><ele>121.0</ele><time>2026-03-31T09:12:52.031Z</time></trkpt><trkpt lat="44.97959924892279" lon="9.50921735101091"><ele>120.66666666666667</ele><time>2026-03-31T09:12:53.031Z</time></trkpt><trkpt lat="44.979673472597035" lon="9.509227322213599"><ele>120.33333333333334</ele><time>2026-03-31T09:12:54.031Z</time></trkpt><trkpt lat="44.97974798552951" lon="9.509241641747678"><ele>120.0</ele><time>2026-03-31T09:12:55.031Z</time></trkpt><trkpt lat="44.979826049598415" lon="9.509254574473871"><ele>119.66666666666666</ele><time>2026-03-31T09:12:56.031Z</time></trkpt><trkpt lat="44.97990634546375" lon="9.50926739087749"><ele>119.33333333333333</ele><time>2026-03-31T09:12:57.031Z</time></trkpt><trkpt lat="44.97998184034996" lon="9.509276718120711"><ele>119.0</ele><time>2026-03-31T09:12:58.031Z</time></trkpt><trkpt lat="44.98005617505381" lon="9.509282376743661"><ele>118.83333333333333</ele><time>2026-03-31T09:12:59.031Z</time></trkpt><trkpt lat="44.98012994541274" lon="9.509291218187247"><ele>118.66666666666666</ele><time>2026-03-31T09:13:00.031Z</time></trkpt><trkpt lat="44.98021149971639" lon="9.509305552531059"><ele>118.5</ele><time>2026-03-31T09:13:01.031Z</time></trkpt><trkpt lat="44.980289596171275" lon="9.50931788681304"><ele>118.33333333333334</ele><time>2026-03-31T09:13:02.031Z</time></trkpt><trkpt lat="44.98035818830447" lon="9.509322457973232"><ele>118.16666666666667</ele><time>2026-03-31T09:13:03.031Z</time></trkpt><trkpt lat="44.980440807527984" lon="9.50934070151206"><ele>118.0</ele><time>2026-03-31T09:13:04.031Z</time></trkpt><trkpt lat="44.98051995709711" lon="9.50935214959953"><ele>118.00000000000001</ele><time>2026-03-31T09:13:05.031Z</time></trkpt><trkpt lat="44.980595785618306" lon="9.509366574357879"><ele>118.0</ele><time>2026-03-31T09:13:06.031Z</time></trkpt><trkpt lat="44.9806731624147" lon="9.509381259670816"><ele>118.0</ele><time>2026-03-31T09:13:07.031Z</time></trkpt><trkpt lat="44.98075277435274" lon="9.509400346453663"><ele>118.0</ele><time>2026-03-31T09:13:08.031Z</time></trkpt><trkpt lat="44.9808304865836" lon="9.509425785572578"><ele>118.00000000000001</ele><time>2026-03-31T09:13:09.031Z</time></trkpt><trkpt lat="44.98090563579871" lon="9.509443354507138"><ele>118.0</ele><time>2026-03-31T09:13:10.031Z</time></trkpt><trkpt lat="44.98098593237868" lon="9.509461165488581"><ele>117.66666666666667</ele><time>2026-03-31T09:13:11.031Z</time></trkpt><trkpt lat="44.9810636681185" lon="9.509480744699728"><ele>117.33333333333334</ele><time>2026-03-31T09:13:12.031Z</time></trkpt><trkpt lat="44.98113851543969" lon="9.509500282252775"><ele>117.0</ele><time>2026-03-31T09:13:13.031Z</time></trkpt><trkpt lat="44.98121807056476" lon="9.50951566557416"><ele>116.66666666666666</ele><time>2026-03-31T09:13:14.031Z</time></trkpt><trkpt lat="44.981293873088624" lon="9.509542361017726"><ele>116.33333333333333</ele><time>2026-03-31T09:13:15.031Z</time></trkpt><trkpt lat="44.98137465076971" lon="9.509565608050936"><ele>116.0</ele><time>2026-03-31T09:13:16.031Z</time></trkpt><trkpt lat="44.98145438541698" lon="9.50958661409355"><ele>115.99999999999999</ele><time>2026-03-31T09:13:17.031Z</time></trkpt><trkpt lat="44.981531201397914" lon="9.509603574237124"><ele>116.0</ele><time>2026-03-31T09:13:18.031Z</time></trkpt><trkpt lat="44.981610551479456" lon="9.509625638560719"><ele>116.0</ele><time>2026-03-31T09:13:19.031Z</time></trkpt><trkpt lat="44.98168879597155" lon="9.509641601778927"><ele>116.0</ele><time>2026-03-31T09:13:20.031Z</time></trkpt><trkpt lat="44.98176997013097" lon="9.5096605454338"><ele>115.99999999999999</ele><time>2026-03-31T09:13:21.031Z</time></trkpt><trkpt lat="44.9818445812666" lon="9.509678350553033"><ele>116.0</ele><time>2026-03-31T09:13:22.031Z</time></trkpt><trkpt lat="44.98191971387506" lon="9.509688562690783"><ele>115.99999999999999</ele><time>2026-03-31T09:13:23.031Z</time></trkpt><trkpt lat="44.9820029490729" lon="9.509710228364485"><ele>116.0</ele><time>2026-03-31T09:13:24.031Z</time></trkpt><trkpt lat="44.98207344837035" lon="9.509715520150761"><ele>116.0</ele><time>2026-03-31T09:13:25.031Z</time></trkpt><trkpt lat="44.98215179698741" lon="9.509721604401557"><ele>116.0</ele><time>2026-03-31T09:13:26.032Z</time></trkpt><trkpt lat="44.98223253102358" lon="9.509731402824713"><ele>115.99999999999999</ele><time>2026-03-31T09:13:27.031Z</time></trkpt><trkpt lat="44.98230724554914" lon="9.509737201533252"><ele>116.0</ele><time>2026-03-31T09:13:28.032Z</time></trkpt><trkpt lat="44.98238604189784" lon="9.509737230497917"><ele>115.99999999999999</ele><time>2026-03-31T09:13:29.032Z</time></trkpt><trkpt lat="44.98246547342722" lon="9.509730479416696"><ele>116.0</ele><time>2026-03-31T09:13:30.031Z</time></trkpt><trkpt lat="44.982547895045926" lon="9.509729867514537"><ele>116.0</ele><time>2026-03-31T09:13:31.031Z</time></trkpt><trkpt lat="44.98262003153842" lon="9.509725532918054"><ele>116.0</ele><time>2026-03-31T09:13:32.032Z</time></trkpt><trkpt lat="44.9826976209878" lon="9.50972004013119"><ele>115.99999999999999</ele><time>2026-03-31T09:13:33.031Z</time></trkpt><trkpt lat="44.982773953148474" lon="9.509708276763169"><ele>116.0</ele><time>2026-03-31T09:13:34.031Z</time></trkpt><trkpt lat="44.98285456570248" lon="9.50970093672428"><ele>115.33333333333333</ele><time>2026-03-31T09:13:35.032Z</time></trkpt><trkpt lat="44.982933523324284" lon="9.509708368028617"><ele>114.66666666666666</ele><time>2026-03-31T09:13:36.032Z</time></trkpt><trkpt lat="44.9830147392436" lon="9.509716424191385"><ele>114.0</ele><time>2026-03-31T09:13:37.032Z</time></trkpt><trkpt lat="44.98308857146641" lon="9.509738092653556"><ele>113.33333333333334</ele><time>2026-03-31T09:13:38.032Z</time></trkpt><trkpt lat="44.98316629108949" lon="9.50975867320345"><ele>112.66666666666667</ele><time>2026-03-31T09:13:39.032Z</time></trkpt><trkpt lat="44.98323979607216" lon="9.509781379543933"><ele>112.0</ele><time>2026-03-31T09:13:40.032Z</time></trkpt><trkpt lat="44.98331341086157" lon="9.50979980076866"><ele>111.83333333333334</ele><time>2026-03-31T09:13:41.032Z</time></trkpt><trkpt lat="44.9833999397073" lon="9.509826566176079"><ele>111.66666666666667</ele><time>2026-03-31T09:13:42.032Z</time></trkpt><trkpt lat="44.98347100842209" lon="9.509850781801386"><ele>111.5</ele><time>2026-03-31T09:13:43.032Z</time></trkpt><trkpt lat="44.983548197851626" lon="9.509877327081554"><ele>111.33333333333334</ele><time>2026-03-31T09:13:44.032Z</time></trkpt><trkpt lat="44.98362669899553" lon="9.509904923842603"><ele>111.16666666666667</ele><time>2026-03-31T09:13:45.032Z</time></trkpt><trkpt lat="44.983700218347664" lon="9.509924438385866"><ele>111.0</ele><time>2026-03-31T09:13:46.032Z</time></trkpt><trkpt lat="44.98377723457434" lon="9.509942246097221"><ele>111.0</ele><time>2026-03-31T09:13:47.032Z</time></trkpt><trkpt lat="44.98385151798909" lon="9.509974461004072"><ele>111.0</ele><time>2026-03-31T09:13:48.032Z</time></trkpt><trkpt lat="44.98392657049863" lon="9.510000445720971"><ele>111.0</ele><time>2026-03-31T09:13:49.032Z</time></trkpt><trkpt lat="44.98400737691149" lon="9.510023837321958"><ele>111.0</ele><time>2026-03-31T09:13:50.032Z</time></trkpt><trkpt lat="44.9840805473893" lon="9.51005212096817"><ele>111.0</ele><time>2026-03-31T09:13:51.032Z</time></trkpt><trkpt lat="44.984166923313474" lon="9.510075763109969"><ele>111.0</ele><time>2026-03-31T09:13:52.032Z</time></trkpt><trkpt lat="44.98424188058888" lon="9.510098529809381"><ele>110.5</ele><time>2026-03-31T09:13:53.032Z</time></trkpt><trkpt lat="44.98431996223116" lon="9.510123947303336"><ele>110.0</ele><time>2026-03-31T09:13:54.032Z</time></trkpt><trkpt lat="44.98439793591769" lon="9.510146524378868"><ele>109.5</ele><time>2026-03-31T09:13:55.032Z</time></trkpt><trkpt lat="44.98447946046647" lon="9.510171196371969"><ele>109.0</ele><time>2026-03-31T09:13:56.032Z</time></trkpt><trkpt lat="44.98455611281851" lon="9.510197540341393"><ele>108.5</ele><time>2026-03-31T09:13:57.032Z</time></trkpt><trkpt lat="44.984634695309424" lon="9.510219845769669"><ele>108.0</ele><time>2026-03-31T09:13:58.032Z</time></trkpt><trkpt lat="44.9847170020235" lon="9.510245879199088"><ele>108.0</ele><time>2026-03-31T09:13:59.032Z</time></trkpt><trkpt lat="44.984789894084315" lon="9.510270099259055"><ele>108.0</ele><time>2026-03-31T09:14:00.032Z</time></trkpt><trkpt lat="44.98486666601286" lon="9.510294805972308"><ele>108.0</ele><time>2026-03-31T09:14:01.032Z</time></trkpt><trkpt lat="44.98494588300716" lon="9.510321042461065"><ele>108.0</ele><time>2026-03-31T09:14:02.032Z</time></trkpt><trkpt lat="44.98502295057232" lon="9.510346164694031"><ele>108.0</ele><time>2026-03-31T09:14:03.032Z</time></trkpt><trkpt lat="44.98509855946991" lon="9.51036676713254"><ele>108.0</ele><time>2026-03-31T09:14:04.032Z</time></trkpt><trkpt lat="44.98517542008974" lon="9.510397505812026"><ele>108.16666666666667</ele><time>2026-03-31T09:14:05.032Z</time></trkpt><trkpt lat="44.98524941586876" lon="9.510424474716794"><ele>108.33333333333334</ele><time>2026-03-31T09:14:06.032Z</time></trkpt><trkpt lat="44.98532416584997" lon="9.510458558485931"><ele>108.5</ele><time>2026-03-31T09:14:07.032Z</time></trkpt><trkpt lat="44.98540282687952" lon="9.510491645576712"><ele>108.66666666666667</ele><time>2026-03-31T09:14:08.032Z</time></trkpt><trkpt lat="44.98547940542666" lon="9.51052429286642"><ele>108.83333333333334</ele><time>2026-03-31T09:14:09.032Z</time></trkpt><trkpt lat="44.985558420137764" lon="9.510567996419445"><ele>109.0</ele><time>2026-03-31T09:14:10.032Z</time></trkpt><trkpt lat="44.985628891230284" lon="9.510599254542283"><ele>109.00000000000001</ele><time>2026-03-31T09:14:11.032Z</time></trkpt><trkpt lat="44.98570422303832" lon="9.510635774062203"><ele>109.0</ele><time>2026-03-31T09:14:12.032Z</time></trkpt><trkpt lat="44.985779486946264" lon="9.510676138088144"><ele>109.0</ele><time>2026-03-31T09:14:13.032Z</time></trkpt><trkpt lat="44.985850232567714" lon="9.51071647579705"><ele>109.0</ele><time>2026-03-31T09:14:14.032Z</time></trkpt><trkpt lat="44.98591856262204" lon="9.51075055580445"><ele>109.00000000000001</ele><time>2026-03-31T09:14:15.032Z</time></trkpt><trkpt lat="44.98599373966149" lon="9.510788983063287"><ele>109.0</ele><time>2026-03-31T09:14:16.032Z</time></trkpt><trkpt lat="44.98606293339463" lon="9.51082298548808"><ele>108.50000000000001</ele><time>2026-03-31T09:14:17.032Z</time></trkpt><trkpt lat="44.9861343314869" lon="9.510861619814351"><ele>108.0</ele><time>2026-03-31T09:14:18.032Z</time></trkpt><trkpt lat="44.98620422118953" lon="9.510897643164531"><ele>107.5</ele><time>2026-03-31T09:14:19.032Z</time></trkpt><trkpt lat="44.986278035809114" lon="9.510931218627652"><ele>107.0</ele><time>2026-03-31T09:14:20.032Z</time></trkpt><trkpt lat="44.98635163515519" lon="9.510967805186326"><ele>106.50000000000001</ele><time>2026-03-31T09:14:21.032Z</time></trkpt><trkpt lat="44.98642456545111" lon="9.51100705244665"><ele>106.0</ele><time>2026-03-31T09:14:22.032Z</time></trkpt><trkpt lat="44.9864888236106" lon="9.511040089672004"><ele>106.00000000000001</ele><time>2026-03-31T09:14:23.032Z</time></trkpt><trkpt lat="44.98656004331628" lon="9.511071280940236"><ele>106.0</ele><time>2026-03-31T09:14:24.032Z</time></trkpt><trkpt lat="44.98663542333946" lon="9.511111462832863"><ele>106.0</ele><time>2026-03-31T09:14:25.032Z</time></trkpt><trkpt lat="44.98670935803305" lon="9.511144729956872"><ele>106.0</ele><time>2026-03-31T09:14:26.032Z</time></trkpt><trkpt lat="44.9867761885062" lon="9.511186241974132"><ele>106.00000000000001</ele><time>2026-03-31T09:14:27.032Z</time></trkpt><trkpt lat="44.986847042161436" lon="9.511217723477506"><ele>106.0</ele><time>2026-03-31T09:14:28.032Z</time></trkpt><trkpt lat="44.98691743445766" lon="9.511251340857772"><ele>106.00000000000001</ele><time>2026-03-31T09:14:29.032Z</time></trkpt><trkpt lat="44.98699144326279" lon="9.511287818340193"><ele>106.0</ele><time>2026-03-31T09:14:30.032Z</time></trkpt><trkpt lat="44.987059572201275" lon="9.511325301996006"><ele>106.0</ele><time>2026-03-31T09:14:31.032Z</time></trkpt><trkpt lat="44.98712919031051" lon="9.511358635878775"><ele>106.0</ele><time>2026-03-31T09:14:32.032Z</time></trkpt><trkpt lat="44.98720171384828" lon="9.511395002868444"><ele>106.00000000000001</ele><time>2026-03-31T09:14:33.032Z</time></trkpt><trkpt lat="44.98727379310726" lon="9.511425227395083"><ele>106.0</ele><time>2026-03-31T09:14:34.032Z</time></trkpt><trkpt lat="44.98734629100613" lon="9.511464141814242"><ele>106.0</ele><time>2026-03-31T09:14:35.032Z</time></trkpt><trkpt lat="44.98741453459367" lon="9.511500577356735"><ele>106.0</ele><time>2026-03-31T09:14:36.032Z</time></trkpt><trkpt lat="44.98748626423504" lon="9.511526336048128"><ele>106.0</ele><time>2026-03-31T09:14:37.032Z</time></trkpt><trkpt lat="44.9875534958286" lon="9.511554884128698"><ele>106.0</ele><time>2026-03-31T09:14:38.032Z</time></trkpt><trkpt lat="44.9876211176121" lon="9.511589238879031"><ele>106.0</ele><time>2026-03-31T09:14:39.032Z</time></trkpt><trkpt lat="44.987689753255886" lon="9.511631983296535"><ele>106.0</ele><time>2026-03-31T09:14:40.032Z</time></trkpt><trkpt lat="44.987762965258185" lon="9.511670468468614"><ele>106.0</ele><time>2026-03-31T09:14:41.032Z</time></trkpt><trkpt lat="44.98783140842574" lon="9.511711486884517"><ele>105.33333333333334</ele><time>2026-03-31T09:14:42.032Z</time></trkpt><trkpt lat="44.987905095293094" lon="9.511753438555656"><ele>104.66666666666667</ele><time>2026-03-31T09:14:43.032Z</time></trkpt><trkpt lat="44.98798065414003" lon="9.511791088342672"><ele>104.0</ele><time>2026-03-31T09:14:44.032Z</time></trkpt><trkpt lat="44.98805194625173" lon="9.511820143074427"><ele>103.33333333333334</ele><time>2026-03-31T09:14:45.032Z</time></trkpt><trkpt lat="44.98812331767406" lon="9.511849941893699"><ele>102.66666666666667</ele><time>2026-03-31T09:14:46.032Z</time></trkpt><trkpt lat="44.98819338457852" lon="9.511885362074688"><ele>102.0</ele><time>2026-03-31T09:14:47.032Z</time></trkpt><trkpt lat="44.98826495580004" lon="9.51191165729557"><ele>102.0</ele><time>2026-03-31T09:14:48.032Z</time></trkpt><trkpt lat="44.98833628721345" lon="9.511947956015021"><ele>102.0</ele><time>2026-03-31T09:14:49.032Z</time></trkpt><trkpt lat="44.988407983225876" lon="9.511979911868224"><ele>102.0</ele><time>2026-03-31T09:14:50.032Z</time></trkpt><trkpt lat="44.98848158648473" lon="9.51200899215979"><ele>102.0</ele><time>2026-03-31T09:14:51.032Z</time></trkpt><trkpt lat="44.98855049124086" lon="9.512041216978067"><ele>102.0</ele><time>2026-03-31T09:14:52.032Z</time></trkpt><trkpt lat="44.988624858608084" lon="9.512074369240663"><ele>102.0</ele><time>2026-03-31T09:14:53.032Z</time></trkpt><trkpt lat="44.988699965428175" lon="9.512105384961853"><ele>101.83333333333333</ele><time>2026-03-31T09:14:54.032Z</time></trkpt><trkpt lat="44.988774738173966" lon="9.512128345885579"><ele>101.66666666666666</ele><time>2026-03-31T09:14:55.032Z</time></trkpt><trkpt lat="44.98885236021154" lon="9.512165705985732"><ele>101.5</ele><time>2026-03-31T09:14:56.032Z</time></trkpt><trkpt lat="44.98891572231223" lon="9.512199092885533"><ele>101.33333333333333</ele><time>2026-03-31T09:14:57.032Z</time></trkpt><trkpt lat="44.98899103764823" lon="9.512220915901052"><ele>101.16666666666666</ele><time>2026-03-31T09:14:58.032Z</time></trkpt><trkpt lat="44.98906611257857" lon="9.512250672575751"><ele>101.0</ele><time>2026-03-31T09:14:59.032Z</time></trkpt><trkpt lat="44.989145313341886" lon="9.512278896145792"><ele>100.99999999999999</ele><time>2026-03-31T09:15:00.032Z</time></trkpt><trkpt lat="44.98921860112061" lon="9.512308807344889"><ele>101.0</ele><time>2026-03-31T09:15:01.032Z</time></trkpt><trkpt lat="44.989295993916485" lon="9.512336160683331"><ele>101.0</ele><time>2026-03-31T09:15:02.032Z</time></trkpt><trkpt lat="44.98936982237888" lon="9.512366093157064"><ele>101.0</ele><time>2026-03-31T09:15:03.032Z</time></trkpt><trkpt lat="44.989447428684706" lon="9.512400484073014"><ele>100.99999999999999</ele><time>2026-03-31T09:15:04.032Z</time></trkpt><trkpt lat="44.989523856565974" lon="9.512430044508285"><ele>101.0</ele><time>2026-03-31T09:15:05.032Z</time></trkpt><trkpt lat="44.98960105450928" lon="9.512461949285475"><ele>100.99999999999999</ele><time>2026-03-31T09:15:06.032Z</time></trkpt><trkpt lat="44.989671329427644" lon="9.512485766982719"><ele>101.0</ele><time>2026-03-31T09:15:07.032Z</time></trkpt><trkpt lat="44.98974827375281" lon="9.512517633624189"><ele>101.0</ele><time>2026-03-31T09:15:08.032Z</time></trkpt><trkpt lat="44.98982540420445" lon="9.512552115686182"><ele>101.0</ele><time>2026-03-31T09:15:09.032Z</time></trkpt><trkpt lat="44.98989915015223" lon="9.512587674718457"><ele>100.99999999999999</ele><time>2026-03-31T09:15:10.032Z</time></trkpt><trkpt lat="44.98997363581527" lon="9.512618709780034"><ele>101.0</ele><time>2026-03-31T09:15:11.032Z</time></trkpt><trkpt lat="44.990052595357625" lon="9.512652403009234"><ele>100.66666666666666</ele><time>2026-03-31T09:15:12.032Z</time></trkpt><trkpt lat="44.99013277643393" lon="9.512687852903696"><ele>100.33333333333333</ele><time>2026-03-31T09:15:13.032Z</time></trkpt><trkpt lat="44.990210486155824" lon="9.512723435300735"><ele>100.0</ele><time>2026-03-31T09:15:14.032Z</time></trkpt><trkpt lat="44.99029235497733" lon="9.512757925612036"><ele>99.66666666666666</ele><time>2026-03-31T09:15:15.032Z</time></trkpt><trkpt lat="44.99036749333297" lon="9.512787733466391"><ele>99.33333333333333</ele><time>2026-03-31T09:15:16.032Z</time></trkpt><trkpt lat="44.990450282971935" lon="9.51280865689718"><ele>99.0</ele><time>2026-03-31T09:15:17.032Z</time></trkpt><trkpt lat="44.99052527553909" lon="9.512837948033837"><ele>99.0</ele><time>2026-03-31T09:15:18.032Z</time></trkpt><trkpt lat="44.990602681756954" lon="9.512878681082894"><ele>99.0</ele><time>2026-03-31T09:15:19.032Z</time></trkpt><trkpt lat="44.99068115513352" lon="9.51291483461803"><ele>99.0</ele><time>2026-03-31T09:15:20.032Z</time></trkpt><trkpt lat="44.99075856684524" lon="9.51294517976981"><ele>99.0</ele><time>2026-03-31T09:15:21.032Z</time></trkpt><trkpt lat="44.99083633014207" lon="9.512976690263722"><ele>99.0</ele><time>2026-03-31T09:15:22.032Z</time></trkpt><trkpt lat="44.990908889054396" lon="9.513010880174306"><ele>99.0</ele><time>2026-03-31T09:15:23.032Z</time></trkpt><trkpt lat="44.99098040697117" lon="9.51303461119841"><ele>98.0</ele><time>2026-03-31T09:15:24.032Z</time></trkpt><trkpt lat="44.991053458949224" lon="9.513053291522796"><ele>97.0</ele><time>2026-03-31T09:15:25.032Z</time></trkpt><trkpt lat="44.99112703741437" lon="9.51307961862855"><ele>96.0</ele><time>2026-03-31T09:15:26.032Z</time></trkpt><trkpt lat="44.99120274461415" lon="9.513107058629872"><ele>95.0</ele><time>2026-03-31T09:15:27.033Z</time></trkpt><trkpt lat="44.99127412125733" lon="9.51313731109958"><ele>94.0</ele><time>2026-03-31T09:15:28.033Z</time></trkpt><trkpt lat="44.99134731941989" lon="9.513161667779613"><ele>93.0</ele><time>2026-03-31T09:15:29.033Z</time></trkpt><trkpt lat="44.991422751962325" lon="9.51317497264381"><ele>93.00000000000001</ele><time>2026-03-31T09:15:30.033Z</time></trkpt><trkpt lat="44.991500573592965" lon="9.513171035766776"><ele>93.0</ele><time>2026-03-31T09:15:31.033Z</time></trkpt><trkpt lat="44.99157510530516" lon="9.51315529035804"><ele>93.0</ele><time>2026-03-31T09:15:32.033Z</time></trkpt><trkpt lat="44.99164663896751" lon="9.513122004318257"><ele>93.0</ele><time>2026-03-31T09:15:33.033Z</time></trkpt><trkpt lat="44.991713370831704" lon="9.5130868444975"><ele>93.0</ele><time>2026-03-31T09:15:34.033Z</time></trkpt><trkpt lat="44.991783952524834" lon="9.513056684823098"><ele>93.00000000000001</ele><time>2026-03-31T09:15:35.033Z</time></trkpt><trkpt lat="44.991854497962024" lon="9.513025843398678"><ele>93.0</ele><time>2026-03-31T09:15:36.033Z</time></trkpt><trkpt lat="44.991919791765206" lon="9.512991601208135"><ele>93.00000000000001</ele><time>2026-03-31T09:15:37.033Z</time></trkpt><trkpt lat="44.99198973640664" lon="9.512956292585478"><ele>93.0</ele><time>2026-03-31T09:15:38.033Z</time></trkpt><trkpt lat="44.99205709813031" lon="9.512923444645"><ele>93.0</ele><time>2026-03-31T09:15:39.033Z</time></trkpt><trkpt lat="44.992123727755434" lon="9.51288956470884"><ele>93.0</ele><time>2026-03-31T09:15:40.033Z</time></trkpt><trkpt lat="44.992187359509266" lon="9.51285072900647"><ele>93.0</ele><time>2026-03-31T09:15:41.034Z</time></trkpt><trkpt lat="44.99225263970378" lon="9.512811206109273"><ele>93.00000000000001</ele><time>2026-03-31T09:15:42.033Z</time></trkpt><trkpt lat="44.99231893457191" lon="9.512768909979522"><ele>93.0</ele><time>2026-03-31T09:15:43.033Z</time></trkpt><trkpt lat="44.99238916047047" lon="9.512723224143711"><ele>93.16666666666667</ele><time>2026-03-31T09:15:44.033Z</time></trkpt><trkpt lat="44.9925060422474" lon="9.512637095309142"><ele>93.33333333333333</ele><time>2026-03-31T09:15:46.033Z</time></trkpt><trkpt lat="44.992571260338295" lon="9.512593516562445"><ele>93.5</ele><time>2026-03-31T09:15:47.033Z</time></trkpt><trkpt lat="44.99263559840028" lon="9.512548257791378"><ele>93.66666666666666</ele><time>2026-03-31T09:15:48.033Z</time></trkpt><trkpt lat="44.99269988585869" lon="9.51250366009453"><ele>93.83333333333333</ele><time>2026-03-31T09:15:49.033Z</time></trkpt><trkpt lat="44.99276455032247" lon="9.512458638884441"><ele>94.0</ele><time>2026-03-31T09:15:50.033Z</time></trkpt><trkpt lat="44.992832617247835" lon="9.512414938603056"><ele>94.14285714285714</ele><time>2026-03-31T09:15:51.033Z</time></trkpt><trkpt lat="44.99289874378015" lon="9.512372766273469"><ele>94.28571428571428</ele><time>2026-03-31T09:15:52.033Z</time></trkpt><trkpt lat="44.992963061844826" lon="9.512329326218152"><ele>94.42857142857143</ele><time>2026-03-31T09:15:53.033Z</time></trkpt><trkpt lat="44.99302820667582" lon="9.512285133186996"><ele>94.57142857142857</ele><time>2026-03-31T09:15:54.033Z</time></trkpt><trkpt lat="44.99309306011162" lon="9.51224268765777"><ele>94.71428571428572</ele><time>2026-03-31T09:15:55.033Z</time></trkpt><trkpt lat="44.993154863284964" lon="9.51219373671659"><ele>94.85714285714286</ele><time>2026-03-31T09:15:56.033Z</time></trkpt><trkpt lat="44.99321636800012" lon="9.51214786891894"><ele>95.0</ele><time>2026-03-31T09:15:57.033Z</time></trkpt><trkpt lat="44.99327967998431" lon="9.51210982873448"><ele>95.14285714285714</ele><time>2026-03-31T09:15:58.033Z</time></trkpt><trkpt lat="44.993343885762386" lon="9.512066944046818"><ele>95.28571428571429</ele><time>2026-03-31T09:15:59.033Z</time></trkpt><trkpt lat="44.993408258453826" lon="9.512031590242964"><ele>95.42857142857142</ele><time>2026-03-31T09:16:00.033Z</time></trkpt><trkpt lat="44.99346904667554" lon="9.511984968780252"><ele>95.57142857142857</ele><time>2026-03-31T09:16:01.033Z</time></trkpt><trkpt lat="44.99353302534226" lon="9.511943766779064"><ele>95.71428571428571</ele><time>2026-03-31T09:16:02.033Z</time></trkpt><trkpt lat="44.993597578977024" lon="9.51189509982313"><ele>95.85714285714285</ele><time>2026-03-31T09:16:03.033Z</time></trkpt><trkpt lat="44.993659127939644" lon="9.511850816972443"><ele>96.0</ele><time>2026-03-31T09:16:04.033Z</time></trkpt><trkpt lat="44.99372249658955" lon="9.511807254314244"><ele>95.99999999999999</ele><time>2026-03-31T09:16:05.033Z</time></trkpt><trkpt lat="44.993783428996146" lon="9.511756908223484"><ele>96.0</ele><time>2026-03-31T09:16:06.033Z</time></trkpt><trkpt lat="44.99384931003466" lon="9.511723249090661"><ele>96.0</ele><time>2026-03-31T09:16:07.033Z</time></trkpt><trkpt lat="44.99391241788996" lon="9.511677191820173"><ele>96.0</ele><time>2026-03-31T09:16:08.033Z</time></trkpt><trkpt lat="44.99397333372085" lon="9.511635522212654"><ele>96.0</ele><time>2026-03-31T09:16:09.033Z</time></trkpt><trkpt lat="44.99403617837059" lon="9.511587609632572"><ele>95.99999999999999</ele><time>2026-03-31T09:16:10.033Z</time></trkpt><trkpt lat="44.994100649852086" lon="9.511548853226717"><ele>96.0</ele><time>2026-03-31T09:16:11.033Z</time></trkpt><trkpt lat="44.99416451818056" lon="9.511508277814695"><ele>95.57142857142857</ele><time>2026-03-31T09:16:12.033Z</time></trkpt><trkpt lat="44.99422846113047" lon="9.511463852360782"><ele>95.14285714285714</ele><time>2026-03-31T09:16:13.033Z</time></trkpt><trkpt lat="44.99428855400331" lon="9.511419211891115"><ele>94.71428571428572</ele><time>2026-03-31T09:16:14.033Z</time></trkpt><trkpt lat="44.99435553725179" lon="9.51137249600487"><ele>94.28571428571428</ele><time>2026-03-31T09:16:15.033Z</time></trkpt><trkpt lat="44.994421825827985" lon="9.511330484209582"><ele>93.85714285714286</ele><time>2026-03-31T09:16:16.033Z</time></trkpt><trkpt lat="44.99448090281974" lon="9.511290431351236"><ele>93.42857142857143</ele><time>2026-03-31T09:16:17.033Z</time></trkpt><trkpt lat="44.99454627193726" lon="9.511250780296477"><ele>93.0</ele><time>2026-03-31T09:16:18.033Z</time></trkpt><trkpt lat="44.994602001993044" lon="9.511207311757497"><ele>93.0</ele><time>2026-03-31T09:16:19.033Z</time></trkpt><trkpt lat="44.9946671570921" lon="9.511162614190237"><ele>93.0</ele><time>2026-03-31T09:16:20.033Z</time></trkpt><trkpt lat="44.99473201599757" lon="9.511129126069012"><ele>93.0</ele><time>2026-03-31T09:16:21.033Z</time></trkpt><trkpt lat="44.99480096580374" lon="9.511099265091618"><ele>93.0</ele><time>2026-03-31T09:16:22.033Z</time></trkpt><trkpt lat="44.99486628019576" lon="9.511080504714217"><ele>93.0</ele><time>2026-03-31T09:16:23.033Z</time></trkpt><trkpt lat="44.99493157840027" lon="9.511066891011982"><ele>93.0</ele><time>2026-03-31T09:16:24.033Z</time></trkpt><trkpt lat="44.99505952171876" lon="9.51105483407704"><ele>93.0</ele><time>2026-03-31T09:16:26.033Z</time></trkpt><trkpt lat="44.995122602143326" lon="9.511055379724027"><ele>93.0</ele><time>2026-03-31T09:16:27.033Z</time></trkpt><trkpt lat="44.99524735370146" lon="9.511049792488041"><ele>93.0</ele><time>2026-03-31T09:16:29.033Z</time></trkpt><trkpt lat="44.99536533657748" lon="9.511046159654459"><ele>93.0</ele><time>2026-03-31T09:16:31.033Z</time></trkpt><trkpt lat="44.99547908971118" lon="9.511041892409947"><ele>93.0</ele><time>2026-03-31T09:16:33.033Z</time></trkpt><trkpt lat="44.99559517400125" lon="9.511039049826081"><ele>93.0</ele><time>2026-03-31T09:16:35.033Z</time></trkpt><trkpt lat="44.9957109034344" lon="9.511040922987133"><ele>93.0</ele><time>2026-03-31T09:16:37.033Z</time></trkpt><trkpt lat="44.99582656144029" lon="9.511042348745361"><ele>93.0</ele><time>2026-03-31T09:16:39.033Z</time></trkpt><trkpt lat="44.99594517710971" lon="9.51104508094406"><ele>93.0</ele><time>2026-03-31T09:16:41.033Z</time></trkpt><trkpt lat="44.99606154419679" lon="9.511054479849447"><ele>93.0</ele><time>2026-03-31T09:16:43.033Z</time></trkpt><trkpt lat="44.996181186356196" lon="9.51106715511909"><ele>93.0</ele><time>2026-03-31T09:16:45.033Z</time></trkpt><trkpt lat="44.99629705327628" lon="9.511081988798137"><ele>93.0</ele><time>2026-03-31T09:16:47.033Z</time></trkpt><trkpt lat="44.996413249870976" lon="9.511098753255277"><ele>93.0</ele><time>2026-03-31T09:16:49.033Z</time></trkpt><trkpt lat="44.99653135116872" lon="9.511114131466483"><ele>93.0</ele><time>2026-03-31T09:16:51.033Z</time></trkpt><trkpt lat="44.99664837393105" lon="9.511129620318481"><ele>93.0</ele><time>2026-03-31T09:16:53.033Z</time></trkpt><trkpt lat="44.99676705709785" lon="9.511144922282275"><ele>93.0</ele><time>2026-03-31T09:16:55.033Z</time></trkpt><trkpt lat="44.9968846606542" lon="9.511159861543792"><ele>93.0</ele><time>2026-03-31T09:16:57.033Z</time></trkpt><trkpt lat="44.997005309177275" lon="9.511177109112237"><ele>93.0</ele><time>2026-03-31T09:16:59.033Z</time></trkpt><trkpt lat="44.9971251114155" lon="9.511184548151398"><ele>93.0</ele><time>2026-03-31T09:17:01.033Z</time></trkpt><trkpt lat="44.99724113679415" lon="9.511203142739197"><ele>93.0</ele><time>2026-03-31T09:17:03.033Z</time></trkpt><trkpt lat="44.997359890797476" lon="9.511224687634622"><ele>93.0</ele><time>2026-03-31T09:17:05.033Z</time></trkpt><trkpt lat="44.9974764294979" lon="9.511238896798119"><ele>92.75</ele><time>2026-03-31T09:17:07.033Z</time></trkpt><trkpt lat="44.99759067294855" lon="9.51125714592665"><ele>92.5</ele><time>2026-03-31T09:17:09.033Z</time></trkpt><trkpt lat="44.99771164076646" lon="9.511270185886858"><ele>92.25</ele><time>2026-03-31T09:17:11.033Z</time></trkpt><trkpt lat="44.99782422823826" lon="9.511285305163106"><ele>92.0</ele><time>2026-03-31T09:17:13.033Z</time></trkpt><trkpt lat="44.997938732901275" lon="9.511298719714608"><ele>92.0</ele><time>2026-03-31T09:17:15.033Z</time></trkpt><trkpt lat="44.99805172788446" lon="9.511320224978798"><ele>92.0</ele><time>2026-03-31T09:17:17.033Z</time></trkpt><trkpt lat="44.998160328346735" lon="9.511327354002665"><ele>92.0</ele><time>2026-03-31T09:17:19.033Z</time></trkpt><trkpt lat="44.99826668044512" lon="9.511335038742148"><ele>92.0</ele><time>2026-03-31T09:17:21.033Z</time></trkpt><trkpt lat="44.998371089455866" lon="9.511343495165603"><ele>92.0</ele><time>2026-03-31T09:17:23.033Z</time></trkpt><trkpt lat="44.99847620075241" lon="9.511338570759063"><ele>92.19999999999999</ele><time>2026-03-31T09:17:25.033Z</time></trkpt><trkpt lat="44.99858002238991" lon="9.5113456968636"><ele>92.4</ele><time>2026-03-31T09:17:27.033Z</time></trkpt><trkpt lat="44.99868513189988" lon="9.511348802006799"><ele>92.6</ele><time>2026-03-31T09:17:29.034Z</time></trkpt><trkpt lat="44.99878746758189" lon="9.51135500485762"><ele>92.80000000000001</ele><time>2026-03-31T09:17:31.034Z</time></trkpt><trkpt lat="44.9988916424592" lon="9.511360027862603"><ele>93.0</ele><time>2026-03-31T09:17:33.034Z</time></trkpt><trkpt lat="44.99899175698492" lon="9.511366446433668"><ele>93.0</ele><time>2026-03-31T09:17:35.034Z</time></trkpt><trkpt lat="44.99909166409786" lon="9.511386111195081"><ele>93.0</ele><time>2026-03-31T09:17:37.035Z</time></trkpt><trkpt lat="44.99918900951596" lon="9.511393880354454"><ele>93.0</ele><time>2026-03-31T09:17:39.034Z</time></trkpt><trkpt lat="44.99929144117451" lon="9.511408001877305"><ele>93.0</ele><time>2026-03-31T09:17:41.035Z</time></trkpt><trkpt lat="44.99939276429389" lon="9.511418304742005"><ele>93.0</ele><time>2026-03-31T09:17:43.034Z</time></trkpt><trkpt lat="44.999498098744375" lon="9.511429945040456"><ele>93.4</ele><time>2026-03-31T09:17:45.034Z</time></trkpt><trkpt lat="44.99960289263946" lon="9.511445050805495"><ele>93.80000000000001</ele><time>2026-03-31T09:17:47.034Z</time></trkpt><trkpt lat="44.99970935001812" lon="9.51145810848715"><ele>94.2</ele><time>2026-03-31T09:17:49.034Z</time></trkpt><trkpt lat="44.9998166371279" lon="9.511475910435943"><ele>94.6</ele><time>2026-03-31T09:17:51.034Z</time></trkpt><trkpt lat="44.99992814150057" lon="9.511483739463275"><ele>95.0</ele><time>2026-03-31T09:17:53.034Z</time></trkpt><trkpt lat="45.000037835714934" lon="9.511494286079675"><ele>95.0</ele><time>2026-03-31T09:17:55.034Z</time></trkpt><trkpt lat="45.0001414039507" lon="9.511507127407413"><ele>95.0</ele><time>2026-03-31T09:17:57.034Z</time></trkpt><trkpt lat="45.000252033656196" lon="9.511517792167231"><ele>95.0</ele><time>2026-03-31T09:17:59.034Z</time></trkpt><trkpt lat="45.000362487728246" lon="9.511526286120782"><ele>95.0</ele><time>2026-03-31T09:18:01.034Z</time></trkpt><trkpt lat="45.00047133600333" lon="9.511542251165974"><ele>95.0</ele><time>2026-03-31T09:18:03.034Z</time></trkpt><trkpt lat="45.00058322962353" lon="9.511554741394303"><ele>95.0</ele><time>2026-03-31T09:18:05.034Z</time></trkpt><trkpt lat="45.00068994527866" lon="9.511568703011083"><ele>95.0</ele><time>2026-03-31T09:18:07.034Z</time></trkpt><trkpt lat="45.0008009577223" lon="9.511575413899294"><ele>95.0</ele><time>2026-03-31T09:18:09.034Z</time></trkpt><trkpt lat="45.00090920214876" lon="9.511595018682456"><ele>95.0</ele><time>2026-03-31T09:18:11.034Z</time></trkpt><trkpt lat="45.00101466823201" lon="9.511604993008524"><ele>95.0</ele><time>2026-03-31T09:18:13.034Z</time></trkpt><trkpt lat="45.00112134351151" lon="9.511617012888676"><ele>94.75</ele><time>2026-03-31T09:18:15.034Z</time></trkpt><trkpt lat="45.001234515174566" lon="9.511628000715143"><ele>94.5</ele><time>2026-03-31T09:18:17.034Z</time></trkpt><trkpt lat="45.00134793240396" lon="9.511642327448179"><ele>94.25</ele><time>2026-03-31T09:18:19.034Z</time></trkpt><trkpt lat="45.001461263693116" lon="9.511653619070403"><ele>94.0</ele><time>2026-03-31T09:18:21.034Z</time></trkpt><trkpt lat="45.00158055999196" lon="9.511667703313073"><ele>93.25</ele><time>2026-03-31T09:18:23.034Z</time></trkpt><trkpt lat="45.00169870542747" lon="9.51168785701804"><ele>92.5</ele><time>2026-03-31T09:18:25.034Z</time></trkpt><trkpt lat="45.00182183663358" lon="9.511697529881868"><ele>91.75</ele><time>2026-03-31T09:18:27.034Z</time></trkpt><trkpt lat="45.001946048412314" lon="9.51171074526032"><ele>91.0</ele><time>2026-03-31T09:18:29.034Z</time></trkpt><trkpt lat="45.00205978859944" lon="9.511723958172183"><ele>91.0</ele><time>2026-03-31T09:18:31.034Z</time></trkpt><trkpt lat="45.002160751762375" lon="9.511680547648044"><ele>91.0</ele><time>2026-03-31T09:18:33.034Z</time></trkpt><trkpt lat="45.002219347400256" lon="9.51154927372162"><ele>91.0</ele><time>2026-03-31T09:18:35.034Z</time></trkpt><trkpt lat="45.00222127415772" lon="9.511406257085596"><ele>91.0</ele><time>2026-03-31T09:18:37.034Z</time></trkpt><trkpt lat="45.00223094338272" lon="9.51127139906619"><ele>91.0</ele><time>2026-03-31T09:18:39.034Z</time></trkpt><trkpt lat="45.00222593279122" lon="9.511151571205463"><ele>91.16666666666666</ele><time>2026-03-31T09:18:41.034Z</time></trkpt><trkpt lat="45.00223323945671" lon="9.511049344729622"><ele>91.33333333333333</ele><time>2026-03-31T09:18:43.034Z</time></trkpt><trkpt lat="45.00223098587259" lon="9.510952265306509"><ele>91.5</ele><time>2026-03-31T09:18:45.034Z</time></trkpt><trkpt lat="45.0022367093372" lon="9.51082976538793"><ele>91.66666666666667</ele><time>2026-03-31T09:18:48.034Z</time></trkpt><trkpt lat="45.00224105315901" lon="9.510695587416585"><ele>91.83333333333334</ele><time>2026-03-31T09:18:51.035Z</time></trkpt><trkpt lat="45.00223760565514" lon="9.510595304638494"><ele>92.0</ele><time>2026-03-31T09:18:53.035Z</time></trkpt><trkpt lat="45.00222240812151" lon="9.510507443807334"><ele>92.0</ele><time>2026-03-31T09:18:55.035Z</time></trkpt><trkpt lat="45.00223382958348" lon="9.51041306481963"><ele>92.0</ele><time>2026-03-31T09:18:57.035Z</time></trkpt><trkpt lat="45.002244628634266" lon="9.51030785586155"><ele>92.0</ele><time>2026-03-31T09:18:59.035Z</time></trkpt><trkpt lat="45.002242674652216" lon="9.510204519494122"><ele>92.0</ele><time>2026-03-31T09:19:01.035Z</time></trkpt><trkpt lat="45.00225404848584" lon="9.510103932593607"><ele>92.0</ele><time>2026-03-31T09:19:03.035Z</time></trkpt><trkpt lat="45.00226197422372" lon="9.510010208235808"><ele>92.0</ele><time>2026-03-31T09:19:05.035Z</time></trkpt><trkpt lat="45.00227846095004" lon="9.50988484971741"><ele>92.0</ele><time>2026-03-31T09:19:08.035Z</time></trkpt><trkpt lat="45.002318289401636" lon="9.50980883059772"><ele>92.0</ele><time>2026-03-31T09:19:10.035Z</time></trkpt><trkpt lat="45.00238566172082" lon="9.509831097463778"><ele>92.0</ele><time>2026-03-31T09:19:12.035Z</time></trkpt><trkpt lat="45.002442887068106" lon="9.509936101035317"><ele>92.0</ele><time>2026-03-31T09:19:15.035Z</time></trkpt><trkpt lat="45.00248437964339" lon="9.510011944226358"><ele>92.0</ele><time>2026-03-31T09:19:17.035Z</time></trkpt><trkpt lat="45.002528459956984" lon="9.51008756785763"><ele>92.0</ele><time>2026-03-31T09:19:19.035Z</time></trkpt><trkpt lat="45.00258167448032" lon="9.510160461823768"><ele>92.0</ele><time>2026-03-31T09:19:21.035Z</time></trkpt><trkpt lat="45.00263652756918" lon="9.510243030059778"><ele>92.0</ele><time>2026-03-31T09:19:23.035Z</time></trkpt><trkpt lat="45.00267235159183" lon="9.510333630529429"><ele>92.0</ele><time>2026-03-31T09:19:25.035Z</time></trkpt><trkpt lat="45.00271560031841" lon="9.510416628911539"><ele>92.0</ele><time>2026-03-31T09:19:27.035Z</time></trkpt><trkpt lat="45.002772311416905" lon="9.510503541456432"><ele>92.0</ele><time>2026-03-31T09:19:29.035Z</time></trkpt><trkpt lat="45.00281974342043" lon="9.510590976582382"><ele>92.0</ele><time>2026-03-31T09:19:31.035Z</time></trkpt><trkpt lat="45.00285739191514" lon="9.510669557026576"><ele>92.0</ele><time>2026-03-31T09:19:33.035Z</time></trkpt><trkpt lat="45.00291365534362" lon="9.51074735599195"><ele>91.57142857142857</ele><time>2026-03-31T09:19:35.035Z</time></trkpt><trkpt lat="45.00295223543404" lon="9.51082361498617"><ele>91.14285714285714</ele><time>2026-03-31T09:19:37.035Z</time></trkpt><trkpt lat="45.003004656788086" lon="9.510907405617347"><ele>90.71428571428571</ele><time>2026-03-31T09:19:39.035Z</time></trkpt><trkpt lat="45.00304827392878" lon="9.510988566657081"><ele>90.28571428571428</ele><time>2026-03-31T09:19:41.036Z</time></trkpt><trkpt lat="45.00310046919086" lon="9.51106587511362"><ele>89.85714285714286</ele><time>2026-03-31T09:19:43.036Z</time></trkpt><trkpt lat="45.003139070564764" lon="9.511147211586259"><ele>89.42857142857142</ele><time>2026-03-31T09:19:45.036Z</time></trkpt><trkpt lat="45.003185262971336" lon="9.511230187520137"><ele>89.0</ele><time>2026-03-31T09:19:47.036Z</time></trkpt><trkpt lat="45.0032317957566" lon="9.511308080740145"><ele>89.0</ele><time>2026-03-31T09:19:49.035Z</time></trkpt><trkpt lat="45.00327712156563" lon="9.511388726692216"><ele>89.0</ele><time>2026-03-31T09:19:51.036Z</time></trkpt><trkpt lat="45.00331800832116" lon="9.511469933812727"><ele>89.0</ele><time>2026-03-31T09:19:53.036Z</time></trkpt><trkpt lat="45.00336842204668" lon="9.511555844831532"><ele>89.0</ele><time>2026-03-31T09:19:55.036Z</time></trkpt><trkpt lat="45.00341552420039" lon="9.511639865968778"><ele>89.0</ele><time>2026-03-31T09:19:57.036Z</time></trkpt><trkpt lat="45.00346565266816" lon="9.511730463128472"><ele>89.0</ele><time>2026-03-31T09:19:59.036Z</time></trkpt><trkpt lat="45.00351759425039" lon="9.511822058733179"><ele>89.33333333333334</ele><time>2026-03-31T09:20:01.036Z</time></trkpt><trkpt lat="45.00356732827532" lon="9.511909214081545"><ele>89.66666666666667</ele><time>2026-03-31T09:20:03.036Z</time></trkpt><trkpt lat="45.00361821518669" lon="9.512004900317029"><ele>90.0</ele><time>2026-03-31T09:20:05.036Z</time></trkpt><trkpt lat="45.00367069948157" lon="9.51209549848325"><ele>90.33333333333333</ele><time>2026-03-31T09:20:07.036Z</time></trkpt><trkpt lat="45.00371713415723" lon="9.512183179726419"><ele>90.66666666666666</ele><time>2026-03-31T09:20:09.036Z</time></trkpt><trkpt lat="45.003770732526064" lon="9.512273558464553"><ele>91.0</ele><time>2026-03-31T09:20:11.036Z</time></trkpt><trkpt lat="45.00382238724907" lon="9.512361291503181"><ele>91.0</ele><time>2026-03-31T09:20:13.036Z</time></trkpt><trkpt lat="45.00387619538912" lon="9.512461289657878"><ele>91.0</ele><time>2026-03-31T09:20:15.036Z</time></trkpt><trkpt lat="45.00392843545871" lon="9.512557446319201"><ele>91.0</ele><time>2026-03-31T09:20:17.036Z</time></trkpt><trkpt lat="45.00398079116802" lon="9.512655694338513"><ele>91.0</ele><time>2026-03-31T09:20:19.036Z</time></trkpt><trkpt lat="45.004037819806186" lon="9.51274624021221"><ele>91.0</ele><time>2026-03-31T09:20:21.036Z</time></trkpt><trkpt lat="45.00409017464623" lon="9.512840358799137"><ele>91.0</ele><time>2026-03-31T09:20:23.036Z</time></trkpt><trkpt lat="45.00414581939952" lon="9.51293378284067"><ele>90.83333333333333</ele><time>2026-03-31T09:20:25.036Z</time></trkpt><trkpt lat="45.00419825477643" lon="9.513028475483395"><ele>90.66666666666666</ele><time>2026-03-31T09:20:27.036Z</time></trkpt><trkpt lat="45.004251963184956" lon="9.51311645446373"><ele>90.5</ele><time>2026-03-31T09:20:29.036Z</time></trkpt><trkpt lat="45.0043051185998" lon="9.513203532822182"><ele>90.33333333333333</ele><time>2026-03-31T09:20:31.036Z</time></trkpt><trkpt lat="45.00435892977624" lon="9.513292447167277"><ele>90.16666666666667</ele><time>2026-03-31T09:20:33.036Z</time></trkpt><trkpt lat="45.004412812998964" lon="9.513381330861879"><ele>90.0</ele><time>2026-03-31T09:20:35.036Z</time></trkpt><trkpt lat="45.00446994885086" lon="9.51347120106329"><ele>90.0</ele><time>2026-03-31T09:20:37.036Z</time></trkpt><trkpt lat="45.004524095117326" lon="9.51356254485626"><ele>90.0</ele><time>2026-03-31T09:20:39.036Z</time></trkpt><trkpt lat="45.00457967830649" lon="9.513656106395485"><ele>90.0</ele><time>2026-03-31T09:20:41.036Z</time></trkpt><trkpt lat="45.00463090149679" lon="9.513746585642151"><ele>90.0</ele><time>2026-03-31T09:20:43.036Z</time></trkpt><trkpt lat="45.0046880194733" lon="9.51383510974411"><ele>90.0</ele><time>2026-03-31T09:20:45.036Z</time></trkpt><trkpt lat="45.00472957643341" lon="9.513933877590118"><ele>90.0</ele><time>2026-03-31T09:20:47.036Z</time></trkpt><trkpt lat="45.00477964635375" lon="9.514027095497186"><ele>90.16666666666667</ele><time>2026-03-31T09:20:49.036Z</time></trkpt><trkpt lat="45.00482232129078" lon="9.514125222038036"><ele>90.33333333333333</ele><time>2026-03-31T09:20:51.036Z</time></trkpt><trkpt lat="45.00486425452727" lon="9.51421705008293"><ele>90.5</ele><time>2026-03-31T09:20:53.037Z</time></trkpt><trkpt lat="45.00491111106357" lon="9.514304781774069"><ele>90.66666666666666</ele><time>2026-03-31T09:20:55.037Z</time></trkpt><trkpt lat="45.0049539213289" lon="9.5144045558952"><ele>90.83333333333333</ele><time>2026-03-31T09:20:57.037Z</time></trkpt><trkpt lat="45.00499714648083" lon="9.514498384769722"><ele>91.0</ele><time>2026-03-31T09:20:59.037Z</time></trkpt><trkpt lat="45.005043245438586" lon="9.514600574279038"><ele>91.0</ele><time>2026-03-31T09:21:01.037Z</time></trkpt><trkpt lat="45.00508060412186" lon="9.514704308764774"><ele>91.0</ele><time>2026-03-31T09:21:03.037Z</time></trkpt><trkpt lat="45.00512968635121" lon="9.514800132793972"><ele>91.0</ele><time>2026-03-31T09:21:05.037Z</time></trkpt><trkpt lat="45.00516619425721" lon="9.514896797976094"><ele>91.0</ele><time>2026-03-31T09:21:07.037Z</time></trkpt><trkpt lat="45.005216928305316" lon="9.5149934043633"><ele>91.0</ele><time>2026-03-31T09:21:09.037Z</time></trkpt><trkpt lat="45.005264381704464" lon="9.515091001541215"><ele>91.0</ele><time>2026-03-31T09:21:11.037Z</time></trkpt><trkpt lat="45.00531679631708" lon="9.515209007752597"><ele>91.0</ele><time>2026-03-31T09:21:13.037Z</time></trkpt><trkpt lat="45.00536789404499" lon="9.515319394285688"><ele>91.0</ele><time>2026-03-31T09:21:15.037Z</time></trkpt><trkpt lat="45.00542242143965" lon="9.515436084244358"><ele>91.0</ele><time>2026-03-31T09:21:17.037Z</time></trkpt><trkpt lat="45.00547781082429" lon="9.515551485619584"><ele>91.0</ele><time>2026-03-31T09:21:19.037Z</time></trkpt><trkpt lat="45.00553061707308" lon="9.515665368765973"><ele>91.0</ele><time>2026-03-31T09:21:21.037Z</time></trkpt><trkpt lat="45.00558218405385" lon="9.515786328343074"><ele>91.0</ele><time>2026-03-31T09:21:23.037Z</time></trkpt><trkpt lat="45.005643491352984" lon="9.515913920201195"><ele>91.0</ele><time>2026-03-31T09:21:25.037Z</time></trkpt><trkpt lat="45.005702328438524" lon="9.516031167855948"><ele>91.0</ele><time>2026-03-31T09:21:27.037Z</time></trkpt><trkpt lat="45.00575921455604" lon="9.516159161475292"><ele>91.0</ele><time>2026-03-31T09:21:29.037Z</time></trkpt><trkpt lat="45.00581625032131" lon="9.516281521920623"><ele>91.0</ele><time>2026-03-31T09:21:31.037Z</time></trkpt><trkpt lat="45.00588137936686" lon="9.51638055551625"><ele>91.19999999999999</ele><time>2026-03-31T09:21:33.037Z</time></trkpt><trkpt lat="45.00593113159356" lon="9.516493427019427"><ele>91.39999999999999</ele><time>2026-03-31T09:21:35.037Z</time></trkpt><trkpt lat="45.00598474931774" lon="9.51659724627649"><ele>91.6</ele><time>2026-03-31T09:21:37.037Z</time></trkpt><trkpt lat="45.006034639304886" lon="9.516702526178506"><ele>91.8</ele><time>2026-03-31T09:21:39.037Z</time></trkpt><trkpt lat="45.00609756363683" lon="9.516823458249581"><ele>92.0</ele><time>2026-03-31T09:21:41.037Z</time></trkpt><trkpt lat="45.00615125893502" lon="9.516942502282149"><ele>91.8</ele><time>2026-03-31T09:21:43.037Z</time></trkpt><trkpt lat="45.00621346480557" lon="9.517072310206318"><ele>91.6</ele><time>2026-03-31T09:21:45.037Z</time></trkpt><trkpt lat="45.00627160819946" lon="9.517184503458793"><ele>91.39999999999999</ele><time>2026-03-31T09:21:47.037Z</time></trkpt><trkpt lat="45.006325097611644" lon="9.517299134333774"><ele>91.19999999999999</ele><time>2026-03-31T09:21:49.037Z</time></trkpt><trkpt lat="45.00638055593054" lon="9.517412233997922"><ele>91.0</ele><time>2026-03-31T09:21:51.038Z</time></trkpt><trkpt lat="45.00644168414611" lon="9.517545705515616"><ele>91.0</ele><time>2026-03-31T09:21:53.038Z</time></trkpt><trkpt lat="45.00650334212154" lon="9.51768452309637"><ele>91.0</ele><time>2026-03-31T09:21:55.037Z</time></trkpt><trkpt lat="45.00656627889676" lon="9.517826547535797"><ele>91.0</ele><time>2026-03-31T09:21:57.037Z</time></trkpt><trkpt lat="45.006626247558756" lon="9.517976775098083"><ele>91.0</ele><time>2026-03-31T09:21:59.038Z</time></trkpt><trkpt lat="45.00669278588505" lon="9.518114425671746"><ele>90.5</ele><time>2026-03-31T09:22:01.038Z</time></trkpt><trkpt lat="45.00675298534308" lon="9.51825699972758"><ele>90.0</ele><time>2026-03-31T09:22:03.038Z</time></trkpt><trkpt lat="45.00681672414794" lon="9.518395140124085"><ele>89.5</ele><time>2026-03-31T09:22:05.038Z</time></trkpt><trkpt lat="45.0068820205518" lon="9.5185416009538"><ele>89.0</ele><time>2026-03-31T09:22:07.038Z</time></trkpt><trkpt lat="45.00694793894003" lon="9.518679608142417"><ele>88.5</ele><time>2026-03-31T09:22:09.038Z</time></trkpt><trkpt lat="45.00701209231422" lon="9.51882205802207"><ele>88.0</ele><time>2026-03-31T09:22:11.038Z</time></trkpt><trkpt lat="45.00706829269934" lon="9.518959467170145"><ele>87.5</ele><time>2026-03-31T09:22:13.038Z</time></trkpt><trkpt lat="45.007134950126506" lon="9.51909182605278"><ele>87.0</ele><time>2026-03-31T09:22:15.038Z</time></trkpt><trkpt lat="45.00720113109362" lon="9.519230852954514"><ele>87.0</ele><time>2026-03-31T09:22:17.038Z</time></trkpt><trkpt lat="45.0072620482955" lon="9.519369966204492"><ele>87.0</ele><time>2026-03-31T09:22:19.038Z</time></trkpt><trkpt lat="45.00732818063357" lon="9.519511022442028"><ele>87.0</ele><time>2026-03-31T09:22:21.038Z</time></trkpt><trkpt lat="45.00739365573838" lon="9.519650126897854"><ele>87.0</ele><time>2026-03-31T09:22:23.038Z</time></trkpt><trkpt lat="45.00745452554452" lon="9.519786166700062"><ele>87.0</ele><time>2026-03-31T09:22:25.038Z</time></trkpt><trkpt lat="45.00751375273858" lon="9.519916797427042"><ele>87.0</ele><time>2026-03-31T09:22:27.038Z</time></trkpt><trkpt lat="45.00757373426434" lon="9.52004948867711"><ele>87.0</ele><time>2026-03-31T09:22:29.038Z</time></trkpt><trkpt lat="45.00763349311348" lon="9.520183541601494"><ele>87.0</ele><time>2026-03-31T09:22:31.038Z</time></trkpt><trkpt lat="45.0076947973742" lon="9.520309476612045"><ele>87.0</ele><time>2026-03-31T09:22:33.038Z</time></trkpt><trkpt lat="45.00775038516405" lon="9.520433545512494"><ele>86.83333333333333</ele><time>2026-03-31T09:22:35.038Z</time></trkpt><trkpt lat="45.00780437719508" lon="9.520551016230465"><ele>86.66666666666667</ele><time>2026-03-31T09:22:37.038Z</time></trkpt><trkpt lat="45.0078572187976" lon="9.520668641194098"><ele>86.5</ele><time>2026-03-31T09:22:39.038Z</time></trkpt><trkpt lat="45.007916591890215" lon="9.52076813500265"><ele>86.33333333333334</ele><time>2026-03-31T09:22:41.038Z</time></trkpt><trkpt lat="45.00790094477613" lon="9.520854824638892"><ele>86.16666666666667</ele><time>2026-03-31T09:22:43.038Z</time></trkpt><trkpt lat="45.00782697740846" lon="9.520893579513023"><ele>86.0</ele><time>2026-03-31T09:22:46.038Z</time></trkpt><trkpt lat="45.007742636201016" lon="9.52091220067916"><ele>86.0</ele><time>2026-03-31T09:22:48.038Z</time></trkpt><trkpt lat="45.00765315071473" lon="9.520941916251605"><ele>86.0</ele><time>2026-03-31T09:22:50.038Z</time></trkpt><trkpt lat="45.00756924560621" lon="9.520982955901726"><ele>86.0</ele><time>2026-03-31T09:22:52.038Z</time></trkpt><trkpt lat="45.0074830982537" lon="9.52103501180014"><ele>86.0</ele><time>2026-03-31T09:22:54.038Z</time></trkpt><trkpt lat="45.0073978389387" lon="9.521102102396426"><ele>86.0</ele><time>2026-03-31T09:22:56.038Z</time></trkpt><trkpt lat="45.00732545622026" lon="9.52117559387044"><ele>86.0</ele><time>2026-03-31T09:22:58.038Z</time></trkpt><trkpt lat="45.0072433246249" lon="9.521269337291319"><ele>86.0</ele><time>2026-03-31T09:23:00.038Z</time></trkpt><trkpt lat="45.00717679446268" lon="9.52135745437418"><ele>86.0</ele><time>2026-03-31T09:23:02.038Z</time></trkpt><trkpt lat="45.00710763239424" lon="9.521446479259614"><ele>86.0</ele><time>2026-03-31T09:23:04.038Z</time></trkpt><trkpt lat="45.00702962355862" lon="9.521541968050348"><ele>86.0</ele><time>2026-03-31T09:23:06.038Z</time></trkpt><trkpt lat="45.00696624749808" lon="9.52162475007676"><ele>86.0</ele><time>2026-03-31T09:23:08.038Z</time></trkpt><trkpt lat="45.00689506939854" lon="9.52171680376105"><ele>86.0</ele><time>2026-03-31T09:23:10.038Z</time></trkpt><trkpt lat="45.00682148804339" lon="9.521811509411448"><ele>86.0</ele><time>2026-03-31T09:23:12.038Z</time></trkpt><trkpt lat="45.00674910933981" lon="9.521906708327144"><ele>86.0</ele><time>2026-03-31T09:23:14.038Z</time></trkpt><trkpt lat="45.00667969128449" lon="9.52199498295764"><ele>86.0</ele><time>2026-03-31T09:23:16.038Z</time></trkpt><trkpt lat="45.00660159754773" lon="9.52209308731663"><ele>86.19999999999999</ele><time>2026-03-31T09:23:18.038Z</time></trkpt><trkpt lat="45.0065347186752" lon="9.5221938605564"><ele>86.39999999999999</ele><time>2026-03-31T09:23:20.038Z</time></trkpt><trkpt lat="45.00645184006593" lon="9.522297512861616"><ele>86.6</ele><time>2026-03-31T09:23:22.038Z</time></trkpt><trkpt lat="45.006371326898844" lon="9.522396290593868"><ele>86.8</ele><time>2026-03-31T09:23:24.038Z</time></trkpt><trkpt lat="45.0062890481727" lon="9.522508983348137"><ele>87.0</ele><time>2026-03-31T09:23:26.038Z</time></trkpt><trkpt lat="45.006213405322434" lon="9.522615072116231"><ele>87.0</ele><time>2026-03-31T09:23:28.038Z</time></trkpt><trkpt lat="45.00613594275541" lon="9.522718867897467"><ele>87.0</ele><time>2026-03-31T09:23:30.038Z</time></trkpt><trkpt lat="45.00605974654501" lon="9.522820269194092"><ele>87.0</ele><time>2026-03-31T09:23:32.038Z</time></trkpt><trkpt lat="45.00598308933002" lon="9.522926565112058"><ele>87.0</ele><time>2026-03-31T09:23:34.038Z</time></trkpt><trkpt lat="45.00589823281446" lon="9.523037403367512"><ele>87.0</ele><time>2026-03-31T09:23:36.039Z</time></trkpt><trkpt lat="45.00582313792098" lon="9.523144558247754"><ele>87.19999999999999</ele><time>2026-03-31T09:23:38.039Z</time></trkpt><trkpt lat="45.00574244468774" lon="9.52324353889647"><ele>87.4</ele><time>2026-03-31T09:23:40.039Z</time></trkpt><trkpt lat="45.00566413057496" lon="9.523353535015524"><ele>87.6</ele><time>2026-03-31T09:23:42.039Z</time></trkpt><trkpt lat="45.005586897806204" lon="9.523457413236738"><ele>87.80000000000001</ele><time>2026-03-31T09:23:44.039Z</time></trkpt><trkpt lat="45.00551145690924" lon="9.523556937974352"><ele>88.0</ele><time>2026-03-31T09:23:46.039Z</time></trkpt><trkpt lat="45.00543751794165" lon="9.523657966601368"><ele>88.2</ele><time>2026-03-31T09:23:48.039Z</time></trkpt><trkpt lat="45.005364642106684" lon="9.523749912717744"><ele>88.4</ele><time>2026-03-31T09:23:50.039Z</time></trkpt><trkpt lat="45.00529418185041" lon="9.523840558087366"><ele>88.60000000000001</ele><time>2026-03-31T09:23:52.039Z</time></trkpt><trkpt lat="45.00522142983953" lon="9.523936991152008"><ele>88.80000000000001</ele><time>2026-03-31T09:23:54.038Z</time></trkpt><trkpt lat="45.005145567951544" lon="9.524032996305136"><ele>89.0</ele><time>2026-03-31T09:23:56.039Z</time></trkpt><trkpt lat="45.00507385839345" lon="9.524130613128465"><ele>89.0</ele><time>2026-03-31T09:23:58.039Z</time></trkpt><trkpt lat="45.00499816680516" lon="9.52422920441832"><ele>89.0</ele><time>2026-03-31T09:24:00.038Z</time></trkpt><trkpt lat="45.00493018506957" lon="9.524328522815436"><ele>89.0</ele><time>2026-03-31T09:24:02.039Z</time></trkpt><trkpt lat="45.00485628171355" lon="9.524423738191725"><ele>89.0</ele><time>2026-03-31T09:24:04.039Z</time></trkpt><trkpt lat="45.00478732951263" lon="9.524509829375031"><ele>89.0</ele><time>2026-03-31T09:24:06.039Z</time></trkpt><trkpt lat="45.004719713270745" lon="9.52461561458482"><ele>88.80000000000001</ele><time>2026-03-31T09:24:08.039Z</time></trkpt><trkpt lat="45.00464790724296" lon="9.524700700950824"><ele>88.60000000000001</ele><time>2026-03-31T09:24:10.039Z</time></trkpt><trkpt lat="45.00457606279922" lon="9.52480382360388"><ele>88.4</ele><time>2026-03-31T09:24:12.039Z</time></trkpt><trkpt lat="45.00450293754535" lon="9.524902049241136"><ele>88.2</ele><time>2026-03-31T09:24:14.039Z</time></trkpt><trkpt lat="45.00442700177233" lon="9.525005424523311"><ele>88.0</ele><time>2026-03-31T09:24:16.039Z</time></trkpt><trkpt lat="45.00436175230438" lon="9.525105314807714"><ele>88.0</ele><time>2026-03-31T09:24:18.039Z</time></trkpt><trkpt lat="45.004286352136546" lon="9.525199709048726"><ele>88.0</ele><time>2026-03-31T09:24:20.039Z</time></trkpt><trkpt lat="45.004210794115636" lon="9.525300123467753"><ele>88.0</ele><time>2026-03-31T09:24:22.039Z</time></trkpt><trkpt lat="45.0041354817754" lon="9.52538580728781"><ele>88.0</ele><time>2026-03-31T09:24:24.039Z</time></trkpt><trkpt lat="45.00406112318537" lon="9.525482886551726"><ele>88.0</ele><time>2026-03-31T09:24:26.039Z</time></trkpt><trkpt lat="45.00399252109555" lon="9.525579524171565"><ele>88.0</ele><time>2026-03-31T09:24:28.039Z</time></trkpt><trkpt lat="45.003919928106804" lon="9.525670785157795"><ele>88.0</ele><time>2026-03-31T09:24:30.039Z</time></trkpt><trkpt lat="45.003848232248494" lon="9.525764547026434"><ele>88.0</ele><time>2026-03-31T09:24:32.039Z</time></trkpt><trkpt lat="45.003777256694455" lon="9.525853324359637"><ele>88.0</ele><time>2026-03-31T09:24:34.039Z</time></trkpt><trkpt lat="45.00370634888072" lon="9.525956602732121"><ele>88.0</ele><time>2026-03-31T09:24:36.039Z</time></trkpt><trkpt lat="45.00363608666223" lon="9.526049798717812"><ele>88.0</ele><time>2026-03-31T09:24:38.039Z</time></trkpt><trkpt lat="45.00356348597548" lon="9.526148168947387"><ele>88.0</ele><time>2026-03-31T09:24:40.039Z</time></trkpt><trkpt lat="45.003486937693054" lon="9.526242927255682"><ele>88.0</ele><time>2026-03-31T09:24:42.039Z</time></trkpt><trkpt lat="45.003415217410954" lon="9.526342137561471"><ele>88.0</ele><time>2026-03-31T09:24:44.039Z</time></trkpt><trkpt lat="45.00334238375191" lon="9.526435111247585"><ele>88.0</ele><time>2026-03-31T09:24:46.039Z</time></trkpt><trkpt lat="45.0032708299572" lon="9.526534295477052"><ele>88.2</ele><time>2026-03-31T09:24:48.039Z</time></trkpt><trkpt lat="45.00319934487851" lon="9.526633351326335"><ele>88.4</ele><time>2026-03-31T09:24:50.04Z</time></trkpt><trkpt lat="45.003123675786036" lon="9.526733075884959"><ele>88.60000000000001</ele><time>2026-03-31T09:24:52.04Z</time></trkpt><trkpt lat="45.00305450359074" lon="9.526825845797719"><ele>88.80000000000001</ele><time>2026-03-31T09:24:54.04Z</time></trkpt><trkpt lat="45.00297931952961" lon="9.526922271499672"><ele>89.0</ele><time>2026-03-31T09:24:56.04Z</time></trkpt><trkpt lat="45.00290733489026" lon="9.527019685689199"><ele>88.4</ele><time>2026-03-31T09:24:58.04Z</time></trkpt><trkpt lat="45.00283309310563" lon="9.527112467350776"><ele>87.80000000000001</ele><time>2026-03-31T09:25:00.04Z</time></trkpt><trkpt lat="45.002763578446704" lon="9.527207761506379"><ele>87.19999999999999</ele><time>2026-03-31T09:25:02.04Z</time></trkpt><trkpt lat="45.00269317834022" lon="9.527300073313727"><ele>86.6</ele><time>2026-03-31T09:25:04.04Z</time></trkpt><trkpt lat="45.00262301966777" lon="9.527396558568892"><ele>86.0</ele><time>2026-03-31T09:25:06.04Z</time></trkpt><trkpt lat="45.002549183748584" lon="9.527495071352934"><ele>86.19999999999999</ele><time>2026-03-31T09:25:08.04Z</time></trkpt><trkpt lat="45.00247297451076" lon="9.527590702892553"><ele>86.39999999999999</ele><time>2026-03-31T09:25:10.04Z</time></trkpt><trkpt lat="45.002407318088814" lon="9.527688876633357"><ele>86.6</ele><time>2026-03-31T09:25:12.04Z</time></trkpt><trkpt lat="45.00233196715515" lon="9.5277836999341"><ele>86.8</ele><time>2026-03-31T09:25:14.04Z</time></trkpt><trkpt lat="45.00225792259037" lon="9.527876820676935"><ele>87.0</ele><time>2026-03-31T09:25:16.04Z</time></trkpt><trkpt lat="45.00218814308056" lon="9.527971324007288"><ele>87.19999999999999</ele><time>2026-03-31T09:25:18.04Z</time></trkpt><trkpt lat="45.00211820976148" lon="9.528066670880037"><ele>87.4</ele><time>2026-03-31T09:25:20.04Z</time></trkpt><trkpt lat="45.00204725991756" lon="9.528161678241094"><ele>87.6</ele><time>2026-03-31T09:25:22.04Z</time></trkpt><trkpt lat="45.00197382403301" lon="9.528256504061302"><ele>87.80000000000001</ele><time>2026-03-31T09:25:24.04Z</time></trkpt><trkpt lat="45.001898348091025" lon="9.528353275391424"><ele>88.0</ele><time>2026-03-31T09:25:26.04Z</time></trkpt><trkpt lat="45.00182134966088" lon="9.528457238493099"><ele>88.0</ele><time>2026-03-31T09:25:28.04Z</time></trkpt><trkpt lat="45.001747468931036" lon="9.528556343771497"><ele>88.0</ele><time>2026-03-31T09:25:30.04Z</time></trkpt><trkpt lat="45.00166318455072" lon="9.52866466211843"><ele>88.0</ele><time>2026-03-31T09:25:32.04Z</time></trkpt><trkpt lat="45.00158300972203" lon="9.528772095275272"><ele>88.0</ele><time>2026-03-31T09:25:34.04Z</time></trkpt><trkpt lat="45.001497498573116" lon="9.528885202799506"><ele>88.0</ele><time>2026-03-31T09:25:36.04Z</time></trkpt><trkpt lat="45.00141672970081" lon="9.528993617702202"><ele>87.25</ele><time>2026-03-31T09:25:38.04Z</time></trkpt><trkpt lat="45.00133395543023" lon="9.529106630092501"><ele>86.5</ele><time>2026-03-31T09:25:40.04Z</time></trkpt><trkpt lat="45.001251913596604" lon="9.529220309040994"><ele>85.75</ele><time>2026-03-31T09:25:42.04Z</time></trkpt><trkpt lat="45.001164447373284" lon="9.52933154029612"><ele>85.0</ele><time>2026-03-31T09:25:44.04Z</time></trkpt><trkpt lat="45.00107914110666" lon="9.5294502648604"><ele>85.25</ele><time>2026-03-31T09:25:46.04Z</time></trkpt><trkpt lat="45.000995845707585" lon="9.529561394397541"><ele>85.5</ele><time>2026-03-31T09:25:48.04Z</time></trkpt><trkpt lat="45.00091453139408" lon="9.529668726564362"><ele>85.75</ele><time>2026-03-31T09:25:50.04Z</time></trkpt><trkpt lat="45.000830332195434" lon="9.529780721732385"><ele>86.0</ele><time>2026-03-31T09:25:52.04Z</time></trkpt><trkpt lat="45.00074498556098" lon="9.52989426985174"><ele>86.75</ele><time>2026-03-31T09:25:54.04Z</time></trkpt><trkpt lat="45.00065642579813" lon="9.530008120094301"><ele>87.5</ele><time>2026-03-31T09:25:56.04Z</time></trkpt><trkpt lat="45.00057458259359" lon="9.530115265465733"><ele>88.25</ele><time>2026-03-31T09:25:58.04Z</time></trkpt><trkpt lat="45.000499530160916" lon="9.530220322891042"><ele>89.0</ele><time>2026-03-31T09:26:00.04Z</time></trkpt><trkpt lat="45.00041708198961" lon="9.530329796345377"><ele>89.0</ele><time>2026-03-31T09:26:02.041Z</time></trkpt><trkpt lat="45.00034223026719" lon="9.530444448675237"><ele>89.0</ele><time>2026-03-31T09:26:04.04Z</time></trkpt><trkpt lat="45.000269707475155" lon="9.53055190775176"><ele>89.0</ele><time>2026-03-31T09:26:06.04Z</time></trkpt><trkpt lat="45.00018755894192" lon="9.530651703728307"><ele>89.0</ele><time>2026-03-31T09:26:08.041Z</time></trkpt><trkpt lat="45.000097100705275" lon="9.53074362027174"><ele>89.0</ele><time>2026-03-31T09:26:10.04Z</time></trkpt><trkpt lat="44.99999506742694" lon="9.530822033785183"><ele>89.0</ele><time>2026-03-31T09:26:12.04Z</time></trkpt><trkpt lat="44.99989768077458" lon="9.530879797594965"><ele>89.0</ele><time>2026-03-31T09:26:14.04Z</time></trkpt><trkpt lat="44.9997904803319" lon="9.530929975622941"><ele>89.0</ele><time>2026-03-31T09:26:16.04Z</time></trkpt><trkpt lat="44.99968122050342" lon="9.530985474243943"><ele>89.0</ele><time>2026-03-31T09:26:18.04Z</time></trkpt><trkpt lat="44.999577005851656" lon="9.531034820335078"><ele>89.0</ele><time>2026-03-31T09:26:20.04Z</time></trkpt><trkpt lat="44.999472837773276" lon="9.531081831483293"><ele>89.0</ele><time>2026-03-31T09:26:22.04Z</time></trkpt><trkpt lat="44.99937237049305" lon="9.531134343818112"><ele>89.0</ele><time>2026-03-31T09:26:24.04Z</time></trkpt><trkpt lat="44.99927676767062" lon="9.531175904222694"><ele>89.0</ele><time>2026-03-31T09:26:26.04Z</time></trkpt><trkpt lat="44.99918222056647" lon="9.531242066304241"><ele>89.0</ele><time>2026-03-31T09:26:28.04Z</time></trkpt><trkpt lat="44.999094304741405" lon="9.531322438291543"><ele>89.0</ele><time>2026-03-31T09:26:30.04Z</time></trkpt><trkpt lat="44.99901046904259" lon="9.531393145245874"><ele>89.6</ele><time>2026-03-31T09:26:32.04Z</time></trkpt><trkpt lat="44.99893584077575" lon="9.531462206407163"><ele>90.2</ele><time>2026-03-31T09:26:34.04Z</time></trkpt><trkpt lat="44.99885643150104" lon="9.531541343902704"><ele>90.8</ele><time>2026-03-31T09:26:36.04Z</time></trkpt><trkpt lat="44.99878940680075" lon="9.531604009716988"><ele>91.39999999999999</ele><time>2026-03-31T09:26:38.04Z</time></trkpt><trkpt lat="44.998705173685266" lon="9.531677788444721"><ele>92.0</ele><time>2026-03-31T09:26:40.04Z</time></trkpt><trkpt lat="44.99860381990219" lon="9.531720594199115"><ele>92.0</ele><time>2026-03-31T09:26:42.04Z</time></trkpt><trkpt lat="44.99850852285837" lon="9.531749449423888"><ele>92.0</ele><time>2026-03-31T09:26:44.04Z</time></trkpt><trkpt lat="44.99844027817398" lon="9.53177563585433"><ele>92.0</ele><time>2026-03-31T09:26:46.041Z</time></trkpt><trkpt lat="44.998369827835994" lon="9.531814717270159"><ele>92.0</ele><time>2026-03-31T09:26:54.041Z</time></trkpt><trkpt lat="44.99836377616003" lon="9.53193992582174"><ele>92.0</ele><time>2026-03-31T09:26:57.041Z</time></trkpt><trkpt lat="44.9983763655002" lon="9.532065242871747"><ele>92.0</ele><time>2026-03-31T09:26:59.041Z</time></trkpt><trkpt lat="44.998384251237695" lon="9.532193263396438"><ele>91.8</ele><time>2026-03-31T09:27:01.041Z</time></trkpt><trkpt lat="44.99839596846173" lon="9.532339118196997"><ele>91.6</ele><time>2026-03-31T09:27:03.041Z</time></trkpt><trkpt lat="44.99840101967982" lon="9.532487879132908"><ele>91.39999999999999</ele><time>2026-03-31T09:27:05.041Z</time></trkpt><trkpt lat="44.99839436803828" lon="9.532627355389781"><ele>91.19999999999999</ele><time>2026-03-31T09:27:07.041Z</time></trkpt><trkpt lat="44.99837947154169" lon="9.53277692375152"><ele>91.0</ele><time>2026-03-31T09:27:09.041Z</time></trkpt><trkpt lat="44.99838820135711" lon="9.532944272952497"><ele>91.0</ele><time>2026-03-31T09:27:11.041Z</time></trkpt><trkpt lat="44.99839604547562" lon="9.533101047882358"><ele>91.0</ele><time>2026-03-31T09:27:13.041Z</time></trkpt><trkpt lat="44.998424443852144" lon="9.53324671434605"><ele>91.0</ele><time>2026-03-31T09:27:15.041Z</time></trkpt><trkpt lat="44.99847006732551" lon="9.533380258780834"><ele>91.0</ele><time>2026-03-31T09:27:17.041Z</time></trkpt><trkpt lat="44.99853348251993" lon="9.533499829408218"><ele>91.0</ele><time>2026-03-31T09:27:19.041Z</time></trkpt><trkpt lat="44.99859389777044" lon="9.533618957422945"><ele>91.0</ele><time>2026-03-31T09:27:21.041Z</time></trkpt><trkpt lat="44.99865061007736" lon="9.533740063287677"><ele>91.0</ele><time>2026-03-31T09:27:23.041Z</time></trkpt><trkpt lat="44.99871283124547" lon="9.533855885358753"><ele>91.0</ele><time>2026-03-31T09:27:25.041Z</time></trkpt><trkpt lat="44.99877384314662" lon="9.533967246804641"><ele>91.0</ele><time>2026-03-31T09:27:27.041Z</time></trkpt><trkpt lat="44.99883847000419" lon="9.534081198843145"><ele>91.0</ele><time>2026-03-31T09:27:29.041Z</time></trkpt><trkpt lat="44.99890148543402" lon="9.534198413136577"><ele>91.0</ele><time>2026-03-31T09:27:31.041Z</time></trkpt><trkpt lat="44.99897067431717" lon="9.534320473052954"><ele>91.0</ele><time>2026-03-31T09:27:33.041Z</time></trkpt><trkpt lat="44.99903433419233" lon="9.534439215643658"><ele>91.0</ele><time>2026-03-31T09:27:35.041Z</time></trkpt><trkpt lat="44.9991066888245" lon="9.534554469976394"><ele>91.0</ele><time>2026-03-31T09:27:37.041Z</time></trkpt><trkpt lat="44.999167797606525" lon="9.534680324597039"><ele>91.0</ele><time>2026-03-31T09:27:39.041Z</time></trkpt><trkpt lat="44.99922892602733" lon="9.534809430475772"><ele>90.6</ele><time>2026-03-31T09:27:41.041Z</time></trkpt><trkpt lat="44.99929245395922" lon="9.53494623827529"><ele>90.19999999999999</ele><time>2026-03-31T09:27:43.041Z</time></trkpt><trkpt lat="44.999355832305525" lon="9.535086836887352"><ele>89.80000000000001</ele><time>2026-03-31T09:27:45.041Z</time></trkpt><trkpt lat="44.999416544468104" lon="9.535233626809669"><ele>89.4</ele><time>2026-03-31T09:27:47.041Z</time></trkpt><trkpt lat="44.999449593423535" lon="9.535314615802802"><ele>89.0</ele><time>2026-03-31T09:27:48.041Z</time></trkpt><trkpt lat="44.99951238828519" lon="9.535451469867759"><ele>89.0</ele><time>2026-03-31T09:27:50.041Z</time></trkpt><trkpt lat="44.99956121851328" lon="9.53560562676143"><ele>89.0</ele><time>2026-03-31T09:27:52.041Z</time></trkpt><trkpt lat="44.99960984089354" lon="9.53575200769371"><ele>89.0</ele><time>2026-03-31T09:27:54.041Z</time></trkpt><trkpt lat="44.99965785903139" lon="9.535892988915306"><ele>89.0</ele><time>2026-03-31T09:27:56.041Z</time></trkpt><trkpt lat="44.99969447245359" lon="9.53602993221948"><ele>89.0</ele><time>2026-03-31T09:27:58.041Z</time></trkpt><trkpt lat="44.99974684030187" lon="9.536182182957855"><ele>89.25</ele><time>2026-03-31T09:28:00.041Z</time></trkpt><trkpt lat="44.999780908054404" lon="9.536335128761387"><ele>89.5</ele><time>2026-03-31T09:28:02.041Z</time></trkpt><trkpt lat="44.99981982249576" lon="9.536491112262969"><ele>89.75</ele><time>2026-03-31T09:28:04.041Z</time></trkpt><trkpt lat="44.999857712426454" lon="9.536645319325988"><ele>90.0</ele><time>2026-03-31T09:28:06.042Z</time></trkpt><trkpt lat="44.99990058706717" lon="9.536792520413167"><ele>90.0</ele><time>2026-03-31T09:28:08.042Z</time></trkpt><trkpt lat="44.99993683647605" lon="9.536937205569577"><ele>90.0</ele><time>2026-03-31T09:28:10.042Z</time></trkpt><trkpt lat="44.99997347071389" lon="9.537084568829028"><ele>90.0</ele><time>2026-03-31T09:28:12.041Z</time></trkpt><trkpt lat="45.00001741492928" lon="9.537226968119922"><ele>90.0</ele><time>2026-03-31T09:28:14.042Z</time></trkpt><trkpt lat="45.00004907394237" lon="9.537378122240415"><ele>90.0</ele><time>2026-03-31T09:28:16.042Z</time></trkpt><trkpt lat="45.000087791621645" lon="9.537528779410847"><ele>90.0</ele><time>2026-03-31T09:28:18.042Z</time></trkpt><trkpt lat="45.00013236982701" lon="9.537674879046417"><ele>90.0</ele><time>2026-03-31T09:28:20.042Z</time></trkpt><trkpt lat="45.000173187715035" lon="9.537821777443785"><ele>90.0</ele><time>2026-03-31T09:28:22.042Z</time></trkpt><trkpt lat="45.00021036442929" lon="9.537969729653538"><ele>90.0</ele><time>2026-03-31T09:28:24.042Z</time></trkpt><trkpt lat="45.00026123725747" lon="9.53812016716937"><ele>90.0</ele><time>2026-03-31T09:28:26.042Z</time></trkpt><trkpt lat="45.000317110994956" lon="9.538271009240216"><ele>90.0</ele><time>2026-03-31T09:28:28.042Z</time></trkpt><trkpt lat="45.00036600112343" lon="9.538419798810716"><ele>90.0</ele><time>2026-03-31T09:28:30.042Z</time></trkpt><trkpt lat="45.000420958950706" lon="9.538569283099712"><ele>90.0</ele><time>2026-03-31T09:28:32.042Z</time></trkpt><trkpt lat="45.000469602549565" lon="9.53871995840118"><ele>90.0</ele><time>2026-03-31T09:28:34.042Z</time></trkpt><trkpt lat="45.00052693011405" lon="9.538866583311014"><ele>90.0</ele><time>2026-03-31T09:28:36.042Z</time></trkpt><trkpt lat="45.00057774274899" lon="9.539016295861128"><ele>90.0</ele><time>2026-03-31T09:28:38.042Z</time></trkpt><trkpt lat="45.00063328584864" lon="9.5391627868121"><ele>90.0</ele><time>2026-03-31T09:28:40.042Z</time></trkpt><trkpt lat="45.000680708218056" lon="9.539310367048826"><ele>90.0</ele><time>2026-03-31T09:28:42.043Z</time></trkpt><trkpt lat="45.000734164591755" lon="9.53945492665808"><ele>90.0</ele><time>2026-03-31T09:28:44.043Z</time></trkpt><trkpt lat="45.000763267228535" lon="9.539538367122034"><ele>90.0</ele><time>2026-03-31T09:28:45.043Z</time></trkpt><trkpt lat="45.00079253901011" lon="9.539623093470626"><ele>90.0</ele><time>2026-03-31T09:28:46.043Z</time></trkpt><trkpt lat="45.00082110386249" lon="9.539707174851396"><ele>90.0</ele><time>2026-03-31T09:28:47.043Z</time></trkpt><trkpt lat="45.000849396285396" lon="9.539792015922796"><ele>90.0</ele><time>2026-03-31T09:28:48.043Z</time></trkpt><trkpt lat="45.000880039567775" lon="9.53987607780648"><ele>90.0</ele><time>2026-03-31T09:28:49.043Z</time></trkpt><trkpt lat="45.00090857865998" lon="9.539959943228755"><ele>89.85714285714285</ele><time>2026-03-31T09:28:50.043Z</time></trkpt><trkpt lat="45.000935041189045" lon="9.540046802949565"><ele>89.71428571428572</ele><time>2026-03-31T09:28:51.043Z</time></trkpt><trkpt lat="45.00096724451472" lon="9.54013889993122"><ele>89.57142857142857</ele><time>2026-03-31T09:28:52.043Z</time></trkpt><trkpt lat="45.00099874680506" lon="9.540221612258376"><ele>89.42857142857142</ele><time>2026-03-31T09:28:53.043Z</time></trkpt><trkpt lat="45.00103006964666" lon="9.54031398175323"><ele>89.28571428571428</ele><time>2026-03-31T09:28:54.043Z</time></trkpt><trkpt lat="45.0010600840134" lon="9.540403800434937"><ele>89.14285714285714</ele><time>2026-03-31T09:28:55.043Z</time></trkpt><trkpt lat="45.00109161670445" lon="9.54049450601833"><ele>89.0</ele><time>2026-03-31T09:28:56.043Z</time></trkpt><trkpt lat="45.00112321022697" lon="9.54058397941268"><ele>88.85714285714285</ele><time>2026-03-31T09:28:57.043Z</time></trkpt><trkpt lat="45.001154281329406" lon="9.54067656338529"><ele>88.71428571428571</ele><time>2026-03-31T09:28:58.043Z</time></trkpt><trkpt lat="45.001183226783446" lon="9.540769844762107"><ele>88.57142857142857</ele><time>2026-03-31T09:28:59.043Z</time></trkpt><trkpt lat="45.001217064735954" lon="9.54086159477553"><ele>88.42857142857142</ele><time>2026-03-31T09:29:00.043Z</time></trkpt><trkpt lat="45.00125077382801" lon="9.540954968101532"><ele>88.28571428571428</ele><time>2026-03-31T09:29:01.043Z</time></trkpt><trkpt lat="45.00128313205017" lon="9.541047897065965"><ele>88.14285714285714</ele><time>2026-03-31T09:29:02.043Z</time></trkpt><trkpt lat="45.00131559368619" lon="9.541143929750847"><ele>88.0</ele><time>2026-03-31T09:29:03.043Z</time></trkpt><trkpt lat="45.00134803244763" lon="9.541239184893096"><ele>88.0</ele><time>2026-03-31T09:29:04.043Z</time></trkpt><trkpt lat="45.001382151252756" lon="9.54133534318481"><ele>88.0</ele><time>2026-03-31T09:29:05.043Z</time></trkpt><trkpt lat="45.00141485217268" lon="9.541431673508637"><ele>88.0</ele><time>2026-03-31T09:29:06.043Z</time></trkpt><trkpt lat="45.001450220585255" lon="9.54152782512781"><ele>88.0</ele><time>2026-03-31T09:29:07.043Z</time></trkpt><trkpt lat="45.00148443333256" lon="9.541627002546093"><ele>88.0</ele><time>2026-03-31T09:29:08.043Z</time></trkpt><trkpt lat="45.0015182813186" lon="9.541723634364493"><ele>88.0</ele><time>2026-03-31T09:29:09.043Z</time></trkpt><trkpt lat="45.001552226722936" lon="9.541822420247241"><ele>88.0</ele><time>2026-03-31T09:29:10.043Z</time></trkpt><trkpt lat="45.001585656554546" lon="9.541921705099051"><ele>88.0</ele><time>2026-03-31T09:29:11.043Z</time></trkpt><trkpt lat="45.00162121921345" lon="9.5420208668598"><ele>88.0</ele><time>2026-03-31T09:29:12.043Z</time></trkpt><trkpt lat="45.00165827313398" lon="9.542120012567228"><ele>88.0</ele><time>2026-03-31T09:29:13.043Z</time></trkpt><trkpt lat="45.00169338363655" lon="9.542217236662607"><ele>88.0</ele><time>2026-03-31T09:29:14.043Z</time></trkpt><trkpt lat="45.001725711399224" lon="9.54231401227626"><ele>88.0</ele><time>2026-03-31T09:29:15.043Z</time></trkpt><trkpt lat="45.00175975418619" lon="9.542409198677714"><ele>87.5</ele><time>2026-03-31T09:29:16.043Z</time></trkpt><trkpt lat="45.00179284776566" lon="9.542505810432916"><ele>87.0</ele><time>2026-03-31T09:29:17.043Z</time></trkpt><trkpt lat="45.001826439022345" lon="9.542601098277247"><ele>86.5</ele><time>2026-03-31T09:29:18.043Z</time></trkpt><trkpt lat="45.00186009995515" lon="9.54269734236269"><ele>86.0</ele><time>2026-03-31T09:29:19.043Z</time></trkpt><trkpt lat="45.001894395078956" lon="9.542793724133922"><ele>85.5</ele><time>2026-03-31T09:29:20.043Z</time></trkpt><trkpt lat="45.00192826658869" lon="9.542892484506055"><ele>85.0</ele><time>2026-03-31T09:29:21.043Z</time></trkpt><trkpt lat="45.001960737740326" lon="9.542984721971996"><ele>85.0</ele><time>2026-03-31T09:29:22.043Z</time></trkpt><trkpt lat="45.0019956214815" lon="9.543078989299913"><ele>85.0</ele><time>2026-03-31T09:29:23.043Z</time></trkpt><trkpt lat="45.00202849236508" lon="9.543176783458822"><ele>85.0</ele><time>2026-03-31T09:29:24.043Z</time></trkpt><trkpt lat="45.00206273272146" lon="9.54327357316092"><ele>85.0</ele><time>2026-03-31T09:29:25.043Z</time></trkpt><trkpt lat="45.002097719481824" lon="9.543369626076405"><ele>85.0</ele><time>2026-03-31T09:29:26.043Z</time></trkpt><trkpt lat="45.00212988809756" lon="9.543467413322729"><ele>85.0</ele><time>2026-03-31T09:29:27.043Z</time></trkpt><trkpt lat="45.00216301374073" lon="9.54356480614201"><ele>85.0</ele><time>2026-03-31T09:29:28.043Z</time></trkpt><trkpt lat="45.002197812463436" lon="9.543664011871506"><ele>85.0</ele><time>2026-03-31T09:29:29.043Z</time></trkpt><trkpt lat="45.00223204504103" lon="9.54376021475387"><ele>85.0</ele><time>2026-03-31T09:29:30.043Z</time></trkpt><trkpt lat="45.00226422564872" lon="9.543857137819895"><ele>85.0</ele><time>2026-03-31T09:29:31.043Z</time></trkpt><trkpt lat="45.00229860094407" lon="9.543953880608907"><ele>85.0</ele><time>2026-03-31T09:29:32.043Z</time></trkpt><trkpt lat="45.00233133269865" lon="9.544049748703358"><ele>85.0</ele><time>2026-03-31T09:29:33.043Z</time></trkpt><trkpt lat="45.002366980895175" lon="9.544145042279576"><ele>85.14285714285715</ele><time>2026-03-31T09:29:34.043Z</time></trkpt><trkpt lat="45.00239978999468" lon="9.544243470657829"><ele>85.28571428571428</ele><time>2026-03-31T09:29:35.043Z</time></trkpt><trkpt lat="45.002432896502135" lon="9.54433791359057"><ele>85.42857142857143</ele><time>2026-03-31T09:29:36.043Z</time></trkpt><trkpt lat="45.002466942397575" lon="9.544429563331624"><ele>85.57142857142858</ele><time>2026-03-31T09:29:37.043Z</time></trkpt><trkpt lat="45.002499462305764" lon="9.544527515279704"><ele>85.71428571428572</ele><time>2026-03-31T09:29:38.043Z</time></trkpt><trkpt lat="45.00253530381823" lon="9.544620711357917"><ele>85.85714285714286</ele><time>2026-03-31T09:29:39.043Z</time></trkpt><trkpt lat="45.00256659531236" lon="9.544712786148764"><ele>86.0</ele><time>2026-03-31T09:29:40.043Z</time></trkpt><trkpt lat="45.002599061155415" lon="9.54479920112958"><ele>86.00000000000001</ele><time>2026-03-31T09:29:41.043Z</time></trkpt><trkpt lat="45.002634673373315" lon="9.544896238253006"><ele>86.0</ele><time>2026-03-31T09:29:42.043Z</time></trkpt><trkpt lat="45.00266158223351" lon="9.544989808687884"><ele>86.0</ele><time>2026-03-31T09:29:43.043Z</time></trkpt><trkpt lat="45.002698373443074" lon="9.545087132932322"><ele>86.0</ele><time>2026-03-31T09:29:44.043Z</time></trkpt><trkpt lat="45.002728435651136" lon="9.545181890964205"><ele>86.0</ele><time>2026-03-31T09:29:45.043Z</time></trkpt><trkpt lat="45.002761135899675" lon="9.545271596046366"><ele>86.00000000000001</ele><time>2026-03-31T09:29:46.043Z</time></trkpt><trkpt lat="45.00279454302362" lon="9.54536871055114"><ele>86.0</ele><time>2026-03-31T09:29:47.043Z</time></trkpt><trkpt lat="45.00282841812077" lon="9.545458380246025"><ele>86.00000000000001</ele><time>2026-03-31T09:29:48.043Z</time></trkpt><trkpt lat="45.002860735964575" lon="9.545551003392294"><ele>86.0</ele><time>2026-03-31T09:29:49.043Z</time></trkpt><trkpt lat="45.002889637735464" lon="9.545645311681689"><ele>86.0</ele><time>2026-03-31T09:29:50.043Z</time></trkpt><trkpt lat="45.002926171053666" lon="9.54573159541152"><ele>86.0</ele><time>2026-03-31T09:29:51.043Z</time></trkpt><trkpt lat="45.00295650286322" lon="9.545825468578002"><ele>86.0</ele><time>2026-03-31T09:29:52.043Z</time></trkpt><trkpt lat="45.002989596377816" lon="9.545914586889108"><ele>86.00000000000001</ele><time>2026-03-31T09:29:53.043Z</time></trkpt><trkpt lat="45.00301648653441" lon="9.546007997541807"><ele>86.0</ele><time>2026-03-31T09:29:54.043Z</time></trkpt><trkpt lat="45.00305047561482" lon="9.546098304194363"><ele>86.00000000000001</ele><time>2026-03-31T09:29:55.043Z</time></trkpt><trkpt lat="45.00308388214981" lon="9.546189022271232"><ele>86.0</ele><time>2026-03-31T09:29:56.043Z</time></trkpt><trkpt lat="45.00311137778231" lon="9.546278797882678"><ele>86.0</ele><time>2026-03-31T09:29:57.043Z</time></trkpt><trkpt lat="45.0031460721742" lon="9.546370657994848"><ele>86.0</ele><time>2026-03-31T09:29:58.043Z</time></trkpt><trkpt lat="45.003180849014946" lon="9.546463279833704"><ele>86.0</ele><time>2026-03-31T09:29:59.043Z</time></trkpt><trkpt lat="45.003213352928604" lon="9.546555406189158"><ele>86.00000000000001</ele><time>2026-03-31T09:30:00.043Z</time></trkpt><trkpt lat="45.00324492734491" lon="9.546650868629934"><ele>86.0</ele><time>2026-03-31T09:30:01.043Z</time></trkpt><trkpt lat="45.003279137320014" lon="9.54673709391197"><ele>86.00000000000001</ele><time>2026-03-31T09:30:02.043Z</time></trkpt><trkpt lat="45.00330819926103" lon="9.546831008925771"><ele>86.0</ele><time>2026-03-31T09:30:03.043Z</time></trkpt><trkpt lat="45.00334187956857" lon="9.546919352407283"><ele>86.0</ele><time>2026-03-31T09:30:04.043Z</time></trkpt><trkpt lat="45.003373255354546" lon="9.547008841330845"><ele>86.0</ele><time>2026-03-31T09:30:05.043Z</time></trkpt><trkpt lat="45.00340518696041" lon="9.547090624876095"><ele>86.0</ele><time>2026-03-31T09:30:06.043Z</time></trkpt><trkpt lat="45.00343585362814" lon="9.547174796939023"><ele>86.00000000000001</ele><time>2026-03-31T09:30:07.043Z</time></trkpt><trkpt lat="45.00346111548056" lon="9.547257703384814"><ele>86.0</ele><time>2026-03-31T09:30:08.043Z</time></trkpt><trkpt lat="45.00348996956018" lon="9.547340126082258"><ele>86.0</ele><time>2026-03-31T09:30:09.043Z</time></trkpt><trkpt lat="45.003521120527154" lon="9.5474232394081"><ele>86.0</ele><time>2026-03-31T09:30:10.043Z</time></trkpt><trkpt lat="45.003580394243606" lon="9.54757988598354"><ele>86.0</ele><time>2026-03-31T09:30:12.043Z</time></trkpt><trkpt lat="45.00361428010819" lon="9.54765950324165"><ele>86.0</ele><time>2026-03-31T09:30:13.043Z</time></trkpt><trkpt lat="45.00364291328345" lon="9.54774070372692"><ele>86.0</ele><time>2026-03-31T09:30:14.044Z</time></trkpt><trkpt lat="45.00369556882905" lon="9.547899579776308"><ele>86.0</ele><time>2026-03-31T09:30:16.044Z</time></trkpt><trkpt lat="45.00375079904917" lon="9.54805534422076"><ele>86.0</ele><time>2026-03-31T09:30:18.043Z</time></trkpt><trkpt lat="45.00380545016206" lon="9.548206326410222"><ele>86.0</ele><time>2026-03-31T09:30:20.044Z</time></trkpt><trkpt lat="45.00386206704401" lon="9.548356672333155"><ele>86.0</ele><time>2026-03-31T09:30:22.043Z</time></trkpt><trkpt lat="45.003907387840314" lon="9.54850402018808"><ele>86.0</ele><time>2026-03-31T09:30:24.044Z</time></trkpt><trkpt lat="45.00393891862744" lon="9.548581908570805"><ele>86.0</ele><time>2026-03-31T09:30:25.044Z</time></trkpt><trkpt lat="45.00399407475843" lon="9.548735598662141"><ele>86.19999999999999</ele><time>2026-03-31T09:30:27.044Z</time></trkpt><trkpt lat="45.004050561946315" lon="9.548884124498676"><ele>86.39999999999999</ele><time>2026-03-31T09:30:29.044Z</time></trkpt><trkpt lat="45.004080330599166" lon="9.548964829104957"><ele>86.6</ele><time>2026-03-31T09:30:30.044Z</time></trkpt><trkpt lat="45.004131944075425" lon="9.54912028032332"><ele>86.8</ele><time>2026-03-31T09:30:32.044Z</time></trkpt><trkpt lat="45.00416583525064" lon="9.549200953653848"><ele>87.0</ele><time>2026-03-31T09:30:33.044Z</time></trkpt><trkpt lat="45.00422070890389" lon="9.549357893047183"><ele>86.5</ele><time>2026-03-31T09:30:35.044Z</time></trkpt><trkpt lat="45.00424994558818" lon="9.549439938714599"><ele>86.0</ele><time>2026-03-31T09:30:36.044Z</time></trkpt><trkpt lat="45.00427789441651" lon="9.54952054957636"><ele>85.5</ele><time>2026-03-31T09:30:37.044Z</time></trkpt><trkpt lat="45.004307194870215" lon="9.549602719282834"><ele>85.0</ele><time>2026-03-31T09:30:38.044Z</time></trkpt><trkpt lat="45.004367790908155" lon="9.549763651923127"><ele>84.5</ele><time>2026-03-31T09:30:40.044Z</time></trkpt><trkpt lat="45.00439696388442" lon="9.549843398299556"><ele>84.0</ele><time>2026-03-31T09:30:41.044Z</time></trkpt><trkpt lat="45.00442653180229" lon="9.549923303250779"><ele>84.0</ele><time>2026-03-31T09:30:42.044Z</time></trkpt><trkpt lat="45.004448835742984" lon="9.550007177916298"><ele>84.0</ele><time>2026-03-31T09:30:43.044Z</time></trkpt><trkpt lat="45.00448162133421" lon="9.550091306598285"><ele>84.0</ele><time>2026-03-31T09:30:44.044Z</time></trkpt><trkpt lat="45.00451454912711" lon="9.550169424867537"><ele>84.0</ele><time>2026-03-31T09:30:45.044Z</time></trkpt><trkpt lat="45.004565603935745" lon="9.550331754214112"><ele>84.0</ele><time>2026-03-31T09:30:47.044Z</time></trkpt><trkpt lat="45.00459618017061" lon="9.550411751897554"><ele>84.0</ele><time>2026-03-31T09:30:48.044Z</time></trkpt><trkpt lat="45.00462576184346" lon="9.550491817947188"><ele>84.0</ele><time>2026-03-31T09:30:49.044Z</time></trkpt><trkpt lat="45.00468407291149" lon="9.55064993745805"><ele>84.0</ele><time>2026-03-31T09:30:51.044Z</time></trkpt><trkpt lat="45.00473994251171" lon="9.550807103988264"><ele>84.0</ele><time>2026-03-31T09:30:53.044Z</time></trkpt><trkpt lat="45.00479734790053" lon="9.550960790166654"><ele>84.0</ele><time>2026-03-31T09:30:55.044Z</time></trkpt><trkpt lat="45.00485506135414" lon="9.55111323166966"><ele>84.0</ele><time>2026-03-31T09:30:57.044Z</time></trkpt><trkpt lat="45.00488549332194" lon="9.551191712780533"><ele>84.0</ele><time>2026-03-31T09:30:58.044Z</time></trkpt><trkpt lat="45.004935894553604" lon="9.551342941750043"><ele>84.25</ele><time>2026-03-31T09:31:00.044Z</time></trkpt><trkpt lat="45.00499599025169" lon="9.551491904208318"><ele>84.5</ele><time>2026-03-31T09:31:02.044Z</time></trkpt><trkpt lat="45.005047516393546" lon="9.551645076096547"><ele>84.75</ele><time>2026-03-31T09:31:04.044Z</time></trkpt><trkpt lat="45.005106444894594" lon="9.551795243596212"><ele>85.0</ele><time>2026-03-31T09:31:06.044Z</time></trkpt><trkpt lat="45.00515829401445" lon="9.551943996147033"><ele>85.0</ele><time>2026-03-31T09:31:08.044Z</time></trkpt><trkpt lat="45.005187904606885" lon="9.552022990038974"><ele>85.0</ele><time>2026-03-31T09:31:09.044Z</time></trkpt><trkpt lat="45.00524322137853" lon="9.55217536994523"><ele>85.0</ele><time>2026-03-31T09:31:11.044Z</time></trkpt><trkpt lat="45.00527273799155" lon="9.552254144550803"><ele>85.0</ele><time>2026-03-31T09:31:12.044Z</time></trkpt><trkpt lat="45.00529954560037" lon="9.552336997119983"><ele>85.0</ele><time>2026-03-31T09:31:13.044Z</time></trkpt><trkpt lat="45.005358447591455" lon="9.55248890011182"><ele>85.0</ele><time>2026-03-31T09:31:15.044Z</time></trkpt><trkpt lat="45.0053849754583" lon="9.552571497990664"><ele>84.8</ele><time>2026-03-31T09:31:16.044Z</time></trkpt><trkpt lat="45.00544100217747" lon="9.552732063382546"><ele>84.6</ele><time>2026-03-31T09:31:18.044Z</time></trkpt><trkpt lat="45.00549744758653" lon="9.55288800973636"><ele>84.4</ele><time>2026-03-31T09:31:20.044Z</time></trkpt><trkpt lat="45.00552604194098" lon="9.552970011872672"><ele>84.2</ele><time>2026-03-31T09:31:21.044Z</time></trkpt><trkpt lat="45.00558263955527" lon="9.553128113480401"><ele>84.0</ele><time>2026-03-31T09:31:23.044Z</time></trkpt><trkpt lat="45.005608407869346" lon="9.553210092991753"><ele>84.0</ele><time>2026-03-31T09:31:24.044Z</time></trkpt><trkpt lat="45.00563968211815" lon="9.553288628706264"><ele>84.0</ele><time>2026-03-31T09:31:25.044Z</time></trkpt><trkpt lat="45.00566747688585" lon="9.553368813789934"><ele>84.0</ele><time>2026-03-31T09:31:26.044Z</time></trkpt><trkpt lat="45.005724956477415" lon="9.553526956850757"><ele>84.0</ele><time>2026-03-31T09:31:28.044Z</time></trkpt><trkpt lat="45.00578271571168" lon="9.553687945878652"><ele>84.0</ele><time>2026-03-31T09:31:30.044Z</time></trkpt><trkpt lat="45.00583283296252" lon="9.55383529315995"><ele>84.0</ele><time>2026-03-31T09:31:32.044Z</time></trkpt><trkpt lat="45.00589534154411" lon="9.553987204142027"><ele>84.0</ele><time>2026-03-31T09:31:34.044Z</time></trkpt><trkpt lat="45.0059437679655" lon="9.554142553346514"><ele>84.0</ele><time>2026-03-31T09:31:36.044Z</time></trkpt><trkpt lat="45.00599197327076" lon="9.554304903773676"><ele>84.0</ele><time>2026-03-31T09:31:38.044Z</time></trkpt><trkpt lat="45.0060434643598" lon="9.554462867737556"><ele>83.66666666666667</ele><time>2026-03-31T09:31:40.044Z</time></trkpt><trkpt lat="45.00607484272672" lon="9.55454127918384"><ele>83.33333333333333</ele><time>2026-03-31T09:31:41.044Z</time></trkpt><trkpt lat="45.00610804836939" lon="9.554619915013106"><ele>83.0</ele><time>2026-03-31T09:31:42.044Z</time></trkpt><trkpt lat="45.00613674920016" lon="9.554699614327225"><ele>82.66666666666666</ele><time>2026-03-31T09:31:43.044Z</time></trkpt><trkpt lat="45.00618606613142" lon="9.554858132144266"><ele>82.33333333333333</ele><time>2026-03-31T09:31:45.044Z</time></trkpt><trkpt lat="45.006215203882896" lon="9.554937705188104"><ele>82.0</ele><time>2026-03-31T09:31:46.044Z</time></trkpt><trkpt lat="45.00626770473762" lon="9.555090849545826"><ele>82.0</ele><time>2026-03-31T09:31:48.044Z</time></trkpt><trkpt lat="45.00629644094024" lon="9.555170457290231"><ele>82.0</ele><time>2026-03-31T09:31:49.044Z</time></trkpt><trkpt lat="45.00634843976816" lon="9.555329168570106"><ele>82.0</ele><time>2026-03-31T09:31:51.045Z</time></trkpt><trkpt lat="45.00640401691651" lon="9.555487723144095"><ele>82.0</ele><time>2026-03-31T09:31:53.045Z</time></trkpt><trkpt lat="45.00643237199663" lon="9.555567537843244"><ele>82.0</ele><time>2026-03-31T09:31:54.045Z</time></trkpt><trkpt lat="45.00648147979902" lon="9.555721968066877"><ele>82.25</ele><time>2026-03-31T09:31:56.045Z</time></trkpt><trkpt lat="45.006538204426256" lon="9.555873890670323"><ele>82.5</ele><time>2026-03-31T09:31:58.045Z</time></trkpt><trkpt lat="45.00659282802038" lon="9.556027366352481"><ele>82.75</ele><time>2026-03-31T09:32:00.045Z</time></trkpt><trkpt lat="45.0066468733758" lon="9.556179464932898"><ele>83.0</ele><time>2026-03-31T09:32:02.045Z</time></trkpt><trkpt lat="45.0066992552208" lon="9.556331696788007"><ele>83.0</ele><time>2026-03-31T09:32:04.045Z</time></trkpt><trkpt lat="45.00675371731705" lon="9.556482335217527"><ele>83.0</ele><time>2026-03-31T09:32:06.045Z</time></trkpt><trkpt lat="45.00680636466136" lon="9.556631081710318"><ele>83.0</ele><time>2026-03-31T09:32:08.045Z</time></trkpt><trkpt lat="45.00685715111697" lon="9.55677806474638"><ele>83.0</ele><time>2026-03-31T09:32:10.045Z</time></trkpt><trkpt lat="45.00690926323373" lon="9.556921866895264"><ele>82.75</ele><time>2026-03-31T09:32:12.045Z</time></trkpt><trkpt lat="45.00696066449332" lon="9.557063628232893"><ele>82.5</ele><time>2026-03-31T09:32:14.045Z</time></trkpt><trkpt lat="45.00701276625459" lon="9.55721029771393"><ele>82.25</ele><time>2026-03-31T09:32:16.045Z</time></trkpt><trkpt lat="45.007062587519044" lon="9.557352001206972"><ele>82.0</ele><time>2026-03-31T09:32:18.045Z</time></trkpt><trkpt lat="45.00711305481867" lon="9.557494688819583"><ele>82.0</ele><time>2026-03-31T09:32:20.045Z</time></trkpt><trkpt lat="45.00716410650989" lon="9.557636493352943"><ele>82.0</ele><time>2026-03-31T09:32:22.045Z</time></trkpt><trkpt lat="45.00721696876467" lon="9.557775220265778"><ele>82.0</ele><time>2026-03-31T09:32:24.044Z</time></trkpt><trkpt lat="45.00726599860004" lon="9.557918943322425"><ele>82.0</ele><time>2026-03-31T09:32:26.045Z</time></trkpt><trkpt lat="45.0073183874627" lon="9.558063465819835"><ele>82.0</ele><time>2026-03-31T09:32:28.045Z</time></trkpt><trkpt lat="45.00737133109808" lon="9.55821368457769"><ele>82.0</ele><time>2026-03-31T09:32:30.045Z</time></trkpt><trkpt lat="45.00742031810289" lon="9.558359356721812"><ele>82.0</ele><time>2026-03-31T09:32:32.045Z</time></trkpt><trkpt lat="45.00747051565419" lon="9.558499469921436"><ele>82.0</ele><time>2026-03-31T09:32:34.045Z</time></trkpt><trkpt lat="45.00752069024036" lon="9.55864999315939"><ele>82.0</ele><time>2026-03-31T09:32:36.045Z</time></trkpt><trkpt lat="45.007574643958534" lon="9.558795783012004"><ele>82.0</ele><time>2026-03-31T09:32:38.045Z</time></trkpt><trkpt lat="45.00762330612206" lon="9.558939967693956"><ele>82.0</ele><time>2026-03-31T09:32:40.045Z</time></trkpt><trkpt lat="45.00767443975638" lon="9.55907057437056"><ele>82.0</ele><time>2026-03-31T09:32:42.045Z</time></trkpt><trkpt lat="45.00772511667028" lon="9.559203943556952"><ele>82.0</ele><time>2026-03-31T09:32:44.045Z</time></trkpt><trkpt lat="45.007779509386836" lon="9.559334369808477"><ele>82.0</ele><time>2026-03-31T09:32:46.045Z</time></trkpt><trkpt lat="45.007837697148794" lon="9.559471418898763"><ele>82.0</ele><time>2026-03-31T09:32:48.045Z</time></trkpt><trkpt lat="45.00788075232349" lon="9.559547683115383"><ele>82.0</ele><time>2026-03-31T09:32:49.045Z</time></trkpt><trkpt lat="45.007935967307205" lon="9.559689532751268"><ele>82.0</ele><time>2026-03-31T09:32:51.045Z</time></trkpt><trkpt lat="45.00800273598461" lon="9.559839853322966"><ele>82.0</ele><time>2026-03-31T09:32:53.045Z</time></trkpt><trkpt lat="45.00807090315997" lon="9.559985764202473"><ele>81.83333333333333</ele><time>2026-03-31T09:32:55.045Z</time></trkpt><trkpt lat="45.00810333888461" lon="9.5600653469884"><ele>81.66666666666666</ele><time>2026-03-31T09:32:56.045Z</time></trkpt><trkpt lat="45.008139263806164" lon="9.560141742219818"><ele>81.5</ele><time>2026-03-31T09:32:57.045Z</time></trkpt><trkpt lat="45.008173745090396" lon="9.560218534845061"><ele>81.33333333333333</ele><time>2026-03-31T09:32:58.045Z</time></trkpt><trkpt lat="45.00820890417264" lon="9.560294175560674"><ele>81.16666666666667</ele><time>2026-03-31T09:32:59.045Z</time></trkpt><trkpt lat="45.00824412236631" lon="9.560378621896128"><ele>81.0</ele><time>2026-03-31T09:33:00.045Z</time></trkpt><trkpt lat="45.00831405798464" lon="9.560539078651304"><ele>80.85714285714286</ele><time>2026-03-31T09:33:02.045Z</time></trkpt><trkpt lat="45.00834757087958" lon="9.56062145692506"><ele>80.71428571428571</ele><time>2026-03-31T09:33:03.045Z</time></trkpt><trkpt lat="45.00838238682855" lon="9.56069860909494"><ele>80.57142857142857</ele><time>2026-03-31T09:33:04.045Z</time></trkpt><trkpt lat="45.00841969282404" lon="9.560777082402483"><ele>80.42857142857143</ele><time>2026-03-31T09:33:05.045Z</time></trkpt><trkpt lat="45.008452974984756" lon="9.56086240212328"><ele>80.28571428571429</ele><time>2026-03-31T09:33:06.045Z</time></trkpt><trkpt lat="45.00849129188244" lon="9.56094070353389"><ele>80.14285714285714</ele><time>2026-03-31T09:33:07.045Z</time></trkpt><trkpt lat="45.008525737916436" lon="9.561025294357213"><ele>80.0</ele><time>2026-03-31T09:33:08.045Z</time></trkpt><trkpt lat="45.00856350805246" lon="9.561107608459535"><ele>80.0</ele><time>2026-03-31T09:33:09.045Z</time></trkpt><trkpt lat="45.008601535606864" lon="9.561188334517839"><ele>80.0</ele><time>2026-03-31T09:33:10.045Z</time></trkpt><trkpt lat="45.00863575958658" lon="9.56127133165611"><ele>80.0</ele><time>2026-03-31T09:33:11.045Z</time></trkpt><trkpt lat="45.00867290426018" lon="9.561353770100478"><ele>80.0</ele><time>2026-03-31T09:33:12.045Z</time></trkpt><trkpt lat="45.00871306822301" lon="9.561429833129761"><ele>80.0</ele><time>2026-03-31T09:33:13.045Z</time></trkpt><trkpt lat="45.008748937119414" lon="9.561516098248807"><ele>80.0</ele><time>2026-03-31T09:33:14.045Z</time></trkpt><trkpt lat="45.00878416218297" lon="9.561598919378401"><ele>80.0</ele><time>2026-03-31T09:33:15.045Z</time></trkpt><trkpt lat="45.00882018899217" lon="9.561680516791458"><ele>80.14285714285714</ele><time>2026-03-31T09:33:16.045Z</time></trkpt><trkpt lat="45.008856520534636" lon="9.561760908781485"><ele>80.28571428571429</ele><time>2026-03-31T09:33:17.045Z</time></trkpt><trkpt lat="45.00889481111428" lon="9.56183826787876"><ele>80.42857142857143</ele><time>2026-03-31T09:33:18.045Z</time></trkpt><trkpt lat="45.008926325855846" lon="9.561916784998273"><ele>80.57142857142857</ele><time>2026-03-31T09:33:19.045Z</time></trkpt><trkpt lat="45.00896027892073" lon="9.56199776666041"><ele>80.71428571428571</ele><time>2026-03-31T09:33:20.045Z</time></trkpt><trkpt lat="45.00899651875189" lon="9.562075760765703"><ele>80.85714285714286</ele><time>2026-03-31T09:33:21.045Z</time></trkpt><trkpt lat="45.00903044946154" lon="9.562156243272545"><ele>81.0</ele><time>2026-03-31T09:33:22.045Z</time></trkpt><trkpt lat="45.00906544249593" lon="9.562238384709932"><ele>81.0</ele><time>2026-03-31T09:33:23.045Z</time></trkpt><trkpt lat="45.009098395639576" lon="9.562316375638312"><ele>81.0</ele><time>2026-03-31T09:33:24.045Z</time></trkpt><trkpt lat="45.00913500825484" lon="9.562397755896194"><ele>81.0</ele><time>2026-03-31T09:33:25.045Z</time></trkpt><trkpt lat="45.00917152383423" lon="9.562476947168573"><ele>81.0</ele><time>2026-03-31T09:33:26.045Z</time></trkpt><trkpt lat="45.00919833082014" lon="9.562561305606817"><ele>81.0</ele><time>2026-03-31T09:33:27.045Z</time></trkpt><trkpt lat="45.00922679894782" lon="9.562645235352617"><ele>81.0</ele><time>2026-03-31T09:33:28.045Z</time></trkpt><trkpt lat="45.00924852047973" lon="9.562732551038458"><ele>81.0</ele><time>2026-03-31T09:33:29.045Z</time></trkpt><trkpt lat="45.00927126319992" lon="9.562820993717487"><ele>80.66666666666667</ele><time>2026-03-31T09:33:30.045Z</time></trkpt><trkpt lat="45.009288133680855" lon="9.562910911908515"><ele>80.33333333333333</ele><time>2026-03-31T09:33:31.045Z</time></trkpt><trkpt lat="45.00931724848635" lon="9.562999976981683"><ele>80.0</ele><time>2026-03-31T09:33:32.045Z</time></trkpt><trkpt lat="45.009335324155664" lon="9.563093206128535"><ele>79.66666666666666</ele><time>2026-03-31T09:33:33.045Z</time></trkpt><trkpt lat="45.009350886008214" lon="9.56318227169189"><ele>79.33333333333333</ele><time>2026-03-31T09:33:34.045Z</time></trkpt><trkpt lat="45.00939020433857" lon="9.563359019209694"><ele>79.0</ele><time>2026-03-31T09:33:36.045Z</time></trkpt><trkpt lat="45.009406968359414" lon="9.56345221582483"><ele>79.0</ele><time>2026-03-31T09:33:37.045Z</time></trkpt><trkpt lat="45.009438439502475" lon="9.563629281483374"><ele>79.0</ele><time>2026-03-31T09:33:39.045Z</time></trkpt><trkpt lat="45.009450581710574" lon="9.563723236348649"><ele>79.0</ele><time>2026-03-31T09:33:40.045Z</time></trkpt><trkpt lat="45.0094695523524" lon="9.563815620751692"><ele>79.0</ele><time>2026-03-31T09:33:41.045Z</time></trkpt><trkpt lat="45.00948519933976" lon="9.563910241803304"><ele>79.0</ele><time>2026-03-31T09:33:42.045Z</time></trkpt><trkpt lat="45.009500834914725" lon="9.564005147324236"><ele>79.0</ele><time>2026-03-31T09:33:43.045Z</time></trkpt><trkpt lat="45.00951906539933" lon="9.564099235009065"><ele>78.85714285714286</ele><time>2026-03-31T09:33:44.045Z</time></trkpt><trkpt lat="45.009536339797855" lon="9.564191319901303"><ele>78.71428571428572</ele><time>2026-03-31T09:33:45.045Z</time></trkpt><trkpt lat="45.00955280339654" lon="9.56428552514056"><ele>78.57142857142858</ele><time>2026-03-31T09:33:46.045Z</time></trkpt><trkpt lat="45.00956800990524" lon="9.564374000429256"><ele>78.42857142857143</ele><time>2026-03-31T09:33:47.045Z</time></trkpt><trkpt lat="45.00958070430958" lon="9.564463395651751"><ele>78.28571428571428</ele><time>2026-03-31T09:33:48.045Z</time></trkpt><trkpt lat="45.00959669724661" lon="9.564550708826554"><ele>78.14285714285715</ele><time>2026-03-31T09:33:49.045Z</time></trkpt><trkpt lat="45.009614478322185" lon="9.56464038595759"><ele>78.0</ele><time>2026-03-31T09:33:50.045Z</time></trkpt><trkpt lat="45.009630726526765" lon="9.564728666536874"><ele>77.85714285714286</ele><time>2026-03-31T09:33:51.045Z</time></trkpt><trkpt lat="45.00964799700991" lon="9.564814721842223"><ele>77.71428571428571</ele><time>2026-03-31T09:33:52.045Z</time></trkpt><trkpt lat="45.00966140796354" lon="9.564904606469296"><ele>77.57142857142857</ele><time>2026-03-31T09:33:53.045Z</time></trkpt><trkpt lat="45.00967785618788" lon="9.564994267212615"><ele>77.42857142857143</ele><time>2026-03-31T09:33:54.045Z</time></trkpt><trkpt lat="45.009696986114854" lon="9.565084022984358"><ele>77.28571428571428</ele><time>2026-03-31T09:33:55.045Z</time></trkpt><trkpt lat="45.00971262497901" lon="9.565175323573202"><ele>77.14285714285714</ele><time>2026-03-31T09:33:56.045Z</time></trkpt><trkpt lat="45.009730013905326" lon="9.56526686937799"><ele>77.0</ele><time>2026-03-31T09:33:57.045Z</time></trkpt><trkpt lat="45.009744521028054" lon="9.56535884624867"><ele>77.0</ele><time>2026-03-31T09:33:58.045Z</time></trkpt><trkpt lat="45.00976128636053" lon="9.565449379549161"><ele>77.0</ele><time>2026-03-31T09:33:59.045Z</time></trkpt><trkpt lat="45.009779718443184" lon="9.565536994207896"><ele>77.0</ele><time>2026-03-31T09:34:00.045Z</time></trkpt><trkpt lat="45.009793687896604" lon="9.565628806955932"><ele>77.0</ele><time>2026-03-31T09:34:01.045Z</time></trkpt><trkpt lat="45.009828418042204" lon="9.565809111598432"><ele>77.0</ele><time>2026-03-31T09:34:03.045Z</time></trkpt><trkpt lat="45.009862606625646" lon="9.56597884535219"><ele>77.0</ele><time>2026-03-31T09:34:05.045Z</time></trkpt><trkpt lat="45.00989624278471" lon="9.566150669457679"><ele>77.0</ele><time>2026-03-31T09:34:07.045Z</time></trkpt><trkpt lat="45.009930356453275" lon="9.566316678780735"><ele>77.0</ele><time>2026-03-31T09:34:09.045Z</time></trkpt><trkpt lat="45.009963362733494" lon="9.566474563544196"><ele>77.0</ele><time>2026-03-31T09:34:11.046Z</time></trkpt><trkpt lat="45.00999622326441" lon="9.566622468853113"><ele>77.0</ele><time>2026-03-31T09:34:13.046Z</time></trkpt><trkpt lat="45.010025903426396" lon="9.566773179089244"><ele>77.0</ele><time>2026-03-31T09:34:15.046Z</time></trkpt><trkpt lat="45.010063499245106" lon="9.566919771372978"><ele>77.0</ele><time>2026-03-31T09:34:17.046Z</time></trkpt><trkpt lat="45.01009002337168" lon="9.567079736161915"><ele>77.0</ele><time>2026-03-31T09:34:19.046Z</time></trkpt><trkpt lat="45.01012089378774" lon="9.567238200767"><ele>77.0</ele><time>2026-03-31T09:34:21.046Z</time></trkpt><trkpt lat="45.01015223843862" lon="9.567396521431604"><ele>77.0</ele><time>2026-03-31T09:34:23.047Z</time></trkpt><trkpt lat="45.010182781745854" lon="9.567556817622771"><ele>77.0</ele><time>2026-03-31T09:34:25.046Z</time></trkpt><trkpt lat="45.01021911101062" lon="9.567716453610986"><ele>77.0</ele><time>2026-03-31T09:34:27.047Z</time></trkpt><trkpt lat="45.01025324509886" lon="9.567870782366393"><ele>77.2</ele><time>2026-03-31T09:34:29.047Z</time></trkpt><trkpt lat="45.01025358600326" lon="9.568019242809628"><ele>77.4</ele><time>2026-03-31T09:34:31.046Z</time></trkpt><trkpt lat="45.01016062767557" lon="9.568081919356006"><ele>77.6</ele><time>2026-03-31T09:34:33.046Z</time></trkpt><trkpt lat="45.01005648099416" lon="9.568072719426274"><ele>77.8</ele><time>2026-03-31T09:34:35.047Z</time></trkpt><trkpt lat="45.009942613106" lon="9.568068986099044"><ele>78.0</ele><time>2026-03-31T09:34:37.047Z</time></trkpt><trkpt lat="45.00983363044922" lon="9.568077838467875"><ele>78.0</ele><time>2026-03-31T09:34:39.047Z</time></trkpt><trkpt lat="45.009718113710676" lon="9.568083424014945"><ele>78.0</ele><time>2026-03-31T09:34:41.047Z</time></trkpt><trkpt lat="45.009602855063605" lon="9.568090708282382"><ele>78.0</ele><time>2026-03-31T09:34:43.047Z</time></trkpt><trkpt lat="45.009483733867434" lon="9.568098056435574"><ele>78.0</ele><time>2026-03-31T09:34:45.047Z</time></trkpt><trkpt lat="45.009365579427794" lon="9.568104645678327"><ele>78.0</ele><time>2026-03-31T09:34:47.047Z</time></trkpt><trkpt lat="45.00924831403776" lon="9.568109432649498"><ele>78.0</ele><time>2026-03-31T09:34:49.047Z</time></trkpt><trkpt lat="45.00913288034911" lon="9.568115067337281"><ele>78.0</ele><time>2026-03-31T09:34:51.047Z</time></trkpt><trkpt lat="45.00901899234398" lon="9.568125148539192"><ele>78.0</ele><time>2026-03-31T09:34:53.047Z</time></trkpt><trkpt lat="45.0089045136932" lon="9.568127324555444"><ele>78.2</ele><time>2026-03-31T09:34:55.047Z</time></trkpt><trkpt lat="45.00879118514859" lon="9.568130147591711"><ele>78.4</ele><time>2026-03-31T09:34:57.047Z</time></trkpt><trkpt lat="45.00868350415319" lon="9.568134503186755"><ele>78.60000000000001</ele><time>2026-03-31T09:34:59.047Z</time></trkpt><trkpt lat="45.00857484063612" lon="9.568136685329208"><ele>78.8</ele><time>2026-03-31T09:35:01.047Z</time></trkpt><trkpt lat="45.00847720616353" lon="9.568138215975994"><ele>79.0</ele><time>2026-03-31T09:35:03.047Z</time></trkpt><trkpt lat="45.00838900321722" lon="9.568140921830915"><ele>79.33333333333333</ele><time>2026-03-31T09:35:05.047Z</time></trkpt><trkpt lat="45.008310341616976" lon="9.568143495742772"><ele>79.66666666666666</ele><time>2026-03-31T09:35:07.047Z</time></trkpt><trkpt lat="45.008250697085735" lon="9.568220467104481"><ele>80.0</ele><time>2026-03-31T09:35:09.047Z</time></trkpt><trkpt lat="45.00823556869048" lon="9.568317813745098"><ele>80.33333333333333</ele><time>2026-03-31T09:35:11.047Z</time></trkpt><trkpt lat="45.008212616157365" lon="9.56842869199682"><ele>80.66666666666667</ele><time>2026-03-31T09:35:13.047Z</time></trkpt><trkpt lat="45.00820383972921" lon="9.568533156751064"><ele>81.0</ele><time>2026-03-31T09:35:15.047Z</time></trkpt><trkpt lat="45.00821021523989" lon="9.568658276641225"><ele>80.66666666666667</ele><time>2026-03-31T09:35:17.047Z</time></trkpt><trkpt lat="45.00818632947467" lon="9.568779252120772"><ele>80.33333333333333</ele><time>2026-03-31T09:35:19.047Z</time></trkpt><trkpt lat="45.00816810622397" lon="9.568901169891092"><ele>80.0</ele><time>2026-03-31T09:35:21.047Z</time></trkpt><trkpt lat="45.00814948369549" lon="9.569025553543558"><ele>79.66666666666666</ele><time>2026-03-31T09:35:23.047Z</time></trkpt><trkpt lat="45.00814063275057" lon="9.569141784718584"><ele>79.33333333333333</ele><time>2026-03-31T09:35:25.047Z</time></trkpt><trkpt lat="45.00812479490084" lon="9.569258777133237"><ele>79.0</ele><time>2026-03-31T09:35:27.047Z</time></trkpt><trkpt lat="45.008115726129596" lon="9.569361400109505"><ele>79.0</ele><time>2026-03-31T09:35:29.047Z</time></trkpt><trkpt lat="45.00810896958674" lon="9.569463271528695"><ele>79.0</ele><time>2026-03-31T09:35:31.047Z</time></trkpt><trkpt lat="45.008087328908694" lon="9.569570304748233"><ele>79.0</ele><time>2026-03-31T09:35:34.047Z</time></trkpt><trkpt lat="45.00806601754543" lon="9.569695498157582"><ele>79.0</ele><time>2026-03-31T09:35:39.047Z</time></trkpt><trkpt lat="45.00804922888646" lon="9.569796881614295"><ele>79.0</ele><time>2026-03-31T09:35:41.047Z</time></trkpt><trkpt lat="45.00803123236222" lon="9.56991074275928"><ele>79.0</ele><time>2026-03-31T09:35:43.047Z</time></trkpt><trkpt lat="45.00802155205965" lon="9.570025042569178"><ele>79.16666666666666</ele><time>2026-03-31T09:35:45.047Z</time></trkpt><trkpt lat="45.00800690220129" lon="9.57013713794548"><ele>79.33333333333333</ele><time>2026-03-31T09:35:47.047Z</time></trkpt><trkpt lat="45.007987712724834" lon="9.570253035452453"><ele>79.5</ele><time>2026-03-31T09:35:49.047Z</time></trkpt><trkpt lat="45.00797493719452" lon="9.570368398329146"><ele>79.66666666666667</ele><time>2026-03-31T09:35:51.047Z</time></trkpt><trkpt lat="45.007962705148934" lon="9.570491288301174"><ele>79.83333333333334</ele><time>2026-03-31T09:35:53.047Z</time></trkpt><trkpt lat="45.00795324200367" lon="9.570612868618241"><ele>80.0</ele><time>2026-03-31T09:35:55.047Z</time></trkpt><trkpt lat="45.00794334774787" lon="9.570739768534544"><ele>80.0</ele><time>2026-03-31T09:35:57.047Z</time></trkpt><trkpt lat="45.00793367844033" lon="9.570866581209394"><ele>80.0</ele><time>2026-03-31T09:35:59.047Z</time></trkpt><trkpt lat="45.00792862408162" lon="9.571004091317393"><ele>80.0</ele><time>2026-03-31T09:36:01.048Z</time></trkpt><trkpt lat="45.00792468371926" lon="9.571135181501583"><ele>80.0</ele><time>2026-03-31T09:36:03.048Z</time></trkpt><trkpt lat="45.00792452226134" lon="9.571272499963474"><ele>80.0</ele><time>2026-03-31T09:36:05.048Z</time></trkpt><trkpt lat="45.00790971117846" lon="9.571410927280647"><ele>79.83333333333334</ele><time>2026-03-31T09:36:07.048Z</time></trkpt><trkpt lat="45.00789737899832" lon="9.571550339475248"><ele>79.66666666666667</ele><time>2026-03-31T09:36:09.048Z</time></trkpt><trkpt lat="45.00789023723138" lon="9.571674660644925"><ele>79.5</ele><time>2026-03-31T09:36:11.048Z</time></trkpt><trkpt lat="45.007886640977055" lon="9.571795925134598"><ele>79.33333333333333</ele><time>2026-03-31T09:36:13.048Z</time></trkpt><trkpt lat="45.007894812932015" lon="9.571913880603967"><ele>79.16666666666666</ele><time>2026-03-31T09:36:15.048Z</time></trkpt><trkpt lat="45.00795852373267" lon="9.5719850059267"><ele>79.0</ele><time>2026-03-31T09:36:17.048Z</time></trkpt><trkpt lat="45.00804138187051" lon="9.57195876183496"><ele>79.0</ele><time>2026-03-31T09:36:19.048Z</time></trkpt><trkpt lat="45.00812149004191" lon="9.57194285756654"><ele>79.0</ele><time>2026-03-31T09:36:21.048Z</time></trkpt><trkpt lat="45.0082037530276" lon="9.571928986287595"><ele>79.0</ele><time>2026-03-31T09:36:23.048Z</time></trkpt><trkpt lat="45.00829020847416" lon="9.571910252881757"><ele>79.0</ele><time>2026-03-31T09:36:25.048Z</time></trkpt><trkpt lat="45.00837067485319" lon="9.571887671646598"><ele>79.0</ele><time>2026-03-31T09:36:27.048Z</time></trkpt><trkpt lat="45.00845908694832" lon="9.571872390203634"><ele>79.0</ele><time>2026-03-31T09:36:29.047Z</time></trkpt><trkpt lat="45.008547201163196" lon="9.571855351651159"><ele>79.16666666666666</ele><time>2026-03-31T09:36:31.048Z</time></trkpt><trkpt lat="45.00863478471263" lon="9.571836815696013"><ele>79.33333333333333</ele><time>2026-03-31T09:36:33.047Z</time></trkpt><trkpt lat="45.00871352630719" lon="9.571820130523617"><ele>79.5</ele><time>2026-03-31T09:36:35.048Z</time></trkpt><trkpt lat="45.00879104040501" lon="9.571800069604201"><ele>79.66666666666667</ele><time>2026-03-31T09:36:37.048Z</time></trkpt><trkpt lat="45.00886186001012" lon="9.571785127984814"><ele>79.83333333333334</ele><time>2026-03-31T09:36:39.048Z</time></trkpt><trkpt lat="45.00893921300642" lon="9.571779879193429"><ele>80.0</ele><time>2026-03-31T09:36:41.048Z</time></trkpt><trkpt lat="45.009018883072315" lon="9.571766166656241"><ele>80.0</ele><time>2026-03-31T09:36:43.047Z</time></trkpt><trkpt lat="45.0090980324219" lon="9.571757098365909"><ele>80.0</ele><time>2026-03-31T09:36:45.047Z</time></trkpt><trkpt lat="45.00917605583745" lon="9.571737420708732"><ele>80.0</ele><time>2026-03-31T09:36:47.048Z</time></trkpt><trkpt lat="45.00925444148888" lon="9.571721523112723"><ele>80.0</ele><time>2026-03-31T09:36:49.048Z</time></trkpt><trkpt lat="45.009330008891695" lon="9.57172146403388"><ele>80.0</ele><time>2026-03-31T09:36:51.048Z</time></trkpt><trkpt lat="45.00940825499958" lon="9.571703716149598"><ele>80.0</ele><time>2026-03-31T09:36:53.048Z</time></trkpt><trkpt lat="45.0094899826062" lon="9.571682154786494"><ele>80.0</ele><time>2026-03-31T09:36:55.048Z</time></trkpt><trkpt lat="45.00957796082947" lon="9.571670571594154"><ele>80.0</ele><time>2026-03-31T09:36:57.048Z</time></trkpt><trkpt lat="45.00966429442518" lon="9.571666162679925"><ele>80.0</ele><time>2026-03-31T09:36:59.048Z</time></trkpt><trkpt lat="45.0097537684806" lon="9.571645096983113"><ele>80.0</ele><time>2026-03-31T09:37:01.048Z</time></trkpt><trkpt lat="45.00984367487221" lon="9.571620901383737"><ele>80.0</ele><time>2026-03-31T09:37:03.048Z</time></trkpt><trkpt lat="45.009931496120956" lon="9.571608140792579"><ele>80.0</ele><time>2026-03-31T09:37:05.048Z</time></trkpt><trkpt lat="45.01001784462702" lon="9.571593885613156"><ele>80.0</ele><time>2026-03-31T09:37:07.048Z</time></trkpt><trkpt lat="45.010103414716255" lon="9.571575435414136"><ele>80.0</ele><time>2026-03-31T09:37:09.048Z</time></trkpt><trkpt lat="45.01017801755748" lon="9.571558776442517"><ele>80.0</ele><time>2026-03-31T09:37:11.048Z</time></trkpt><trkpt lat="45.01025188657644" lon="9.571538570495612"><ele>80.0</ele><time>2026-03-31T09:37:13.048Z</time></trkpt><trkpt lat="45.01031806234601" lon="9.571532826979482"><ele>80.0</ele><time>2026-03-31T09:37:15.048Z</time></trkpt><trkpt lat="45.01039096159774" lon="9.571520624483771"><ele>80.0</ele><time>2026-03-31T09:37:17.048Z</time></trkpt><trkpt lat="45.010478491200466" lon="9.571516134625158"><ele>80.0</ele><time>2026-03-31T09:37:19.048Z</time></trkpt><trkpt lat="45.01056297062955" lon="9.571505707933978"><ele>80.0</ele><time>2026-03-31T09:37:21.048Z</time></trkpt><trkpt lat="45.01064741407467" lon="9.571501868574428"><ele>80.0</ele><time>2026-03-31T09:37:23.048Z</time></trkpt><trkpt lat="45.010739406232375" lon="9.571482563072383"><ele>80.0</ele><time>2026-03-31T09:37:25.048Z</time></trkpt><trkpt lat="45.01082665268634" lon="9.571467931259775"><ele>80.0</ele><time>2026-03-31T09:37:27.048Z</time></trkpt><trkpt lat="45.01091761261507" lon="9.5714606058218"><ele>80.0</ele><time>2026-03-31T09:37:29.048Z</time></trkpt><trkpt lat="45.01101982391376" lon="9.571454140808893"><ele>79.6</ele><time>2026-03-31T09:37:31.048Z</time></trkpt><trkpt lat="45.01111902474067" lon="9.571442834279143"><ele>79.2</ele><time>2026-03-31T09:37:33.048Z</time></trkpt><trkpt lat="45.01121661801853" lon="9.571428780077323"><ele>78.8</ele><time>2026-03-31T09:37:35.048Z</time></trkpt><trkpt lat="45.011315066265595" lon="9.57141623631679"><ele>78.4</ele><time>2026-03-31T09:37:37.048Z</time></trkpt><trkpt lat="45.01138841705423" lon="9.571404788598011"><ele>78.0</ele><time>2026-03-31T09:37:39.048Z</time></trkpt><trkpt lat="45.01148184611658" lon="9.57138643987545"><ele>78.0</ele><time>2026-03-31T09:37:41.048Z</time></trkpt><trkpt lat="45.01157724532578" lon="9.571374196663152"><ele>78.0</ele><time>2026-03-31T09:37:43.048Z</time></trkpt><trkpt lat="45.01166374743414" lon="9.571367688309193"><ele>78.0</ele><time>2026-03-31T09:37:45.048Z</time></trkpt><trkpt lat="45.01176039250528" lon="9.571357606927451"><ele>78.0</ele><time>2026-03-31T09:37:47.048Z</time></trkpt><trkpt lat="45.01185405361739" lon="9.571355158643863"><ele>78.0</ele><time>2026-03-31T09:37:49.048Z</time></trkpt><trkpt lat="45.01195637444549" lon="9.571356095921862"><ele>78.2</ele><time>2026-03-31T09:37:51.048Z</time></trkpt><trkpt lat="45.01205335479739" lon="9.57135575311302"><ele>78.4</ele><time>2026-03-31T09:37:53.048Z</time></trkpt><trkpt lat="45.012151999209884" lon="9.571366874465152"><ele>78.60000000000001</ele><time>2026-03-31T09:37:55.048Z</time></trkpt><trkpt lat="45.01225033642384" lon="9.571367888041838"><ele>78.8</ele><time>2026-03-31T09:37:57.048Z</time></trkpt><trkpt lat="45.01234650124017" lon="9.571368364868508"><ele>79.0</ele><time>2026-03-31T09:37:59.048Z</time></trkpt><trkpt lat="45.01243928594482" lon="9.571367167569866"><ele>79.0</ele><time>2026-03-31T09:38:01.048Z</time></trkpt><trkpt lat="45.01253252617077" lon="9.571365036082833"><ele>79.0</ele><time>2026-03-31T09:38:03.048Z</time></trkpt><trkpt lat="45.01262241034306" lon="9.571354772119006"><ele>79.0</ele><time>2026-03-31T09:38:05.048Z</time></trkpt><trkpt lat="45.012716867279046" lon="9.57135931602815"><ele>79.0</ele><time>2026-03-31T09:38:07.048Z</time></trkpt><trkpt lat="45.012800950044976" lon="9.571341781131023"><ele>79.0</ele><time>2026-03-31T09:38:09.048Z</time></trkpt><trkpt lat="45.01287646651455" lon="9.571326485327688"><ele>79.0</ele><time>2026-03-31T09:38:11.048Z</time></trkpt><trkpt lat="45.01294527724663" lon="9.571323533208085"><ele>79.0</ele><time>2026-03-31T09:38:13.048Z</time></trkpt><trkpt lat="45.01302767442871" lon="9.571323561345132"><ele>79.0</ele><time>2026-03-31T09:38:15.048Z</time></trkpt><trkpt lat="45.0131107732911" lon="9.571329348054645"><ele>79.0</ele><time>2026-03-31T09:38:17.048Z</time></trkpt><trkpt lat="45.01319436763755" lon="9.571337553571368"><ele>79.0</ele><time>2026-03-31T09:38:19.048Z</time></trkpt><trkpt lat="45.01329135867894" lon="9.571350683420084"><ele>79.0</ele><time>2026-03-31T09:38:21.048Z</time></trkpt><trkpt lat="45.01337581898067" lon="9.571366624101328"><ele>79.0</ele><time>2026-03-31T09:38:23.048Z</time></trkpt><trkpt lat="45.01347340375516" lon="9.571384864094194"><ele>78.60000000000001</ele><time>2026-03-31T09:38:25.048Z</time></trkpt><trkpt lat="45.013560646644024" lon="9.57140338780176"><ele>78.2</ele><time>2026-03-31T09:38:27.048Z</time></trkpt><trkpt lat="45.01364499210741" lon="9.571398662877487"><ele>77.80000000000001</ele><time>2026-03-31T09:38:29.048Z</time></trkpt><trkpt lat="45.01374423713798" lon="9.571414283912578"><ele>77.4</ele><time>2026-03-31T09:38:31.048Z</time></trkpt><trkpt lat="45.013838560894065" lon="9.571425052852971"><ele>77.0</ele><time>2026-03-31T09:38:33.048Z</time></trkpt><trkpt lat="45.01392735195319" lon="9.571429403970635"><ele>77.0</ele><time>2026-03-31T09:38:35.05Z</time></trkpt><trkpt lat="45.014013515528504" lon="9.571438073349766"><ele>77.0</ele><time>2026-03-31T09:38:37.049Z</time></trkpt><trkpt lat="45.014104240264516" lon="9.571448512634653"><ele>77.0</ele><time>2026-03-31T09:38:39.05Z</time></trkpt><trkpt lat="45.0142029846032" lon="9.571437557738184"><ele>77.0</ele><time>2026-03-31T09:38:41.049Z</time></trkpt><trkpt lat="45.01429854991597" lon="9.571436739772487"><ele>77.0</ele><time>2026-03-31T09:38:43.049Z</time></trkpt><trkpt lat="45.01439464216814" lon="9.571428012290651"><ele>77.0</ele><time>2026-03-31T09:38:45.049Z</time></trkpt><trkpt lat="45.01448666664721" lon="9.571411062620477"><ele>77.0</ele><time>2026-03-31T09:38:47.05Z</time></trkpt><trkpt lat="45.01458660989908" lon="9.57140830534959"><ele>77.0</ele><time>2026-03-31T09:38:49.049Z</time></trkpt><trkpt lat="45.01467988641909" lon="9.571391867777812"><ele>77.0</ele><time>2026-03-31T09:38:51.049Z</time></trkpt><trkpt lat="45.01478271196467" lon="9.571390096596568"><ele>77.0</ele><time>2026-03-31T09:38:53.049Z</time></trkpt><trkpt lat="45.01487854218096" lon="9.57136990552649"><ele>77.0</ele><time>2026-03-31T09:38:55.049Z</time></trkpt><trkpt lat="45.0149837334388" lon="9.57135615734855"><ele>77.0</ele><time>2026-03-31T09:38:57.049Z</time></trkpt><trkpt lat="45.015075487004246" lon="9.571338155397573"><ele>77.0</ele><time>2026-03-31T09:38:59.049Z</time></trkpt><trkpt lat="45.01516738480079" lon="9.571321519226602"><ele>77.0</ele><time>2026-03-31T09:39:01.049Z</time></trkpt><trkpt lat="45.01526524260577" lon="9.571298955883087"><ele>77.0</ele><time>2026-03-31T09:39:03.049Z</time></trkpt><trkpt lat="45.015365734488725" lon="9.571292468974393"><ele>77.0</ele><time>2026-03-31T09:39:05.049Z</time></trkpt><trkpt lat="45.01546448591803" lon="9.571296893417546"><ele>77.0</ele><time>2026-03-31T09:39:07.049Z</time></trkpt><trkpt lat="45.01555029152478" lon="9.571288280889167"><ele>77.0</ele><time>2026-03-31T09:39:09.049Z</time></trkpt><trkpt lat="45.01564624351289" lon="9.571282757916126"><ele>77.0</ele><time>2026-03-31T09:39:11.049Z</time></trkpt><trkpt lat="45.01574037725361" lon="9.571276785811882"><ele>77.0</ele><time>2026-03-31T09:39:13.049Z</time></trkpt><trkpt lat="45.015850548670514" lon="9.571260274720316"><ele>77.0</ele><time>2026-03-31T09:39:15.049Z</time></trkpt><trkpt lat="45.0159564686415" lon="9.5712527368755"><ele>77.0</ele><time>2026-03-31T09:39:17.049Z</time></trkpt><trkpt lat="45.0160510443879" lon="9.571246058299206"><ele>77.0</ele><time>2026-03-31T09:39:19.049Z</time></trkpt><trkpt lat="45.01613215095366" lon="9.571249498066758"><ele>77.0</ele><time>2026-03-31T09:39:21.049Z</time></trkpt><trkpt lat="45.0162249010236" lon="9.571240894120049"><ele>77.0</ele><time>2026-03-31T09:39:23.049Z</time></trkpt><trkpt lat="45.016318045295904" lon="9.57121817015751"><ele>77.0</ele><time>2026-03-31T09:39:25.049Z</time></trkpt><trkpt lat="45.01641281260079" lon="9.571218004397224"><ele>77.0</ele><time>2026-03-31T09:39:27.049Z</time></trkpt><trkpt lat="45.01650502868213" lon="9.57120151564684"><ele>77.0</ele><time>2026-03-31T09:39:29.049Z</time></trkpt><trkpt lat="45.01661091850739" lon="9.571183519598474"><ele>77.0</ele><time>2026-03-31T09:39:31.049Z</time></trkpt><trkpt lat="45.01670119929966" lon="9.571174188195949"><ele>77.0</ele><time>2026-03-31T09:39:33.049Z</time></trkpt><trkpt lat="45.01678000482919" lon="9.571160068525494"><ele>77.0</ele><time>2026-03-31T09:39:35.049Z</time></trkpt><trkpt lat="45.01687461959213" lon="9.571158285573006"><ele>77.0</ele><time>2026-03-31T09:39:37.049Z</time></trkpt><trkpt lat="45.01695252670914" lon="9.57113539749897"><ele>77.0</ele><time>2026-03-31T09:39:39.049Z</time></trkpt><trkpt lat="45.017012809995244" lon="9.571229779413235"><ele>77.0</ele><time>2026-03-31T09:39:42.049Z</time></trkpt><trkpt lat="45.017024467932565" lon="9.57138167889298"><ele>77.0</ele><time>2026-03-31T09:39:44.049Z</time></trkpt><trkpt lat="45.01708007615742" lon="9.571508992579673"><ele>77.0</ele><time>2026-03-31T09:39:46.049Z</time></trkpt><trkpt lat="45.017120769970674" lon="9.571644301361586"><ele>77.0</ele><time>2026-03-31T09:39:48.049Z</time></trkpt><trkpt lat="45.017160357157614" lon="9.571779393825025"><ele>77.0</ele><time>2026-03-31T09:39:50.049Z</time></trkpt><trkpt lat="45.017205707862125" lon="9.571891638919897"><ele>77.0</ele><time>2026-03-31T09:39:52.049Z</time></trkpt><trkpt lat="45.01726261671117" lon="9.57201211458888"><ele>77.0</ele><time>2026-03-31T09:39:54.049Z</time></trkpt><trkpt lat="45.0173165843752" lon="9.572134027194553"><ele>76.8</ele><time>2026-03-31T09:39:56.049Z</time></trkpt><trkpt lat="45.01737306849101" lon="9.572250719087549"><ele>76.6</ele><time>2026-03-31T09:39:58.049Z</time></trkpt><trkpt lat="45.01743964167432" lon="9.572355627410262"><ele>76.39999999999999</ele><time>2026-03-31T09:40:00.049Z</time></trkpt><trkpt lat="45.01750501372127" lon="9.572450021622432"><ele>76.2</ele><time>2026-03-31T09:40:02.049Z</time></trkpt><trkpt lat="45.017576120247064" lon="9.572550766122207"><ele>76.0</ele><time>2026-03-31T09:40:04.049Z</time></trkpt><trkpt lat="45.01764114904862" lon="9.572651443528963"><ele>76.0</ele><time>2026-03-31T09:40:06.049Z</time></trkpt><trkpt lat="45.01771126509352" lon="9.572759975149603"><ele>76.0</ele><time>2026-03-31T09:40:08.049Z</time></trkpt><trkpt lat="45.01778921754661" lon="9.572862237108042"><ele>76.0</ele><time>2026-03-31T09:40:10.05Z</time></trkpt><trkpt lat="45.01786563186368" lon="9.572966689093574"><ele>76.0</ele><time>2026-03-31T09:40:12.05Z</time></trkpt><trkpt lat="45.017937924856525" lon="9.573074008467767"><ele>76.0</ele><time>2026-03-31T09:40:14.05Z</time></trkpt><trkpt lat="45.01801687402877" lon="9.573188697693022"><ele>76.0</ele><time>2026-03-31T09:40:16.05Z</time></trkpt><trkpt lat="45.01809594769665" lon="9.573288711905066"><ele>76.0</ele><time>2026-03-31T09:40:18.05Z</time></trkpt><trkpt lat="45.01817649583031" lon="9.573393818095944"><ele>76.0</ele><time>2026-03-31T09:40:20.05Z</time></trkpt><trkpt lat="45.018250421340696" lon="9.573502919537443"><ele>76.0</ele><time>2026-03-31T09:40:22.05Z</time></trkpt><trkpt lat="45.0183290130759" lon="9.573614269979648"><ele>76.0</ele><time>2026-03-31T09:40:24.05Z</time></trkpt><trkpt lat="45.01840910735646" lon="9.573719630957607"><ele>75.6</ele><time>2026-03-31T09:40:26.05Z</time></trkpt><trkpt lat="45.01848528578496" lon="9.573831242774538"><ele>75.19999999999999</ele><time>2026-03-31T09:40:28.05Z</time></trkpt><trkpt lat="45.01855879346815" lon="9.573954536042834"><ele>74.80000000000001</ele><time>2026-03-31T09:40:30.05Z</time></trkpt><trkpt lat="45.01862831350504" lon="9.574078035973223"><ele>74.4</ele><time>2026-03-31T09:40:32.05Z</time></trkpt><trkpt lat="45.018685900507336" lon="9.574204540160583"><ele>74.0</ele><time>2026-03-31T09:40:34.05Z</time></trkpt><trkpt lat="45.0187369868441" lon="9.574333043291713"><ele>74.0</ele><time>2026-03-31T09:40:36.05Z</time></trkpt><trkpt lat="45.01879055745723" lon="9.574454848612104"><ele>74.0</ele><time>2026-03-31T09:40:38.05Z</time></trkpt><trkpt lat="45.01884494948055" lon="9.574578416065883"><ele>74.0</ele><time>2026-03-31T09:40:40.05Z</time></trkpt><trkpt lat="45.01889606098185" lon="9.574707729646589"><ele>74.0</ele><time>2026-03-31T09:40:42.051Z</time></trkpt><trkpt lat="45.01895119883119" lon="9.574832897925992"><ele>74.0</ele><time>2026-03-31T09:40:44.051Z</time></trkpt><trkpt lat="45.01900648480701" lon="9.574954200533709"><ele>74.0</ele><time>2026-03-31T09:40:46.05Z</time></trkpt><trkpt lat="45.019057924860284" lon="9.57507882560383"><ele>74.0</ele><time>2026-03-31T09:40:48.05Z</time></trkpt><trkpt lat="45.01910858284865" lon="9.575195480006407"><ele>74.0</ele><time>2026-03-31T09:40:50.051Z</time></trkpt><trkpt lat="45.01916356577596" lon="9.575314339938176"><ele>74.0</ele><time>2026-03-31T09:40:52.051Z</time></trkpt><trkpt lat="45.01921588137902" lon="9.575433249759376"><ele>74.0</ele><time>2026-03-31T09:40:54.051Z</time></trkpt><trkpt lat="45.01926873531006" lon="9.575553869900245"><ele>74.0</ele><time>2026-03-31T09:40:56.051Z</time></trkpt><trkpt lat="45.01932400450279" lon="9.575675594148176"><ele>74.0</ele><time>2026-03-31T09:40:58.051Z</time></trkpt><trkpt lat="45.01937446341305" lon="9.57579801962558"><ele>74.0</ele><time>2026-03-31T09:41:00.051Z</time></trkpt><trkpt lat="45.0194276195752" lon="9.575910752264091"><ele>74.0</ele><time>2026-03-31T09:41:02.051Z</time></trkpt><trkpt lat="45.01946841278774" lon="9.576029820320594"><ele>74.0</ele><time>2026-03-31T09:41:04.051Z</time></trkpt><trkpt lat="45.01951225309996" lon="9.576151672733817"><ele>74.2</ele><time>2026-03-31T09:41:06.051Z</time></trkpt><trkpt lat="45.0195598458314" lon="9.576268657863764"><ele>74.4</ele><time>2026-03-31T09:41:08.051Z</time></trkpt><trkpt lat="45.0195984204111" lon="9.576396849072328"><ele>74.6</ele><time>2026-03-31T09:41:10.051Z</time></trkpt><trkpt lat="45.0196376758009" lon="9.576521608612696"><ele>74.8</ele><time>2026-03-31T09:41:12.051Z</time></trkpt><trkpt lat="45.019678326777814" lon="9.576648586732054"><ele>75.0</ele><time>2026-03-31T09:41:14.051Z</time></trkpt><trkpt lat="45.01971968677275" lon="9.576776403354222"><ele>75.0</ele><time>2026-03-31T09:41:16.051Z</time></trkpt><trkpt lat="45.01975927283605" lon="9.576902670721667"><ele>75.0</ele><time>2026-03-31T09:41:18.051Z</time></trkpt><trkpt lat="45.01979864935054" lon="9.57703772527593"><ele>75.0</ele><time>2026-03-31T09:41:20.051Z</time></trkpt><trkpt lat="45.01984210404926" lon="9.577165369027432"><ele>75.0</ele><time>2026-03-31T09:41:22.051Z</time></trkpt><trkpt lat="45.01987983483094" lon="9.577295585929654"><ele>75.0</ele><time>2026-03-31T09:41:24.051Z</time></trkpt><trkpt lat="45.01992170845679" lon="9.577425140558388"><ele>75.0</ele><time>2026-03-31T09:41:26.051Z</time></trkpt><trkpt lat="45.01995570134377" lon="9.577555056368556"><ele>75.0</ele><time>2026-03-31T09:41:28.051Z</time></trkpt><trkpt lat="45.01998094605526" lon="9.577685326824833"><ele>75.0</ele><time>2026-03-31T09:41:30.051Z</time></trkpt><trkpt lat="45.02001888025323" lon="9.577815584408192"><ele>75.0</ele><time>2026-03-31T09:41:32.051Z</time></trkpt><trkpt lat="45.020067597165266" lon="9.577943387118898"><ele>75.0</ele><time>2026-03-31T09:41:34.051Z</time></trkpt><trkpt lat="45.02011408979677" lon="9.578075399920882"><ele>75.0</ele><time>2026-03-31T09:41:36.051Z</time></trkpt><trkpt lat="45.02016334509656" lon="9.578205674987078"><ele>75.0</ele><time>2026-03-31T09:41:38.051Z</time></trkpt><trkpt lat="45.0202215985848" lon="9.578341236726777"><ele>75.0</ele><time>2026-03-31T09:41:40.051Z</time></trkpt><trkpt lat="45.02027996536925" lon="9.578478480072597"><ele>75.0</ele><time>2026-03-31T09:41:42.051Z</time></trkpt><trkpt lat="45.02033843114613" lon="9.578614570894953"><ele>75.0</ele><time>2026-03-31T09:41:44.051Z</time></trkpt><trkpt lat="45.020396842745" lon="9.578747814612015"><ele>75.0</ele><time>2026-03-31T09:41:46.051Z</time></trkpt><trkpt lat="45.02046165863949" lon="9.578881021055738"><ele>75.0</ele><time>2026-03-31T09:41:48.051Z</time></trkpt><trkpt lat="45.020514634123494" lon="9.57901553257257"><ele>75.0</ele><time>2026-03-31T09:41:50.051Z</time></trkpt><trkpt lat="45.02057705820915" lon="9.579137200263164"><ele>75.0</ele><time>2026-03-31T09:41:52.051Z</time></trkpt><trkpt lat="45.02062789933135" lon="9.57927279434117"><ele>75.0</ele><time>2026-03-31T09:41:54.051Z</time></trkpt><trkpt lat="45.020674460585916" lon="9.57941292328608"><ele>75.0</ele><time>2026-03-31T09:41:56.051Z</time></trkpt><trkpt lat="45.02073407762761" lon="9.579545504302514"><ele>75.0</ele><time>2026-03-31T09:41:58.051Z</time></trkpt><trkpt lat="45.020781072799636" lon="9.579679207769496"><ele>75.0</ele><time>2026-03-31T09:42:00.051Z</time></trkpt><trkpt lat="45.02081976175262" lon="9.579804513681937"><ele>75.0</ele><time>2026-03-31T09:42:02.051Z</time></trkpt><trkpt lat="45.0208698974205" lon="9.579939497153221"><ele>75.0</ele><time>2026-03-31T09:42:04.051Z</time></trkpt><trkpt lat="45.02091781610644" lon="9.580074405907604"><ele>75.2</ele><time>2026-03-31T09:42:06.051Z</time></trkpt><trkpt lat="45.0209632443861" lon="9.580213506329263"><ele>75.4</ele><time>2026-03-31T09:42:08.051Z</time></trkpt><trkpt lat="45.021012935977595" lon="9.580358491696762"><ele>75.6</ele><time>2026-03-31T09:42:10.051Z</time></trkpt><trkpt lat="45.02105403832166" lon="9.580490885761895"><ele>75.8</ele><time>2026-03-31T09:42:12.051Z</time></trkpt><trkpt lat="45.02109995828569" lon="9.580624286805172"><ele>76.0</ele><time>2026-03-31T09:42:14.051Z</time></trkpt><trkpt lat="45.02115084844159" lon="9.580753387523833"><ele>75.6</ele><time>2026-03-31T09:42:16.051Z</time></trkpt><trkpt lat="45.02119486331462" lon="9.58087064468265"><ele>75.19999999999999</ele><time>2026-03-31T09:42:18.051Z</time></trkpt><trkpt lat="45.0212376063663" lon="9.580974550398397"><ele>74.80000000000001</ele><time>2026-03-31T09:42:20.051Z</time></trkpt><trkpt lat="45.02128754848966" lon="9.58108666805623"><ele>74.4</ele><time>2026-03-31T09:42:22.051Z</time></trkpt><trkpt lat="45.021338885404475" lon="9.581214447862198"><ele>74.0</ele><time>2026-03-31T09:42:24.051Z</time></trkpt><trkpt lat="45.02140413792726" lon="9.581329647013895"><ele>74.0</ele><time>2026-03-31T09:42:26.051Z</time></trkpt><trkpt lat="45.02146426861405" lon="9.581447964091739"><ele>74.0</ele><time>2026-03-31T09:42:28.051Z</time></trkpt><trkpt lat="45.02153152829958" lon="9.581571851088324"><ele>74.0</ele><time>2026-03-31T09:42:30.051Z</time></trkpt><trkpt lat="45.0215902572122" lon="9.581686753952383"><ele>74.0</ele><time>2026-03-31T09:42:32.051Z</time></trkpt><trkpt lat="45.02165846081652" lon="9.581789400422766"><ele>74.0</ele><time>2026-03-31T09:42:34.051Z</time></trkpt><trkpt lat="45.02172758991521" lon="9.581908563434567"><ele>74.0</ele><time>2026-03-31T09:42:36.052Z</time></trkpt><trkpt lat="45.02179200130065" lon="9.582021246917012"><ele>74.0</ele><time>2026-03-31T09:42:38.052Z</time></trkpt><trkpt lat="45.02186495193342" lon="9.582136670054727"><ele>74.0</ele><time>2026-03-31T09:42:40.052Z</time></trkpt><trkpt lat="45.021937359669444" lon="9.582254960579794"><ele>74.0</ele><time>2026-03-31T09:42:42.052Z</time></trkpt><trkpt lat="45.02200576008052" lon="9.582384298068465"><ele>74.0</ele><time>2026-03-31T09:42:44.052Z</time></trkpt><trkpt lat="45.02207399911813" lon="9.58250883624151"><ele>74.0</ele><time>2026-03-31T09:42:46.052Z</time></trkpt><trkpt lat="45.02214542423438" lon="9.58263213910494"><ele>74.0</ele><time>2026-03-31T09:42:48.052Z</time></trkpt><trkpt lat="45.022206554024926" lon="9.582772873833903"><ele>74.0</ele><time>2026-03-31T09:42:50.052Z</time></trkpt><trkpt lat="45.02226872210652" lon="9.582903526821145"><ele>74.0</ele><time>2026-03-31T09:42:52.052Z</time></trkpt><trkpt lat="45.02233003659302" lon="9.583036169563814"><ele>73.60000000000001</ele><time>2026-03-31T09:42:54.052Z</time></trkpt><trkpt lat="45.022382487119444" lon="9.583167022273376"><ele>73.2</ele><time>2026-03-31T09:42:56.053Z</time></trkpt><trkpt lat="45.02244038718366" lon="9.583296433247398"><ele>72.80000000000001</ele><time>2026-03-31T09:42:58.052Z</time></trkpt><trkpt lat="45.02249060228489" lon="9.583422288866096"><ele>72.4</ele><time>2026-03-31T09:43:00.052Z</time></trkpt><trkpt lat="45.0225406694652" lon="9.583547590649541"><ele>72.0</ele><time>2026-03-31T09:43:02.052Z</time></trkpt><trkpt lat="45.022597461508674" lon="9.583673220276399"><ele>71.8</ele><time>2026-03-31T09:43:04.052Z</time></trkpt><trkpt lat="45.022645632396674" lon="9.583808395378506"><ele>71.6</ele><time>2026-03-31T09:43:06.052Z</time></trkpt><trkpt lat="45.02269171197746" lon="9.583943091269115"><ele>71.39999999999999</ele><time>2026-03-31T09:43:08.052Z</time></trkpt><trkpt lat="45.0227439639591" lon="9.584075688762342"><ele>71.2</ele><time>2026-03-31T09:43:10.052Z</time></trkpt><trkpt lat="45.02279812985849" lon="9.584209042882799"><ele>71.0</ele><time>2026-03-31T09:43:12.052Z</time></trkpt><trkpt lat="45.02284796755419" lon="9.584346457082972"><ele>71.0</ele><time>2026-03-31T09:43:14.052Z</time></trkpt><trkpt lat="45.022907121194976" lon="9.584475245564251"><ele>71.0</ele><time>2026-03-31T09:43:16.052Z</time></trkpt><trkpt lat="45.0229584205544" lon="9.58460784492637"><ele>71.0</ele><time>2026-03-31T09:43:18.052Z</time></trkpt><trkpt lat="45.023034387152336" lon="9.584698805416425"><ele>71.0</ele><time>2026-03-31T09:43:20.052Z</time></trkpt><trkpt lat="45.023140085559625" lon="9.584683035191096"><ele>71.0</ele><time>2026-03-31T09:43:22.052Z</time></trkpt><trkpt lat="45.0232494504609" lon="9.584642472678045"><ele>71.2</ele><time>2026-03-31T09:43:24.05Z</time></trkpt><trkpt lat="45.02335486444674" lon="9.584617078620855"><ele>71.39999999999999</ele><time>2026-03-31T09:43:26.046Z</time></trkpt><trkpt lat="45.0234643111473" lon="9.584591397014188"><ele>71.6</ele><time>2026-03-31T09:43:28.041Z</time></trkpt><trkpt lat="45.023575441307166" lon="9.584562064352442"><ele>71.8</ele><time>2026-03-31T09:43:30.038Z</time></trkpt><trkpt lat="45.02368559627858" lon="9.584532056916755"><ele>72.0</ele><time>2026-03-31T09:43:32.034Z</time></trkpt><trkpt lat="45.02379399464125" lon="9.584499942134322"><ele>71.8</ele><time>2026-03-31T09:43:34.031Z</time></trkpt><trkpt lat="45.02390208119131" lon="9.58446548632421"><ele>71.6</ele><time>2026-03-31T09:43:36.029Z</time></trkpt><trkpt lat="45.02401063078195" lon="9.584444692286555"><ele>71.39999999999999</ele><time>2026-03-31T09:43:38.027Z</time></trkpt><trkpt lat="45.024118889452346" lon="9.584421566616864"><ele>71.2</ele><time>2026-03-31T09:43:40.025Z</time></trkpt><trkpt lat="45.02422602205071" lon="9.584388377818822"><ele>71.0</ele><time>2026-03-31T09:43:42.023Z</time></trkpt><trkpt lat="45.02433072937591" lon="9.584362689953785"><ele>71.0</ele><time>2026-03-31T09:43:44.021Z</time></trkpt><trkpt lat="45.02443448035493" lon="9.5843377174396"><ele>71.0</ele><time>2026-03-31T09:43:46.02Z</time></trkpt><trkpt lat="45.02453805389643" lon="9.584311034106697"><ele>71.0</ele><time>2026-03-31T09:43:48.019Z</time></trkpt><trkpt lat="45.02464490345252" lon="9.584285747363838"><ele>71.0</ele><time>2026-03-31T09:43:50.018Z</time></trkpt><trkpt lat="45.024748907716074" lon="9.584253349101564"><ele>71.0</ele><time>2026-03-31T09:43:52.017Z</time></trkpt><trkpt lat="45.02485321015399" lon="9.584227569990102"><ele>71.0</ele><time>2026-03-31T09:43:54.016Z</time></trkpt><trkpt lat="45.024958634949904" lon="9.584199332845925"><ele>71.0</ele><time>2026-03-31T09:43:56.016Z</time></trkpt><trkpt lat="45.0250625935139" lon="9.58416972447173"><ele>71.0</ele><time>2026-03-31T09:43:58.015Z</time></trkpt><trkpt lat="45.025164982151345" lon="9.584142485251437"><ele>71.0</ele><time>2026-03-31T09:44:00.014Z</time></trkpt><trkpt lat="45.02526493760407" lon="9.584106245427918"><ele>71.0</ele><time>2026-03-31T09:44:02.014Z</time></trkpt><trkpt lat="45.02536796524761" lon="9.584069805521725"><ele>71.0</ele><time>2026-03-31T09:44:04.013Z</time></trkpt><trkpt lat="45.02547257658619" lon="9.584025156979695"><ele>71.0</ele><time>2026-03-31T09:44:06.013Z</time></trkpt><trkpt lat="45.0255703301951" lon="9.583967618954684"><ele>71.0</ele><time>2026-03-31T09:44:08.013Z</time></trkpt><trkpt lat="45.02566900208358" lon="9.583911452935338"><ele>71.0</ele><time>2026-03-31T09:44:10.012Z</time></trkpt><trkpt lat="45.02576822793756" lon="9.583855067638735"><ele>71.0</ele><time>2026-03-31T09:44:12.012Z</time></trkpt><trkpt lat="45.02586549103201" lon="9.583798899351546"><ele>70.8</ele><time>2026-03-31T09:44:14.012Z</time></trkpt><trkpt lat="45.02596097410547" lon="9.583742418838305"><ele>70.6</ele><time>2026-03-31T09:44:16.012Z</time></trkpt><trkpt lat="45.02606125496172" lon="9.583685602665307"><ele>70.4</ele><time>2026-03-31T09:44:18.012Z</time></trkpt><trkpt lat="45.026163229050155" lon="9.583630701849888"><ele>70.2</ele><time>2026-03-31T09:44:20.011Z</time></trkpt><trkpt lat="45.02626576939878" lon="9.583575224115364"><ele>70.0</ele><time>2026-03-31T09:44:22.011Z</time></trkpt><trkpt lat="45.02636078813315" lon="9.583621684771378"><ele>70.0</ele><time>2026-03-31T09:44:24.011Z</time></trkpt><trkpt lat="45.02638863979782" lon="9.58370301876229"><ele>70.0</ele><time>2026-03-31T09:44:25.011Z</time></trkpt><trkpt lat="45.026397728912464" lon="9.583857053354532"><ele>70.0</ele><time>2026-03-31T09:44:27.011Z</time></trkpt><trkpt lat="45.02641430971054" lon="9.584007365354488"><ele>70.0</ele><time>2026-03-31T09:44:29.011Z</time></trkpt><trkpt lat="45.02643788168651" lon="9.584162618449273"><ele>70.0</ele><time>2026-03-31T09:44:31.011Z</time></trkpt><trkpt lat="45.026455153529504" lon="9.58431123038133"><ele>70.0</ele><time>2026-03-31T09:44:33.011Z</time></trkpt><trkpt lat="45.02648726829367" lon="9.584461646595477"><ele>70.0</ele><time>2026-03-31T09:44:35.011Z</time></trkpt><trkpt lat="45.026501520701565" lon="9.5846094150837"><ele>70.0</ele><time>2026-03-31T09:44:37.011Z</time></trkpt><trkpt lat="45.02652442488307" lon="9.584760014185091"><ele>70.0</ele><time>2026-03-31T09:44:39.011Z</time></trkpt><trkpt lat="45.02654806635842" lon="9.584904586426298"><ele>70.0</ele><time>2026-03-31T09:44:41.011Z</time></trkpt><trkpt lat="45.026569676512544" lon="9.58504984624628"><ele>70.0</ele><time>2026-03-31T09:44:43.011Z</time></trkpt><trkpt lat="45.026605355717486" lon="9.58518676342745"><ele>70.0</ele><time>2026-03-31T09:44:45.011Z</time></trkpt><trkpt lat="45.02667429645995" lon="9.58528659489912"><ele>70.0</ele><time>2026-03-31T09:44:47.011Z</time></trkpt><trkpt lat="45.026763253447896" lon="9.585368952724737"><ele>70.0</ele><time>2026-03-31T09:44:49.01Z</time></trkpt><trkpt lat="45.02686301417891" lon="9.585426723128062"><ele>70.0</ele><time>2026-03-31T09:44:51.01Z</time></trkpt><trkpt lat="45.026974744521404" lon="9.585443681689268"><ele>70.0</ele><time>2026-03-31T09:44:53.011Z</time></trkpt><trkpt lat="45.0270864234952" lon="9.585418859805406"><ele>70.0</ele><time>2026-03-31T09:44:55.011Z</time></trkpt><trkpt lat="45.027196111068825" lon="9.58540379835866"><ele>70.0</ele><time>2026-03-31T09:44:57.011Z</time></trkpt><trkpt lat="45.02730568779625" lon="9.58538714779553"><ele>70.0</ele><time>2026-03-31T09:44:59.011Z</time></trkpt><trkpt lat="45.02741340070535" lon="9.585365423156432"><ele>70.0</ele><time>2026-03-31T09:45:01.01Z</time></trkpt><trkpt lat="45.02752213715609" lon="9.58534843782392"><ele>70.2</ele><time>2026-03-31T09:45:03.011Z</time></trkpt><trkpt lat="45.02762869277307" lon="9.58533092207487"><ele>70.4</ele><time>2026-03-31T09:45:05.011Z</time></trkpt><trkpt lat="45.02774058380677" lon="9.585313881823353"><ele>70.6</ele><time>2026-03-31T09:45:07.011Z</time></trkpt><trkpt lat="45.02784972840672" lon="9.58529643071187"><ele>70.8</ele><time>2026-03-31T09:45:09.011Z</time></trkpt><trkpt lat="45.027949195513415" lon="9.585274081647725"><ele>71.0</ele><time>2026-03-31T09:45:11.011Z</time></trkpt><trkpt lat="45.028038464474015" lon="9.585243551305464"><ele>71.0</ele><time>2026-03-31T09:45:13.011Z</time></trkpt><trkpt lat="45.028071292525375" lon="9.585105317455216"><ele>71.0</ele><time>2026-03-31T09:45:15.011Z</time></trkpt><trkpt lat="45.0280670102297" lon="9.58497860661769"><ele>71.0</ele><time>2026-03-31T09:45:17.011Z</time></trkpt><trkpt lat="45.02804755784248" lon="9.584838563008132"><ele>71.0</ele><time>2026-03-31T09:45:19.011Z</time></trkpt><trkpt lat="45.02803584112526" lon="9.584687140547452"><ele>71.0</ele><time>2026-03-31T09:45:21.011Z</time></trkpt><trkpt lat="45.028028413657715" lon="9.584545130379663"><ele>70.6</ele><time>2026-03-31T09:45:23.011Z</time></trkpt><trkpt lat="45.02801428643603" lon="9.58440538210495"><ele>70.19999999999999</ele><time>2026-03-31T09:45:25.011Z</time></trkpt><trkpt lat="45.02800562167091" lon="9.584268460610996"><ele>69.80000000000001</ele><time>2026-03-31T09:45:27.011Z</time></trkpt><trkpt lat="45.027991429602245" lon="9.584131385853606"><ele>69.4</ele><time>2026-03-31T09:45:29.011Z</time></trkpt><trkpt lat="45.027982942707766" lon="9.583993491609581"><ele>69.0</ele><time>2026-03-31T09:45:31.011Z</time></trkpt><trkpt lat="45.02796927194672" lon="9.58385193575077"><ele>69.0</ele><time>2026-03-31T09:45:33.011Z</time></trkpt><trkpt lat="45.02796011437268" lon="9.583711892212223"><ele>69.0</ele><time>2026-03-31T09:45:35.011Z</time></trkpt><trkpt lat="45.02794969027624" lon="9.583570597298811"><ele>69.0</ele><time>2026-03-31T09:45:37.011Z</time></trkpt><trkpt lat="45.0279400568966" lon="9.583441225306018"><ele>69.0</ele><time>2026-03-31T09:45:39.011Z</time></trkpt><trkpt lat="45.0279286952008" lon="9.583298538363602"><ele>69.0</ele><time>2026-03-31T09:45:41.011Z</time></trkpt><trkpt lat="45.02792130405771" lon="9.583157533665744"><ele>69.0</ele><time>2026-03-31T09:45:43.011Z</time></trkpt><trkpt lat="45.02790994150728" lon="9.583019075801653"><ele>69.0</ele><time>2026-03-31T09:45:45.011Z</time></trkpt><trkpt lat="45.027898348105616" lon="9.582879674257736"><ele>69.0</ele><time>2026-03-31T09:45:47.01Z</time></trkpt><trkpt lat="45.02788556803506" lon="9.58273900525935"><ele>69.0</ele><time>2026-03-31T09:45:49.01Z</time></trkpt><trkpt lat="45.027875201199194" lon="9.582599551654594"><ele>69.0</ele><time>2026-03-31T09:45:51.01Z</time></trkpt><trkpt lat="45.02786071184708" lon="9.582454905187113"><ele>69.0</ele><time>2026-03-31T09:45:53.01Z</time></trkpt><trkpt lat="45.027848995780076" lon="9.582317839219998"><ele>69.0</ele><time>2026-03-31T09:45:55.01Z</time></trkpt><trkpt lat="45.02783807379331" lon="9.582173938954867"><ele>69.0</ele><time>2026-03-31T09:45:57.01Z</time></trkpt><trkpt lat="45.02782770073071" lon="9.582034611096606"><ele>69.0</ele><time>2026-03-31T09:45:59.01Z</time></trkpt><trkpt lat="45.02781252823885" lon="9.581900483080974"><ele>69.0</ele><time>2026-03-31T09:46:01.01Z</time></trkpt><trkpt lat="45.02780340911652" lon="9.581760164184862"><ele>69.0</ele><time>2026-03-31T09:46:03.01Z</time></trkpt><trkpt lat="45.027793431453325" lon="9.58161713195928"><ele>69.0</ele><time>2026-03-31T09:46:05.01Z</time></trkpt><trkpt lat="45.02778067323154" lon="9.581481196414725"><ele>69.0</ele><time>2026-03-31T09:46:07.01Z</time></trkpt><trkpt lat="45.02776713198924" lon="9.581348024347601"><ele>69.0</ele><time>2026-03-31T09:46:09.01Z</time></trkpt><trkpt lat="45.027757932650516" lon="9.581213413187424"><ele>69.0</ele><time>2026-03-31T09:46:11.01Z</time></trkpt><trkpt lat="45.027754006960926" lon="9.581080596299067"><ele>69.0</ele><time>2026-03-31T09:46:13.01Z</time></trkpt><trkpt lat="45.02774198373904" lon="9.580944147045983"><ele>69.0</ele><time>2026-03-31T09:46:15.01Z</time></trkpt><trkpt lat="45.02772187971697" lon="9.580811785407093"><ele>69.0</ele><time>2026-03-31T09:46:17.01Z</time></trkpt><trkpt lat="45.027711675466726" lon="9.58067933281828"><ele>69.0</ele><time>2026-03-31T09:46:19.01Z</time></trkpt><trkpt lat="45.02770161202647" lon="9.580547587029503"><ele>69.0</ele><time>2026-03-31T09:46:21.01Z</time></trkpt><trkpt lat="45.0276943684846" lon="9.58041371451529"><ele>68.8</ele><time>2026-03-31T09:46:23.01Z</time></trkpt><trkpt lat="45.027681525766766" lon="9.580278138939303"><ele>68.60000000000001</ele><time>2026-03-31T09:46:25.01Z</time></trkpt><trkpt lat="45.02766500361238" lon="9.580155190002602"><ele>68.4</ele><time>2026-03-31T09:46:27.01Z</time></trkpt><trkpt lat="45.02765787273397" lon="9.580029566017704"><ele>68.2</ele><time>2026-03-31T09:46:29.01Z</time></trkpt><trkpt lat="45.02764036357879" lon="9.579903161457159"><ele>68.0</ele><time>2026-03-31T09:46:31.01Z</time></trkpt><trkpt lat="45.0276383082154" lon="9.579782528875551"><ele>68.0</ele><time>2026-03-31T09:46:33.01Z</time></trkpt><trkpt lat="45.02763029561164" lon="9.579656304895932"><ele>68.0</ele><time>2026-03-31T09:46:35.01Z</time></trkpt><trkpt lat="45.027624125179244" lon="9.579535868623946"><ele>68.0</ele><time>2026-03-31T09:46:37.01Z</time></trkpt><trkpt lat="45.02761258734084" lon="9.579416944616474"><ele>68.0</ele><time>2026-03-31T09:46:39.01Z</time></trkpt><trkpt lat="45.02760214866677" lon="9.57929288335835"><ele>68.0</ele><time>2026-03-31T09:46:41.01Z</time></trkpt><trkpt lat="45.02758951886182" lon="9.579183077225341"><ele>68.0</ele><time>2026-03-31T09:46:43.01Z</time></trkpt><trkpt lat="45.02758326945374" lon="9.579079172072984"><ele>68.33333333333334</ele><time>2026-03-31T09:46:45.01Z</time></trkpt><trkpt lat="45.02757060555628" lon="9.578980816991905"><ele>68.66666666666667</ele><time>2026-03-31T09:46:47.01Z</time></trkpt><trkpt lat="45.02755380668283" lon="9.57887814313903"><ele>69.0</ele><time>2026-03-31T09:46:49.01Z</time></trkpt><trkpt lat="45.02761724167772" lon="9.578795869713032"><ele>69.33333333333333</ele><time>2026-03-31T09:46:52.01Z</time></trkpt><trkpt lat="45.02769027187708" lon="9.578836534113035"><ele>69.66666666666666</ele><time>2026-03-31T09:46:55.01Z</time></trkpt><trkpt lat="45.02778216868083" lon="9.578891088331275"><ele>70.0</ele><time>2026-03-31T09:46:58.01Z</time></trkpt><trkpt lat="45.02784321917789" lon="9.578940104851526"><ele>70.0</ele><time>2026-03-31T09:47:00.011Z</time></trkpt><trkpt lat="45.027910041103695" lon="9.578975685589915"><ele>70.0</ele><time>2026-03-31T09:47:02.011Z</time></trkpt><trkpt lat="45.02799435609785" lon="9.579030639045063"><ele>70.0</ele><time>2026-03-31T09:47:05.011Z</time></trkpt><trkpt lat="45.028062299847186" lon="9.579042631952992"><ele>70.0</ele><time>2026-03-31T09:47:07.011Z</time></trkpt><trkpt lat="45.028134436122684" lon="9.579054888646738"><ele>70.0</ele><time>2026-03-31T09:47:09.01Z</time></trkpt><trkpt lat="45.02822741565241" lon="9.579057206674198"><ele>70.0</ele><time>2026-03-31T09:47:12.01Z</time></trkpt><trkpt lat="45.0282992462477" lon="9.57906341025271"><ele>70.0</ele><time>2026-03-31T09:47:14.01Z</time></trkpt><trkpt lat="45.0283884203873" lon="9.579068760719327"><ele>70.0</ele><time>2026-03-31T09:47:17.01Z</time></trkpt><trkpt lat="45.02845478699513" lon="9.579074504539129"><ele>70.0</ele><time>2026-03-31T09:47:19.01Z</time></trkpt><trkpt lat="45.028522979334475" lon="9.579068924780561"><ele>70.0</ele><time>2026-03-31T09:47:21.01Z</time></trkpt><trkpt lat="45.02858615179497" lon="9.57907827220337"><ele>70.0</ele><time>2026-03-31T09:47:23.01Z</time></trkpt><trkpt lat="45.02865558997813" lon="9.579087956890358"><ele>70.0</ele><time>2026-03-31T09:47:25.01Z</time></trkpt><trkpt lat="45.028724817246164" lon="9.579078810931843"><ele>70.0</ele><time>2026-03-31T09:47:27.01Z</time></trkpt><trkpt lat="45.028799377687356" lon="9.579092139046098"><ele>70.0</ele><time>2026-03-31T09:47:29.01Z</time></trkpt><trkpt lat="45.028901815332034" lon="9.579093851182767"><ele>70.0</ele><time>2026-03-31T09:47:32.01Z</time></trkpt><trkpt lat="45.028974938542646" lon="9.5791005843475"><ele>70.0</ele><time>2026-03-31T09:47:34.01Z</time></trkpt><trkpt lat="45.029046318761175" lon="9.579113041898935"><ele>70.0</ele><time>2026-03-31T09:47:36.01Z</time></trkpt><trkpt lat="45.02911349649141" lon="9.579107367259882"><ele>70.0</ele><time>2026-03-31T09:47:38.01Z</time></trkpt><trkpt lat="45.029188147891595" lon="9.579118057547198"><ele>70.0</ele><time>2026-03-31T09:47:40.01Z</time></trkpt><trkpt lat="45.02926189285205" lon="9.579119927551885"><ele>70.0</ele><time>2026-03-31T09:47:42.01Z</time></trkpt><trkpt lat="45.02934110244953" lon="9.579099111683567"><ele>70.0</ele><time>2026-03-31T09:47:44.01Z</time></trkpt><trkpt lat="45.02940351350053" lon="9.579082904738485"><ele>70.0</ele><time>2026-03-31T09:47:46.01Z</time></trkpt><trkpt lat="45.02947127064033" lon="9.57906102593344"><ele>70.0</ele><time>2026-03-31T09:47:48.01Z</time></trkpt><trkpt lat="45.029539374608774" lon="9.579031024977807"><ele>70.0</ele><time>2026-03-31T09:47:50.01Z</time></trkpt><trkpt lat="45.029605135767106" lon="9.579003223218047"><ele>70.0</ele><time>2026-03-31T09:47:52.01Z</time></trkpt><trkpt lat="45.029669950849346" lon="9.579000390987156"><ele>70.0</ele><time>2026-03-31T09:47:54.01Z</time></trkpt><trkpt lat="45.02973908908402" lon="9.578981123282974"><ele>70.0</ele><time>2026-03-31T09:47:56.01Z</time></trkpt><trkpt lat="45.02980867178624" lon="9.578979603218519"><ele>70.0</ele><time>2026-03-31T09:47:58.01Z</time></trkpt><trkpt lat="45.02987907217568" lon="9.578978994389423"><ele>70.0</ele><time>2026-03-31T09:48:00.01Z</time></trkpt><trkpt lat="45.02995737402287" lon="9.578977174976872"><ele>70.0</ele><time>2026-03-31T09:48:02.01Z</time></trkpt><trkpt lat="45.03002865186097" lon="9.578986980437625"><ele>70.0</ele><time>2026-03-31T09:48:04.01Z</time></trkpt><trkpt lat="45.030098923728026" lon="9.578989207687597"><ele>70.0</ele><time>2026-03-31T09:48:06.01Z</time></trkpt><trkpt lat="45.030175806213194" lon="9.578974733002603"><ele>70.0</ele><time>2026-03-31T09:48:08.01Z</time></trkpt><trkpt lat="45.030254563354084" lon="9.578956884830532"><ele>70.0</ele><time>2026-03-31T09:48:10.01Z</time></trkpt><trkpt lat="45.03032914236436" lon="9.578937083855477"><ele>70.0</ele><time>2026-03-31T09:48:12.01Z</time></trkpt><trkpt lat="45.030403000885244" lon="9.578920908438363"><ele>70.0</ele><time>2026-03-31T09:48:14.01Z</time></trkpt><trkpt lat="45.03047887703345" lon="9.578905711768067"><ele>70.0</ele><time>2026-03-31T09:48:16.01Z</time></trkpt><trkpt lat="45.03054637830805" lon="9.578882626026532"><ele>70.0</ele><time>2026-03-31T09:48:18.01Z</time></trkpt><trkpt lat="45.03062199615765" lon="9.578859300479468"><ele>70.0</ele><time>2026-03-31T09:48:20.01Z</time></trkpt><trkpt lat="45.030690339353114" lon="9.578832756304488"><ele>70.0</ele><time>2026-03-31T09:48:22.01Z</time></trkpt><trkpt lat="45.03075983063707" lon="9.57881285878376"><ele>69.85714285714286</ele><time>2026-03-31T09:48:24.01Z</time></trkpt><trkpt lat="45.03083313666967" lon="9.578780804250567"><ele>69.71428571428572</ele><time>2026-03-31T09:48:26.01Z</time></trkpt><trkpt lat="45.030895869109585" lon="9.57875995948862"><ele>69.57142857142857</ele><time>2026-03-31T09:48:28.01Z</time></trkpt><trkpt lat="45.03097179977257" lon="9.57874381351051"><ele>69.42857142857143</ele><time>2026-03-31T09:48:30.01Z</time></trkpt><trkpt lat="45.031042413609626" lon="9.578722890124945"><ele>69.28571428571429</ele><time>2026-03-31T09:48:32.01Z</time></trkpt><trkpt lat="45.03111926302899" lon="9.578705182733817"><ele>69.14285714285714</ele><time>2026-03-31T09:48:34.01Z</time></trkpt><trkpt lat="45.031195419628396" lon="9.57868653748923"><ele>69.0</ele><time>2026-03-31T09:48:36.01Z</time></trkpt><trkpt lat="45.03126740159401" lon="9.578664315490755"><ele>69.0</ele><time>2026-03-31T09:48:38.01Z</time></trkpt><trkpt lat="45.0313384795961" lon="9.578644407974718"><ele>69.0</ele><time>2026-03-31T09:48:40.01Z</time></trkpt><trkpt lat="45.031414017320714" lon="9.578629652209246"><ele>69.0</ele><time>2026-03-31T09:48:42.01Z</time></trkpt><trkpt lat="45.03148359639112" lon="9.578599694275578"><ele>69.0</ele><time>2026-03-31T09:48:44.01Z</time></trkpt><trkpt lat="45.031562065023635" lon="9.578583391438288"><ele>69.0</ele><time>2026-03-31T09:48:46.01Z</time></trkpt><trkpt lat="45.031644309259484" lon="9.57856713020915"><ele>69.0</ele><time>2026-03-31T09:48:48.01Z</time></trkpt><trkpt lat="45.03171931970834" lon="9.578543086966357"><ele>69.14285714285714</ele><time>2026-03-31T09:48:50.01Z</time></trkpt><trkpt lat="45.03179492619101" lon="9.57852258112945"><ele>69.28571428571429</ele><time>2026-03-31T09:48:52.01Z</time></trkpt><trkpt lat="45.03186226522648" lon="9.578505698308437"><ele>69.42857142857143</ele><time>2026-03-31T09:48:54.01Z</time></trkpt><trkpt lat="45.03192619131008" lon="9.578489603008702"><ele>69.57142857142857</ele><time>2026-03-31T09:48:56.01Z</time></trkpt><trkpt lat="45.03200291151523" lon="9.578461811243933"><ele>69.71428571428572</ele><time>2026-03-31T09:48:59.01Z</time></trkpt><trkpt lat="45.03208185594771" lon="9.578444142154785"><ele>69.85714285714286</ele><time>2026-03-31T09:49:02.01Z</time></trkpt><trkpt lat="45.0321453079059" lon="9.578409475394478"><ele>70.0</ele><time>2026-03-31T09:49:05.011Z</time></trkpt><trkpt lat="45.03218759980899" lon="9.578330545828464"><ele>70.0</ele><time>2026-03-31T09:49:10.01Z</time></trkpt><trkpt lat="45.03226086351704" lon="9.5782858114107"><ele>70.0</ele><time>2026-03-31T09:49:22.011Z</time></trkpt><trkpt lat="45.03229860804977" lon="9.578206106982336"><ele>70.0</ele><time>2026-03-31T09:49:24.011Z</time></trkpt><trkpt lat="45.03229834607196" lon="9.578112892236332"><ele>70.0</ele><time>2026-03-31T09:49:26.011Z</time></trkpt><trkpt lat="45.03228929519304" lon="9.578013128211786"><ele>70.0</ele><time>2026-03-31T09:49:28.011Z</time></trkpt><trkpt lat="45.03227625191523" lon="9.577888423703184"><ele>70.0</ele><time>2026-03-31T09:49:31.011Z</time></trkpt><trkpt lat="45.03227372650802" lon="9.577769717878532"><ele>70.0</ele><time>2026-03-31T09:49:34.011Z</time></trkpt><trkpt lat="45.03232004984195" lon="9.57770422670044"><ele>70.0</ele><time>2026-03-31T09:49:36.011Z</time></trkpt><trkpt lat="45.032378559489615" lon="9.57765766243259"><ele>70.0</ele><time>2026-03-31T09:49:38.011Z</time></trkpt><trkpt lat="45.032445879107684" lon="9.577597800966027"><ele>70.0</ele><time>2026-03-31T09:49:40.011Z</time></trkpt><trkpt lat="45.03249839908679" lon="9.577519534331282"><ele>70.0</ele><time>2026-03-31T09:49:42.011Z</time></trkpt><trkpt lat="45.03258482845054" lon="9.577460657652287"><ele>70.0</ele><time>2026-03-31T09:49:44.011Z</time></trkpt><trkpt lat="45.03265169814336" lon="9.577439661219266"><ele>70.0</ele><time>2026-03-31T09:49:46.011Z</time></trkpt><trkpt lat="45.03273241988498" lon="9.577400521399765"><ele>70.0</ele><time>2026-03-31T09:49:48.011Z</time></trkpt><trkpt lat="45.0328155881218" lon="9.577363391772984"><ele>70.0</ele><time>2026-03-31T09:49:50.011Z</time></trkpt><trkpt lat="45.03289997287264" lon="9.577335754503558"><ele>70.0</ele><time>2026-03-31T09:49:52.011Z</time></trkpt><trkpt lat="45.03297387343508" lon="9.577290479860805"><ele>70.0</ele><time>2026-03-31T09:49:54.011Z</time></trkpt><trkpt lat="45.03305908059728" lon="9.577255623204247"><ele>70.0</ele><time>2026-03-31T09:49:56.011Z</time></trkpt><trkpt lat="45.033146659243435" lon="9.57721933688429"><ele>70.0</ele><time>2026-03-31T09:49:58.011Z</time></trkpt><trkpt lat="45.03323201621475" lon="9.577179774634553"><ele>70.0</ele><time>2026-03-31T09:50:00.011Z</time></trkpt><trkpt lat="45.033307698515905" lon="9.577143607358238"><ele>70.0</ele><time>2026-03-31T09:50:02.011Z</time></trkpt><trkpt lat="45.033404768906394" lon="9.577101712676532"><ele>70.0</ele><time>2026-03-31T09:50:04.011Z</time></trkpt><trkpt lat="45.033487871006855" lon="9.57706903265796"><ele>70.0</ele><time>2026-03-31T09:50:06.011Z</time></trkpt><trkpt lat="45.03357850753631" lon="9.57704452222806"><ele>70.0</ele><time>2026-03-31T09:50:08.011Z</time></trkpt><trkpt lat="45.03366757425751" lon="9.577007299665498"><ele>70.0</ele><time>2026-03-31T09:50:10.011Z</time></trkpt><trkpt lat="45.033747419821474" lon="9.576981412554952"><ele>70.0</ele><time>2026-03-31T09:50:12.011Z</time></trkpt><trkpt lat="45.03383082696459" lon="9.576945900309168"><ele>70.0</ele><time>2026-03-31T09:50:14.011Z</time></trkpt><trkpt lat="45.03391993198123" lon="9.576918334758158"><ele>70.0</ele><time>2026-03-31T09:50:16.011Z</time></trkpt><trkpt lat="45.03401008283081" lon="9.576878612018842"><ele>70.0</ele><time>2026-03-31T09:50:18.011Z</time></trkpt><trkpt lat="45.034091265553826" lon="9.57684736946426"><ele>70.33333333333333</ele><time>2026-03-31T09:50:20.011Z</time></trkpt><trkpt lat="45.03418053313856" lon="9.576813397545562"><ele>70.66666666666666</ele><time>2026-03-31T09:50:22.011Z</time></trkpt><trkpt lat="45.03426394216154" lon="9.576785141508408"><ele>71.0</ele><time>2026-03-31T09:50:24.011Z</time></trkpt><trkpt lat="45.03434723858626" lon="9.576749324577348"><ele>71.33333333333333</ele><time>2026-03-31T09:50:26.011Z</time></trkpt><trkpt lat="45.0344329868808" lon="9.576717149092241"><ele>71.66666666666667</ele><time>2026-03-31T09:50:28.011Z</time></trkpt><trkpt lat="45.034513620347894" lon="9.576687693984814"><ele>72.0</ele><time>2026-03-31T09:50:30.011Z</time></trkpt><trkpt lat="45.03459883584876" lon="9.576652572025802"><ele>72.0</ele><time>2026-03-31T09:50:32.011Z</time></trkpt><trkpt lat="45.034676192416065" lon="9.576613602161508"><ele>72.0</ele><time>2026-03-31T09:50:34.011Z</time></trkpt><trkpt lat="45.03476163751976" lon="9.576581436446258"><ele>72.0</ele><time>2026-03-31T09:50:36.011Z</time></trkpt><trkpt lat="45.03484767452454" lon="9.576552023792896"><ele>72.0</ele><time>2026-03-31T09:50:38.011Z</time></trkpt><trkpt lat="45.03492945766252" lon="9.57651162482556"><ele>72.0</ele><time>2026-03-31T09:50:40.011Z</time></trkpt><trkpt lat="45.03501900636437" lon="9.576480899320861"><ele>72.0</ele><time>2026-03-31T09:50:42.011Z</time></trkpt><trkpt lat="45.03509695868694" lon="9.576442300427935"><ele>71.66666666666667</ele><time>2026-03-31T09:50:44.011Z</time></trkpt><trkpt lat="45.03517915973528" lon="9.576405849221011"><ele>71.33333333333333</ele><time>2026-03-31T09:50:46.011Z</time></trkpt><trkpt lat="45.03525629525291" lon="9.576360601218159"><ele>71.0</ele><time>2026-03-31T09:50:48.011Z</time></trkpt><trkpt lat="45.03533894867982" lon="9.576322461782246"><ele>70.66666666666666</ele><time>2026-03-31T09:50:50.011Z</time></trkpt><trkpt lat="45.03542424693793" lon="9.576261220084831"><ele>70.33333333333333</ele><time>2026-03-31T09:50:52.011Z</time></trkpt><trkpt lat="45.035505164597176" lon="9.576229856106213"><ele>70.0</ele><time>2026-03-31T09:50:54.011Z</time></trkpt><trkpt lat="45.03559003231157" lon="9.576176434254135"><ele>69.83333333333333</ele><time>2026-03-31T09:50:56.011Z</time></trkpt><trkpt lat="45.035674865955144" lon="9.57614603418549"><ele>69.66666666666666</ele><time>2026-03-31T09:50:58.011Z</time></trkpt><trkpt lat="45.0357476858202" lon="9.576092557210384"><ele>69.5</ele><time>2026-03-31T09:51:00.011Z</time></trkpt><trkpt lat="45.03581471390054" lon="9.576042437904638"><ele>69.33333333333333</ele><time>2026-03-31T09:51:02.011Z</time></trkpt><trkpt lat="45.03588688184412" lon="9.57597780339581"><ele>69.16666666666667</ele><time>2026-03-31T09:51:04.011Z</time></trkpt><trkpt lat="45.035956412517315" lon="9.575911224923342"><ele>69.0</ele><time>2026-03-31T09:51:06.011Z</time></trkpt><trkpt lat="45.03602091504614" lon="9.57581971200754"><ele>69.8</ele><time>2026-03-31T09:51:09.011Z</time></trkpt><trkpt lat="45.03610351916332" lon="9.575752492693734"><ele>70.60000000000001</ele><time>2026-03-31T09:51:11.011Z</time></trkpt><trkpt lat="45.036182599030866" lon="9.57569186014619"><ele>71.4</ele><time>2026-03-31T09:51:13.011Z</time></trkpt><trkpt lat="45.036251915576564" lon="9.575624831608371"><ele>72.2</ele><time>2026-03-31T09:51:15.011Z</time></trkpt><trkpt lat="45.036336733151835" lon="9.57555351974439"><ele>73.0</ele><time>2026-03-31T09:51:17.01Z</time></trkpt><trkpt lat="45.03640308660122" lon="9.57546758317063"><ele>73.0</ele><time>2026-03-31T09:51:19.011Z</time></trkpt><trkpt lat="45.03648111963947" lon="9.575408945320396"><ele>73.0</ele><time>2026-03-31T09:51:21.011Z</time></trkpt><trkpt lat="45.03655230914649" lon="9.575337228639615"><ele>73.0</ele><time>2026-03-31T09:51:23.011Z</time></trkpt><trkpt lat="45.036625418612516" lon="9.575266587761792"><ele>73.0</ele><time>2026-03-31T09:51:25.011Z</time></trkpt><trkpt lat="45.03668728039115" lon="9.575186230120382"><ele>73.0</ele><time>2026-03-31T09:51:27.011Z</time></trkpt><trkpt lat="45.03676003133276" lon="9.575118912988229"><ele>73.0</ele><time>2026-03-31T09:51:29.011Z</time></trkpt><trkpt lat="45.036831394437705" lon="9.575046169078341"><ele>72.33333333333333</ele><time>2026-03-31T09:51:31.011Z</time></trkpt><trkpt lat="45.03689907447709" lon="9.574976855218127"><ele>71.66666666666666</ele><time>2026-03-31T09:51:33.011Z</time></trkpt><trkpt lat="45.03697930089903" lon="9.574908106414494"><ele>71.0</ele><time>2026-03-31T09:51:35.011Z</time></trkpt><trkpt lat="45.03703900073149" lon="9.574827676740991"><ele>70.33333333333333</ele><time>2026-03-31T09:51:37.011Z</time></trkpt><trkpt lat="45.037116683662184" lon="9.574754217185514"><ele>69.66666666666667</ele><time>2026-03-31T09:51:39.011Z</time></trkpt><trkpt lat="45.037185973964824" lon="9.574670852686864"><ele>69.0</ele><time>2026-03-31T09:51:41.011Z</time></trkpt><trkpt lat="45.03725949127375" lon="9.574607854090436"><ele>69.0</ele><time>2026-03-31T09:51:43.011Z</time></trkpt><trkpt lat="45.03733194609845" lon="9.574535636515597"><ele>69.0</ele><time>2026-03-31T09:51:45.011Z</time></trkpt><trkpt lat="45.037398631314254" lon="9.574464710884856"><ele>69.0</ele><time>2026-03-31T09:51:47.011Z</time></trkpt><trkpt lat="45.03746421678608" lon="9.574389451490445"><ele>69.0</ele><time>2026-03-31T09:51:49.011Z</time></trkpt><trkpt lat="45.0375322426588" lon="9.574309468447982"><ele>69.0</ele><time>2026-03-31T09:51:51.011Z</time></trkpt><trkpt lat="45.0376055623543" lon="9.574226911515069"><ele>69.0</ele><time>2026-03-31T09:51:53.011Z</time></trkpt><trkpt lat="45.037678319360595" lon="9.574146600128701"><ele>68.8</ele><time>2026-03-31T09:51:55.011Z</time></trkpt><trkpt lat="45.03773835002375" lon="9.574083176120046"><ele>68.60000000000001</ele><time>2026-03-31T09:51:57.011Z</time></trkpt><trkpt lat="45.037816747615246" lon="9.57399988618851"><ele>68.4</ele><time>2026-03-31T09:51:59.011Z</time></trkpt><trkpt lat="45.037884477605274" lon="9.573908963696441"><ele>68.2</ele><time>2026-03-31T09:52:01.011Z</time></trkpt><trkpt lat="45.03796564145459" lon="9.573820594007383"><ele>68.0</ele><time>2026-03-31T09:52:03.011Z</time></trkpt><trkpt lat="45.03804343631137" lon="9.573727277130024"><ele>67.8</ele><time>2026-03-31T09:52:05.011Z</time></trkpt><trkpt lat="45.038124205945955" lon="9.573641710321432"><ele>67.6</ele><time>2026-03-31T09:52:07.011Z</time></trkpt><trkpt lat="45.03820766008047" lon="9.573554661754075"><ele>67.4</ele><time>2026-03-31T09:52:09.011Z</time></trkpt><trkpt lat="45.03828889879811" lon="9.573464829678251"><ele>67.2</ele><time>2026-03-31T09:52:11.011Z</time></trkpt><trkpt lat="45.03836745595568" lon="9.573365419008708"><ele>67.0</ele><time>2026-03-31T09:52:13.011Z</time></trkpt><trkpt lat="45.03844977507105" lon="9.57328118622313"><ele>66.6</ele><time>2026-03-31T09:52:15.011Z</time></trkpt><trkpt lat="45.03853040454515" lon="9.573188807574795"><ele>66.2</ele><time>2026-03-31T09:52:17.011Z</time></trkpt><trkpt lat="45.03861351824507" lon="9.57309897736828"><ele>65.8</ele><time>2026-03-31T09:52:19.011Z</time></trkpt><trkpt lat="45.0386940661501" lon="9.573010099518534"><ele>65.4</ele><time>2026-03-31T09:52:21.011Z</time></trkpt><trkpt lat="45.03877481929942" lon="9.572917545032652"><ele>65.0</ele><time>2026-03-31T09:52:23.011Z</time></trkpt><trkpt lat="45.038855733427106" lon="9.572828000809727"><ele>65.0</ele><time>2026-03-31T09:52:25.011Z</time></trkpt><trkpt lat="45.0389342917611" lon="9.572739941946953"><ele>65.0</ele><time>2026-03-31T09:52:27.011Z</time></trkpt><trkpt lat="45.039014568872375" lon="9.572655211172068"><ele>65.0</ele><time>2026-03-31T09:52:29.011Z</time></trkpt><trkpt lat="45.0390924390356" lon="9.572568345615283"><ele>65.0</ele><time>2026-03-31T09:52:31.011Z</time></trkpt><trkpt lat="45.0391645551045" lon="9.57248799499935"><ele>65.0</ele><time>2026-03-31T09:52:33.011Z</time></trkpt><trkpt lat="45.039242907040745" lon="9.572396212475471"><ele>64.8</ele><time>2026-03-31T09:52:35.011Z</time></trkpt><trkpt lat="45.039325760899594" lon="9.572309885524698"><ele>64.6</ele><time>2026-03-31T09:52:37.011Z</time></trkpt><trkpt lat="45.03939730393514" lon="9.572229974136805"><ele>64.4</ele><time>2026-03-31T09:52:39.011Z</time></trkpt><trkpt lat="45.03946597885713" lon="9.572150768259537"><ele>64.2</ele><time>2026-03-31T09:52:41.011Z</time></trkpt><trkpt lat="45.03953652866228" lon="9.572074026374194"><ele>64.0</ele><time>2026-03-31T09:52:43.011Z</time></trkpt><trkpt lat="45.03960247990123" lon="9.571998500373448"><ele>63.83333333333333</ele><time>2026-03-31T09:52:45.011Z</time></trkpt><trkpt lat="45.03966715873291" lon="9.571927130735476"><ele>63.666666666666664</ele><time>2026-03-31T09:52:47.011Z</time></trkpt><trkpt lat="45.039727216882035" lon="9.571859647988731"><ele>63.5</ele><time>2026-03-31T09:52:49.011Z</time></trkpt><trkpt lat="45.03978432681238" lon="9.57178903392951"><ele>63.33333333333333</ele><time>2026-03-31T09:52:51.011Z</time></trkpt><trkpt lat="45.03984480413072" lon="9.571719922491308"><ele>63.166666666666664</ele><time>2026-03-31T09:52:53.011Z</time></trkpt><trkpt lat="45.039910054393374" lon="9.571652059777133"><ele>63.0</ele><time>2026-03-31T09:52:55.011Z</time></trkpt><trkpt lat="45.03997163003904" lon="9.57158778271219"><ele>63.0</ele><time>2026-03-31T09:52:57.011Z</time></trkpt><trkpt lat="45.04003843356174" lon="9.571519597106441"><ele>63.0</ele><time>2026-03-31T09:52:59.011Z</time></trkpt><trkpt lat="45.0401008255568" lon="9.571444573117349"><ele>63.0</ele><time>2026-03-31T09:53:01.011Z</time></trkpt><trkpt lat="45.04016819711655" lon="9.571376841544042"><ele>63.0</ele><time>2026-03-31T09:53:03.011Z</time></trkpt><trkpt lat="45.040225786071524" lon="9.571305817061734"><ele>63.0</ele><time>2026-03-31T09:53:05.011Z</time></trkpt><trkpt lat="45.04029109230956" lon="9.571233651496057"><ele>63.0</ele><time>2026-03-31T09:53:07.011Z</time></trkpt><trkpt lat="45.04035598309005" lon="9.571181818847277"><ele>63.333333333333336</ele><time>2026-03-31T09:53:09.011Z</time></trkpt><trkpt lat="45.04041543666136" lon="9.571105610034586"><ele>63.66666666666667</ele><time>2026-03-31T09:53:11.011Z</time></trkpt><trkpt lat="45.040478590159395" lon="9.571036934245285"><ele>64.0</ele><time>2026-03-31T09:53:13.011Z</time></trkpt><trkpt lat="45.040539548224174" lon="9.570965858835715"><ele>64.33333333333334</ele><time>2026-03-31T09:53:15.011Z</time></trkpt><trkpt lat="45.04060871369433" lon="9.570884717876673"><ele>64.66666666666667</ele><time>2026-03-31T09:53:17.011Z</time></trkpt><trkpt lat="45.04067023352876" lon="9.570807546059841"><ele>65.0</ele><time>2026-03-31T09:53:19.011Z</time></trkpt><trkpt lat="45.040741314418135" lon="9.570727949670248"><ele>64.83333333333334</ele><time>2026-03-31T09:53:21.011Z</time></trkpt><trkpt lat="45.04081429820818" lon="9.570639895966064"><ele>64.66666666666667</ele><time>2026-03-31T09:53:23.011Z</time></trkpt><trkpt lat="45.04088027706196" lon="9.570554248099592"><ele>64.5</ele><time>2026-03-31T09:53:25.011Z</time></trkpt><trkpt lat="45.04094967705722" lon="9.570470050950771"><ele>64.33333333333333</ele><time>2026-03-31T09:53:27.011Z</time></trkpt><trkpt lat="45.04102117086863" lon="9.570400150527455"><ele>64.16666666666666</ele><time>2026-03-31T09:53:29.011Z</time></trkpt><trkpt lat="45.04108884544816" lon="9.570326503334053"><ele>64.0</ele><time>2026-03-31T09:53:31.011Z</time></trkpt><trkpt lat="45.04115437483466" lon="9.570250382184756"><ele>64.33333333333333</ele><time>2026-03-31T09:53:33.011Z</time></trkpt><trkpt lat="45.04123043737773" lon="9.570173050770686"><ele>64.66666666666666</ele><time>2026-03-31T09:53:35.011Z</time></trkpt><trkpt lat="45.04129658876477" lon="9.570099439245872"><ele>65.0</ele><time>2026-03-31T09:53:37.011Z</time></trkpt><trkpt lat="45.041366392953464" lon="9.570030742947768"><ele>65.33333333333333</ele><time>2026-03-31T09:53:39.011Z</time></trkpt><trkpt lat="45.04143293058424" lon="9.569958379772682"><ele>65.66666666666667</ele><time>2026-03-31T09:53:41.011Z</time></trkpt><trkpt lat="45.0414984359858" lon="9.569885454125048"><ele>66.0</ele><time>2026-03-31T09:53:43.011Z</time></trkpt><trkpt lat="45.0415598223885" lon="9.569819839619079"><ele>66.0</ele><time>2026-03-31T09:53:45.011Z</time></trkpt><trkpt lat="45.04162494370234" lon="9.569741879450559"><ele>66.0</ele><time>2026-03-31T09:53:47.011Z</time></trkpt><trkpt lat="45.041695961684546" lon="9.569659320403924"><ele>66.0</ele><time>2026-03-31T09:53:49.011Z</time></trkpt><trkpt lat="45.04176376815368" lon="9.569590442218711"><ele>66.0</ele><time>2026-03-31T09:53:51.011Z</time></trkpt><trkpt lat="45.04183078528775" lon="9.56952612945166"><ele>66.0</ele><time>2026-03-31T09:53:53.011Z</time></trkpt><trkpt lat="45.041897111706824" lon="9.569444105899066"><ele>66.0</ele><time>2026-03-31T09:53:55.011Z</time></trkpt><trkpt lat="45.041962963554255" lon="9.569377747990895"><ele>65.66666666666667</ele><time>2026-03-31T09:53:57.011Z</time></trkpt><trkpt lat="45.04202947924634" lon="9.569304811376274"><ele>65.33333333333333</ele><time>2026-03-31T09:53:59.011Z</time></trkpt><trkpt lat="45.04209724405719" lon="9.56923547602094"><ele>65.0</ele><time>2026-03-31T09:54:01.011Z</time></trkpt><trkpt lat="45.042170835187825" lon="9.569166644701339"><ele>64.66666666666666</ele><time>2026-03-31T09:54:03.011Z</time></trkpt><trkpt lat="45.042236261416235" lon="9.56909575511363"><ele>64.33333333333333</ele><time>2026-03-31T09:54:05.011Z</time></trkpt><trkpt lat="45.04229841523183" lon="9.569025251300818"><ele>64.0</ele><time>2026-03-31T09:54:07.011Z</time></trkpt><trkpt lat="45.04236586717582" lon="9.568959903377817"><ele>64.0</ele><time>2026-03-31T09:54:09.011Z</time></trkpt><trkpt lat="45.04242413843101" lon="9.568892767328922"><ele>63.99999999999999</ele><time>2026-03-31T09:54:11.011Z</time></trkpt><trkpt lat="45.04248176367622" lon="9.568835347577"><ele>64.0</ele><time>2026-03-31T09:54:13.011Z</time></trkpt><trkpt lat="45.04253653818624" lon="9.568776868283079"><ele>64.0</ele><time>2026-03-31T09:54:15.011Z</time></trkpt><trkpt lat="45.04260280059954" lon="9.568722784119275"><ele>63.99999999999999</ele><time>2026-03-31T09:54:17.011Z</time></trkpt><trkpt lat="45.04266256414861" lon="9.568650720000814"><ele>64.0</ele><time>2026-03-31T09:54:19.011Z</time></trkpt><trkpt lat="45.04272831544819" lon="9.56859138173757"><ele>64.0</ele><time>2026-03-31T09:54:21.011Z</time></trkpt><trkpt lat="45.04278931903627" lon="9.568521723224986"><ele>63.99999999999999</ele><time>2026-03-31T09:54:23.011Z</time></trkpt><trkpt lat="45.04285426843748" lon="9.568460465365025"><ele>64.0</ele><time>2026-03-31T09:54:25.011Z</time></trkpt><trkpt lat="45.04291450948606" lon="9.568396610157802"><ele>64.0</ele><time>2026-03-31T09:54:27.011Z</time></trkpt><trkpt lat="45.04297942494425" lon="9.56833866418331"><ele>64.0</ele><time>2026-03-31T09:54:29.011Z</time></trkpt><trkpt lat="45.043036342372744" lon="9.568270723224774"><ele>63.99999999999999</ele><time>2026-03-31T09:54:31.011Z</time></trkpt><trkpt lat="45.04309550439534" lon="9.568213510401748"><ele>64.0</ele><time>2026-03-31T09:54:33.011Z</time></trkpt><trkpt lat="45.04315317396949" lon="9.568144674616919"><ele>63.99999999999999</ele><time>2026-03-31T09:54:35.011Z</time></trkpt><trkpt lat="45.04321624891619" lon="9.568122748929751"><ele>64.0</ele><time>2026-03-31T09:54:37.011Z</time></trkpt><trkpt lat="45.04326893133436" lon="9.568190617200269"><ele>64.0</ele><time>2026-03-31T09:54:39.011Z</time></trkpt><trkpt lat="45.043306807353794" lon="9.568279758819253"><ele>64.0</ele><time>2026-03-31T09:54:41.011Z</time></trkpt><trkpt lat="45.04334598576051" lon="9.5683815453767"><ele>63.99999999999999</ele><time>2026-03-31T09:54:43.011Z</time></trkpt><trkpt lat="45.04339089775185" lon="9.568469656343508"><ele>64.0</ele><time>2026-03-31T09:54:45.011Z</time></trkpt><trkpt lat="45.043439339236954" lon="9.56856881219524"><ele>64.2</ele><time>2026-03-31T09:54:47.011Z</time></trkpt><trkpt lat="45.04348764573288" lon="9.56868133924808"><ele>64.4</ele><time>2026-03-31T09:54:49.011Z</time></trkpt><trkpt lat="45.04354797608511" lon="9.568787439071517"><ele>64.6</ele><time>2026-03-31T09:54:51.011Z</time></trkpt><trkpt lat="45.04360196501575" lon="9.568905428205857"><ele>64.8</ele><time>2026-03-31T09:54:53.011Z</time></trkpt><trkpt lat="45.04365726286267" lon="9.569024505294095"><ele>65.0</ele><time>2026-03-31T09:54:55.011Z</time></trkpt><trkpt lat="45.043710368265515" lon="9.569138034820742"><ele>64.6</ele><time>2026-03-31T09:54:57.011Z</time></trkpt><trkpt lat="45.04376615941002" lon="9.569251999714586"><ele>64.2</ele><time>2026-03-31T09:54:59.011Z</time></trkpt><trkpt lat="45.04381558405877" lon="9.569368008778437"><ele>63.8</ele><time>2026-03-31T09:55:01.011Z</time></trkpt><trkpt lat="45.04387135846674" lon="9.569485570799115"><ele>63.4</ele><time>2026-03-31T09:55:03.011Z</time></trkpt><trkpt lat="45.04392177109905" lon="9.569600807793783"><ele>63.0</ele><time>2026-03-31T09:55:05.011Z</time></trkpt><trkpt lat="45.04398284159855" lon="9.569714259427325"><ele>63.2</ele><time>2026-03-31T09:55:07.011Z</time></trkpt><trkpt lat="45.04403899376905" lon="9.569827940934614"><ele>63.4</ele><time>2026-03-31T09:55:09.011Z</time></trkpt><trkpt lat="45.04409225962262" lon="9.569947155209288"><ele>63.60000000000001</ele><time>2026-03-31T09:55:11.011Z</time></trkpt><trkpt lat="45.04415416307652" lon="9.570052338043068"><ele>63.800000000000004</ele><time>2026-03-31T09:55:13.011Z</time></trkpt><trkpt lat="45.04420810588994" lon="9.570159354051121"><ele>64.0</ele><time>2026-03-31T09:55:15.011Z</time></trkpt><trkpt lat="45.04426867878614" lon="9.57027733939133"><ele>64.0</ele><time>2026-03-31T09:55:17.011Z</time></trkpt><trkpt lat="45.04432965442155" lon="9.570389322054822"><ele>64.0</ele><time>2026-03-31T09:55:19.01Z</time></trkpt><trkpt lat="45.04438920061428" lon="9.57050672146346"><ele>64.0</ele><time>2026-03-31T09:55:21.012Z</time></trkpt><trkpt lat="45.04445182785603" lon="9.57062099911013"><ele>64.0</ele><time>2026-03-31T09:55:23.012Z</time></trkpt><trkpt lat="45.04451247384288" lon="9.570738032986704"><ele>64.0</ele><time>2026-03-31T09:55:25.011Z</time></trkpt><trkpt lat="45.044572391576395" lon="9.570847642087081"><ele>64.0</ele><time>2026-03-31T09:55:27.012Z</time></trkpt><trkpt lat="45.04463554731438" lon="9.570964108208297"><ele>64.0</ele><time>2026-03-31T09:55:29.011Z</time></trkpt><trkpt lat="45.04468868555374" lon="9.571074515057518"><ele>64.0</ele><time>2026-03-31T09:55:31.011Z</time></trkpt><trkpt lat="45.044735782515815" lon="9.571195995669848"><ele>64.0</ele><time>2026-03-31T09:55:33.011Z</time></trkpt><trkpt lat="45.044778572254195" lon="9.571312273935284"><ele>64.0</ele><time>2026-03-31T09:55:35.011Z</time></trkpt><trkpt lat="45.044791446084325" lon="9.57144504055184"><ele>63.800000000000004</ele><time>2026-03-31T09:55:37.011Z</time></trkpt><trkpt lat="45.04478533133267" lon="9.571578701926985"><ele>63.60000000000001</ele><time>2026-03-31T09:55:39.011Z</time></trkpt><trkpt lat="45.044774723070056" lon="9.571704461835184"><ele>63.4</ele><time>2026-03-31T09:55:41.011Z</time></trkpt><trkpt lat="45.04475870125107" lon="9.571837236141908"><ele>63.2</ele><time>2026-03-31T09:55:43.011Z</time></trkpt><trkpt lat="45.04474772575036" lon="9.571962204006567"><ele>63.0</ele><time>2026-03-31T09:55:45.011Z</time></trkpt><trkpt lat="45.044736167070084" lon="9.572093461432962"><ele>63.0</ele><time>2026-03-31T09:55:47.011Z</time></trkpt><trkpt lat="45.04471976863278" lon="9.572226105796446"><ele>63.0</ele><time>2026-03-31T09:55:49.011Z</time></trkpt><trkpt lat="45.04470901136595" lon="9.572348759874968"><ele>63.0</ele><time>2026-03-31T09:55:51.011Z</time></trkpt><trkpt lat="45.04469330472686" lon="9.57247589281858"><ele>63.0</ele><time>2026-03-31T09:55:53.011Z</time></trkpt><trkpt lat="45.04467762752242" lon="9.572611027670598"><ele>63.0</ele><time>2026-03-31T09:55:55.011Z</time></trkpt><trkpt lat="45.04467683014377" lon="9.572740013475748"><ele>63.0</ele><time>2026-03-31T09:55:57.011Z</time></trkpt><trkpt lat="45.04469606424631" lon="9.572876128581392"><ele>63.0</ele><time>2026-03-31T09:55:59.011Z</time></trkpt><trkpt lat="45.044736549107334" lon="9.573004845516827"><ele>63.0</ele><time>2026-03-31T09:56:01.011Z</time></trkpt><trkpt lat="45.044774119509455" lon="9.57313845718907"><ele>63.0</ele><time>2026-03-31T09:56:03.011Z</time></trkpt><trkpt lat="45.04481693424157" lon="9.573271088611948"><ele>63.0</ele><time>2026-03-31T09:56:05.011Z</time></trkpt><trkpt lat="45.04486262745182" lon="9.57339852010744"><ele>63.0</ele><time>2026-03-31T09:56:07.011Z</time></trkpt><trkpt lat="45.04490514088547" lon="9.573525043796224"><ele>63.0</ele><time>2026-03-31T09:56:09.011Z</time></trkpt><trkpt lat="45.0449450790262" lon="9.573650354120558"><ele>63.0</ele><time>2026-03-31T09:56:11.011Z</time></trkpt><trkpt lat="45.04498351936987" lon="9.573783487088475"><ele>63.0</ele><time>2026-03-31T09:56:13.011Z</time></trkpt><trkpt lat="45.045016323158606" lon="9.573911334455724"><ele>63.0</ele><time>2026-03-31T09:56:15.011Z</time></trkpt><trkpt lat="45.04505745469623" lon="9.574036520871447"><ele>63.2</ele><time>2026-03-31T09:56:17.011Z</time></trkpt><trkpt lat="45.04509215747249" lon="9.574164264731394"><ele>63.4</ele><time>2026-03-31T09:56:19.011Z</time></trkpt><trkpt lat="45.045152972525955" lon="9.57428862197791"><ele>63.60000000000001</ele><time>2026-03-31T09:56:21.011Z</time></trkpt><trkpt lat="45.04519438486655" lon="9.574425494364432"><ele>63.800000000000004</ele><time>2026-03-31T09:56:23.011Z</time></trkpt><trkpt lat="45.045232028658994" lon="9.574574486289007"><ele>64.0</ele><time>2026-03-31T09:56:25.011Z</time></trkpt><trkpt lat="45.04528735247176" lon="9.574707025415092"><ele>64.0</ele><time>2026-03-31T09:56:27.011Z</time></trkpt><trkpt lat="45.04532751210826" lon="9.574838144726176"><ele>64.0</ele><time>2026-03-31T09:56:29.011Z</time></trkpt><trkpt lat="45.04537448973728" lon="9.574989682008255"><ele>64.0</ele><time>2026-03-31T09:56:31.011Z</time></trkpt><trkpt lat="45.045420474483365" lon="9.575134610463305"><ele>64.0</ele><time>2026-03-31T09:56:33.011Z</time></trkpt><trkpt lat="45.04547789829451" lon="9.575281191411166"><ele>64.0</ele><time>2026-03-31T09:56:35.011Z</time></trkpt><trkpt lat="45.04550768889552" lon="9.575360115505841"><ele>63.83333333333333</ele><time>2026-03-31T09:56:36.011Z</time></trkpt><trkpt lat="45.04552874336702" lon="9.575446289036595"><ele>63.666666666666664</ele><time>2026-03-31T09:56:37.011Z</time></trkpt><trkpt lat="45.0455551763899" lon="9.575528774965337"><ele>63.5</ele><time>2026-03-31T09:56:38.011Z</time></trkpt><trkpt lat="45.0456103759904" lon="9.575689066508097"><ele>63.33333333333333</ele><time>2026-03-31T09:56:40.011Z</time></trkpt><trkpt lat="45.045659630152805" lon="9.575853963934007"><ele>63.166666666666664</ele><time>2026-03-31T09:56:42.011Z</time></trkpt><trkpt lat="45.045686841610085" lon="9.575935117790744"><ele>63.0</ele><time>2026-03-31T09:56:43.011Z</time></trkpt><trkpt lat="45.045715155915794" lon="9.57601685346871"><ele>63.0</ele><time>2026-03-31T09:56:44.011Z</time></trkpt><trkpt lat="45.04574493953339" lon="9.576097874252113"><ele>63.0</ele><time>2026-03-31T09:56:45.011Z</time></trkpt><trkpt lat="45.04579797190523" lon="9.576259248926767"><ele>63.0</ele><time>2026-03-31T09:56:47.011Z</time></trkpt><trkpt lat="45.04582708682214" lon="9.576338923273418"><ele>63.0</ele><time>2026-03-31T09:56:48.011Z</time></trkpt><trkpt lat="45.04584873058884" lon="9.576424157614786"><ele>63.0</ele><time>2026-03-31T09:56:49.011Z</time></trkpt><trkpt lat="45.045875856139716" lon="9.576509459474657"><ele>63.0</ele><time>2026-03-31T09:56:50.011Z</time></trkpt><trkpt lat="45.04590621487683" lon="9.576596720846553"><ele>62.85714285714286</ele><time>2026-03-31T09:56:51.011Z</time></trkpt><trkpt lat="45.04593466673579" lon="9.576682785683984"><ele>62.714285714285715</ele><time>2026-03-31T09:56:52.011Z</time></trkpt><trkpt lat="45.045961158775235" lon="9.576765233817243"><ele>62.57142857142857</ele><time>2026-03-31T09:56:53.011Z</time></trkpt><trkpt lat="45.04599139946747" lon="9.57684994396373"><ele>62.42857142857143</ele><time>2026-03-31T09:56:54.011Z</time></trkpt><trkpt lat="45.04602012512496" lon="9.576935676518017"><ele>62.28571428571429</ele><time>2026-03-31T09:56:55.011Z</time></trkpt><trkpt lat="45.046046917058995" lon="9.577020863912637"><ele>62.142857142857146</ele><time>2026-03-31T09:56:56.011Z</time></trkpt><trkpt lat="45.046076074732646" lon="9.57710504759628"><ele>62.0</ele><time>2026-03-31T09:56:57.011Z</time></trkpt><trkpt lat="45.046105604987375" lon="9.577189055765231"><ele>61.833333333333336</ele><time>2026-03-31T09:56:58.011Z</time></trkpt><trkpt lat="45.04616004613012" lon="9.577357959992506"><ele>61.66666666666667</ele><time>2026-03-31T09:57:00.011Z</time></trkpt><trkpt lat="45.04618664134931" lon="9.577447331367773"><ele>61.5</ele><time>2026-03-31T09:57:01.011Z</time></trkpt><trkpt lat="45.04621935792369" lon="9.57753495194937"><ele>61.33333333333333</ele><time>2026-03-31T09:57:02.011Z</time></trkpt><trkpt lat="45.046248850211015" lon="9.577620533804069"><ele>61.166666666666664</ele><time>2026-03-31T09:57:03.011Z</time></trkpt><trkpt lat="45.04627193755032" lon="9.57770772432857"><ele>61.0</ele><time>2026-03-31T09:57:04.011Z</time></trkpt><trkpt lat="45.04630280714641" lon="9.577794362177169"><ele>61.14285714285714</ele><time>2026-03-31T09:57:05.011Z</time></trkpt><trkpt lat="45.046329566226454" lon="9.57788557424007"><ele>61.285714285714285</ele><time>2026-03-31T09:57:06.011Z</time></trkpt><trkpt lat="45.04636086227046" lon="9.577969495211693"><ele>61.42857142857143</ele><time>2026-03-31T09:57:07.011Z</time></trkpt><trkpt lat="45.046380552138004" lon="9.578059992040414"><ele>61.57142857142857</ele><time>2026-03-31T09:57:08.011Z</time></trkpt><trkpt lat="45.04640665677268" lon="9.578152370640513"><ele>61.71428571428572</ele><time>2026-03-31T09:57:09.011Z</time></trkpt><trkpt lat="45.04643537232193" lon="9.578252182299831"><ele>61.85714285714286</ele><time>2026-03-31T09:57:10.011Z</time></trkpt><trkpt lat="45.04646766349545" lon="9.578348052209154"><ele>62.0</ele><time>2026-03-31T09:57:11.011Z</time></trkpt><trkpt lat="45.046496741771655" lon="9.578443247501742"><ele>62.0</ele><time>2026-03-31T09:57:12.011Z</time></trkpt><trkpt lat="45.0465242821225" lon="9.578539099617403"><ele>62.00000000000001</ele><time>2026-03-31T09:57:13.011Z</time></trkpt><trkpt lat="45.04655553262482" lon="9.578630403045668"><ele>62.0</ele><time>2026-03-31T09:57:14.011Z</time></trkpt><trkpt lat="45.04658461437086" lon="9.578725721845794"><ele>62.0</ele><time>2026-03-31T09:57:15.011Z</time></trkpt><trkpt lat="45.046617176867244" lon="9.578813973349405"><ele>62.00000000000001</ele><time>2026-03-31T09:57:16.011Z</time></trkpt><trkpt lat="45.046642866374086" lon="9.578903438580644"><ele>62.0</ele><time>2026-03-31T09:57:17.011Z</time></trkpt><trkpt lat="45.04667506051547" lon="9.578993234638968"><ele>62.0</ele><time>2026-03-31T09:57:18.011Z</time></trkpt><trkpt lat="45.046711368696315" lon="9.57908316717556"><ele>62.0</ele><time>2026-03-31T09:57:19.011Z</time></trkpt><trkpt lat="45.046743111528755" lon="9.579168816231112"><ele>62.00000000000001</ele><time>2026-03-31T09:57:20.011Z</time></trkpt><trkpt lat="45.04678222408057" lon="9.579252244768583"><ele>62.0</ele><time>2026-03-31T09:57:21.011Z</time></trkpt><trkpt lat="45.046820243316034" lon="9.579333222400669"><ele>62.0</ele><time>2026-03-31T09:57:22.011Z</time></trkpt><trkpt lat="45.04685517347127" lon="9.579423586733219"><ele>62.00000000000001</ele><time>2026-03-31T09:57:23.011Z</time></trkpt><trkpt lat="45.046889287204586" lon="9.579519568558126"><ele>62.0</ele><time>2026-03-31T09:57:24.011Z</time></trkpt><trkpt lat="45.046929468704874" lon="9.57960596787265"><ele>62.0</ele><time>2026-03-31T09:57:25.011Z</time></trkpt><trkpt lat="45.046966945527636" lon="9.57969706799952"><ele>62.0</ele><time>2026-03-31T09:57:26.011Z</time></trkpt><trkpt lat="45.04700108616221" lon="9.579783601369252"><ele>62.00000000000001</ele><time>2026-03-31T09:57:27.011Z</time></trkpt><trkpt lat="45.047040435708176" lon="9.579870841038671"><ele>62.0</ele><time>2026-03-31T09:57:28.011Z</time></trkpt><trkpt lat="45.04708044234373" lon="9.579956255316802"><ele>62.0</ele><time>2026-03-31T09:57:29.011Z</time></trkpt><trkpt lat="45.04711879202876" lon="9.580039839391938"><ele>62.00000000000001</ele><time>2026-03-31T09:57:30.012Z</time></trkpt><trkpt lat="45.047155766101966" lon="9.580125729021914"><ele>62.0</ele><time>2026-03-31T09:57:31.011Z</time></trkpt><trkpt lat="45.04719347794374" lon="9.580211144458627"><ele>62.0</ele><time>2026-03-31T09:57:32.011Z</time></trkpt><trkpt lat="45.04722956759485" lon="9.580291599120075"><ele>62.0</ele><time>2026-03-31T09:57:33.011Z</time></trkpt><trkpt lat="45.047268393537" lon="9.580377709029108"><ele>62.00000000000001</ele><time>2026-03-31T09:57:34.011Z</time></trkpt><trkpt lat="45.047306646496324" lon="9.580471916600219"><ele>62.0</ele><time>2026-03-31T09:57:35.011Z</time></trkpt><trkpt lat="45.04734407426173" lon="9.580555208465181"><ele>62.0</ele><time>2026-03-31T09:57:36.011Z</time></trkpt><trkpt lat="45.04737809724032" lon="9.580645347885808"><ele>62.00000000000001</ele><time>2026-03-31T09:57:37.011Z</time></trkpt><trkpt lat="45.047407484505825" lon="9.580733190250562"><ele>62.0</ele><time>2026-03-31T09:57:38.011Z</time></trkpt><trkpt lat="45.04744063146103" lon="9.58082499797441"><ele>62.0</ele><time>2026-03-31T09:57:39.012Z</time></trkpt><trkpt lat="45.047475793926495" lon="9.580916226180813"><ele>62.0</ele><time>2026-03-31T09:57:40.011Z</time></trkpt><trkpt lat="45.0475100475944" lon="9.5810043646515"><ele>62.00000000000001</ele><time>2026-03-31T09:57:41.011Z</time></trkpt><trkpt lat="45.047545016440665" lon="9.581089422571553"><ele>62.0</ele><time>2026-03-31T09:57:42.011Z</time></trkpt><trkpt lat="45.047580372676364" lon="9.581177316032111"><ele>62.0</ele><time>2026-03-31T09:57:43.011Z</time></trkpt><trkpt lat="45.04761890159816" lon="9.581257686034167"><ele>62.00000000000001</ele><time>2026-03-31T09:57:44.011Z</time></trkpt><trkpt lat="45.04765119888489" lon="9.581338884987222"><ele>62.0</ele><time>2026-03-31T09:57:45.011Z</time></trkpt><trkpt lat="45.04769075107268" lon="9.581423122334876"><ele>62.0</ele><time>2026-03-31T09:57:46.011Z</time></trkpt><trkpt lat="45.047729574699176" lon="9.581512448237556"><ele>63.0</ele><time>2026-03-31T09:57:47.011Z</time></trkpt><trkpt lat="45.047765135492476" lon="9.581597234052515"><ele>63.0</ele><time>2026-03-31T09:57:48.011Z</time></trkpt><trkpt lat="45.047796966600686" lon="9.581682956042426"><ele>63.0</ele><time>2026-03-31T09:57:49.011Z</time></trkpt><trkpt lat="45.04783315858292" lon="9.581769060857003"><ele>63.0</ele><time>2026-03-31T09:57:50.011Z</time></trkpt><trkpt lat="45.047874576344924" lon="9.581848163212015"><ele>63.0</ele><time>2026-03-31T09:57:51.011Z</time></trkpt><trkpt lat="45.04791474744504" lon="9.581939658244433"><ele>63.0</ele><time>2026-03-31T09:57:52.011Z</time></trkpt><trkpt lat="45.047950137508714" lon="9.582023358837825"><ele>63.0</ele><time>2026-03-31T09:57:53.011Z</time></trkpt></trkseg></trk></gpx>